<?xml version="1.0" encoding="UTF-8" standalone="yes"?>
<gpx version="1.1" creator="MagicMaps Scout" xmlns:xsi="http://www.w3.org/2001/XMLSchema-instance" xmlns="http://www.topografix.com/GPX/1/1" xsi:schemaLocation="http://www.topografix.com/GPX/1/1 http://www.topografix.com/GPX/1/1/gpx.xsd"><trk><name>Toskana II</name><trkseg><trkpt lat="43.61792" lon="11.80790"><ele>400</ele><time>2012-05-28T11:27:07Z</time></trkpt><trkpt lat="43.61794" lon="11.80781"><ele>399</ele><time>2012-05-28T11:27:08Z</time></trkpt><trkpt lat="43.61803" lon="11.80773"><ele>419</ele><time>2012-05-28T11:27:09Z</time></trkpt><trkpt lat="43.61805" lon="11.80780"><ele>416</ele><time>2012-05-28T11:27:12Z</time></trkpt><trkpt lat="43.61807" lon="11.80772"><ele>396</ele><time>2012-05-28T11:27:14Z</time></trkpt><trkpt lat="43.61804" lon="11.80781"><ele>400</ele><time>2012-05-28T11:27:15Z</time></trkpt><trkpt lat="43.61803" lon="11.80800"><ele>401</ele><time>2012-05-28T11:27:17Z</time></trkpt><trkpt lat="43.61785" lon="11.80780"><ele>416</ele><time>2012-05-28T11:27:20Z</time></trkpt><trkpt lat="43.61782" lon="11.80770"><ele>422</ele><time>2012-05-28T11:27:21Z</time></trkpt><trkpt lat="43.61788" lon="11.80771"><ele>412</ele><time>2012-05-28T11:27:24Z</time></trkpt><trkpt lat="43.61790" lon="11.80770"><ele>407</ele><time>2012-05-28T11:27:32Z</time></trkpt><trkpt lat="43.61792" lon="11.80769"><ele>398</ele><time>2012-05-28T11:27:35Z</time></trkpt><trkpt lat="43.61795" lon="11.80768"><ele>393</ele><time>2012-05-28T11:27:41Z</time></trkpt><trkpt lat="43.61794" lon="11.80765"><ele>389</ele><time>2012-05-28T11:27:43Z</time></trkpt><trkpt lat="43.61794" lon="11.80760"><ele>383</ele><time>2012-05-28T11:27:44Z</time></trkpt><trkpt lat="43.61795" lon="11.80757"><ele>381</ele><time>2012-05-28T11:27:47Z</time></trkpt><trkpt lat="43.61796" lon="11.80745"><ele>378</ele><time>2012-05-28T11:28:00Z</time></trkpt><trkpt lat="43.61799" lon="11.80744"><ele>376</ele><time>2012-05-28T11:28:06Z</time></trkpt><trkpt lat="43.61801" lon="11.80741"><ele>376</ele><time>2012-05-28T11:28:08Z</time></trkpt><trkpt lat="43.61801" lon="11.80745"><ele>376</ele><time>2012-05-28T11:28:15Z</time></trkpt><trkpt lat="43.61799" lon="11.80749"><ele>379</ele><time>2012-05-28T11:28:19Z</time></trkpt><trkpt lat="43.61796" lon="11.80751"><ele>377</ele><time>2012-05-28T11:28:26Z</time></trkpt><trkpt lat="43.61795" lon="11.80753"><ele>377</ele><time>2012-05-28T11:28:36Z</time></trkpt><trkpt lat="43.61793" lon="11.80757"><ele>377</ele><time>2012-05-28T11:28:42Z</time></trkpt><trkpt lat="43.61791" lon="11.80758"><ele>380</ele><time>2012-05-28T11:28:46Z</time></trkpt><trkpt lat="43.61792" lon="11.80755"><ele>381</ele><time>2012-05-28T11:29:06Z</time></trkpt><trkpt lat="43.61790" lon="11.80755"><ele>382</ele><time>2012-05-28T11:29:11Z</time></trkpt><trkpt lat="43.61787" lon="11.80757"><ele>380</ele><time>2012-05-28T11:29:12Z</time></trkpt><trkpt lat="43.61780" lon="11.80766"><ele>381</ele><time>2012-05-28T11:29:15Z</time></trkpt><trkpt lat="43.61777" lon="11.80771"><ele>381</ele><time>2012-05-28T11:29:16Z</time></trkpt><trkpt lat="43.61762" lon="11.80794"><ele>382</ele><time>2012-05-28T11:29:20Z</time></trkpt><trkpt lat="43.61757" lon="11.80800"><ele>382</ele><time>2012-05-28T11:29:22Z</time></trkpt><trkpt lat="43.61752" lon="11.80804"><ele>381</ele><time>2012-05-28T11:29:23Z</time></trkpt><trkpt lat="43.61747" lon="11.80807"><ele>381</ele><time>2012-05-28T11:29:24Z</time></trkpt><trkpt lat="43.61734" lon="11.80796"><ele>380</ele><time>2012-05-28T11:29:25Z</time></trkpt><trkpt lat="43.61722" lon="11.80786"><ele>379</ele><time>2012-05-28T11:29:27Z</time></trkpt><trkpt lat="43.61719" lon="11.80782"><ele>378</ele><time>2012-05-28T11:29:28Z</time></trkpt><trkpt lat="43.61715" lon="11.80779"><ele>377</ele><time>2012-05-28T11:29:29Z</time></trkpt><trkpt lat="43.61711" lon="11.80779"><ele>377</ele><time>2012-05-28T11:29:30Z</time></trkpt><trkpt lat="43.61706" lon="11.80780"><ele>375</ele><time>2012-05-28T11:29:31Z</time></trkpt><trkpt lat="43.61702" lon="11.80779"><ele>375</ele><time>2012-05-28T11:29:32Z</time></trkpt><trkpt lat="43.61698" lon="11.80781"><ele>374</ele><time>2012-05-28T11:29:33Z</time></trkpt><trkpt lat="43.61691" lon="11.80786"><ele>373</ele><time>2012-05-28T11:29:35Z</time></trkpt><trkpt lat="43.61688" lon="11.80789"><ele>373</ele><time>2012-05-28T11:29:36Z</time></trkpt><trkpt lat="43.61687" lon="11.80794"><ele>372</ele><time>2012-05-28T11:29:37Z</time></trkpt><trkpt lat="43.61686" lon="11.80800"><ele>372</ele><time>2012-05-28T11:29:38Z</time></trkpt><trkpt lat="43.61687" lon="11.80807"><ele>372</ele><time>2012-05-28T11:29:39Z</time></trkpt><trkpt lat="43.61689" lon="11.80820"><ele>370</ele><time>2012-05-28T11:29:41Z</time></trkpt><trkpt lat="43.61690" lon="11.80833"><ele>371</ele><time>2012-05-28T11:29:43Z</time></trkpt><trkpt lat="43.61689" lon="11.80838"><ele>371</ele><time>2012-05-28T11:29:44Z</time></trkpt><trkpt lat="43.61686" lon="11.80841"><ele>369</ele><time>2012-05-28T11:29:45Z</time></trkpt><trkpt lat="43.61682" lon="11.80843"><ele>369</ele><time>2012-05-28T11:29:46Z</time></trkpt><trkpt lat="43.61678" lon="11.80844"><ele>368</ele><time>2012-05-28T11:29:47Z</time></trkpt><trkpt lat="43.61664" lon="11.80839"><ele>368</ele><time>2012-05-28T11:29:48Z</time></trkpt><trkpt lat="43.61659" lon="11.80839"><ele>367</ele><time>2012-05-28T11:29:49Z</time></trkpt><trkpt lat="43.61643" lon="11.80845"><ele>359</ele><time>2012-05-28T11:29:52Z</time></trkpt><trkpt lat="43.61636" lon="11.80851"><ele>357</ele><time>2012-05-28T11:29:53Z</time></trkpt><trkpt lat="43.61629" lon="11.80853"><ele>350</ele><time>2012-05-28T11:29:55Z</time></trkpt><trkpt lat="43.61622" lon="11.80860"><ele>350</ele><time>2012-05-28T11:29:56Z</time></trkpt><trkpt lat="43.61606" lon="11.80863"><ele>346</ele><time>2012-05-28T11:29:58Z</time></trkpt><trkpt lat="43.61600" lon="11.80867"><ele>346</ele><time>2012-05-28T11:29:59Z</time></trkpt><trkpt lat="43.61589" lon="11.80868"><ele>345</ele><time>2012-05-28T11:30:01Z</time></trkpt><trkpt lat="43.61586" lon="11.80868"><ele>344</ele><time>2012-05-28T11:30:02Z</time></trkpt><trkpt lat="43.61582" lon="11.80865"><ele>344</ele><time>2012-05-28T11:30:03Z</time></trkpt><trkpt lat="43.61578" lon="11.80860"><ele>343</ele><time>2012-05-28T11:30:04Z</time></trkpt><trkpt lat="43.61561" lon="11.80839"><ele>342</ele><time>2012-05-28T11:30:07Z</time></trkpt><trkpt lat="43.61558" lon="11.80828"><ele>342</ele><time>2012-05-28T11:30:08Z</time></trkpt><trkpt lat="43.61555" lon="11.80821"><ele>341</ele><time>2012-05-28T11:30:09Z</time></trkpt><trkpt lat="43.61549" lon="11.80821"><ele>343</ele><time>2012-05-28T11:30:11Z</time></trkpt><trkpt lat="43.61547" lon="11.80820"><ele>344</ele><time>2012-05-28T11:30:12Z</time></trkpt><trkpt lat="43.61545" lon="11.80817"><ele>345</ele><time>2012-05-28T11:30:13Z</time></trkpt><trkpt lat="43.61542" lon="11.80812"><ele>345</ele><time>2012-05-28T11:30:14Z</time></trkpt><trkpt lat="43.61540" lon="11.80806"><ele>345</ele><time>2012-05-28T11:30:15Z</time></trkpt><trkpt lat="43.61538" lon="11.80797"><ele>344</ele><time>2012-05-28T11:30:16Z</time></trkpt><trkpt lat="43.61536" lon="11.80787"><ele>344</ele><time>2012-05-28T11:30:17Z</time></trkpt><trkpt lat="43.61536" lon="11.80760"><ele>341</ele><time>2012-05-28T11:30:19Z</time></trkpt><trkpt lat="43.61535" lon="11.80752"><ele>341</ele><time>2012-05-28T11:30:20Z</time></trkpt><trkpt lat="43.61533" lon="11.80744"><ele>342</ele><time>2012-05-28T11:30:21Z</time></trkpt><trkpt lat="43.61531" lon="11.80732"><ele>343</ele><time>2012-05-28T11:30:22Z</time></trkpt><trkpt lat="43.61531" lon="11.80723"><ele>343</ele><time>2012-05-28T11:30:23Z</time></trkpt><trkpt lat="43.61530" lon="11.80715"><ele>343</ele><time>2012-05-28T11:30:24Z</time></trkpt><trkpt lat="43.61533" lon="11.80707"><ele>344</ele><time>2012-05-28T11:30:25Z</time></trkpt><trkpt lat="43.61534" lon="11.80702"><ele>344</ele><time>2012-05-28T11:30:26Z</time></trkpt><trkpt lat="43.61524" lon="11.80695"><ele>341</ele><time>2012-05-28T11:30:29Z</time></trkpt><trkpt lat="43.61514" lon="11.80691"><ele>340</ele><time>2012-05-28T11:30:30Z</time></trkpt><trkpt lat="43.61509" lon="11.80703"><ele>341</ele><time>2012-05-28T11:30:31Z</time></trkpt><trkpt lat="43.61508" lon="11.80707"><ele>341</ele><time>2012-05-28T11:30:33Z</time></trkpt><trkpt lat="43.61510" lon="11.80709"><ele>340</ele><time>2012-05-28T11:30:35Z</time></trkpt><trkpt lat="43.61508" lon="11.80710"><ele>339</ele><time>2012-05-28T11:30:37Z</time></trkpt><trkpt lat="43.61507" lon="11.80704"><ele>337</ele><time>2012-05-28T11:30:38Z</time></trkpt><trkpt lat="43.61506" lon="11.80700"><ele>336</ele><time>2012-05-28T11:30:41Z</time></trkpt><trkpt lat="43.61506" lon="11.80694"><ele>334</ele><time>2012-05-28T11:30:43Z</time></trkpt><trkpt lat="43.61504" lon="11.80677"><ele>333</ele><time>2012-05-28T11:30:47Z</time></trkpt><trkpt lat="43.61503" lon="11.80674"><ele>333</ele><time>2012-05-28T11:30:48Z</time></trkpt><trkpt lat="43.61502" lon="11.80671"><ele>333</ele><time>2012-05-28T11:30:49Z</time></trkpt><trkpt lat="43.61502" lon="11.80667"><ele>332</ele><time>2012-05-28T11:30:50Z</time></trkpt><trkpt lat="43.61501" lon="11.80663"><ele>332</ele><time>2012-05-28T11:30:52Z</time></trkpt><trkpt lat="43.61500" lon="11.80655"><ele>332</ele><time>2012-05-28T11:30:53Z</time></trkpt><trkpt lat="43.61497" lon="11.80643"><ele>332</ele><time>2012-05-28T11:30:57Z</time></trkpt><trkpt lat="43.61496" lon="11.80637"><ele>331</ele><time>2012-05-28T11:30:58Z</time></trkpt><trkpt lat="43.61495" lon="11.80633"><ele>330</ele><time>2012-05-28T11:30:59Z</time></trkpt><trkpt lat="43.61492" lon="11.80614"><ele>331</ele><time>2012-05-28T11:31:02Z</time></trkpt><trkpt lat="43.61491" lon="11.80601"><ele>330</ele><time>2012-05-28T11:31:03Z</time></trkpt><trkpt lat="43.61490" lon="11.80594"><ele>330</ele><time>2012-05-28T11:31:04Z</time></trkpt><trkpt lat="43.61489" lon="11.80585"><ele>330</ele><time>2012-05-28T11:31:05Z</time></trkpt><trkpt lat="43.61487" lon="11.80577"><ele>330</ele><time>2012-05-28T11:31:06Z</time></trkpt><trkpt lat="43.61484" lon="11.80561"><ele>331</ele><time>2012-05-28T11:31:08Z</time></trkpt><trkpt lat="43.61482" lon="11.80554"><ele>331</ele><time>2012-05-28T11:31:09Z</time></trkpt><trkpt lat="43.61480" lon="11.80547"><ele>331</ele><time>2012-05-28T11:31:10Z</time></trkpt><trkpt lat="43.61478" lon="11.80540"><ele>331</ele><time>2012-05-28T11:31:11Z</time></trkpt><trkpt lat="43.61476" lon="11.80535"><ele>331</ele><time>2012-05-28T11:31:12Z</time></trkpt><trkpt lat="43.61474" lon="11.80526"><ele>331</ele><time>2012-05-28T11:31:13Z</time></trkpt><trkpt lat="43.61473" lon="11.80515"><ele>331</ele><time>2012-05-28T11:31:14Z</time></trkpt><trkpt lat="43.61470" lon="11.80496"><ele>330</ele><time>2012-05-28T11:31:16Z</time></trkpt><trkpt lat="43.61469" lon="11.80486"><ele>331</ele><time>2012-05-28T11:31:17Z</time></trkpt><trkpt lat="43.61467" lon="11.80465"><ele>332</ele><time>2012-05-28T11:31:19Z</time></trkpt><trkpt lat="43.61464" lon="11.80444"><ele>332</ele><time>2012-05-28T11:31:21Z</time></trkpt><trkpt lat="43.61458" lon="11.80390"><ele>330</ele><time>2012-05-28T11:31:27Z</time></trkpt><trkpt lat="43.61458" lon="11.80380"><ele>329</ele><time>2012-05-28T11:31:28Z</time></trkpt><trkpt lat="43.61456" lon="11.80371"><ele>330</ele><time>2012-05-28T11:31:29Z</time></trkpt><trkpt lat="43.61452" lon="11.80364"><ele>330</ele><time>2012-05-28T11:31:30Z</time></trkpt><trkpt lat="43.61450" lon="11.80353"><ele>330</ele><time>2012-05-28T11:31:31Z</time></trkpt><trkpt lat="43.61448" lon="11.80344"><ele>331</ele><time>2012-05-28T11:31:32Z</time></trkpt><trkpt lat="43.61444" lon="11.80327"><ele>331</ele><time>2012-05-28T11:31:34Z</time></trkpt><trkpt lat="43.61443" lon="11.80319"><ele>331</ele><time>2012-05-28T11:31:35Z</time></trkpt><trkpt lat="43.61437" lon="11.80286"><ele>330</ele><time>2012-05-28T11:31:40Z</time></trkpt><trkpt lat="43.61432" lon="11.80271"><ele>330</ele><time>2012-05-28T11:31:41Z</time></trkpt><trkpt lat="43.61431" lon="11.80262"><ele>330</ele><time>2012-05-28T11:31:42Z</time></trkpt><trkpt lat="43.61431" lon="11.80252"><ele>330</ele><time>2012-05-28T11:31:43Z</time></trkpt><trkpt lat="43.61430" lon="11.80234"><ele>329</ele><time>2012-05-28T11:31:45Z</time></trkpt><trkpt lat="43.61429" lon="11.80226"><ele>329</ele><time>2012-05-28T11:31:46Z</time></trkpt><trkpt lat="43.61424" lon="11.80210"><ele>330</ele><time>2012-05-28T11:31:48Z</time></trkpt><trkpt lat="43.61422" lon="11.80201"><ele>331</ele><time>2012-05-28T11:31:49Z</time></trkpt><trkpt lat="43.61420" lon="11.80182"><ele>331</ele><time>2012-05-28T11:31:51Z</time></trkpt><trkpt lat="43.61419" lon="11.80161"><ele>332</ele><time>2012-05-28T11:31:53Z</time></trkpt><trkpt lat="43.61419" lon="11.80151"><ele>333</ele><time>2012-05-28T11:31:54Z</time></trkpt><trkpt lat="43.61421" lon="11.80142"><ele>333</ele><time>2012-05-28T11:31:55Z</time></trkpt><trkpt lat="43.61421" lon="11.80132"><ele>333</ele><time>2012-05-28T11:31:56Z</time></trkpt><trkpt lat="43.61419" lon="11.80123"><ele>334</ele><time>2012-05-28T11:31:57Z</time></trkpt><trkpt lat="43.61420" lon="11.80114"><ele>334</ele><time>2012-05-28T11:31:58Z</time></trkpt><trkpt lat="43.61420" lon="11.80104"><ele>334</ele><time>2012-05-28T11:31:59Z</time></trkpt><trkpt lat="43.61419" lon="11.80096"><ele>334</ele><time>2012-05-28T11:32:00Z</time></trkpt><trkpt lat="43.61415" lon="11.80086"><ele>333</ele><time>2012-05-28T11:32:01Z</time></trkpt><trkpt lat="43.61413" lon="11.80079"><ele>334</ele><time>2012-05-28T11:32:02Z</time></trkpt><trkpt lat="43.61411" lon="11.80071"><ele>334</ele><time>2012-05-28T11:32:03Z</time></trkpt><trkpt lat="43.61406" lon="11.80056"><ele>335</ele><time>2012-05-28T11:32:05Z</time></trkpt><trkpt lat="43.61403" lon="11.80045"><ele>335</ele><time>2012-05-28T11:32:06Z</time></trkpt><trkpt lat="43.61400" lon="11.80037"><ele>335</ele><time>2012-05-28T11:32:07Z</time></trkpt><trkpt lat="43.61398" lon="11.80027"><ele>335</ele><time>2012-05-28T11:32:08Z</time></trkpt><trkpt lat="43.61395" lon="11.80010"><ele>334</ele><time>2012-05-28T11:32:10Z</time></trkpt><trkpt lat="43.61391" lon="11.79994"><ele>334</ele><time>2012-05-28T11:32:12Z</time></trkpt><trkpt lat="43.61388" lon="11.79975"><ele>334</ele><time>2012-05-28T11:32:14Z</time></trkpt><trkpt lat="43.61385" lon="11.79966"><ele>334</ele><time>2012-05-28T11:32:15Z</time></trkpt><trkpt lat="43.61383" lon="11.79958"><ele>334</ele><time>2012-05-28T11:32:16Z</time></trkpt><trkpt lat="43.61380" lon="11.79950"><ele>334</ele><time>2012-05-28T11:32:17Z</time></trkpt><trkpt lat="43.61377" lon="11.79940"><ele>334</ele><time>2012-05-28T11:32:18Z</time></trkpt><trkpt lat="43.61375" lon="11.79935"><ele>334</ele><time>2012-05-28T11:32:19Z</time></trkpt><trkpt lat="43.61370" lon="11.79930"><ele>333</ele><time>2012-05-28T11:32:20Z</time></trkpt><trkpt lat="43.61370" lon="11.79921"><ele>333</ele><time>2012-05-28T11:32:21Z</time></trkpt><trkpt lat="43.61368" lon="11.79912"><ele>332</ele><time>2012-05-28T11:32:23Z</time></trkpt><trkpt lat="43.61364" lon="11.79897"><ele>334</ele><time>2012-05-28T11:32:24Z</time></trkpt><trkpt lat="43.61365" lon="11.79889"><ele>334</ele><time>2012-05-28T11:32:25Z</time></trkpt><trkpt lat="43.61364" lon="11.79870"><ele>333</ele><time>2012-05-28T11:32:27Z</time></trkpt><trkpt lat="43.61363" lon="11.79853"><ele>333</ele><time>2012-05-28T11:32:29Z</time></trkpt><trkpt lat="43.61365" lon="11.79845"><ele>333</ele><time>2012-05-28T11:32:30Z</time></trkpt><trkpt lat="43.61364" lon="11.79837"><ele>332</ele><time>2012-05-28T11:32:31Z</time></trkpt><trkpt lat="43.61363" lon="11.79821"><ele>332</ele><time>2012-05-28T11:32:33Z</time></trkpt><trkpt lat="43.61361" lon="11.79806"><ele>332</ele><time>2012-05-28T11:32:35Z</time></trkpt><trkpt lat="43.61361" lon="11.79798"><ele>331</ele><time>2012-05-28T11:32:36Z</time></trkpt><trkpt lat="43.61358" lon="11.79784"><ele>331</ele><time>2012-05-28T11:32:38Z</time></trkpt><trkpt lat="43.61356" lon="11.79770"><ele>330</ele><time>2012-05-28T11:32:40Z</time></trkpt><trkpt lat="43.61356" lon="11.79763"><ele>330</ele><time>2012-05-28T11:32:41Z</time></trkpt><trkpt lat="43.61356" lon="11.79756"><ele>330</ele><time>2012-05-28T11:32:42Z</time></trkpt><trkpt lat="43.61355" lon="11.79750"><ele>330</ele><time>2012-05-28T11:32:43Z</time></trkpt><trkpt lat="43.61355" lon="11.79743"><ele>330</ele><time>2012-05-28T11:32:44Z</time></trkpt><trkpt lat="43.61357" lon="11.79737"><ele>329</ele><time>2012-05-28T11:32:45Z</time></trkpt><trkpt lat="43.61356" lon="11.79730"><ele>329</ele><time>2012-05-28T11:32:46Z</time></trkpt><trkpt lat="43.61357" lon="11.79724"><ele>329</ele><time>2012-05-28T11:32:47Z</time></trkpt><trkpt lat="43.61359" lon="11.79716"><ele>330</ele><time>2012-05-28T11:32:48Z</time></trkpt><trkpt lat="43.61359" lon="11.79709"><ele>330</ele><time>2012-05-28T11:32:49Z</time></trkpt><trkpt lat="43.61360" lon="11.79694"><ele>332</ele><time>2012-05-28T11:32:51Z</time></trkpt><trkpt lat="43.61360" lon="11.79687"><ele>332</ele><time>2012-05-28T11:32:52Z</time></trkpt><trkpt lat="43.61358" lon="11.79683"><ele>333</ele><time>2012-05-28T11:32:53Z</time></trkpt><trkpt lat="43.61357" lon="11.79676"><ele>333</ele><time>2012-05-28T11:32:54Z</time></trkpt><trkpt lat="43.61358" lon="11.79672"><ele>335</ele><time>2012-05-28T11:32:55Z</time></trkpt><trkpt lat="43.61358" lon="11.79659"><ele>336</ele><time>2012-05-28T11:32:57Z</time></trkpt><trkpt lat="43.61357" lon="11.79651"><ele>337</ele><time>2012-05-28T11:32:58Z</time></trkpt><trkpt lat="43.61356" lon="11.79637"><ele>338</ele><time>2012-05-28T11:33:00Z</time></trkpt><trkpt lat="43.61357" lon="11.79629"><ele>341</ele><time>2012-05-28T11:33:01Z</time></trkpt><trkpt lat="43.61356" lon="11.79622"><ele>341</ele><time>2012-05-28T11:33:02Z</time></trkpt><trkpt lat="43.61356" lon="11.79608"><ele>341</ele><time>2012-05-28T11:33:04Z</time></trkpt><trkpt lat="43.61356" lon="11.79601"><ele>341</ele><time>2012-05-28T11:33:05Z</time></trkpt><trkpt lat="43.61358" lon="11.79593"><ele>341</ele><time>2012-05-28T11:33:06Z</time></trkpt><trkpt lat="43.61361" lon="11.79585"><ele>342</ele><time>2012-05-28T11:33:07Z</time></trkpt><trkpt lat="43.61360" lon="11.79579"><ele>342</ele><time>2012-05-28T11:33:08Z</time></trkpt><trkpt lat="43.61357" lon="11.79566"><ele>344</ele><time>2012-05-28T11:33:10Z</time></trkpt><trkpt lat="43.61357" lon="11.79556"><ele>344</ele><time>2012-05-28T11:33:11Z</time></trkpt><trkpt lat="43.61359" lon="11.79547"><ele>345</ele><time>2012-05-28T11:33:12Z</time></trkpt><trkpt lat="43.61358" lon="11.79539"><ele>345</ele><time>2012-05-28T11:33:13Z</time></trkpt><trkpt lat="43.61356" lon="11.79526"><ele>346</ele><time>2012-05-28T11:33:15Z</time></trkpt><trkpt lat="43.61351" lon="11.79520"><ele>346</ele><time>2012-05-28T11:33:16Z</time></trkpt><trkpt lat="43.61349" lon="11.79515"><ele>346</ele><time>2012-05-28T11:33:17Z</time></trkpt><trkpt lat="43.61346" lon="11.79510"><ele>346</ele><time>2012-05-28T11:33:18Z</time></trkpt><trkpt lat="43.61340" lon="11.79512"><ele>346</ele><time>2012-05-28T11:33:19Z</time></trkpt><trkpt lat="43.61335" lon="11.79510"><ele>345</ele><time>2012-05-28T11:33:20Z</time></trkpt><trkpt lat="43.61330" lon="11.79512"><ele>344</ele><time>2012-05-28T11:33:22Z</time></trkpt><trkpt lat="43.61301" lon="11.79518"><ele>343</ele><time>2012-05-28T11:33:25Z</time></trkpt><trkpt lat="43.61295" lon="11.79518"><ele>341</ele><time>2012-05-28T11:33:26Z</time></trkpt><trkpt lat="43.61289" lon="11.79520"><ele>341</ele><time>2012-05-28T11:33:27Z</time></trkpt><trkpt lat="43.61277" lon="11.79524"><ele>340</ele><time>2012-05-28T11:33:29Z</time></trkpt><trkpt lat="43.61265" lon="11.79530"><ele>340</ele><time>2012-05-28T11:33:31Z</time></trkpt><trkpt lat="43.61252" lon="11.79538"><ele>336</ele><time>2012-05-28T11:33:33Z</time></trkpt><trkpt lat="43.61246" lon="11.79538"><ele>335</ele><time>2012-05-28T11:33:34Z</time></trkpt><trkpt lat="43.61242" lon="11.79541"><ele>334</ele><time>2012-05-28T11:33:35Z</time></trkpt><trkpt lat="43.61232" lon="11.79546"><ele>333</ele><time>2012-05-28T11:33:37Z</time></trkpt><trkpt lat="43.61221" lon="11.79551"><ele>333</ele><time>2012-05-28T11:33:40Z</time></trkpt><trkpt lat="43.61206" lon="11.79556"><ele>332</ele><time>2012-05-28T11:33:42Z</time></trkpt><trkpt lat="43.61198" lon="11.79559"><ele>333</ele><time>2012-05-28T11:33:44Z</time></trkpt><trkpt lat="43.61195" lon="11.79560"><ele>332</ele><time>2012-05-28T11:33:45Z</time></trkpt><trkpt lat="43.61181" lon="11.79565"><ele>333</ele><time>2012-05-28T11:33:48Z</time></trkpt><trkpt lat="43.61172" lon="11.79569"><ele>334</ele><time>2012-05-28T11:33:50Z</time></trkpt><trkpt lat="43.61136" lon="11.79583"><ele>338</ele><time>2012-05-28T11:33:58Z</time></trkpt><trkpt lat="43.61132" lon="11.79586"><ele>337</ele><time>2012-05-28T11:33:59Z</time></trkpt><trkpt lat="43.61126" lon="11.79588"><ele>337</ele><time>2012-05-28T11:34:00Z</time></trkpt><trkpt lat="43.61122" lon="11.79592"><ele>337</ele><time>2012-05-28T11:34:02Z</time></trkpt><trkpt lat="43.61112" lon="11.79595"><ele>337</ele><time>2012-05-28T11:34:03Z</time></trkpt><trkpt lat="43.61102" lon="11.79600"><ele>337</ele><time>2012-05-28T11:34:05Z</time></trkpt><trkpt lat="43.61096" lon="11.79605"><ele>337</ele><time>2012-05-28T11:34:06Z</time></trkpt><trkpt lat="43.61091" lon="11.79607"><ele>337</ele><time>2012-05-28T11:34:07Z</time></trkpt><trkpt lat="43.61086" lon="11.79607"><ele>337</ele><time>2012-05-28T11:34:08Z</time></trkpt><trkpt lat="43.61081" lon="11.79604"><ele>338</ele><time>2012-05-28T11:34:09Z</time></trkpt><trkpt lat="43.61076" lon="11.79605"><ele>338</ele><time>2012-05-28T11:34:10Z</time></trkpt><trkpt lat="43.61069" lon="11.79605"><ele>339</ele><time>2012-05-28T11:34:12Z</time></trkpt><trkpt lat="43.61060" lon="11.79601"><ele>340</ele><time>2012-05-28T11:34:14Z</time></trkpt><trkpt lat="43.61056" lon="11.79596"><ele>341</ele><time>2012-05-28T11:34:15Z</time></trkpt><trkpt lat="43.61053" lon="11.79594"><ele>340</ele><time>2012-05-28T11:34:16Z</time></trkpt><trkpt lat="43.61049" lon="11.79593"><ele>340</ele><time>2012-05-28T11:34:17Z</time></trkpt><trkpt lat="43.61047" lon="11.79586"><ele>341</ele><time>2012-05-28T11:34:18Z</time></trkpt><trkpt lat="43.61043" lon="11.79583"><ele>341</ele><time>2012-05-28T11:34:19Z</time></trkpt><trkpt lat="43.61040" lon="11.79579"><ele>341</ele><time>2012-05-28T11:34:20Z</time></trkpt><trkpt lat="43.61026" lon="11.79565"><ele>341</ele><time>2012-05-28T11:34:24Z</time></trkpt><trkpt lat="43.61017" lon="11.79562"><ele>342</ele><time>2012-05-28T11:34:26Z</time></trkpt><trkpt lat="43.61012" lon="11.79559"><ele>342</ele><time>2012-05-28T11:34:27Z</time></trkpt><trkpt lat="43.61002" lon="11.79554"><ele>343</ele><time>2012-05-28T11:34:29Z</time></trkpt><trkpt lat="43.60998" lon="11.79550"><ele>343</ele><time>2012-05-28T11:34:30Z</time></trkpt><trkpt lat="43.60992" lon="11.79549"><ele>343</ele><time>2012-05-28T11:34:31Z</time></trkpt><trkpt lat="43.60986" lon="11.79550"><ele>343</ele><time>2012-05-28T11:34:32Z</time></trkpt><trkpt lat="43.60980" lon="11.79548"><ele>343</ele><time>2012-05-28T11:34:33Z</time></trkpt><trkpt lat="43.60973" lon="11.79546"><ele>343</ele><time>2012-05-28T11:34:34Z</time></trkpt><trkpt lat="43.60960" lon="11.79538"><ele>344</ele><time>2012-05-28T11:34:36Z</time></trkpt><trkpt lat="43.60949" lon="11.79533"><ele>344</ele><time>2012-05-28T11:34:38Z</time></trkpt><trkpt lat="43.60942" lon="11.79529"><ele>344</ele><time>2012-05-28T11:34:39Z</time></trkpt><trkpt lat="43.60925" lon="11.79519"><ele>345</ele><time>2012-05-28T11:34:42Z</time></trkpt><trkpt lat="43.60920" lon="11.79512"><ele>345</ele><time>2012-05-28T11:34:43Z</time></trkpt><trkpt lat="43.60912" lon="11.79501"><ele>344</ele><time>2012-05-28T11:34:45Z</time></trkpt><trkpt lat="43.60908" lon="11.79491"><ele>343</ele><time>2012-05-28T11:34:46Z</time></trkpt><trkpt lat="43.60903" lon="11.79486"><ele>342</ele><time>2012-05-28T11:34:47Z</time></trkpt><trkpt lat="43.60897" lon="11.79484"><ele>343</ele><time>2012-05-28T11:34:48Z</time></trkpt><trkpt lat="43.60886" lon="11.79481"><ele>344</ele><time>2012-05-28T11:34:50Z</time></trkpt><trkpt lat="43.60873" lon="11.79477"><ele>346</ele><time>2012-05-28T11:34:52Z</time></trkpt><trkpt lat="43.60868" lon="11.79475"><ele>347</ele><time>2012-05-28T11:34:53Z</time></trkpt><trkpt lat="43.60856" lon="11.79471"><ele>347</ele><time>2012-05-28T11:34:55Z</time></trkpt><trkpt lat="43.60845" lon="11.79464"><ele>348</ele><time>2012-05-28T11:34:57Z</time></trkpt><trkpt lat="43.60840" lon="11.79461"><ele>349</ele><time>2012-05-28T11:34:58Z</time></trkpt><trkpt lat="43.60836" lon="11.79457"><ele>350</ele><time>2012-05-28T11:34:59Z</time></trkpt><trkpt lat="43.60832" lon="11.79451"><ele>349</ele><time>2012-05-28T11:35:00Z</time></trkpt><trkpt lat="43.60829" lon="11.79444"><ele>349</ele><time>2012-05-28T11:35:01Z</time></trkpt><trkpt lat="43.60825" lon="11.79441"><ele>348</ele><time>2012-05-28T11:35:02Z</time></trkpt><trkpt lat="43.60821" lon="11.79435"><ele>348</ele><time>2012-05-28T11:35:03Z</time></trkpt><trkpt lat="43.60818" lon="11.79426"><ele>348</ele><time>2012-05-28T11:35:04Z</time></trkpt><trkpt lat="43.60810" lon="11.79408"><ele>347</ele><time>2012-05-28T11:35:07Z</time></trkpt><trkpt lat="43.60807" lon="11.79402"><ele>347</ele><time>2012-05-28T11:35:08Z</time></trkpt><trkpt lat="43.60801" lon="11.79394"><ele>346</ele><time>2012-05-28T11:35:10Z</time></trkpt><trkpt lat="43.60797" lon="11.79391"><ele>347</ele><time>2012-05-28T11:35:11Z</time></trkpt><trkpt lat="43.60787" lon="11.79382"><ele>347</ele><time>2012-05-28T11:35:14Z</time></trkpt><trkpt lat="43.60776" lon="11.79375"><ele>349</ele><time>2012-05-28T11:35:17Z</time></trkpt><trkpt lat="43.60738" lon="11.79352"><ele>350</ele><time>2012-05-28T11:35:28Z</time></trkpt><trkpt lat="43.60724" lon="11.79340"><ele>350</ele><time>2012-05-28T11:35:33Z</time></trkpt><trkpt lat="43.60713" lon="11.79330"><ele>350</ele><time>2012-05-28T11:35:37Z</time></trkpt><trkpt lat="43.60705" lon="11.79321"><ele>350</ele><time>2012-05-28T11:35:40Z</time></trkpt><trkpt lat="43.60703" lon="11.79317"><ele>350</ele><time>2012-05-28T11:35:41Z</time></trkpt><trkpt lat="43.60701" lon="11.79312"><ele>350</ele><time>2012-05-28T11:35:42Z</time></trkpt><trkpt lat="43.60695" lon="11.79296"><ele>351</ele><time>2012-05-28T11:35:45Z</time></trkpt><trkpt lat="43.60693" lon="11.79290"><ele>351</ele><time>2012-05-28T11:35:46Z</time></trkpt><trkpt lat="43.60691" lon="11.79285"><ele>351</ele><time>2012-05-28T11:35:47Z</time></trkpt><trkpt lat="43.60681" lon="11.79252"><ele>348</ele><time>2012-05-28T11:35:53Z</time></trkpt><trkpt lat="43.60678" lon="11.79241"><ele>349</ele><time>2012-05-28T11:35:55Z</time></trkpt><trkpt lat="43.60676" lon="11.79227"><ele>350</ele><time>2012-05-28T11:35:59Z</time></trkpt><trkpt lat="43.60679" lon="11.79228"><ele>351</ele><time>2012-05-28T11:36:01Z</time></trkpt><trkpt lat="43.60681" lon="11.79229"><ele>351</ele><time>2012-05-28T11:36:02Z</time></trkpt><trkpt lat="43.60685" lon="11.79234"><ele>350</ele><time>2012-05-28T11:36:04Z</time></trkpt><trkpt lat="43.60733" lon="11.79279"><ele>353</ele><time>2012-05-28T11:36:24Z</time></trkpt><trkpt lat="43.60736" lon="11.79280"><ele>354</ele><time>2012-05-28T11:36:25Z</time></trkpt><trkpt lat="43.60744" lon="11.79284"><ele>354</ele><time>2012-05-28T11:36:28Z</time></trkpt><trkpt lat="43.60746" lon="11.79284"><ele>355</ele><time>2012-05-28T11:36:29Z</time></trkpt><trkpt lat="43.60769" lon="11.79291"><ele>358</ele><time>2012-05-28T11:36:37Z</time></trkpt><trkpt lat="43.60778" lon="11.79292"><ele>358</ele><time>2012-05-28T11:36:40Z</time></trkpt><trkpt lat="43.60781" lon="11.79291"><ele>357</ele><time>2012-05-28T11:36:41Z</time></trkpt><trkpt lat="43.60792" lon="11.79288"><ele>357</ele><time>2012-05-28T11:36:45Z</time></trkpt><trkpt lat="43.60799" lon="11.79285"><ele>358</ele><time>2012-05-28T11:36:48Z</time></trkpt><trkpt lat="43.60802" lon="11.79281"><ele>359</ele><time>2012-05-28T11:36:50Z</time></trkpt><trkpt lat="43.60804" lon="11.79280"><ele>360</ele><time>2012-05-28T11:36:51Z</time></trkpt><trkpt lat="43.60811" lon="11.79273"><ele>364</ele><time>2012-05-28T11:36:55Z</time></trkpt><trkpt lat="43.60813" lon="11.79269"><ele>365</ele><time>2012-05-28T11:36:57Z</time></trkpt><trkpt lat="43.60815" lon="11.79260"><ele>367</ele><time>2012-05-28T11:37:01Z</time></trkpt><trkpt lat="43.60819" lon="11.79247"><ele>372</ele><time>2012-05-28T11:37:07Z</time></trkpt><trkpt lat="43.60825" lon="11.79237"><ele>374</ele><time>2012-05-28T11:37:11Z</time></trkpt><trkpt lat="43.60827" lon="11.79236"><ele>373</ele><time>2012-05-28T11:37:12Z</time></trkpt><trkpt lat="43.60830" lon="11.79234"><ele>374</ele><time>2012-05-28T11:37:13Z</time></trkpt><trkpt lat="43.60841" lon="11.79228"><ele>374</ele><time>2012-05-28T11:37:17Z</time></trkpt><trkpt lat="43.60845" lon="11.79227"><ele>374</ele><time>2012-05-28T11:37:19Z</time></trkpt><trkpt lat="43.60848" lon="11.79230"><ele>374</ele><time>2012-05-28T11:37:21Z</time></trkpt><trkpt lat="43.60850" lon="11.79233"><ele>374</ele><time>2012-05-28T11:37:22Z</time></trkpt><trkpt lat="43.60851" lon="11.79236"><ele>373</ele><time>2012-05-28T11:37:23Z</time></trkpt><trkpt lat="43.60856" lon="11.79248"><ele>373</ele><time>2012-05-28T11:37:26Z</time></trkpt><trkpt lat="43.60857" lon="11.79251"><ele>373</ele><time>2012-05-28T11:37:27Z</time></trkpt><trkpt lat="43.60858" lon="11.79254"><ele>373</ele><time>2012-05-28T11:37:28Z</time></trkpt><trkpt lat="43.60861" lon="11.79260"><ele>375</ele><time>2012-05-28T11:37:31Z</time></trkpt><trkpt lat="43.60863" lon="11.79262"><ele>374</ele><time>2012-05-28T11:37:33Z</time></trkpt><trkpt lat="43.60866" lon="11.79263"><ele>374</ele><time>2012-05-28T11:37:35Z</time></trkpt><trkpt lat="43.60869" lon="11.79263"><ele>376</ele><time>2012-05-28T11:37:37Z</time></trkpt><trkpt lat="43.60872" lon="11.79261"><ele>378</ele><time>2012-05-28T11:37:39Z</time></trkpt><trkpt lat="43.60876" lon="11.79259"><ele>378</ele><time>2012-05-28T11:37:41Z</time></trkpt><trkpt lat="43.60881" lon="11.79256"><ele>378</ele><time>2012-05-28T11:37:44Z</time></trkpt><trkpt lat="43.60883" lon="11.79255"><ele>378</ele><time>2012-05-28T11:37:46Z</time></trkpt><trkpt lat="43.60887" lon="11.79254"><ele>376</ele><time>2012-05-28T11:37:48Z</time></trkpt><trkpt lat="43.60890" lon="11.79254"><ele>377</ele><time>2012-05-28T11:37:50Z</time></trkpt><trkpt lat="43.60894" lon="11.79255"><ele>376</ele><time>2012-05-28T11:37:52Z</time></trkpt><trkpt lat="43.60904" lon="11.79258"><ele>378</ele><time>2012-05-28T11:37:57Z</time></trkpt><trkpt lat="43.60912" lon="11.79259"><ele>377</ele><time>2012-05-28T11:38:01Z</time></trkpt><trkpt lat="43.60916" lon="11.79258"><ele>377</ele><time>2012-05-28T11:38:03Z</time></trkpt><trkpt lat="43.60920" lon="11.79257"><ele>377</ele><time>2012-05-28T11:38:05Z</time></trkpt><trkpt lat="43.60930" lon="11.79253"><ele>378</ele><time>2012-05-28T11:38:12Z</time></trkpt><trkpt lat="43.60933" lon="11.79252"><ele>377</ele><time>2012-05-28T11:38:14Z</time></trkpt><trkpt lat="43.60943" lon="11.79249"><ele>376</ele><time>2012-05-28T11:38:20Z</time></trkpt><trkpt lat="43.60946" lon="11.79248"><ele>376</ele><time>2012-05-28T11:38:22Z</time></trkpt><trkpt lat="43.60952" lon="11.79244"><ele>376</ele><time>2012-05-28T11:38:25Z</time></trkpt><trkpt lat="43.60958" lon="11.79241"><ele>379</ele><time>2012-05-28T11:38:28Z</time></trkpt><trkpt lat="43.60962" lon="11.79240"><ele>379</ele><time>2012-05-28T11:38:30Z</time></trkpt><trkpt lat="43.60973" lon="11.79237"><ele>382</ele><time>2012-05-28T11:38:35Z</time></trkpt><trkpt lat="43.60979" lon="11.79234"><ele>382</ele><time>2012-05-28T11:38:38Z</time></trkpt><trkpt lat="43.60988" lon="11.79230"><ele>385</ele><time>2012-05-28T11:38:43Z</time></trkpt><trkpt lat="43.60992" lon="11.79229"><ele>385</ele><time>2012-05-28T11:38:45Z</time></trkpt><trkpt lat="43.61000" lon="11.79227"><ele>388</ele><time>2012-05-28T11:38:49Z</time></trkpt><trkpt lat="43.61003" lon="11.79228"><ele>387</ele><time>2012-05-28T11:38:51Z</time></trkpt><trkpt lat="43.61006" lon="11.79229"><ele>384</ele><time>2012-05-28T11:38:52Z</time></trkpt><trkpt lat="43.61010" lon="11.79230"><ele>382</ele><time>2012-05-28T11:38:54Z</time></trkpt><trkpt lat="43.61012" lon="11.79231"><ele>382</ele><time>2012-05-28T11:38:55Z</time></trkpt><trkpt lat="43.61015" lon="11.79235"><ele>381</ele><time>2012-05-28T11:38:57Z</time></trkpt><trkpt lat="43.61017" lon="11.79238"><ele>381</ele><time>2012-05-28T11:38:58Z</time></trkpt><trkpt lat="43.61020" lon="11.79243"><ele>381</ele><time>2012-05-28T11:39:00Z</time></trkpt><trkpt lat="43.61027" lon="11.79256"><ele>381</ele><time>2012-05-28T11:39:04Z</time></trkpt><trkpt lat="43.61029" lon="11.79258"><ele>381</ele><time>2012-05-28T11:39:05Z</time></trkpt><trkpt lat="43.61037" lon="11.79268"><ele>383</ele><time>2012-05-28T11:39:09Z</time></trkpt><trkpt lat="43.61039" lon="11.79270"><ele>383</ele><time>2012-05-28T11:39:10Z</time></trkpt><trkpt lat="43.61075" lon="11.79302"><ele>390</ele><time>2012-05-28T11:39:27Z</time></trkpt><trkpt lat="43.61080" lon="11.79305"><ele>391</ele><time>2012-05-28T11:39:29Z</time></trkpt><trkpt lat="43.61084" lon="11.79307"><ele>395</ele><time>2012-05-28T11:39:31Z</time></trkpt><trkpt lat="43.61094" lon="11.79313"><ele>392</ele><time>2012-05-28T11:39:36Z</time></trkpt><trkpt lat="43.61096" lon="11.79315"><ele>392</ele><time>2012-05-28T11:39:37Z</time></trkpt><trkpt lat="43.61100" lon="11.79319"><ele>391</ele><time>2012-05-28T11:39:39Z</time></trkpt><trkpt lat="43.61104" lon="11.79323"><ele>391</ele><time>2012-05-28T11:39:41Z</time></trkpt><trkpt lat="43.61111" lon="11.79328"><ele>391</ele><time>2012-05-28T11:39:45Z</time></trkpt><trkpt lat="43.61113" lon="11.79329"><ele>390</ele><time>2012-05-28T11:39:46Z</time></trkpt><trkpt lat="43.61119" lon="11.79331"><ele>390</ele><time>2012-05-28T11:39:47Z</time></trkpt><trkpt lat="43.61124" lon="11.79332"><ele>391</ele><time>2012-05-28T11:39:49Z</time></trkpt><trkpt lat="43.61127" lon="11.79333"><ele>391</ele><time>2012-05-28T11:39:50Z</time></trkpt><trkpt lat="43.61130" lon="11.79334"><ele>391</ele><time>2012-05-28T11:39:51Z</time></trkpt><trkpt lat="43.61135" lon="11.79334"><ele>391</ele><time>2012-05-28T11:39:53Z</time></trkpt><trkpt lat="43.61137" lon="11.79334"><ele>392</ele><time>2012-05-28T11:39:54Z</time></trkpt><trkpt lat="43.61149" lon="11.79334"><ele>392</ele><time>2012-05-28T11:40:00Z</time></trkpt><trkpt lat="43.61157" lon="11.79333"><ele>392</ele><time>2012-05-28T11:40:02Z</time></trkpt><trkpt lat="43.61168" lon="11.79333"><ele>391</ele><time>2012-05-28T11:40:07Z</time></trkpt><trkpt lat="43.61171" lon="11.79333"><ele>391</ele><time>2012-05-28T11:40:08Z</time></trkpt><trkpt lat="43.61179" lon="11.79335"><ele>393</ele><time>2012-05-28T11:40:11Z</time></trkpt><trkpt lat="43.61181" lon="11.79336"><ele>394</ele><time>2012-05-28T11:40:12Z</time></trkpt><trkpt lat="43.61193" lon="11.79341"><ele>395</ele><time>2012-05-28T11:40:16Z</time></trkpt><trkpt lat="43.61196" lon="11.79341"><ele>395</ele><time>2012-05-28T11:40:17Z</time></trkpt><trkpt lat="43.61208" lon="11.79341"><ele>396</ele><time>2012-05-28T11:40:21Z</time></trkpt><trkpt lat="43.61211" lon="11.79340"><ele>396</ele><time>2012-05-28T11:40:22Z</time></trkpt><trkpt lat="43.61213" lon="11.79338"><ele>396</ele><time>2012-05-28T11:40:23Z</time></trkpt><trkpt lat="43.61217" lon="11.79335"><ele>397</ele><time>2012-05-28T11:40:25Z</time></trkpt><trkpt lat="43.61219" lon="11.79333"><ele>397</ele><time>2012-05-28T11:40:26Z</time></trkpt><trkpt lat="43.61220" lon="11.79330"><ele>398</ele><time>2012-05-28T11:40:27Z</time></trkpt><trkpt lat="43.61222" lon="11.79327"><ele>398</ele><time>2012-05-28T11:40:28Z</time></trkpt><trkpt lat="43.61225" lon="11.79314"><ele>398</ele><time>2012-05-28T11:40:32Z</time></trkpt><trkpt lat="43.61225" lon="11.79311"><ele>398</ele><time>2012-05-28T11:40:33Z</time></trkpt><trkpt lat="43.61225" lon="11.79308"><ele>399</ele><time>2012-05-28T11:40:34Z</time></trkpt><trkpt lat="43.61225" lon="11.79305"><ele>399</ele><time>2012-05-28T11:40:35Z</time></trkpt><trkpt lat="43.61225" lon="11.79299"><ele>399</ele><time>2012-05-28T11:40:37Z</time></trkpt><trkpt lat="43.61227" lon="11.79294"><ele>400</ele><time>2012-05-28T11:40:39Z</time></trkpt><trkpt lat="43.61229" lon="11.79289"><ele>399</ele><time>2012-05-28T11:40:41Z</time></trkpt><trkpt lat="43.61232" lon="11.79285"><ele>400</ele><time>2012-05-28T11:40:43Z</time></trkpt><trkpt lat="43.61234" lon="11.79283"><ele>400</ele><time>2012-05-28T11:40:44Z</time></trkpt><trkpt lat="43.61239" lon="11.79279"><ele>399</ele><time>2012-05-28T11:40:46Z</time></trkpt><trkpt lat="43.61242" lon="11.79277"><ele>400</ele><time>2012-05-28T11:40:47Z</time></trkpt><trkpt lat="43.61252" lon="11.79272"><ele>399</ele><time>2012-05-28T11:40:50Z</time></trkpt><trkpt lat="43.61255" lon="11.79270"><ele>399</ele><time>2012-05-28T11:40:51Z</time></trkpt><trkpt lat="43.61266" lon="11.79260"><ele>403</ele><time>2012-05-28T11:40:54Z</time></trkpt><trkpt lat="43.61275" lon="11.79253"><ele>405</ele><time>2012-05-28T11:40:56Z</time></trkpt><trkpt lat="43.61294" lon="11.79235"><ele>407</ele><time>2012-05-28T11:41:01Z</time></trkpt><trkpt lat="43.61301" lon="11.79228"><ele>407</ele><time>2012-05-28T11:41:03Z</time></trkpt><trkpt lat="43.61321" lon="11.79206"><ele>409</ele><time>2012-05-28T11:41:11Z</time></trkpt><trkpt lat="43.61324" lon="11.79204"><ele>409</ele><time>2012-05-28T11:41:12Z</time></trkpt><trkpt lat="43.61344" lon="11.79188"><ele>405</ele><time>2012-05-28T11:41:18Z</time></trkpt><trkpt lat="43.61347" lon="11.79186"><ele>405</ele><time>2012-05-28T11:41:19Z</time></trkpt><trkpt lat="43.61357" lon="11.79181"><ele>402</ele><time>2012-05-28T11:41:22Z</time></trkpt><trkpt lat="43.61360" lon="11.79180"><ele>402</ele><time>2012-05-28T11:41:23Z</time></trkpt><trkpt lat="43.61363" lon="11.79178"><ele>402</ele><time>2012-05-28T11:41:24Z</time></trkpt><trkpt lat="43.61393" lon="11.79164"><ele>405</ele><time>2012-05-28T11:41:33Z</time></trkpt><trkpt lat="43.61397" lon="11.79161"><ele>406</ele><time>2012-05-28T11:41:34Z</time></trkpt><trkpt lat="43.61405" lon="11.79155"><ele>411</ele><time>2012-05-28T11:41:36Z</time></trkpt><trkpt lat="43.61415" lon="11.79146"><ele>413</ele><time>2012-05-28T11:41:39Z</time></trkpt><trkpt lat="43.61424" lon="11.79136"><ele>413</ele><time>2012-05-28T11:41:42Z</time></trkpt><trkpt lat="43.61427" lon="11.79131"><ele>413</ele><time>2012-05-28T11:41:43Z</time></trkpt><trkpt lat="43.61431" lon="11.79128"><ele>414</ele><time>2012-05-28T11:41:44Z</time></trkpt><trkpt lat="43.61436" lon="11.79121"><ele>413</ele><time>2012-05-28T11:41:46Z</time></trkpt><trkpt lat="43.61440" lon="11.79119"><ele>413</ele><time>2012-05-28T11:41:47Z</time></trkpt><trkpt lat="43.61443" lon="11.79117"><ele>412</ele><time>2012-05-28T11:41:48Z</time></trkpt><trkpt lat="43.61454" lon="11.79111"><ele>413</ele><time>2012-05-28T11:41:51Z</time></trkpt><trkpt lat="43.61457" lon="11.79108"><ele>412</ele><time>2012-05-28T11:41:52Z</time></trkpt><trkpt lat="43.61459" lon="11.79105"><ele>411</ele><time>2012-05-28T11:41:53Z</time></trkpt><trkpt lat="43.61464" lon="11.79099"><ele>411</ele><time>2012-05-28T11:41:55Z</time></trkpt><trkpt lat="43.61466" lon="11.79095"><ele>411</ele><time>2012-05-28T11:41:56Z</time></trkpt><trkpt lat="43.61467" lon="11.79090"><ele>412</ele><time>2012-05-28T11:41:57Z</time></trkpt><trkpt lat="43.61471" lon="11.79075"><ele>414</ele><time>2012-05-28T11:42:00Z</time></trkpt><trkpt lat="43.61473" lon="11.79065"><ele>415</ele><time>2012-05-28T11:42:02Z</time></trkpt><trkpt lat="43.61474" lon="11.79059"><ele>416</ele><time>2012-05-28T11:42:03Z</time></trkpt><trkpt lat="43.61473" lon="11.79054"><ele>417</ele><time>2012-05-28T11:42:04Z</time></trkpt><trkpt lat="43.61473" lon="11.79048"><ele>417</ele><time>2012-05-28T11:42:05Z</time></trkpt><trkpt lat="43.61473" lon="11.79042"><ele>416</ele><time>2012-05-28T11:42:06Z</time></trkpt><trkpt lat="43.61473" lon="11.79025"><ele>417</ele><time>2012-05-28T11:42:09Z</time></trkpt><trkpt lat="43.61472" lon="11.79019"><ele>417</ele><time>2012-05-28T11:42:10Z</time></trkpt><trkpt lat="43.61472" lon="11.79014"><ele>418</ele><time>2012-05-28T11:42:11Z</time></trkpt><trkpt lat="43.61473" lon="11.78982"><ele>418</ele><time>2012-05-28T11:42:17Z</time></trkpt><trkpt lat="43.61474" lon="11.78976"><ele>418</ele><time>2012-05-28T11:42:18Z</time></trkpt><trkpt lat="43.61477" lon="11.78966"><ele>417</ele><time>2012-05-28T11:42:20Z</time></trkpt><trkpt lat="43.61481" lon="11.78960"><ele>416</ele><time>2012-05-28T11:42:21Z</time></trkpt><trkpt lat="43.61491" lon="11.78953"><ele>416</ele><time>2012-05-28T11:42:22Z</time></trkpt><trkpt lat="43.61495" lon="11.78946"><ele>415</ele><time>2012-05-28T11:42:23Z</time></trkpt><trkpt lat="43.61501" lon="11.78942"><ele>414</ele><time>2012-05-28T11:42:24Z</time></trkpt><trkpt lat="43.61519" lon="11.78928"><ele>414</ele><time>2012-05-28T11:42:28Z</time></trkpt><trkpt lat="43.61524" lon="11.78923"><ele>414</ele><time>2012-05-28T11:42:29Z</time></trkpt><trkpt lat="43.61529" lon="11.78919"><ele>413</ele><time>2012-05-28T11:42:30Z</time></trkpt><trkpt lat="43.61540" lon="11.78913"><ele>413</ele><time>2012-05-28T11:42:32Z</time></trkpt><trkpt lat="43.61546" lon="11.78910"><ele>414</ele><time>2012-05-28T11:42:33Z</time></trkpt><trkpt lat="43.61552" lon="11.78906"><ele>414</ele><time>2012-05-28T11:42:35Z</time></trkpt><trkpt lat="43.61561" lon="11.78897"><ele>413</ele><time>2012-05-28T11:42:36Z</time></trkpt><trkpt lat="43.61566" lon="11.78894"><ele>413</ele><time>2012-05-28T11:42:37Z</time></trkpt><trkpt lat="43.61572" lon="11.78886"><ele>413</ele><time>2012-05-28T11:42:38Z</time></trkpt><trkpt lat="43.61578" lon="11.78881"><ele>412</ele><time>2012-05-28T11:42:39Z</time></trkpt><trkpt lat="43.61584" lon="11.78878"><ele>412</ele><time>2012-05-28T11:42:40Z</time></trkpt><trkpt lat="43.61589" lon="11.78877"><ele>412</ele><time>2012-05-28T11:42:41Z</time></trkpt><trkpt lat="43.61597" lon="11.78881"><ele>411</ele><time>2012-05-28T11:42:42Z</time></trkpt><trkpt lat="43.61613" lon="11.78888"><ele>413</ele><time>2012-05-28T11:42:44Z</time></trkpt><trkpt lat="43.61620" lon="11.78888"><ele>413</ele><time>2012-05-28T11:42:45Z</time></trkpt><trkpt lat="43.61634" lon="11.78885"><ele>414</ele><time>2012-05-28T11:42:47Z</time></trkpt><trkpt lat="43.61640" lon="11.78881"><ele>415</ele><time>2012-05-28T11:42:48Z</time></trkpt><trkpt lat="43.61653" lon="11.78871"><ele>415</ele><time>2012-05-28T11:42:50Z</time></trkpt><trkpt lat="43.61660" lon="11.78865"><ele>416</ele><time>2012-05-28T11:42:51Z</time></trkpt><trkpt lat="43.61665" lon="11.78855"><ele>416</ele><time>2012-05-28T11:42:52Z</time></trkpt><trkpt lat="43.61670" lon="11.78849"><ele>417</ele><time>2012-05-28T11:42:53Z</time></trkpt><trkpt lat="43.61674" lon="11.78839"><ele>417</ele><time>2012-05-28T11:42:54Z</time></trkpt><trkpt lat="43.61676" lon="11.78830"><ele>417</ele><time>2012-05-28T11:42:55Z</time></trkpt><trkpt lat="43.61679" lon="11.78820"><ele>417</ele><time>2012-05-28T11:42:56Z</time></trkpt><trkpt lat="43.61686" lon="11.78802"><ele>417</ele><time>2012-05-28T11:42:58Z</time></trkpt><trkpt lat="43.61690" lon="11.78796"><ele>417</ele><time>2012-05-28T11:42:59Z</time></trkpt><trkpt lat="43.61694" lon="11.78793"><ele>417</ele><time>2012-05-28T11:43:00Z</time></trkpt><trkpt lat="43.61698" lon="11.78793"><ele>417</ele><time>2012-05-28T11:43:01Z</time></trkpt><trkpt lat="43.61701" lon="11.78795"><ele>417</ele><time>2012-05-28T11:43:02Z</time></trkpt><trkpt lat="43.61707" lon="11.78805"><ele>417</ele><time>2012-05-28T11:43:03Z</time></trkpt><trkpt lat="43.61712" lon="11.78808"><ele>417</ele><time>2012-05-28T11:43:04Z</time></trkpt><trkpt lat="43.61726" lon="11.78813"><ele>417</ele><time>2012-05-28T11:43:07Z</time></trkpt><trkpt lat="43.61730" lon="11.78811"><ele>417</ele><time>2012-05-28T11:43:08Z</time></trkpt><trkpt lat="43.61735" lon="11.78808"><ele>417</ele><time>2012-05-28T11:43:09Z</time></trkpt><trkpt lat="43.61738" lon="11.78802"><ele>417</ele><time>2012-05-28T11:43:10Z</time></trkpt><trkpt lat="43.61741" lon="11.78796"><ele>416</ele><time>2012-05-28T11:43:11Z</time></trkpt><trkpt lat="43.61748" lon="11.78779"><ele>419</ele><time>2012-05-28T11:43:14Z</time></trkpt><trkpt lat="43.61749" lon="11.78774"><ele>418</ele><time>2012-05-28T11:43:15Z</time></trkpt><trkpt lat="43.61751" lon="11.78769"><ele>418</ele><time>2012-05-28T11:43:16Z</time></trkpt><trkpt lat="43.61756" lon="11.78752"><ele>418</ele><time>2012-05-28T11:43:19Z</time></trkpt><trkpt lat="43.61759" lon="11.78747"><ele>418</ele><time>2012-05-28T11:43:20Z</time></trkpt><trkpt lat="43.61763" lon="11.78734"><ele>418</ele><time>2012-05-28T11:43:22Z</time></trkpt><trkpt lat="43.61768" lon="11.78717"><ele>418</ele><time>2012-05-28T11:43:25Z</time></trkpt><trkpt lat="43.61769" lon="11.78709"><ele>418</ele><time>2012-05-28T11:43:26Z</time></trkpt><trkpt lat="43.61771" lon="11.78702"><ele>418</ele><time>2012-05-28T11:43:27Z</time></trkpt><trkpt lat="43.61773" lon="11.78695"><ele>418</ele><time>2012-05-28T11:43:28Z</time></trkpt><trkpt lat="43.61776" lon="11.78688"><ele>418</ele><time>2012-05-28T11:43:29Z</time></trkpt><trkpt lat="43.61784" lon="11.78678"><ele>417</ele><time>2012-05-28T11:43:30Z</time></trkpt><trkpt lat="43.61791" lon="11.78668"><ele>417</ele><time>2012-05-28T11:43:32Z</time></trkpt><trkpt lat="43.61794" lon="11.78665"><ele>417</ele><time>2012-05-28T11:43:33Z</time></trkpt><trkpt lat="43.61799" lon="11.78663"><ele>417</ele><time>2012-05-28T11:43:34Z</time></trkpt><trkpt lat="43.61804" lon="11.78666"><ele>418</ele><time>2012-05-28T11:43:35Z</time></trkpt><trkpt lat="43.61816" lon="11.78671"><ele>418</ele><time>2012-05-28T11:43:37Z</time></trkpt><trkpt lat="43.61826" lon="11.78669"><ele>419</ele><time>2012-05-28T11:43:40Z</time></trkpt><trkpt lat="43.61831" lon="11.78668"><ele>418</ele><time>2012-05-28T11:43:42Z</time></trkpt><trkpt lat="43.61834" lon="11.78668"><ele>417</ele><time>2012-05-28T11:43:43Z</time></trkpt><trkpt lat="43.61837" lon="11.78666"><ele>417</ele><time>2012-05-28T11:43:44Z</time></trkpt><trkpt lat="43.61839" lon="11.78664"><ele>417</ele><time>2012-05-28T11:43:45Z</time></trkpt><trkpt lat="43.61842" lon="11.78663"><ele>417</ele><time>2012-05-28T11:43:46Z</time></trkpt><trkpt lat="43.61852" lon="11.78656"><ele>418</ele><time>2012-05-28T11:43:49Z</time></trkpt><trkpt lat="43.61861" lon="11.78649"><ele>420</ele><time>2012-05-28T11:43:52Z</time></trkpt><trkpt lat="43.61871" lon="11.78641"><ele>420</ele><time>2012-05-28T11:43:56Z</time></trkpt><trkpt lat="43.61873" lon="11.78639"><ele>420</ele><time>2012-05-28T11:43:57Z</time></trkpt><trkpt lat="43.61881" lon="11.78634"><ele>419</ele><time>2012-05-28T11:44:00Z</time></trkpt><trkpt lat="43.61901" lon="11.78618"><ele>414</ele><time>2012-05-28T11:44:08Z</time></trkpt><trkpt lat="43.61904" lon="11.78616"><ele>413</ele><time>2012-05-28T11:44:09Z</time></trkpt><trkpt lat="43.61906" lon="11.78614"><ele>414</ele><time>2012-05-28T11:44:11Z</time></trkpt><trkpt lat="43.61909" lon="11.78608"><ele>414</ele><time>2012-05-28T11:44:12Z</time></trkpt><trkpt lat="43.61909" lon="11.78605"><ele>415</ele><time>2012-05-28T11:44:13Z</time></trkpt><trkpt lat="43.61909" lon="11.78602"><ele>416</ele><time>2012-05-28T11:44:14Z</time></trkpt><trkpt lat="43.61908" lon="11.78594"><ele>418</ele><time>2012-05-28T11:44:17Z</time></trkpt><trkpt lat="43.61907" lon="11.78591"><ele>418</ele><time>2012-05-28T11:44:18Z</time></trkpt><trkpt lat="43.61907" lon="11.78587"><ele>419</ele><time>2012-05-28T11:44:19Z</time></trkpt><trkpt lat="43.61906" lon="11.78584"><ele>419</ele><time>2012-05-28T11:44:20Z</time></trkpt><trkpt lat="43.61904" lon="11.78579"><ele>419</ele><time>2012-05-28T11:44:22Z</time></trkpt><trkpt lat="43.61900" lon="11.78565"><ele>422</ele><time>2012-05-28T11:44:27Z</time></trkpt><trkpt lat="43.61899" lon="11.78562"><ele>422</ele><time>2012-05-28T11:44:28Z</time></trkpt><trkpt lat="43.61898" lon="11.78557"><ele>422</ele><time>2012-05-28T11:44:30Z</time></trkpt><trkpt lat="43.61895" lon="11.78543"><ele>422</ele><time>2012-05-28T11:44:35Z</time></trkpt><trkpt lat="43.61895" lon="11.78538"><ele>421</ele><time>2012-05-28T11:44:37Z</time></trkpt><trkpt lat="43.61896" lon="11.78534"><ele>421</ele><time>2012-05-28T11:44:39Z</time></trkpt><trkpt lat="43.61898" lon="11.78529"><ele>420</ele><time>2012-05-28T11:44:41Z</time></trkpt><trkpt lat="43.61900" lon="11.78522"><ele>420</ele><time>2012-05-28T11:44:43Z</time></trkpt><trkpt lat="43.61902" lon="11.78515"><ele>419</ele><time>2012-05-28T11:44:45Z</time></trkpt><trkpt lat="43.61904" lon="11.78511"><ele>419</ele><time>2012-05-28T11:44:46Z</time></trkpt><trkpt lat="43.61910" lon="11.78497"><ele>420</ele><time>2012-05-28T11:44:50Z</time></trkpt><trkpt lat="43.61912" lon="11.78493"><ele>420</ele><time>2012-05-28T11:44:51Z</time></trkpt><trkpt lat="43.61913" lon="11.78490"><ele>421</ele><time>2012-05-28T11:44:52Z</time></trkpt><trkpt lat="43.61914" lon="11.78487"><ele>420</ele><time>2012-05-28T11:44:53Z</time></trkpt><trkpt lat="43.61918" lon="11.78474"><ele>420</ele><time>2012-05-28T11:44:58Z</time></trkpt><trkpt lat="43.61919" lon="11.78467"><ele>419</ele><time>2012-05-28T11:45:01Z</time></trkpt><trkpt lat="43.61918" lon="11.78463"><ele>418</ele><time>2012-05-28T11:45:03Z</time></trkpt><trkpt lat="43.61920" lon="11.78456"><ele>420</ele><time>2012-05-28T11:45:06Z</time></trkpt><trkpt lat="43.61923" lon="11.78442"><ele>419</ele><time>2012-05-28T11:45:10Z</time></trkpt><trkpt lat="43.61923" lon="11.78438"><ele>420</ele><time>2012-05-28T11:45:12Z</time></trkpt><trkpt lat="43.61922" lon="11.78435"><ele>421</ele><time>2012-05-28T11:45:14Z</time></trkpt><trkpt lat="43.61921" lon="11.78423"><ele>422</ele><time>2012-05-28T11:45:20Z</time></trkpt><trkpt lat="43.61921" lon="11.78419"><ele>422</ele><time>2012-05-28T11:45:22Z</time></trkpt><trkpt lat="43.61921" lon="11.78415"><ele>423</ele><time>2012-05-28T11:45:24Z</time></trkpt><trkpt lat="43.61920" lon="11.78411"><ele>424</ele><time>2012-05-28T11:45:26Z</time></trkpt><trkpt lat="43.61913" lon="11.78386"><ele>426</ele><time>2012-05-28T11:45:37Z</time></trkpt><trkpt lat="43.61913" lon="11.78382"><ele>427</ele><time>2012-05-28T11:45:39Z</time></trkpt><trkpt lat="43.61912" lon="11.78378"><ele>428</ele><time>2012-05-28T11:45:41Z</time></trkpt><trkpt lat="43.61911" lon="11.78375"><ele>429</ele><time>2012-05-28T11:45:43Z</time></trkpt><trkpt lat="43.61910" lon="11.78372"><ele>429</ele><time>2012-05-28T11:45:45Z</time></trkpt><trkpt lat="43.61909" lon="11.78358"><ele>434</ele><time>2012-05-28T11:45:53Z</time></trkpt><trkpt lat="43.61909" lon="11.78352"><ele>435</ele><time>2012-05-28T11:45:55Z</time></trkpt><trkpt lat="43.61909" lon="11.78346"><ele>436</ele><time>2012-05-28T11:45:57Z</time></trkpt><trkpt lat="43.61909" lon="11.78335"><ele>439</ele><time>2012-05-28T11:46:01Z</time></trkpt><trkpt lat="43.61911" lon="11.78331"><ele>442</ele><time>2012-05-28T11:46:03Z</time></trkpt><trkpt lat="43.61920" lon="11.78321"><ele>445</ele><time>2012-05-28T11:46:08Z</time></trkpt><trkpt lat="43.61922" lon="11.78319"><ele>445</ele><time>2012-05-28T11:46:09Z</time></trkpt><trkpt lat="43.61927" lon="11.78315"><ele>444</ele><time>2012-05-28T11:46:11Z</time></trkpt><trkpt lat="43.61936" lon="11.78310"><ele>441</ele><time>2012-05-28T11:46:14Z</time></trkpt><trkpt lat="43.61938" lon="11.78307"><ele>440</ele><time>2012-05-28T11:46:15Z</time></trkpt><trkpt lat="43.61971" lon="11.78272"><ele>444</ele><time>2012-05-28T11:46:32Z</time></trkpt><trkpt lat="43.61974" lon="11.78270"><ele>446</ele><time>2012-05-28T11:46:35Z</time></trkpt><trkpt lat="43.61976" lon="11.78267"><ele>446</ele><time>2012-05-28T11:46:37Z</time></trkpt><trkpt lat="43.61979" lon="11.78264"><ele>448</ele><time>2012-05-28T11:46:39Z</time></trkpt><trkpt lat="43.61988" lon="11.78255"><ele>451</ele><time>2012-05-28T11:46:44Z</time></trkpt><trkpt lat="43.61992" lon="11.78253"><ele>450</ele><time>2012-05-28T11:46:46Z</time></trkpt><trkpt lat="43.61996" lon="11.78251"><ele>452</ele><time>2012-05-28T11:46:48Z</time></trkpt><trkpt lat="43.62006" lon="11.78245"><ele>453</ele><time>2012-05-28T11:46:53Z</time></trkpt><trkpt lat="43.62008" lon="11.78244"><ele>453</ele><time>2012-05-28T11:46:54Z</time></trkpt><trkpt lat="43.62018" lon="11.78237"><ele>452</ele><time>2012-05-28T11:46:59Z</time></trkpt><trkpt lat="43.62019" lon="11.78235"><ele>452</ele><time>2012-05-28T11:47:00Z</time></trkpt><trkpt lat="43.62026" lon="11.78230"><ele>455</ele><time>2012-05-28T11:47:04Z</time></trkpt><trkpt lat="43.62029" lon="11.78229"><ele>455</ele><time>2012-05-28T11:47:06Z</time></trkpt><trkpt lat="43.62032" lon="11.78227"><ele>455</ele><time>2012-05-28T11:47:08Z</time></trkpt><trkpt lat="43.62050" lon="11.78214"><ele>457</ele><time>2012-05-28T11:47:21Z</time></trkpt><trkpt lat="43.62053" lon="11.78211"><ele>459</ele><time>2012-05-28T11:47:23Z</time></trkpt><trkpt lat="43.62061" lon="11.78201"><ele>460</ele><time>2012-05-28T11:47:30Z</time></trkpt><trkpt lat="43.62063" lon="11.78197"><ele>459</ele><time>2012-05-28T11:47:32Z</time></trkpt><trkpt lat="43.62067" lon="11.78185"><ele>458</ele><time>2012-05-28T11:47:37Z</time></trkpt><trkpt lat="43.62069" lon="11.78182"><ele>460</ele><time>2012-05-28T11:47:39Z</time></trkpt><trkpt lat="43.62071" lon="11.78179"><ele>459</ele><time>2012-05-28T11:47:41Z</time></trkpt><trkpt lat="43.62074" lon="11.78176"><ele>460</ele><time>2012-05-28T11:47:43Z</time></trkpt><trkpt lat="43.62077" lon="11.78174"><ele>460</ele><time>2012-05-28T11:47:45Z</time></trkpt><trkpt lat="43.62079" lon="11.78171"><ele>461</ele><time>2012-05-28T11:47:47Z</time></trkpt><trkpt lat="43.62086" lon="11.78162"><ele>462</ele><time>2012-05-28T11:47:53Z</time></trkpt><trkpt lat="43.62086" lon="11.78159"><ele>462</ele><time>2012-05-28T11:47:55Z</time></trkpt><trkpt lat="43.62087" lon="11.78151"><ele>462</ele><time>2012-05-28T11:47:58Z</time></trkpt><trkpt lat="43.62086" lon="11.78138"><ele>462</ele><time>2012-05-28T11:48:03Z</time></trkpt><trkpt lat="43.62084" lon="11.78124"><ele>465</ele><time>2012-05-28T11:48:08Z</time></trkpt><trkpt lat="43.62085" lon="11.78119"><ele>466</ele><time>2012-05-28T11:48:11Z</time></trkpt><trkpt lat="43.62087" lon="11.78106"><ele>467</ele><time>2012-05-28T11:48:15Z</time></trkpt><trkpt lat="43.62086" lon="11.78092"><ele>468</ele><time>2012-05-28T11:48:22Z</time></trkpt><trkpt lat="43.62084" lon="11.78088"><ele>469</ele><time>2012-05-28T11:48:23Z</time></trkpt><trkpt lat="43.62082" lon="11.78085"><ele>470</ele><time>2012-05-28T11:48:25Z</time></trkpt><trkpt lat="43.62080" lon="11.78083"><ele>472</ele><time>2012-05-28T11:48:27Z</time></trkpt><trkpt lat="43.62079" lon="11.78080"><ele>473</ele><time>2012-05-28T11:48:29Z</time></trkpt><trkpt lat="43.62076" lon="11.78074"><ele>474</ele><time>2012-05-28T11:48:33Z</time></trkpt><trkpt lat="43.62075" lon="11.78068"><ele>474</ele><time>2012-05-28T11:48:34Z</time></trkpt><trkpt lat="43.62075" lon="11.78064"><ele>475</ele><time>2012-05-28T11:48:35Z</time></trkpt><trkpt lat="43.62076" lon="11.78061"><ele>475</ele><time>2012-05-28T11:48:36Z</time></trkpt><trkpt lat="43.62080" lon="11.78047"><ele>474</ele><time>2012-05-28T11:48:40Z</time></trkpt><trkpt lat="43.62082" lon="11.78043"><ele>474</ele><time>2012-05-28T11:48:41Z</time></trkpt><trkpt lat="43.62087" lon="11.78032"><ele>475</ele><time>2012-05-28T11:48:44Z</time></trkpt><trkpt lat="43.62089" lon="11.78028"><ele>475</ele><time>2012-05-28T11:48:45Z</time></trkpt><trkpt lat="43.62096" lon="11.78016"><ele>474</ele><time>2012-05-28T11:48:48Z</time></trkpt><trkpt lat="43.62098" lon="11.78012"><ele>473</ele><time>2012-05-28T11:48:49Z</time></trkpt><trkpt lat="43.62100" lon="11.78008"><ele>472</ele><time>2012-05-28T11:48:50Z</time></trkpt><trkpt lat="43.62107" lon="11.77998"><ele>471</ele><time>2012-05-28T11:48:53Z</time></trkpt><trkpt lat="43.62109" lon="11.77996"><ele>470</ele><time>2012-05-28T11:48:54Z</time></trkpt><trkpt lat="43.62112" lon="11.77991"><ele>470</ele><time>2012-05-28T11:48:56Z</time></trkpt><trkpt lat="43.62114" lon="11.77989"><ele>471</ele><time>2012-05-28T11:48:57Z</time></trkpt><trkpt lat="43.62116" lon="11.77985"><ele>473</ele><time>2012-05-28T11:48:59Z</time></trkpt><trkpt lat="43.62120" lon="11.77973"><ele>476</ele><time>2012-05-28T11:49:08Z</time></trkpt><trkpt lat="43.62121" lon="11.77970"><ele>477</ele><time>2012-05-28T11:49:10Z</time></trkpt><trkpt lat="43.62123" lon="11.77960"><ele>479</ele><time>2012-05-28T11:49:15Z</time></trkpt><trkpt lat="43.62123" lon="11.77953"><ele>479</ele><time>2012-05-28T11:49:18Z</time></trkpt><trkpt lat="43.62122" lon="11.77941"><ele>481</ele><time>2012-05-28T11:49:22Z</time></trkpt><trkpt lat="43.62121" lon="11.77936"><ele>481</ele><time>2012-05-28T11:49:24Z</time></trkpt><trkpt lat="43.62122" lon="11.77932"><ele>483</ele><time>2012-05-28T11:49:26Z</time></trkpt><trkpt lat="43.62122" lon="11.77928"><ele>484</ele><time>2012-05-28T11:49:28Z</time></trkpt><trkpt lat="43.62123" lon="11.77920"><ele>485</ele><time>2012-05-28T11:49:31Z</time></trkpt><trkpt lat="43.62124" lon="11.77907"><ele>488</ele><time>2012-05-28T11:49:36Z</time></trkpt><trkpt lat="43.62123" lon="11.77898"><ele>488</ele><time>2012-05-28T11:49:40Z</time></trkpt><trkpt lat="43.62122" lon="11.77893"><ele>489</ele><time>2012-05-28T11:49:42Z</time></trkpt><trkpt lat="43.62122" lon="11.77889"><ele>488</ele><time>2012-05-28T11:49:44Z</time></trkpt><trkpt lat="43.62122" lon="11.77885"><ele>489</ele><time>2012-05-28T11:49:46Z</time></trkpt><trkpt lat="43.62122" lon="11.77882"><ele>491</ele><time>2012-05-28T11:49:48Z</time></trkpt><trkpt lat="43.62124" lon="11.77869"><ele>493</ele><time>2012-05-28T11:49:53Z</time></trkpt><trkpt lat="43.62125" lon="11.77866"><ele>492</ele><time>2012-05-28T11:49:54Z</time></trkpt><trkpt lat="43.62127" lon="11.77862"><ele>494</ele><time>2012-05-28T11:49:55Z</time></trkpt><trkpt lat="43.62131" lon="11.77850"><ele>494</ele><time>2012-05-28T11:49:59Z</time></trkpt><trkpt lat="43.62133" lon="11.77840"><ele>497</ele><time>2012-05-28T11:50:03Z</time></trkpt><trkpt lat="43.62134" lon="11.77836"><ele>496</ele><time>2012-05-28T11:50:05Z</time></trkpt><trkpt lat="43.62134" lon="11.77832"><ele>495</ele><time>2012-05-28T11:50:07Z</time></trkpt><trkpt lat="43.62138" lon="11.77819"><ele>495</ele><time>2012-05-28T11:50:13Z</time></trkpt><trkpt lat="43.62139" lon="11.77814"><ele>496</ele><time>2012-05-28T11:50:15Z</time></trkpt><trkpt lat="43.62142" lon="11.77803"><ele>499</ele><time>2012-05-28T11:50:19Z</time></trkpt><trkpt lat="43.62142" lon="11.77798"><ele>499</ele><time>2012-05-28T11:50:21Z</time></trkpt><trkpt lat="43.62143" lon="11.77783"><ele>500</ele><time>2012-05-28T11:50:26Z</time></trkpt><trkpt lat="43.62143" lon="11.77771"><ele>499</ele><time>2012-05-28T11:50:31Z</time></trkpt><trkpt lat="43.62143" lon="11.77757"><ele>501</ele><time>2012-05-28T11:50:37Z</time></trkpt><trkpt lat="43.62144" lon="11.77752"><ele>502</ele><time>2012-05-28T11:50:39Z</time></trkpt><trkpt lat="43.62146" lon="11.77744"><ele>504</ele><time>2012-05-28T11:50:43Z</time></trkpt><trkpt lat="43.62146" lon="11.77740"><ele>505</ele><time>2012-05-28T11:50:45Z</time></trkpt><trkpt lat="43.62146" lon="11.77737"><ele>507</ele><time>2012-05-28T11:50:47Z</time></trkpt><trkpt lat="43.62146" lon="11.77733"><ele>507</ele><time>2012-05-28T11:50:49Z</time></trkpt><trkpt lat="43.62143" lon="11.77725"><ele>508</ele><time>2012-05-28T11:50:52Z</time></trkpt><trkpt lat="43.62139" lon="11.77712"><ele>510</ele><time>2012-05-28T11:50:57Z</time></trkpt><trkpt lat="43.62137" lon="11.77708"><ele>512</ele><time>2012-05-28T11:50:59Z</time></trkpt><trkpt lat="43.62134" lon="11.77703"><ele>513</ele><time>2012-05-28T11:51:01Z</time></trkpt><trkpt lat="43.62130" lon="11.77689"><ele>512</ele><time>2012-05-28T11:51:06Z</time></trkpt><trkpt lat="43.62129" lon="11.77683"><ele>513</ele><time>2012-05-28T11:51:08Z</time></trkpt><trkpt lat="43.62127" lon="11.77681"><ele>513</ele><time>2012-05-28T11:51:09Z</time></trkpt><trkpt lat="43.62124" lon="11.77676"><ele>512</ele><time>2012-05-28T11:51:11Z</time></trkpt><trkpt lat="43.62123" lon="11.77672"><ele>511</ele><time>2012-05-28T11:51:13Z</time></trkpt><trkpt lat="43.62124" lon="11.77669"><ele>510</ele><time>2012-05-28T11:51:14Z</time></trkpt><trkpt lat="43.62126" lon="11.77666"><ele>510</ele><time>2012-05-28T11:51:15Z</time></trkpt><trkpt lat="43.62129" lon="11.77656"><ele>507</ele><time>2012-05-28T11:51:19Z</time></trkpt><trkpt lat="43.62129" lon="11.77652"><ele>506</ele><time>2012-05-28T11:51:21Z</time></trkpt><trkpt lat="43.62129" lon="11.77647"><ele>504</ele><time>2012-05-28T11:51:24Z</time></trkpt><trkpt lat="43.62129" lon="11.77644"><ele>503</ele><time>2012-05-28T11:51:27Z</time></trkpt><trkpt lat="43.62131" lon="11.77642"><ele>502</ele><time>2012-05-28T11:51:30Z</time></trkpt><trkpt lat="43.62135" lon="11.77646"><ele>504</ele><time>2012-05-28T11:51:39Z</time></trkpt><trkpt lat="43.62136" lon="11.77650"><ele>505</ele><time>2012-05-28T11:51:48Z</time></trkpt><trkpt lat="43.62135" lon="11.77654"><ele>509</ele><time>2012-05-28T11:51:53Z</time></trkpt><trkpt lat="43.62137" lon="11.77650"><ele>509</ele><time>2012-05-28T11:52:43Z</time></trkpt><trkpt lat="43.62135" lon="11.77652"><ele>506</ele><time>2012-05-28T11:53:04Z</time></trkpt><trkpt lat="43.62131" lon="11.77655"><ele>512</ele><time>2012-05-28T11:53:57Z</time></trkpt><trkpt lat="43.62132" lon="11.77659"><ele>515</ele><time>2012-05-28T11:54:07Z</time></trkpt><trkpt lat="43.62130" lon="11.77662"><ele>514</ele><time>2012-05-28T11:54:14Z</time></trkpt><trkpt lat="43.62131" lon="11.77666"><ele>521</ele><time>2012-05-28T11:54:25Z</time></trkpt><trkpt lat="43.62128" lon="11.77665"><ele>520</ele><time>2012-05-28T11:54:28Z</time></trkpt><trkpt lat="43.62126" lon="11.77663"><ele>520</ele><time>2012-05-28T11:54:30Z</time></trkpt><trkpt lat="43.62118" lon="11.77655"><ele>520</ele><time>2012-05-28T11:54:36Z</time></trkpt><trkpt lat="43.62115" lon="11.77650"><ele>520</ele><time>2012-05-28T11:54:39Z</time></trkpt><trkpt lat="43.62113" lon="11.77646"><ele>520</ele><time>2012-05-28T11:54:41Z</time></trkpt><trkpt lat="43.62110" lon="11.77641"><ele>518</ele><time>2012-05-28T11:54:44Z</time></trkpt><trkpt lat="43.62104" lon="11.77630"><ele>520</ele><time>2012-05-28T11:54:50Z</time></trkpt><trkpt lat="43.62106" lon="11.77624"><ele>519</ele><time>2012-05-28T11:54:52Z</time></trkpt><trkpt lat="43.62107" lon="11.77622"><ele>520</ele><time>2012-05-28T11:54:53Z</time></trkpt><trkpt lat="43.62114" lon="11.77609"><ele>518</ele><time>2012-05-28T11:54:58Z</time></trkpt><trkpt lat="43.62115" lon="11.77606"><ele>520</ele><time>2012-05-28T11:54:59Z</time></trkpt><trkpt lat="43.62115" lon="11.77603"><ele>521</ele><time>2012-05-28T11:55:00Z</time></trkpt><trkpt lat="43.62115" lon="11.77595"><ele>523</ele><time>2012-05-28T11:55:02Z</time></trkpt><trkpt lat="43.62115" lon="11.77591"><ele>524</ele><time>2012-05-28T11:55:03Z</time></trkpt><trkpt lat="43.62113" lon="11.77577"><ele>527</ele><time>2012-05-28T11:55:07Z</time></trkpt><trkpt lat="43.62111" lon="11.77566"><ele>527</ele><time>2012-05-28T11:55:11Z</time></trkpt><trkpt lat="43.62110" lon="11.77563"><ele>528</ele><time>2012-05-28T11:55:12Z</time></trkpt><trkpt lat="43.62108" lon="11.77548"><ele>528</ele><time>2012-05-28T11:55:17Z</time></trkpt><trkpt lat="43.62107" lon="11.77542"><ele>528</ele><time>2012-05-28T11:55:19Z</time></trkpt><trkpt lat="43.62108" lon="11.77534"><ele>528</ele><time>2012-05-28T11:55:21Z</time></trkpt><trkpt lat="43.62109" lon="11.77525"><ele>527</ele><time>2012-05-28T11:55:23Z</time></trkpt><trkpt lat="43.62110" lon="11.77511"><ele>525</ele><time>2012-05-28T11:55:26Z</time></trkpt><trkpt lat="43.62110" lon="11.77507"><ele>526</ele><time>2012-05-28T11:55:27Z</time></trkpt><trkpt lat="43.62110" lon="11.77502"><ele>526</ele><time>2012-05-28T11:55:28Z</time></trkpt><trkpt lat="43.62110" lon="11.77498"><ele>526</ele><time>2012-05-28T11:55:29Z</time></trkpt><trkpt lat="43.62109" lon="11.77493"><ele>525</ele><time>2012-05-28T11:55:30Z</time></trkpt><trkpt lat="43.62107" lon="11.77477"><ele>526</ele><time>2012-05-28T11:55:34Z</time></trkpt><trkpt lat="43.62107" lon="11.77473"><ele>528</ele><time>2012-05-28T11:55:35Z</time></trkpt><trkpt lat="43.62107" lon="11.77469"><ele>528</ele><time>2012-05-28T11:55:36Z</time></trkpt><trkpt lat="43.62107" lon="11.77465"><ele>529</ele><time>2012-05-28T11:55:37Z</time></trkpt><trkpt lat="43.62107" lon="11.77462"><ele>529</ele><time>2012-05-28T11:55:38Z</time></trkpt><trkpt lat="43.62106" lon="11.77459"><ele>528</ele><time>2012-05-28T11:55:39Z</time></trkpt><trkpt lat="43.62104" lon="11.77453"><ele>530</ele><time>2012-05-28T11:55:41Z</time></trkpt><trkpt lat="43.62102" lon="11.77449"><ele>531</ele><time>2012-05-28T11:55:43Z</time></trkpt><trkpt lat="43.62100" lon="11.77445"><ele>532</ele><time>2012-05-28T11:55:45Z</time></trkpt><trkpt lat="43.62100" lon="11.77442"><ele>534</ele><time>2012-05-28T11:55:47Z</time></trkpt><trkpt lat="43.62102" lon="11.77439"><ele>536</ele><time>2012-05-28T11:55:49Z</time></trkpt><trkpt lat="43.62106" lon="11.77436"><ele>537</ele><time>2012-05-28T11:55:51Z</time></trkpt><trkpt lat="43.62108" lon="11.77435"><ele>539</ele><time>2012-05-28T11:55:52Z</time></trkpt><trkpt lat="43.62111" lon="11.77434"><ele>539</ele><time>2012-05-28T11:55:53Z</time></trkpt><trkpt lat="43.62140" lon="11.77428"><ele>542</ele><time>2012-05-28T11:56:02Z</time></trkpt><trkpt lat="43.62149" lon="11.77426"><ele>541</ele><time>2012-05-28T11:56:05Z</time></trkpt><trkpt lat="43.62158" lon="11.77427"><ele>543</ele><time>2012-05-28T11:56:08Z</time></trkpt><trkpt lat="43.62168" lon="11.77429"><ele>546</ele><time>2012-05-28T11:56:12Z</time></trkpt><trkpt lat="43.62171" lon="11.77429"><ele>546</ele><time>2012-05-28T11:56:13Z</time></trkpt><trkpt lat="43.62181" lon="11.77429"><ele>548</ele><time>2012-05-28T11:56:17Z</time></trkpt><trkpt lat="43.62184" lon="11.77431"><ele>549</ele><time>2012-05-28T11:56:18Z</time></trkpt><trkpt lat="43.62186" lon="11.77432"><ele>549</ele><time>2012-05-28T11:56:19Z</time></trkpt><trkpt lat="43.62189" lon="11.77432"><ele>548</ele><time>2012-05-28T11:56:20Z</time></trkpt><trkpt lat="43.62191" lon="11.77432"><ele>549</ele><time>2012-05-28T11:56:21Z</time></trkpt><trkpt lat="43.62198" lon="11.77434"><ele>549</ele><time>2012-05-28T11:56:24Z</time></trkpt><trkpt lat="43.62202" lon="11.77435"><ele>549</ele><time>2012-05-28T11:56:26Z</time></trkpt><trkpt lat="43.62214" lon="11.77440"><ele>549</ele><time>2012-05-28T11:56:31Z</time></trkpt><trkpt lat="43.62216" lon="11.77442"><ele>549</ele><time>2012-05-28T11:56:32Z</time></trkpt><trkpt lat="43.62220" lon="11.77445"><ele>549</ele><time>2012-05-28T11:56:34Z</time></trkpt><trkpt lat="43.62228" lon="11.77450"><ele>549</ele><time>2012-05-28T11:56:38Z</time></trkpt><trkpt lat="43.62231" lon="11.77451"><ele>549</ele><time>2012-05-28T11:56:40Z</time></trkpt><trkpt lat="43.62240" lon="11.77455"><ele>550</ele><time>2012-05-28T11:56:45Z</time></trkpt><trkpt lat="43.62243" lon="11.77457"><ele>551</ele><time>2012-05-28T11:56:47Z</time></trkpt><trkpt lat="43.62250" lon="11.77460"><ele>550</ele><time>2012-05-28T11:56:50Z</time></trkpt><trkpt lat="43.62252" lon="11.77462"><ele>550</ele><time>2012-05-28T11:56:51Z</time></trkpt><trkpt lat="43.62254" lon="11.77463"><ele>551</ele><time>2012-05-28T11:56:52Z</time></trkpt><trkpt lat="43.62256" lon="11.77465"><ele>551</ele><time>2012-05-28T11:56:53Z</time></trkpt><trkpt lat="43.62263" lon="11.77471"><ele>553</ele><time>2012-05-28T11:56:56Z</time></trkpt><trkpt lat="43.62265" lon="11.77473"><ele>553</ele><time>2012-05-28T11:56:57Z</time></trkpt><trkpt lat="43.62271" lon="11.77480"><ele>552</ele><time>2012-05-28T11:57:01Z</time></trkpt><trkpt lat="43.62276" lon="11.77483"><ele>553</ele><time>2012-05-28T11:57:04Z</time></trkpt><trkpt lat="43.62283" lon="11.77486"><ele>551</ele><time>2012-05-28T11:57:09Z</time></trkpt><trkpt lat="43.62287" lon="11.77486"><ele>551</ele><time>2012-05-28T11:57:11Z</time></trkpt><trkpt lat="43.62290" lon="11.77486"><ele>550</ele><time>2012-05-28T11:57:12Z</time></trkpt><trkpt lat="43.62292" lon="11.77485"><ele>549</ele><time>2012-05-28T11:57:13Z</time></trkpt><trkpt lat="43.62299" lon="11.77483"><ele>550</ele><time>2012-05-28T11:57:16Z</time></trkpt><trkpt lat="43.62307" lon="11.77478"><ele>551</ele><time>2012-05-28T11:57:20Z</time></trkpt><trkpt lat="43.62311" lon="11.77474"><ele>550</ele><time>2012-05-28T11:57:23Z</time></trkpt><trkpt lat="43.62312" lon="11.77471"><ele>550</ele><time>2012-05-28T11:57:25Z</time></trkpt><trkpt lat="43.62311" lon="11.77468"><ele>551</ele><time>2012-05-28T11:57:28Z</time></trkpt><trkpt lat="43.62311" lon="11.77464"><ele>552</ele><time>2012-05-28T11:57:31Z</time></trkpt><trkpt lat="43.62312" lon="11.77460"><ele>553</ele><time>2012-05-28T11:57:33Z</time></trkpt><trkpt lat="43.62314" lon="11.77454"><ele>555</ele><time>2012-05-28T11:57:36Z</time></trkpt><trkpt lat="43.62317" lon="11.77450"><ele>556</ele><time>2012-05-28T11:57:38Z</time></trkpt><trkpt lat="43.62321" lon="11.77447"><ele>557</ele><time>2012-05-28T11:57:40Z</time></trkpt><trkpt lat="43.62331" lon="11.77440"><ele>557</ele><time>2012-05-28T11:57:45Z</time></trkpt><trkpt lat="43.62333" lon="11.77440"><ele>557</ele><time>2012-05-28T11:57:46Z</time></trkpt><trkpt lat="43.62340" lon="11.77439"><ele>556</ele><time>2012-05-28T11:57:49Z</time></trkpt><trkpt lat="43.62342" lon="11.77440"><ele>555</ele><time>2012-05-28T11:57:50Z</time></trkpt><trkpt lat="43.62347" lon="11.77441"><ele>556</ele><time>2012-05-28T11:57:52Z</time></trkpt><trkpt lat="43.62358" lon="11.77447"><ele>556</ele><time>2012-05-28T11:57:56Z</time></trkpt><trkpt lat="43.62361" lon="11.77449"><ele>557</ele><time>2012-05-28T11:57:57Z</time></trkpt><trkpt lat="43.62372" lon="11.77453"><ele>557</ele><time>2012-05-28T11:58:01Z</time></trkpt><trkpt lat="43.62374" lon="11.77454"><ele>559</ele><time>2012-05-28T11:58:03Z</time></trkpt><trkpt lat="43.62379" lon="11.77457"><ele>558</ele><time>2012-05-28T11:58:04Z</time></trkpt><trkpt lat="43.62383" lon="11.77460"><ele>559</ele><time>2012-05-28T11:58:06Z</time></trkpt><trkpt lat="43.62388" lon="11.77460"><ele>559</ele><time>2012-05-28T11:58:08Z</time></trkpt><trkpt lat="43.62390" lon="11.77459"><ele>560</ele><time>2012-05-28T11:58:09Z</time></trkpt><trkpt lat="43.62394" lon="11.77457"><ele>560</ele><time>2012-05-28T11:58:11Z</time></trkpt><trkpt lat="43.62403" lon="11.77453"><ele>562</ele><time>2012-05-28T11:58:17Z</time></trkpt><trkpt lat="43.62407" lon="11.77452"><ele>562</ele><time>2012-05-28T11:58:19Z</time></trkpt><trkpt lat="43.62417" lon="11.77449"><ele>563</ele><time>2012-05-28T11:58:25Z</time></trkpt><trkpt lat="43.62421" lon="11.77448"><ele>564</ele><time>2012-05-28T11:58:27Z</time></trkpt><trkpt lat="43.62426" lon="11.77444"><ele>564</ele><time>2012-05-28T11:58:30Z</time></trkpt><trkpt lat="43.62430" lon="11.77441"><ele>564</ele><time>2012-05-28T11:58:32Z</time></trkpt><trkpt lat="43.62438" lon="11.77433"><ele>564</ele><time>2012-05-28T11:58:37Z</time></trkpt><trkpt lat="43.62442" lon="11.77430"><ele>564</ele><time>2012-05-28T11:58:39Z</time></trkpt><trkpt lat="43.62452" lon="11.77425"><ele>565</ele><time>2012-05-28T11:58:44Z</time></trkpt><trkpt lat="43.62456" lon="11.77425"><ele>565</ele><time>2012-05-28T11:58:46Z</time></trkpt><trkpt lat="43.62460" lon="11.77426"><ele>565</ele><time>2012-05-28T11:58:48Z</time></trkpt><trkpt lat="43.62464" lon="11.77427"><ele>566</ele><time>2012-05-28T11:58:50Z</time></trkpt><trkpt lat="43.62468" lon="11.77430"><ele>565</ele><time>2012-05-28T11:58:52Z</time></trkpt><trkpt lat="43.62470" lon="11.77431"><ele>566</ele><time>2012-05-28T11:58:53Z</time></trkpt><trkpt lat="43.62475" lon="11.77436"><ele>566</ele><time>2012-05-28T11:58:55Z</time></trkpt><trkpt lat="43.62485" lon="11.77443"><ele>567</ele><time>2012-05-28T11:59:00Z</time></trkpt><trkpt lat="43.62488" lon="11.77443"><ele>567</ele><time>2012-05-28T11:59:01Z</time></trkpt><trkpt lat="43.62500" lon="11.77447"><ele>570</ele><time>2012-05-28T11:59:06Z</time></trkpt><trkpt lat="43.62511" lon="11.77449"><ele>571</ele><time>2012-05-28T11:59:11Z</time></trkpt><trkpt lat="43.62514" lon="11.77450"><ele>570</ele><time>2012-05-28T11:59:14Z</time></trkpt><trkpt lat="43.62518" lon="11.77450"><ele>570</ele><time>2012-05-28T11:59:16Z</time></trkpt><trkpt lat="43.62537" lon="11.77453"><ele>574</ele><time>2012-05-28T11:59:24Z</time></trkpt><trkpt lat="43.62540" lon="11.77453"><ele>574</ele><time>2012-05-28T11:59:26Z</time></trkpt><trkpt lat="43.62548" lon="11.77454"><ele>577</ele><time>2012-05-28T11:59:29Z</time></trkpt><trkpt lat="43.62557" lon="11.77452"><ele>577</ele><time>2012-05-28T11:59:32Z</time></trkpt><trkpt lat="43.62561" lon="11.77450"><ele>579</ele><time>2012-05-28T11:59:34Z</time></trkpt><trkpt lat="43.62569" lon="11.77444"><ele>580</ele><time>2012-05-28T11:59:39Z</time></trkpt><trkpt lat="43.62573" lon="11.77441"><ele>582</ele><time>2012-05-28T11:59:41Z</time></trkpt><trkpt lat="43.62577" lon="11.77439"><ele>585</ele><time>2012-05-28T11:59:43Z</time></trkpt><trkpt lat="43.62581" lon="11.77438"><ele>584</ele><time>2012-05-28T11:59:45Z</time></trkpt><trkpt lat="43.62585" lon="11.77435"><ele>586</ele><time>2012-05-28T11:59:47Z</time></trkpt><trkpt lat="43.62590" lon="11.77431"><ele>586</ele><time>2012-05-28T11:59:50Z</time></trkpt><trkpt lat="43.62594" lon="11.77430"><ele>587</ele><time>2012-05-28T11:59:52Z</time></trkpt><trkpt lat="43.62604" lon="11.77427"><ele>591</ele><time>2012-05-28T11:59:56Z</time></trkpt><trkpt lat="43.62606" lon="11.77426"><ele>591</ele><time>2012-05-28T11:59:57Z</time></trkpt><trkpt lat="43.62615" lon="11.77424"><ele>590</ele><time>2012-05-28T12:00:01Z</time></trkpt><trkpt lat="43.62618" lon="11.77425"><ele>591</ele><time>2012-05-28T12:00:02Z</time></trkpt><trkpt lat="43.62622" lon="11.77425"><ele>590</ele><time>2012-05-28T12:00:05Z</time></trkpt><trkpt lat="43.62632" lon="11.77424"><ele>592</ele><time>2012-05-28T12:00:11Z</time></trkpt><trkpt lat="43.62642" lon="11.77423"><ele>593</ele><time>2012-05-28T12:00:14Z</time></trkpt><trkpt lat="43.62645" lon="11.77422"><ele>593</ele><time>2012-05-28T12:00:15Z</time></trkpt><trkpt lat="43.62647" lon="11.77420"><ele>593</ele><time>2012-05-28T12:00:16Z</time></trkpt><trkpt lat="43.62650" lon="11.77419"><ele>593</ele><time>2012-05-28T12:00:17Z</time></trkpt><trkpt lat="43.62659" lon="11.77415"><ele>596</ele><time>2012-05-28T12:00:20Z</time></trkpt><trkpt lat="43.62662" lon="11.77414"><ele>596</ele><time>2012-05-28T12:00:21Z</time></trkpt><trkpt lat="43.62668" lon="11.77413"><ele>596</ele><time>2012-05-28T12:00:23Z</time></trkpt><trkpt lat="43.62677" lon="11.77412"><ele>596</ele><time>2012-05-28T12:00:27Z</time></trkpt><trkpt lat="43.62680" lon="11.77412"><ele>596</ele><time>2012-05-28T12:00:28Z</time></trkpt><trkpt lat="43.62689" lon="11.77411"><ele>599</ele><time>2012-05-28T12:00:32Z</time></trkpt><trkpt lat="43.62691" lon="11.77411"><ele>599</ele><time>2012-05-28T12:00:33Z</time></trkpt><trkpt lat="43.62704" lon="11.77408"><ele>597</ele><time>2012-05-28T12:00:38Z</time></trkpt><trkpt lat="43.62710" lon="11.77407"><ele>598</ele><time>2012-05-28T12:00:39Z</time></trkpt><trkpt lat="43.62719" lon="11.77408"><ele>595</ele><time>2012-05-28T12:00:42Z</time></trkpt><trkpt lat="43.62722" lon="11.77409"><ele>594</ele><time>2012-05-28T12:00:44Z</time></trkpt><trkpt lat="43.62728" lon="11.77410"><ele>596</ele><time>2012-05-28T12:00:45Z</time></trkpt><trkpt lat="43.62731" lon="11.77412"><ele>598</ele><time>2012-05-28T12:00:46Z</time></trkpt><trkpt lat="43.62734" lon="11.77414"><ele>598</ele><time>2012-05-28T12:00:48Z</time></trkpt><trkpt lat="43.62755" lon="11.77429"><ele>600</ele><time>2012-05-28T12:00:55Z</time></trkpt><trkpt lat="43.62759" lon="11.77429"><ele>600</ele><time>2012-05-28T12:00:57Z</time></trkpt><trkpt lat="43.62764" lon="11.77430"><ele>600</ele><time>2012-05-28T12:01:00Z</time></trkpt><trkpt lat="43.62769" lon="11.77429"><ele>600</ele><time>2012-05-28T12:01:01Z</time></trkpt><trkpt lat="43.62772" lon="11.77429"><ele>600</ele><time>2012-05-28T12:01:02Z</time></trkpt><trkpt lat="43.62774" lon="11.77427"><ele>600</ele><time>2012-05-28T12:01:03Z</time></trkpt><trkpt lat="43.62777" lon="11.77426"><ele>600</ele><time>2012-05-28T12:01:04Z</time></trkpt><trkpt lat="43.62784" lon="11.77421"><ele>600</ele><time>2012-05-28T12:01:08Z</time></trkpt><trkpt lat="43.62787" lon="11.77417"><ele>602</ele><time>2012-05-28T12:01:10Z</time></trkpt><trkpt lat="43.62795" lon="11.77407"><ele>606</ele><time>2012-05-28T12:01:15Z</time></trkpt><trkpt lat="43.62796" lon="11.77403"><ele>606</ele><time>2012-05-28T12:01:18Z</time></trkpt><trkpt lat="43.62796" lon="11.77398"><ele>607</ele><time>2012-05-28T12:01:19Z</time></trkpt><trkpt lat="43.62790" lon="11.77393"><ele>607</ele><time>2012-05-28T12:01:22Z</time></trkpt><trkpt lat="43.62788" lon="11.77392"><ele>607</ele><time>2012-05-28T12:01:23Z</time></trkpt><trkpt lat="43.62780" lon="11.77389"><ele>607</ele><time>2012-05-28T12:01:27Z</time></trkpt><trkpt lat="43.62776" lon="11.77389"><ele>607</ele><time>2012-05-28T12:01:30Z</time></trkpt><trkpt lat="43.62770" lon="11.77391"><ele>606</ele><time>2012-05-28T12:01:31Z</time></trkpt><trkpt lat="43.62768" lon="11.77392"><ele>608</ele><time>2012-05-28T12:01:32Z</time></trkpt><trkpt lat="43.62763" lon="11.77395"><ele>608</ele><time>2012-05-28T12:01:34Z</time></trkpt><trkpt lat="43.62753" lon="11.77399"><ele>608</ele><time>2012-05-28T12:01:39Z</time></trkpt><trkpt lat="43.62748" lon="11.77399"><ele>608</ele><time>2012-05-28T12:01:40Z</time></trkpt><trkpt lat="43.62746" lon="11.77397"><ele>608</ele><time>2012-05-28T12:01:41Z</time></trkpt><trkpt lat="43.62743" lon="11.77393"><ele>606</ele><time>2012-05-28T12:01:43Z</time></trkpt><trkpt lat="43.62741" lon="11.77388"><ele>606</ele><time>2012-05-28T12:01:44Z</time></trkpt><trkpt lat="43.62740" lon="11.77384"><ele>605</ele><time>2012-05-28T12:01:45Z</time></trkpt><trkpt lat="43.62739" lon="11.77380"><ele>606</ele><time>2012-05-28T12:01:47Z</time></trkpt><trkpt lat="43.62735" lon="11.77371"><ele>606</ele><time>2012-05-28T12:01:48Z</time></trkpt><trkpt lat="43.62729" lon="11.77359"><ele>605</ele><time>2012-05-28T12:01:52Z</time></trkpt><trkpt lat="43.62728" lon="11.77356"><ele>605</ele><time>2012-05-28T12:01:54Z</time></trkpt><trkpt lat="43.62721" lon="11.77352"><ele>609</ele><time>2012-05-28T12:01:56Z</time></trkpt><trkpt lat="43.62716" lon="11.77348"><ele>609</ele><time>2012-05-28T12:01:58Z</time></trkpt><trkpt lat="43.62708" lon="11.77344"><ele>617</ele><time>2012-05-28T12:02:01Z</time></trkpt><trkpt lat="43.62686" lon="11.77330"><ele>619</ele><time>2012-05-28T12:02:09Z</time></trkpt><trkpt lat="43.62680" lon="11.77327"><ele>620</ele><time>2012-05-28T12:02:11Z</time></trkpt><trkpt lat="43.62672" lon="11.77322"><ele>620</ele><time>2012-05-28T12:02:14Z</time></trkpt><trkpt lat="43.62669" lon="11.77319"><ele>619</ele><time>2012-05-28T12:02:15Z</time></trkpt><trkpt lat="43.62659" lon="11.77311"><ele>619</ele><time>2012-05-28T12:02:20Z</time></trkpt><trkpt lat="43.62653" lon="11.77307"><ele>619</ele><time>2012-05-28T12:02:21Z</time></trkpt><trkpt lat="43.62650" lon="11.77305"><ele>618</ele><time>2012-05-28T12:02:22Z</time></trkpt><trkpt lat="43.62647" lon="11.77304"><ele>618</ele><time>2012-05-28T12:02:23Z</time></trkpt><trkpt lat="43.62644" lon="11.77301"><ele>619</ele><time>2012-05-28T12:02:24Z</time></trkpt><trkpt lat="43.62639" lon="11.77296"><ele>620</ele><time>2012-05-28T12:02:26Z</time></trkpt><trkpt lat="43.62637" lon="11.77292"><ele>619</ele><time>2012-05-28T12:02:27Z</time></trkpt><trkpt lat="43.62635" lon="11.77288"><ele>619</ele><time>2012-05-28T12:02:28Z</time></trkpt><trkpt lat="43.62634" lon="11.77285"><ele>618</ele><time>2012-05-28T12:02:30Z</time></trkpt><trkpt lat="43.62632" lon="11.77281"><ele>619</ele><time>2012-05-28T12:02:31Z</time></trkpt><trkpt lat="43.62630" lon="11.77275"><ele>619</ele><time>2012-05-28T12:02:32Z</time></trkpt><trkpt lat="43.62626" lon="11.77261"><ele>619</ele><time>2012-05-28T12:02:37Z</time></trkpt><trkpt lat="43.62624" lon="11.77258"><ele>620</ele><time>2012-05-28T12:02:38Z</time></trkpt><trkpt lat="43.62620" lon="11.77255"><ele>621</ele><time>2012-05-28T12:02:40Z</time></trkpt><trkpt lat="43.62613" lon="11.77250"><ele>628</ele><time>2012-05-28T12:02:43Z</time></trkpt><trkpt lat="43.62610" lon="11.77248"><ele>628</ele><time>2012-05-28T12:02:44Z</time></trkpt><trkpt lat="43.62599" lon="11.77240"><ele>630</ele><time>2012-05-28T12:02:49Z</time></trkpt><trkpt lat="43.62595" lon="11.77236"><ele>628</ele><time>2012-05-28T12:02:50Z</time></trkpt><trkpt lat="43.62590" lon="11.77231"><ele>629</ele><time>2012-05-28T12:02:52Z</time></trkpt><trkpt lat="43.62588" lon="11.77229"><ele>628</ele><time>2012-05-28T12:02:53Z</time></trkpt><trkpt lat="43.62586" lon="11.77227"><ele>628</ele><time>2012-05-28T12:02:54Z</time></trkpt><trkpt lat="43.62584" lon="11.77224"><ele>628</ele><time>2012-05-28T12:02:55Z</time></trkpt><trkpt lat="43.62583" lon="11.77221"><ele>628</ele><time>2012-05-28T12:02:56Z</time></trkpt><trkpt lat="43.62581" lon="11.77218"><ele>627</ele><time>2012-05-28T12:02:57Z</time></trkpt><trkpt lat="43.62579" lon="11.77215"><ele>627</ele><time>2012-05-28T12:02:58Z</time></trkpt><trkpt lat="43.62577" lon="11.77214"><ele>627</ele><time>2012-05-28T12:02:59Z</time></trkpt><trkpt lat="43.62571" lon="11.77211"><ele>628</ele><time>2012-05-28T12:03:01Z</time></trkpt><trkpt lat="43.62568" lon="11.77209"><ele>627</ele><time>2012-05-28T12:03:02Z</time></trkpt><trkpt lat="43.62560" lon="11.77201"><ele>626</ele><time>2012-05-28T12:03:05Z</time></trkpt><trkpt lat="43.62557" lon="11.77198"><ele>626</ele><time>2012-05-28T12:03:06Z</time></trkpt><trkpt lat="43.62555" lon="11.77195"><ele>626</ele><time>2012-05-28T12:03:07Z</time></trkpt><trkpt lat="43.62536" lon="11.77177"><ele>630</ele><time>2012-05-28T12:03:15Z</time></trkpt><trkpt lat="43.62534" lon="11.77175"><ele>630</ele><time>2012-05-28T12:03:17Z</time></trkpt><trkpt lat="43.62530" lon="11.77172"><ele>634</ele><time>2012-05-28T12:03:18Z</time></trkpt><trkpt lat="43.62527" lon="11.77171"><ele>635</ele><time>2012-05-28T12:03:19Z</time></trkpt><trkpt lat="43.62524" lon="11.77171"><ele>637</ele><time>2012-05-28T12:03:20Z</time></trkpt><trkpt lat="43.62513" lon="11.77172"><ele>637</ele><time>2012-05-28T12:03:24Z</time></trkpt><trkpt lat="43.62510" lon="11.77173"><ele>637</ele><time>2012-05-28T12:03:25Z</time></trkpt><trkpt lat="43.62506" lon="11.77175"><ele>635</ele><time>2012-05-28T12:03:27Z</time></trkpt><trkpt lat="43.62503" lon="11.77179"><ele>635</ele><time>2012-05-28T12:03:30Z</time></trkpt><trkpt lat="43.62486" lon="11.77200"><ele>638</ele><time>2012-05-28T12:03:37Z</time></trkpt><trkpt lat="43.62483" lon="11.77201"><ele>640</ele><time>2012-05-28T12:03:38Z</time></trkpt><trkpt lat="43.62481" lon="11.77204"><ele>641</ele><time>2012-05-28T12:03:39Z</time></trkpt><trkpt lat="43.62478" lon="11.77204"><ele>641</ele><time>2012-05-28T12:03:40Z</time></trkpt><trkpt lat="43.62475" lon="11.77203"><ele>641</ele><time>2012-05-28T12:03:41Z</time></trkpt><trkpt lat="43.62472" lon="11.77202"><ele>642</ele><time>2012-05-28T12:03:42Z</time></trkpt><trkpt lat="43.62470" lon="11.77201"><ele>642</ele><time>2012-05-28T12:03:43Z</time></trkpt><trkpt lat="43.62467" lon="11.77200"><ele>642</ele><time>2012-05-28T12:03:44Z</time></trkpt><trkpt lat="43.62465" lon="11.77199"><ele>637</ele><time>2012-05-28T12:03:45Z</time></trkpt><trkpt lat="43.62460" lon="11.77196"><ele>638</ele><time>2012-05-28T12:03:47Z</time></trkpt><trkpt lat="43.62458" lon="11.77195"><ele>639</ele><time>2012-05-28T12:03:49Z</time></trkpt><trkpt lat="43.62452" lon="11.77193"><ele>638</ele><time>2012-05-28T12:03:51Z</time></trkpt><trkpt lat="43.62448" lon="11.77188"><ele>638</ele><time>2012-05-28T12:03:52Z</time></trkpt><trkpt lat="43.62446" lon="11.77184"><ele>636</ele><time>2012-05-28T12:03:54Z</time></trkpt><trkpt lat="43.62434" lon="11.77171"><ele>639</ele><time>2012-05-28T12:04:00Z</time></trkpt><trkpt lat="43.62431" lon="11.77169"><ele>639</ele><time>2012-05-28T12:04:01Z</time></trkpt><trkpt lat="43.62428" lon="11.77169"><ele>638</ele><time>2012-05-28T12:04:02Z</time></trkpt><trkpt lat="43.62425" lon="11.77168"><ele>639</ele><time>2012-05-28T12:04:03Z</time></trkpt><trkpt lat="43.62422" lon="11.77169"><ele>639</ele><time>2012-05-28T12:04:04Z</time></trkpt><trkpt lat="43.62415" lon="11.77170"><ele>640</ele><time>2012-05-28T12:04:06Z</time></trkpt><trkpt lat="43.62406" lon="11.77171"><ele>640</ele><time>2012-05-28T12:04:09Z</time></trkpt><trkpt lat="43.62401" lon="11.77171"><ele>640</ele><time>2012-05-28T12:04:11Z</time></trkpt><trkpt lat="43.62398" lon="11.77172"><ele>641</ele><time>2012-05-28T12:04:12Z</time></trkpt><trkpt lat="43.62396" lon="11.77173"><ele>643</ele><time>2012-05-28T12:04:14Z</time></trkpt><trkpt lat="43.62390" lon="11.77173"><ele>641</ele><time>2012-05-28T12:04:15Z</time></trkpt><trkpt lat="43.62384" lon="11.77174"><ele>641</ele><time>2012-05-28T12:04:17Z</time></trkpt><trkpt lat="43.62382" lon="11.77176"><ele>642</ele><time>2012-05-28T12:04:18Z</time></trkpt><trkpt lat="43.62380" lon="11.77178"><ele>643</ele><time>2012-05-28T12:04:20Z</time></trkpt><trkpt lat="43.62378" lon="11.77185"><ele>644</ele><time>2012-05-28T12:04:22Z</time></trkpt><trkpt lat="43.62374" lon="11.77188"><ele>644</ele><time>2012-05-28T12:04:23Z</time></trkpt><trkpt lat="43.62370" lon="11.77190"><ele>645</ele><time>2012-05-28T12:04:26Z</time></trkpt><trkpt lat="43.62359" lon="11.77195"><ele>645</ele><time>2012-05-28T12:04:31Z</time></trkpt><trkpt lat="43.62355" lon="11.77196"><ele>646</ele><time>2012-05-28T12:04:33Z</time></trkpt><trkpt lat="43.62344" lon="11.77198"><ele>647</ele><time>2012-05-28T12:04:37Z</time></trkpt><trkpt lat="43.62341" lon="11.77198"><ele>647</ele><time>2012-05-28T12:04:38Z</time></trkpt><trkpt lat="43.62339" lon="11.77198"><ele>647</ele><time>2012-05-28T12:04:39Z</time></trkpt><trkpt lat="43.62334" lon="11.77196"><ele>647</ele><time>2012-05-28T12:04:41Z</time></trkpt><trkpt lat="43.62333" lon="11.77193"><ele>647</ele><time>2012-05-28T12:04:42Z</time></trkpt><trkpt lat="43.62331" lon="11.77187"><ele>649</ele><time>2012-05-28T12:04:44Z</time></trkpt><trkpt lat="43.62330" lon="11.77181"><ele>648</ele><time>2012-05-28T12:04:46Z</time></trkpt><trkpt lat="43.62329" lon="11.77178"><ele>647</ele><time>2012-05-28T12:04:47Z</time></trkpt><trkpt lat="43.62329" lon="11.77174"><ele>647</ele><time>2012-05-28T12:04:48Z</time></trkpt><trkpt lat="43.62330" lon="11.77169"><ele>647</ele><time>2012-05-28T12:04:49Z</time></trkpt><trkpt lat="43.62333" lon="11.77153"><ele>649</ele><time>2012-05-28T12:04:54Z</time></trkpt><trkpt lat="43.62335" lon="11.77149"><ele>648</ele><time>2012-05-28T12:04:55Z</time></trkpt><trkpt lat="43.62336" lon="11.77146"><ele>647</ele><time>2012-05-28T12:04:56Z</time></trkpt><trkpt lat="43.62339" lon="11.77142"><ele>647</ele><time>2012-05-28T12:04:57Z</time></trkpt><trkpt lat="43.62341" lon="11.77139"><ele>645</ele><time>2012-05-28T12:04:59Z</time></trkpt><trkpt lat="43.62343" lon="11.77137"><ele>645</ele><time>2012-05-28T12:05:02Z</time></trkpt><trkpt lat="43.62348" lon="11.77137"><ele>646</ele><time>2012-05-28T12:05:03Z</time></trkpt><trkpt lat="43.62359" lon="11.77137"><ele>647</ele><time>2012-05-28T12:05:08Z</time></trkpt><trkpt lat="43.62364" lon="11.77136"><ele>647</ele><time>2012-05-28T12:05:10Z</time></trkpt><trkpt lat="43.62371" lon="11.77136"><ele>647</ele><time>2012-05-28T12:05:13Z</time></trkpt><trkpt lat="43.62374" lon="11.77136"><ele>646</ele><time>2012-05-28T12:05:14Z</time></trkpt><trkpt lat="43.62377" lon="11.77136"><ele>647</ele><time>2012-05-28T12:05:16Z</time></trkpt><trkpt lat="43.62382" lon="11.77134"><ele>647</ele><time>2012-05-28T12:05:17Z</time></trkpt><trkpt lat="43.62386" lon="11.77132"><ele>649</ele><time>2012-05-28T12:05:19Z</time></trkpt><trkpt lat="43.62389" lon="11.77132"><ele>649</ele><time>2012-05-28T12:05:23Z</time></trkpt><trkpt lat="43.62391" lon="11.77133"><ele>650</ele><time>2012-05-28T12:05:25Z</time></trkpt><trkpt lat="43.62394" lon="11.77133"><ele>650</ele><time>2012-05-28T12:05:27Z</time></trkpt><trkpt lat="43.62398" lon="11.77133"><ele>650</ele><time>2012-05-28T12:05:30Z</time></trkpt><trkpt lat="43.62401" lon="11.77129"><ele>655</ele><time>2012-05-28T12:05:34Z</time></trkpt><trkpt lat="43.62409" lon="11.77119"><ele>649</ele><time>2012-05-28T12:05:40Z</time></trkpt><trkpt lat="43.62412" lon="11.77116"><ele>648</ele><time>2012-05-28T12:05:42Z</time></trkpt><trkpt lat="43.62415" lon="11.77113"><ele>648</ele><time>2012-05-28T12:05:44Z</time></trkpt><trkpt lat="43.62421" lon="11.77102"><ele>649</ele><time>2012-05-28T12:05:50Z</time></trkpt><trkpt lat="43.62422" lon="11.77097"><ele>649</ele><time>2012-05-28T12:05:52Z</time></trkpt><trkpt lat="43.62423" lon="11.77091"><ele>650</ele><time>2012-05-28T12:05:55Z</time></trkpt><trkpt lat="43.62425" lon="11.77088"><ele>649</ele><time>2012-05-28T12:05:57Z</time></trkpt><trkpt lat="43.62426" lon="11.77085"><ele>649</ele><time>2012-05-28T12:05:59Z</time></trkpt><trkpt lat="43.62428" lon="11.77078"><ele>649</ele><time>2012-05-28T12:06:02Z</time></trkpt><trkpt lat="43.62432" lon="11.77064"><ele>650</ele><time>2012-05-28T12:06:08Z</time></trkpt><trkpt lat="43.62433" lon="11.77061"><ele>651</ele><time>2012-05-28T12:06:10Z</time></trkpt><trkpt lat="43.62433" lon="11.77058"><ele>650</ele><time>2012-05-28T12:06:12Z</time></trkpt><trkpt lat="43.62433" lon="11.77054"><ele>652</ele><time>2012-05-28T12:06:14Z</time></trkpt><trkpt lat="43.62434" lon="11.77049"><ele>654</ele><time>2012-05-28T12:06:16Z</time></trkpt><trkpt lat="43.62438" lon="11.77037"><ele>655</ele><time>2012-05-28T12:06:21Z</time></trkpt><trkpt lat="43.62439" lon="11.77033"><ele>656</ele><time>2012-05-28T12:06:23Z</time></trkpt><trkpt lat="43.62441" lon="11.77028"><ele>657</ele><time>2012-05-28T12:06:26Z</time></trkpt><trkpt lat="43.62443" lon="11.77016"><ele>657</ele><time>2012-05-28T12:06:33Z</time></trkpt><trkpt lat="43.62443" lon="11.77012"><ele>657</ele><time>2012-05-28T12:06:35Z</time></trkpt><trkpt lat="43.62445" lon="11.76984"><ele>659</ele><time>2012-05-28T12:06:47Z</time></trkpt><trkpt lat="43.62445" lon="11.76979"><ele>661</ele><time>2012-05-28T12:06:49Z</time></trkpt><trkpt lat="43.62445" lon="11.76965"><ele>663</ele><time>2012-05-28T12:06:54Z</time></trkpt><trkpt lat="43.62444" lon="11.76961"><ele>664</ele><time>2012-05-28T12:06:57Z</time></trkpt><trkpt lat="43.62440" lon="11.76949"><ele>667</ele><time>2012-05-28T12:07:03Z</time></trkpt><trkpt lat="43.62440" lon="11.76945"><ele>668</ele><time>2012-05-28T12:07:04Z</time></trkpt><trkpt lat="43.62440" lon="11.76941"><ele>671</ele><time>2012-05-28T12:07:06Z</time></trkpt><trkpt lat="43.62439" lon="11.76937"><ele>672</ele><time>2012-05-28T12:07:08Z</time></trkpt><trkpt lat="43.62437" lon="11.76932"><ele>673</ele><time>2012-05-28T12:07:09Z</time></trkpt><trkpt lat="43.62435" lon="11.76928"><ele>674</ele><time>2012-05-28T12:07:11Z</time></trkpt><trkpt lat="43.62433" lon="11.76925"><ele>674</ele><time>2012-05-28T12:07:14Z</time></trkpt><trkpt lat="43.62431" lon="11.76924"><ele>675</ele><time>2012-05-28T12:07:17Z</time></trkpt><trkpt lat="43.62428" lon="11.76923"><ele>674</ele><time>2012-05-28T12:07:19Z</time></trkpt><trkpt lat="43.62407" lon="11.76914"><ele>673</ele><time>2012-05-28T12:07:31Z</time></trkpt><trkpt lat="43.62405" lon="11.76912"><ele>674</ele><time>2012-05-28T12:07:32Z</time></trkpt><trkpt lat="43.62404" lon="11.76910"><ele>675</ele><time>2012-05-28T12:07:33Z</time></trkpt><trkpt lat="43.62400" lon="11.76907"><ele>674</ele><time>2012-05-28T12:07:35Z</time></trkpt><trkpt lat="43.62397" lon="11.76906"><ele>674</ele><time>2012-05-28T12:07:36Z</time></trkpt><trkpt lat="43.62394" lon="11.76905"><ele>674</ele><time>2012-05-28T12:07:37Z</time></trkpt><trkpt lat="43.62391" lon="11.76905"><ele>675</ele><time>2012-05-28T12:07:38Z</time></trkpt><trkpt lat="43.62388" lon="11.76903"><ele>674</ele><time>2012-05-28T12:07:39Z</time></trkpt><trkpt lat="43.62385" lon="11.76901"><ele>674</ele><time>2012-05-28T12:07:40Z</time></trkpt><trkpt lat="43.62383" lon="11.76898"><ele>674</ele><time>2012-05-28T12:07:41Z</time></trkpt><trkpt lat="43.62375" lon="11.76889"><ele>674</ele><time>2012-05-28T12:07:45Z</time></trkpt><trkpt lat="43.62372" lon="11.76887"><ele>674</ele><time>2012-05-28T12:07:46Z</time></trkpt><trkpt lat="43.62369" lon="11.76884"><ele>675</ele><time>2012-05-28T12:07:47Z</time></trkpt><trkpt lat="43.62365" lon="11.76881"><ele>677</ele><time>2012-05-28T12:07:49Z</time></trkpt><trkpt lat="43.62361" lon="11.76880"><ele>677</ele><time>2012-05-28T12:07:51Z</time></trkpt><trkpt lat="43.62358" lon="11.76880"><ele>677</ele><time>2012-05-28T12:07:53Z</time></trkpt><trkpt lat="43.62336" lon="11.76880"><ele>683</ele><time>2012-05-28T12:08:04Z</time></trkpt><trkpt lat="43.62331" lon="11.76880"><ele>684</ele><time>2012-05-28T12:08:06Z</time></trkpt><trkpt lat="43.62329" lon="11.76880"><ele>685</ele><time>2012-05-28T12:08:07Z</time></trkpt><trkpt lat="43.62326" lon="11.76881"><ele>686</ele><time>2012-05-28T12:08:08Z</time></trkpt><trkpt lat="43.62322" lon="11.76884"><ele>688</ele><time>2012-05-28T12:08:10Z</time></trkpt><trkpt lat="43.62312" lon="11.76889"><ele>688</ele><time>2012-05-28T12:08:14Z</time></trkpt><trkpt lat="43.62307" lon="11.76890"><ele>689</ele><time>2012-05-28T12:08:16Z</time></trkpt><trkpt lat="43.62304" lon="11.76891"><ele>689</ele><time>2012-05-28T12:08:18Z</time></trkpt><trkpt lat="43.62292" lon="11.76895"><ele>687</ele><time>2012-05-28T12:08:22Z</time></trkpt><trkpt lat="43.62289" lon="11.76895"><ele>688</ele><time>2012-05-28T12:08:24Z</time></trkpt><trkpt lat="43.62285" lon="11.76894"><ele>690</ele><time>2012-05-28T12:08:25Z</time></trkpt><trkpt lat="43.62275" lon="11.76892"><ele>691</ele><time>2012-05-28T12:08:27Z</time></trkpt><trkpt lat="43.62272" lon="11.76892"><ele>692</ele><time>2012-05-28T12:08:29Z</time></trkpt><trkpt lat="43.62262" lon="11.76888"><ele>693</ele><time>2012-05-28T12:08:33Z</time></trkpt><trkpt lat="43.62254" lon="11.76886"><ele>693</ele><time>2012-05-28T12:08:37Z</time></trkpt><trkpt lat="43.62243" lon="11.76881"><ele>693</ele><time>2012-05-28T12:08:41Z</time></trkpt><trkpt lat="43.62241" lon="11.76879"><ele>693</ele><time>2012-05-28T12:08:42Z</time></trkpt><trkpt lat="43.62239" lon="11.76877"><ele>692</ele><time>2012-05-28T12:08:43Z</time></trkpt><trkpt lat="43.62234" lon="11.76869"><ele>692</ele><time>2012-05-28T12:08:47Z</time></trkpt><trkpt lat="43.62233" lon="11.76866"><ele>691</ele><time>2012-05-28T12:08:49Z</time></trkpt><trkpt lat="43.62231" lon="11.76862"><ele>693</ele><time>2012-05-28T12:08:52Z</time></trkpt><trkpt lat="43.62230" lon="11.76858"><ele>694</ele><time>2012-05-28T12:08:55Z</time></trkpt><trkpt lat="43.62223" lon="11.76849"><ele>699</ele><time>2012-05-28T12:09:00Z</time></trkpt><trkpt lat="43.62220" lon="11.76846"><ele>698</ele><time>2012-05-28T12:09:02Z</time></trkpt><trkpt lat="43.62217" lon="11.76842"><ele>698</ele><time>2012-05-28T12:09:05Z</time></trkpt><trkpt lat="43.62214" lon="11.76834"><ele>698</ele><time>2012-05-28T12:09:08Z</time></trkpt><trkpt lat="43.62214" lon="11.76826"><ele>698</ele><time>2012-05-28T12:09:11Z</time></trkpt><trkpt lat="43.62215" lon="11.76819"><ele>698</ele><time>2012-05-28T12:09:13Z</time></trkpt><trkpt lat="43.62215" lon="11.76816"><ele>698</ele><time>2012-05-28T12:09:14Z</time></trkpt><trkpt lat="43.62217" lon="11.76812"><ele>698</ele><time>2012-05-28T12:09:15Z</time></trkpt><trkpt lat="43.62220" lon="11.76805"><ele>697</ele><time>2012-05-28T12:09:17Z</time></trkpt><trkpt lat="43.62222" lon="11.76802"><ele>697</ele><time>2012-05-28T12:09:18Z</time></trkpt><trkpt lat="43.62225" lon="11.76799"><ele>697</ele><time>2012-05-28T12:09:19Z</time></trkpt><trkpt lat="43.62227" lon="11.76796"><ele>697</ele><time>2012-05-28T12:09:20Z</time></trkpt><trkpt lat="43.62236" lon="11.76789"><ele>697</ele><time>2012-05-28T12:09:24Z</time></trkpt><trkpt lat="43.62239" lon="11.76785"><ele>696</ele><time>2012-05-28T12:09:26Z</time></trkpt><trkpt lat="43.62247" lon="11.76774"><ele>694</ele><time>2012-05-28T12:09:31Z</time></trkpt><trkpt lat="43.62249" lon="11.76771"><ele>694</ele><time>2012-05-28T12:09:32Z</time></trkpt><trkpt lat="43.62254" lon="11.76757"><ele>693</ele><time>2012-05-28T12:09:37Z</time></trkpt><trkpt lat="43.62259" lon="11.76749"><ele>693</ele><time>2012-05-28T12:09:38Z</time></trkpt><trkpt lat="43.62266" lon="11.76737"><ele>694</ele><time>2012-05-28T12:09:42Z</time></trkpt><trkpt lat="43.62269" lon="11.76734"><ele>694</ele><time>2012-05-28T12:09:43Z</time></trkpt><trkpt lat="43.62289" lon="11.76709"><ele>695</ele><time>2012-05-28T12:09:51Z</time></trkpt><trkpt lat="43.62290" lon="11.76705"><ele>696</ele><time>2012-05-28T12:09:52Z</time></trkpt><trkpt lat="43.62296" lon="11.76695"><ele>697</ele><time>2012-05-28T12:09:56Z</time></trkpt><trkpt lat="43.62299" lon="11.76692"><ele>696</ele><time>2012-05-28T12:09:58Z</time></trkpt><trkpt lat="43.62302" lon="11.76690"><ele>696</ele><time>2012-05-28T12:09:59Z</time></trkpt><trkpt lat="43.62304" lon="11.76689"><ele>697</ele><time>2012-05-28T12:10:00Z</time></trkpt><trkpt lat="43.62315" lon="11.76684"><ele>695</ele><time>2012-05-28T12:10:04Z</time></trkpt><trkpt lat="43.62323" lon="11.76679"><ele>695</ele><time>2012-05-28T12:10:08Z</time></trkpt><trkpt lat="43.62325" lon="11.76677"><ele>696</ele><time>2012-05-28T12:10:09Z</time></trkpt><trkpt lat="43.62330" lon="11.76671"><ele>698</ele><time>2012-05-28T12:10:12Z</time></trkpt><trkpt lat="43.62331" lon="11.76667"><ele>698</ele><time>2012-05-28T12:10:14Z</time></trkpt><trkpt lat="43.62333" lon="11.76662"><ele>698</ele><time>2012-05-28T12:10:16Z</time></trkpt><trkpt lat="43.62336" lon="11.76648"><ele>699</ele><time>2012-05-28T12:10:21Z</time></trkpt><trkpt lat="43.62337" lon="11.76642"><ele>699</ele><time>2012-05-28T12:10:23Z</time></trkpt><trkpt lat="43.62337" lon="11.76638"><ele>699</ele><time>2012-05-28T12:10:25Z</time></trkpt><trkpt lat="43.62339" lon="11.76627"><ele>700</ele><time>2012-05-28T12:10:27Z</time></trkpt><trkpt lat="43.62339" lon="11.76623"><ele>700</ele><time>2012-05-28T12:10:28Z</time></trkpt><trkpt lat="43.62340" lon="11.76609"><ele>699</ele><time>2012-05-28T12:10:32Z</time></trkpt><trkpt lat="43.62341" lon="11.76605"><ele>699</ele><time>2012-05-28T12:10:33Z</time></trkpt><trkpt lat="43.62342" lon="11.76603"><ele>699</ele><time>2012-05-28T12:10:34Z</time></trkpt><trkpt lat="43.62345" lon="11.76598"><ele>700</ele><time>2012-05-28T12:10:37Z</time></trkpt><trkpt lat="43.62347" lon="11.76595"><ele>697</ele><time>2012-05-28T12:10:47Z</time></trkpt><trkpt lat="43.62350" lon="11.76592"><ele>700</ele><time>2012-05-28T12:10:51Z</time></trkpt><trkpt lat="43.62352" lon="11.76593"><ele>702</ele><time>2012-05-28T12:10:52Z</time></trkpt><trkpt lat="43.62352" lon="11.76597"><ele>700</ele><time>2012-05-28T12:10:57Z</time></trkpt><trkpt lat="43.62353" lon="11.76600"><ele>700</ele><time>2012-05-28T12:11:02Z</time></trkpt><trkpt lat="43.62351" lon="11.76602"><ele>704</ele><time>2012-05-28T12:11:09Z</time></trkpt><trkpt lat="43.62353" lon="11.76604"><ele>705</ele><time>2012-05-28T12:11:22Z</time></trkpt><trkpt lat="43.62354" lon="11.76600"><ele>711</ele><time>2012-05-28T12:11:27Z</time></trkpt><trkpt lat="43.62353" lon="11.76597"><ele>712</ele><time>2012-05-28T12:11:31Z</time></trkpt><trkpt lat="43.62350" lon="11.76597"><ele>713</ele><time>2012-05-28T12:11:36Z</time></trkpt><trkpt lat="43.62349" lon="11.76600"><ele>717</ele><time>2012-05-28T12:11:41Z</time></trkpt><trkpt lat="43.62348" lon="11.76603"><ele>719</ele><time>2012-05-28T12:11:44Z</time></trkpt><trkpt lat="43.62343" lon="11.76604"><ele>719</ele><time>2012-05-28T12:11:51Z</time></trkpt><trkpt lat="43.62340" lon="11.76597"><ele>721</ele><time>2012-05-28T12:12:06Z</time></trkpt><trkpt lat="43.62341" lon="11.76594"><ele>715</ele><time>2012-05-28T12:12:13Z</time></trkpt><trkpt lat="43.62343" lon="11.76601"><ele>718</ele><time>2012-05-28T12:12:50Z</time></trkpt><trkpt lat="43.62346" lon="11.76604"><ele>721</ele><time>2012-05-28T12:12:57Z</time></trkpt><trkpt lat="43.62348" lon="11.76608"><ele>721</ele><time>2012-05-28T12:13:02Z</time></trkpt><trkpt lat="43.62351" lon="11.76612"><ele>719</ele><time>2012-05-28T12:13:05Z</time></trkpt><trkpt lat="43.62353" lon="11.76613"><ele>719</ele><time>2012-05-28T12:13:07Z</time></trkpt><trkpt lat="43.62355" lon="11.76613"><ele>717</ele><time>2012-05-28T12:13:10Z</time></trkpt><trkpt lat="43.62358" lon="11.76615"><ele>715</ele><time>2012-05-28T12:13:19Z</time></trkpt><trkpt lat="43.62357" lon="11.76612"><ele>712</ele><time>2012-05-28T12:13:36Z</time></trkpt><trkpt lat="43.62359" lon="11.76609"><ele>713</ele><time>2012-05-28T12:13:40Z</time></trkpt><trkpt lat="43.62356" lon="11.76609"><ele>714</ele><time>2012-05-28T12:14:04Z</time></trkpt><trkpt lat="43.62358" lon="11.76604"><ele>711</ele><time>2012-05-28T12:14:37Z</time></trkpt><trkpt lat="43.62360" lon="11.76600"><ele>714</ele><time>2012-05-28T12:14:41Z</time></trkpt><trkpt lat="43.62357" lon="11.76599"><ele>712</ele><time>2012-05-28T12:14:45Z</time></trkpt><trkpt lat="43.62360" lon="11.76598"><ele>719</ele><time>2012-05-28T12:14:56Z</time></trkpt><trkpt lat="43.62357" lon="11.76598"><ele>718</ele><time>2012-05-28T12:15:01Z</time></trkpt><trkpt lat="43.62355" lon="11.76595"><ele>718</ele><time>2012-05-28T12:15:04Z</time></trkpt><trkpt lat="43.62353" lon="11.76596"><ele>724</ele><time>2012-05-28T12:15:07Z</time></trkpt><trkpt lat="43.62350" lon="11.76595"><ele>725</ele><time>2012-05-28T12:15:11Z</time></trkpt><trkpt lat="43.62347" lon="11.76596"><ele>723</ele><time>2012-05-28T12:15:12Z</time></trkpt><trkpt lat="43.62341" lon="11.76597"><ele>722</ele><time>2012-05-28T12:15:18Z</time></trkpt><trkpt lat="43.62343" lon="11.76588"><ele>720</ele><time>2012-05-28T12:15:23Z</time></trkpt><trkpt lat="43.62344" lon="11.76585"><ele>720</ele><time>2012-05-28T12:15:28Z</time></trkpt><trkpt lat="43.62348" lon="11.76590"><ele>720</ele><time>2012-05-28T12:15:34Z</time></trkpt><trkpt lat="43.62348" lon="11.76590"><ele>720</ele><time>2012-05-28T12:15:45Z</time></trkpt><trkpt lat="43.62343" lon="11.76587"><ele>722</ele><time>2012-05-28T12:15:46Z</time></trkpt><trkpt lat="43.62345" lon="11.76593"><ele>724</ele><time>2012-05-28T12:16:13Z</time></trkpt><trkpt lat="43.62347" lon="11.76594"><ele>717</ele><time>2012-05-28T12:16:24Z</time></trkpt><trkpt lat="43.62349" lon="11.76592"><ele>718</ele><time>2012-05-28T12:16:29Z</time></trkpt><trkpt lat="43.62352" lon="11.76593"><ele>720</ele><time>2012-05-28T12:16:36Z</time></trkpt><trkpt lat="43.62354" lon="11.76591"><ele>720</ele><time>2012-05-28T12:16:38Z</time></trkpt><trkpt lat="43.62352" lon="11.76595"><ele>716</ele><time>2012-05-28T12:17:25Z</time></trkpt><trkpt lat="43.62352" lon="11.76598"><ele>715</ele><time>2012-05-28T12:17:27Z</time></trkpt><trkpt lat="43.62354" lon="11.76599"><ele>719</ele><time>2012-05-28T12:17:31Z</time></trkpt><trkpt lat="43.62355" lon="11.76604"><ele>716</ele><time>2012-05-28T12:18:02Z</time></trkpt><trkpt lat="43.62354" lon="11.76601"><ele>720</ele><time>2012-05-28T12:18:19Z</time></trkpt><trkpt lat="43.62356" lon="11.76600"><ele>722</ele><time>2012-05-28T12:18:27Z</time></trkpt><trkpt lat="43.62351" lon="11.76600"><ele>721</ele><time>2012-05-28T12:18:32Z</time></trkpt><trkpt lat="43.62352" lon="11.76603"><ele>720</ele><time>2012-05-28T12:19:08Z</time></trkpt><trkpt lat="43.62352" lon="11.76600"><ele>721</ele><time>2012-05-28T12:19:52Z</time></trkpt><trkpt lat="43.62350" lon="11.76597"><ele>726</ele><time>2012-05-28T12:19:59Z</time></trkpt><trkpt lat="43.62348" lon="11.76595"><ele>731</ele><time>2012-05-28T12:20:22Z</time></trkpt><trkpt lat="43.62345" lon="11.76596"><ele>732</ele><time>2012-05-28T12:20:24Z</time></trkpt><trkpt lat="43.62342" lon="11.76600"><ele>731</ele><time>2012-05-28T12:20:26Z</time></trkpt><trkpt lat="43.62342" lon="11.76594"><ele>728</ele><time>2012-05-28T12:20:34Z</time></trkpt><trkpt lat="43.62343" lon="11.76590"><ele>728</ele><time>2012-05-28T12:20:36Z</time></trkpt><trkpt lat="43.62343" lon="11.76585"><ele>728</ele><time>2012-05-28T12:20:38Z</time></trkpt><trkpt lat="43.62343" lon="11.76571"><ele>725</ele><time>2012-05-28T12:20:44Z</time></trkpt><trkpt lat="43.62344" lon="11.76561"><ele>725</ele><time>2012-05-28T12:20:46Z</time></trkpt><trkpt lat="43.62345" lon="11.76546"><ele>726</ele><time>2012-05-28T12:20:51Z</time></trkpt><trkpt lat="43.62347" lon="11.76541"><ele>724</ele><time>2012-05-28T12:20:53Z</time></trkpt><trkpt lat="43.62350" lon="11.76536"><ele>725</ele><time>2012-05-28T12:20:55Z</time></trkpt><trkpt lat="43.62356" lon="11.76528"><ele>723</ele><time>2012-05-28T12:20:58Z</time></trkpt><trkpt lat="43.62361" lon="11.76523"><ele>723</ele><time>2012-05-28T12:21:00Z</time></trkpt><trkpt lat="43.62378" lon="11.76506"><ele>722</ele><time>2012-05-28T12:21:06Z</time></trkpt><trkpt lat="43.62380" lon="11.76505"><ele>721</ele><time>2012-05-28T12:21:07Z</time></trkpt><trkpt lat="43.62389" lon="11.76498"><ele>720</ele><time>2012-05-28T12:21:11Z</time></trkpt><trkpt lat="43.62391" lon="11.76497"><ele>719</ele><time>2012-05-28T12:21:12Z</time></trkpt><trkpt lat="43.62394" lon="11.76494"><ele>718</ele><time>2012-05-28T12:21:14Z</time></trkpt><trkpt lat="43.62403" lon="11.76490"><ele>718</ele><time>2012-05-28T12:21:19Z</time></trkpt><trkpt lat="43.62410" lon="11.76488"><ele>720</ele><time>2012-05-28T12:21:23Z</time></trkpt><trkpt lat="43.62416" lon="11.76488"><ele>722</ele><time>2012-05-28T12:21:25Z</time></trkpt><trkpt lat="43.62420" lon="11.76489"><ele>722</ele><time>2012-05-28T12:21:27Z</time></trkpt><trkpt lat="43.62439" lon="11.76494"><ele>722</ele><time>2012-05-28T12:21:37Z</time></trkpt><trkpt lat="43.62444" lon="11.76496"><ele>722</ele><time>2012-05-28T12:21:39Z</time></trkpt><trkpt lat="43.62448" lon="11.76499"><ele>724</ele><time>2012-05-28T12:21:41Z</time></trkpt><trkpt lat="43.62453" lon="11.76502"><ele>724</ele><time>2012-05-28T12:21:43Z</time></trkpt><trkpt lat="43.62462" lon="11.76509"><ele>725</ele><time>2012-05-28T12:21:47Z</time></trkpt><trkpt lat="43.62464" lon="11.76510"><ele>726</ele><time>2012-05-28T12:21:48Z</time></trkpt><trkpt lat="43.62466" lon="11.76511"><ele>726</ele><time>2012-05-28T12:21:49Z</time></trkpt><trkpt lat="43.62479" lon="11.76518"><ele>725</ele><time>2012-05-28T12:21:54Z</time></trkpt><trkpt lat="43.62481" lon="11.76519"><ele>726</ele><time>2012-05-28T12:21:55Z</time></trkpt><trkpt lat="43.62484" lon="11.76519"><ele>726</ele><time>2012-05-28T12:21:56Z</time></trkpt><trkpt lat="43.62487" lon="11.76518"><ele>726</ele><time>2012-05-28T12:21:57Z</time></trkpt><trkpt lat="43.62507" lon="11.76515"><ele>725</ele><time>2012-05-28T12:22:04Z</time></trkpt><trkpt lat="43.62510" lon="11.76515"><ele>726</ele><time>2012-05-28T12:22:05Z</time></trkpt><trkpt lat="43.62521" lon="11.76515"><ele>727</ele><time>2012-05-28T12:22:09Z</time></trkpt><trkpt lat="43.62526" lon="11.76514"><ele>727</ele><time>2012-05-28T12:22:12Z</time></trkpt><trkpt lat="43.62530" lon="11.76512"><ele>728</ele><time>2012-05-28T12:22:13Z</time></trkpt><trkpt lat="43.62536" lon="11.76511"><ele>728</ele><time>2012-05-28T12:22:16Z</time></trkpt><trkpt lat="43.62546" lon="11.76509"><ele>730</ele><time>2012-05-28T12:22:21Z</time></trkpt><trkpt lat="43.62552" lon="11.76507"><ele>729</ele><time>2012-05-28T12:22:23Z</time></trkpt><trkpt lat="43.62563" lon="11.76505"><ele>730</ele><time>2012-05-28T12:22:28Z</time></trkpt><trkpt lat="43.62569" lon="11.76504"><ele>734</ele><time>2012-05-28T12:22:31Z</time></trkpt><trkpt lat="43.62571" lon="11.76504"><ele>735</ele><time>2012-05-28T12:22:32Z</time></trkpt><trkpt lat="43.62574" lon="11.76504"><ele>735</ele><time>2012-05-28T12:22:33Z</time></trkpt><trkpt lat="43.62588" lon="11.76502"><ele>736</ele><time>2012-05-28T12:22:39Z</time></trkpt><trkpt lat="43.62591" lon="11.76500"><ele>735</ele><time>2012-05-28T12:22:40Z</time></trkpt><trkpt lat="43.62596" lon="11.76495"><ele>734</ele><time>2012-05-28T12:22:41Z</time></trkpt><trkpt lat="43.62607" lon="11.76484"><ele>734</ele><time>2012-05-28T12:22:46Z</time></trkpt><trkpt lat="43.62609" lon="11.76483"><ele>734</ele><time>2012-05-28T12:22:48Z</time></trkpt><trkpt lat="43.62613" lon="11.76479"><ele>734</ele><time>2012-05-28T12:22:49Z</time></trkpt><trkpt lat="43.62615" lon="11.76477"><ele>733</ele><time>2012-05-28T12:22:50Z</time></trkpt><trkpt lat="43.62617" lon="11.76474"><ele>734</ele><time>2012-05-28T12:22:51Z</time></trkpt><trkpt lat="43.62621" lon="11.76468"><ele>734</ele><time>2012-05-28T12:22:53Z</time></trkpt><trkpt lat="43.62623" lon="11.76466"><ele>733</ele><time>2012-05-28T12:22:54Z</time></trkpt><trkpt lat="43.62633" lon="11.76459"><ele>731</ele><time>2012-05-28T12:22:58Z</time></trkpt><trkpt lat="43.62635" lon="11.76457"><ele>731</ele><time>2012-05-28T12:22:59Z</time></trkpt><trkpt lat="43.62638" lon="11.76456"><ele>731</ele><time>2012-05-28T12:23:00Z</time></trkpt><trkpt lat="43.62646" lon="11.76454"><ele>731</ele><time>2012-05-28T12:23:03Z</time></trkpt><trkpt lat="43.62668" lon="11.76450"><ele>733</ele><time>2012-05-28T12:23:10Z</time></trkpt><trkpt lat="43.62671" lon="11.76448"><ele>734</ele><time>2012-05-28T12:23:11Z</time></trkpt><trkpt lat="43.62680" lon="11.76442"><ele>733</ele><time>2012-05-28T12:23:14Z</time></trkpt><trkpt lat="43.62683" lon="11.76440"><ele>733</ele><time>2012-05-28T12:23:15Z</time></trkpt><trkpt lat="43.62692" lon="11.76433"><ele>733</ele><time>2012-05-28T12:23:18Z</time></trkpt><trkpt lat="43.62695" lon="11.76430"><ele>734</ele><time>2012-05-28T12:23:19Z</time></trkpt><trkpt lat="43.62699" lon="11.76425"><ele>734</ele><time>2012-05-28T12:23:21Z</time></trkpt><trkpt lat="43.62700" lon="11.76422"><ele>735</ele><time>2012-05-28T12:23:22Z</time></trkpt><trkpt lat="43.62706" lon="11.76410"><ele>736</ele><time>2012-05-28T12:23:26Z</time></trkpt><trkpt lat="43.62707" lon="11.76406"><ele>737</ele><time>2012-05-28T12:23:27Z</time></trkpt><trkpt lat="43.62709" lon="11.76403"><ele>737</ele><time>2012-05-28T12:23:29Z</time></trkpt><trkpt lat="43.62714" lon="11.76390"><ele>738</ele><time>2012-05-28T12:23:32Z</time></trkpt><trkpt lat="43.62715" lon="11.76387"><ele>737</ele><time>2012-05-28T12:23:33Z</time></trkpt><trkpt lat="43.62716" lon="11.76384"><ele>737</ele><time>2012-05-28T12:23:35Z</time></trkpt><trkpt lat="43.62724" lon="11.76369"><ele>737</ele><time>2012-05-28T12:23:39Z</time></trkpt><trkpt lat="43.62725" lon="11.76366"><ele>737</ele><time>2012-05-28T12:23:40Z</time></trkpt><trkpt lat="43.62727" lon="11.76363"><ele>737</ele><time>2012-05-28T12:23:41Z</time></trkpt><trkpt lat="43.62729" lon="11.76360"><ele>737</ele><time>2012-05-28T12:23:42Z</time></trkpt><trkpt lat="43.62730" lon="11.76357"><ele>738</ele><time>2012-05-28T12:23:43Z</time></trkpt><trkpt lat="43.62735" lon="11.76349"><ele>740</ele><time>2012-05-28T12:23:46Z</time></trkpt><trkpt lat="43.62737" lon="11.76348"><ele>740</ele><time>2012-05-28T12:23:47Z</time></trkpt><trkpt lat="43.62739" lon="11.76346"><ele>741</ele><time>2012-05-28T12:23:48Z</time></trkpt><trkpt lat="43.62742" lon="11.76345"><ele>741</ele><time>2012-05-28T12:23:49Z</time></trkpt><trkpt lat="43.62745" lon="11.76345"><ele>742</ele><time>2012-05-28T12:23:50Z</time></trkpt><trkpt lat="43.62748" lon="11.76345"><ele>742</ele><time>2012-05-28T12:23:51Z</time></trkpt><trkpt lat="43.62780" lon="11.76344"><ele>745</ele><time>2012-05-28T12:24:06Z</time></trkpt><trkpt lat="43.62786" lon="11.76342"><ele>745</ele><time>2012-05-28T12:24:07Z</time></trkpt><trkpt lat="43.62796" lon="11.76339"><ele>745</ele><time>2012-05-28T12:24:11Z</time></trkpt><trkpt lat="43.62806" lon="11.76334"><ele>745</ele><time>2012-05-28T12:24:16Z</time></trkpt><trkpt lat="43.62809" lon="11.76332"><ele>746</ele><time>2012-05-28T12:24:18Z</time></trkpt><trkpt lat="43.62813" lon="11.76330"><ele>747</ele><time>2012-05-28T12:24:20Z</time></trkpt><trkpt lat="43.62816" lon="11.76330"><ele>749</ele><time>2012-05-28T12:24:22Z</time></trkpt><trkpt lat="43.62827" lon="11.76326"><ele>749</ele><time>2012-05-28T12:24:28Z</time></trkpt><trkpt lat="43.62829" lon="11.76325"><ele>749</ele><time>2012-05-28T12:24:29Z</time></trkpt><trkpt lat="43.62833" lon="11.76323"><ele>749</ele><time>2012-05-28T12:24:31Z</time></trkpt><trkpt lat="43.62837" lon="11.76323"><ele>750</ele><time>2012-05-28T12:24:34Z</time></trkpt><trkpt lat="43.62841" lon="11.76323"><ele>750</ele><time>2012-05-28T12:24:36Z</time></trkpt><trkpt lat="43.62845" lon="11.76322"><ele>750</ele><time>2012-05-28T12:24:38Z</time></trkpt><trkpt lat="43.62853" lon="11.76319"><ele>753</ele><time>2012-05-28T12:24:41Z</time></trkpt><trkpt lat="43.62855" lon="11.76316"><ele>752</ele><time>2012-05-28T12:24:43Z</time></trkpt><trkpt lat="43.62857" lon="11.76312"><ele>753</ele><time>2012-05-28T12:24:45Z</time></trkpt><trkpt lat="43.62860" lon="11.76308"><ele>752</ele><time>2012-05-28T12:24:47Z</time></trkpt><trkpt lat="43.62864" lon="11.76307"><ele>753</ele><time>2012-05-28T12:24:49Z</time></trkpt><trkpt lat="43.62871" lon="11.76306"><ele>753</ele><time>2012-05-28T12:24:52Z</time></trkpt><trkpt lat="43.62881" lon="11.76304"><ele>755</ele><time>2012-05-28T12:24:57Z</time></trkpt><trkpt lat="43.62887" lon="11.76302"><ele>755</ele><time>2012-05-28T12:25:00Z</time></trkpt><trkpt lat="43.62889" lon="11.76299"><ele>756</ele><time>2012-05-28T12:25:02Z</time></trkpt><trkpt lat="43.62892" lon="11.76298"><ele>755</ele><time>2012-05-28T12:25:04Z</time></trkpt><trkpt lat="43.62896" lon="11.76297"><ele>756</ele><time>2012-05-28T12:25:06Z</time></trkpt><trkpt lat="43.62906" lon="11.76296"><ele>757</ele><time>2012-05-28T12:25:12Z</time></trkpt><trkpt lat="43.62911" lon="11.76297"><ele>759</ele><time>2012-05-28T12:25:15Z</time></trkpt><trkpt lat="43.62923" lon="11.76298"><ele>758</ele><time>2012-05-28T12:25:20Z</time></trkpt><trkpt lat="43.62925" lon="11.76297"><ele>759</ele><time>2012-05-28T12:25:21Z</time></trkpt><trkpt lat="43.62935" lon="11.76294"><ele>758</ele><time>2012-05-28T12:25:25Z</time></trkpt><trkpt lat="43.62939" lon="11.76294"><ele>757</ele><time>2012-05-28T12:25:28Z</time></trkpt><trkpt lat="43.62943" lon="11.76295"><ele>757</ele><time>2012-05-28T12:25:30Z</time></trkpt><trkpt lat="43.62947" lon="11.76296"><ele>757</ele><time>2012-05-28T12:25:31Z</time></trkpt><trkpt lat="43.62969" lon="11.76301"><ele>761</ele><time>2012-05-28T12:25:40Z</time></trkpt><trkpt lat="43.62978" lon="11.76301"><ele>764</ele><time>2012-05-28T12:25:45Z</time></trkpt><trkpt lat="43.62987" lon="11.76303"><ele>766</ele><time>2012-05-28T12:25:50Z</time></trkpt><trkpt lat="43.62991" lon="11.76304"><ele>767</ele><time>2012-05-28T12:25:52Z</time></trkpt><trkpt lat="43.63001" lon="11.76308"><ele>769</ele><time>2012-05-28T12:25:58Z</time></trkpt><trkpt lat="43.63004" lon="11.76309"><ele>770</ele><time>2012-05-28T12:26:00Z</time></trkpt><trkpt lat="43.63013" lon="11.76314"><ele>772</ele><time>2012-05-28T12:26:05Z</time></trkpt><trkpt lat="43.63017" lon="11.76315"><ele>772</ele><time>2012-05-28T12:26:07Z</time></trkpt><trkpt lat="43.63028" lon="11.76320"><ele>773</ele><time>2012-05-28T12:26:13Z</time></trkpt><trkpt lat="43.63032" lon="11.76322"><ele>775</ele><time>2012-05-28T12:26:14Z</time></trkpt><trkpt lat="43.63042" lon="11.76329"><ele>776</ele><time>2012-05-28T12:26:19Z</time></trkpt><trkpt lat="43.63051" lon="11.76334"><ele>776</ele><time>2012-05-28T12:26:25Z</time></trkpt><trkpt lat="43.63054" lon="11.76335"><ele>776</ele><time>2012-05-28T12:26:26Z</time></trkpt><trkpt lat="43.63062" lon="11.76336"><ele>779</ele><time>2012-05-28T12:26:28Z</time></trkpt><trkpt lat="43.63064" lon="11.76337"><ele>780</ele><time>2012-05-28T12:26:29Z</time></trkpt><trkpt lat="43.63075" lon="11.76339"><ele>783</ele><time>2012-05-28T12:26:34Z</time></trkpt><trkpt lat="43.63080" lon="11.76344"><ele>784</ele><time>2012-05-28T12:26:35Z</time></trkpt><trkpt lat="43.63083" lon="11.76346"><ele>784</ele><time>2012-05-28T12:26:36Z</time></trkpt><trkpt lat="43.63091" lon="11.76354"><ele>785</ele><time>2012-05-28T12:26:40Z</time></trkpt><trkpt lat="43.63095" lon="11.76356"><ele>789</ele><time>2012-05-28T12:26:42Z</time></trkpt><trkpt lat="43.63105" lon="11.76361"><ele>789</ele><time>2012-05-28T12:26:46Z</time></trkpt><trkpt lat="43.63112" lon="11.76364"><ele>788</ele><time>2012-05-28T12:26:49Z</time></trkpt><trkpt lat="43.63116" lon="11.76364"><ele>789</ele><time>2012-05-28T12:26:51Z</time></trkpt><trkpt lat="43.63118" lon="11.76364"><ele>789</ele><time>2012-05-28T12:26:54Z</time></trkpt><trkpt lat="43.63121" lon="11.76366"><ele>789</ele><time>2012-05-28T12:26:57Z</time></trkpt><trkpt lat="43.63123" lon="11.76368"><ele>789</ele><time>2012-05-28T12:26:59Z</time></trkpt><trkpt lat="43.63133" lon="11.76374"><ele>790</ele><time>2012-05-28T12:27:04Z</time></trkpt><trkpt lat="43.63135" lon="11.76376"><ele>790</ele><time>2012-05-28T12:27:06Z</time></trkpt><trkpt lat="43.63138" lon="11.76380"><ele>791</ele><time>2012-05-28T12:27:07Z</time></trkpt><trkpt lat="43.63143" lon="11.76386"><ele>792</ele><time>2012-05-28T12:27:11Z</time></trkpt><trkpt lat="43.63145" lon="11.76392"><ele>789</ele><time>2012-05-28T12:27:13Z</time></trkpt><trkpt lat="43.63146" lon="11.76397"><ele>787</ele><time>2012-05-28T12:27:15Z</time></trkpt><trkpt lat="43.63147" lon="11.76401"><ele>787</ele><time>2012-05-28T12:27:17Z</time></trkpt><trkpt lat="43.63150" lon="11.76404"><ele>787</ele><time>2012-05-28T12:27:19Z</time></trkpt><trkpt lat="43.63157" lon="11.76414"><ele>787</ele><time>2012-05-28T12:27:25Z</time></trkpt><trkpt lat="43.63161" lon="11.76418"><ele>788</ele><time>2012-05-28T12:27:27Z</time></trkpt><trkpt lat="43.63165" lon="11.76418"><ele>788</ele><time>2012-05-28T12:27:29Z</time></trkpt><trkpt lat="43.63168" lon="11.76415"><ele>788</ele><time>2012-05-28T12:27:31Z</time></trkpt><trkpt lat="43.63171" lon="11.76412"><ele>788</ele><time>2012-05-28T12:27:34Z</time></trkpt><trkpt lat="43.63174" lon="11.76409"><ele>787</ele><time>2012-05-28T12:27:35Z</time></trkpt><trkpt lat="43.63175" lon="11.76406"><ele>787</ele><time>2012-05-28T12:27:37Z</time></trkpt><trkpt lat="43.63176" lon="11.76401"><ele>787</ele><time>2012-05-28T12:27:39Z</time></trkpt><trkpt lat="43.63175" lon="11.76396"><ele>786</ele><time>2012-05-28T12:27:41Z</time></trkpt><trkpt lat="43.63174" lon="11.76393"><ele>786</ele><time>2012-05-28T12:27:42Z</time></trkpt><trkpt lat="43.63171" lon="11.76390"><ele>790</ele><time>2012-05-28T12:27:45Z</time></trkpt><trkpt lat="43.63165" lon="11.76382"><ele>791</ele><time>2012-05-28T12:27:48Z</time></trkpt><trkpt lat="43.63164" lon="11.76377"><ele>792</ele><time>2012-05-28T12:27:50Z</time></trkpt><trkpt lat="43.63164" lon="11.76371"><ele>792</ele><time>2012-05-28T12:27:52Z</time></trkpt><trkpt lat="43.63165" lon="11.76358"><ele>793</ele><time>2012-05-28T12:27:56Z</time></trkpt><trkpt lat="43.63166" lon="11.76354"><ele>793</ele><time>2012-05-28T12:27:57Z</time></trkpt><trkpt lat="43.63167" lon="11.76351"><ele>793</ele><time>2012-05-28T12:27:58Z</time></trkpt><trkpt lat="43.63168" lon="11.76349"><ele>793</ele><time>2012-05-28T12:27:59Z</time></trkpt><trkpt lat="43.63175" lon="11.76337"><ele>794</ele><time>2012-05-28T12:28:03Z</time></trkpt><trkpt lat="43.63176" lon="11.76335"><ele>793</ele><time>2012-05-28T12:28:04Z</time></trkpt><trkpt lat="43.63178" lon="11.76332"><ele>793</ele><time>2012-05-28T12:28:05Z</time></trkpt><trkpt lat="43.63179" lon="11.76329"><ele>792</ele><time>2012-05-28T12:28:06Z</time></trkpt><trkpt lat="43.63181" lon="11.76322"><ele>792</ele><time>2012-05-28T12:28:08Z</time></trkpt><trkpt lat="43.63182" lon="11.76319"><ele>792</ele><time>2012-05-28T12:28:09Z</time></trkpt><trkpt lat="43.63182" lon="11.76316"><ele>791</ele><time>2012-05-28T12:28:11Z</time></trkpt><trkpt lat="43.63184" lon="11.76310"><ele>791</ele><time>2012-05-28T12:28:13Z</time></trkpt><trkpt lat="43.63184" lon="11.76305"><ele>792</ele><time>2012-05-28T12:28:14Z</time></trkpt><trkpt lat="43.63186" lon="11.76302"><ele>791</ele><time>2012-05-28T12:28:16Z</time></trkpt><trkpt lat="43.63189" lon="11.76301"><ele>791</ele><time>2012-05-28T12:28:18Z</time></trkpt><trkpt lat="43.63189" lon="11.76307"><ele>795</ele><time>2012-05-28T12:29:31Z</time></trkpt><trkpt lat="43.63186" lon="11.76307"><ele>796</ele><time>2012-05-28T12:29:35Z</time></trkpt><trkpt lat="43.63184" lon="11.76303"><ele>797</ele><time>2012-05-28T12:29:38Z</time></trkpt><trkpt lat="43.63183" lon="11.76300"><ele>800</ele><time>2012-05-28T12:29:39Z</time></trkpt><trkpt lat="43.63184" lon="11.76292"><ele>798</ele><time>2012-05-28T12:29:41Z</time></trkpt><trkpt lat="43.63184" lon="11.76286"><ele>799</ele><time>2012-05-28T12:29:43Z</time></trkpt><trkpt lat="43.63183" lon="11.76282"><ele>800</ele><time>2012-05-28T12:29:46Z</time></trkpt><trkpt lat="43.63180" lon="11.76277"><ele>802</ele><time>2012-05-28T12:29:47Z</time></trkpt><trkpt lat="43.63171" lon="11.76268"><ele>810</ele><time>2012-05-28T12:29:51Z</time></trkpt><trkpt lat="43.63168" lon="11.76267"><ele>815</ele><time>2012-05-28T12:29:52Z</time></trkpt><trkpt lat="43.63165" lon="11.76266"><ele>814</ele><time>2012-05-28T12:29:53Z</time></trkpt><trkpt lat="43.63163" lon="11.76264"><ele>814</ele><time>2012-05-28T12:29:54Z</time></trkpt><trkpt lat="43.63159" lon="11.76260"><ele>815</ele><time>2012-05-28T12:29:56Z</time></trkpt><trkpt lat="43.63158" lon="11.76257"><ele>816</ele><time>2012-05-28T12:29:57Z</time></trkpt><trkpt lat="43.63152" lon="11.76243"><ele>819</ele><time>2012-05-28T12:30:05Z</time></trkpt><trkpt lat="43.63150" lon="11.76240"><ele>821</ele><time>2012-05-28T12:30:07Z</time></trkpt><trkpt lat="43.63147" lon="11.76238"><ele>822</ele><time>2012-05-28T12:30:09Z</time></trkpt><trkpt lat="43.63148" lon="11.76242"><ele>821</ele><time>2012-05-28T12:30:15Z</time></trkpt><trkpt lat="43.63150" lon="11.76244"><ele>824</ele><time>2012-05-28T12:30:19Z</time></trkpt><trkpt lat="43.63150" lon="11.76247"><ele>822</ele><time>2012-05-28T12:30:23Z</time></trkpt><trkpt lat="43.63153" lon="11.76246"><ele>820</ele><time>2012-05-28T12:30:30Z</time></trkpt><trkpt lat="43.63152" lon="11.76241"><ele>819</ele><time>2012-05-28T12:30:36Z</time></trkpt><trkpt lat="43.63151" lon="11.76244"><ele>821</ele><time>2012-05-28T12:30:46Z</time></trkpt><trkpt lat="43.63146" lon="11.76240"><ele>820</ele><time>2012-05-28T12:31:13Z</time></trkpt><trkpt lat="43.63149" lon="11.76239"><ele>820</ele><time>2012-05-28T12:31:16Z</time></trkpt><trkpt lat="43.63151" lon="11.76237"><ele>822</ele><time>2012-05-28T12:31:19Z</time></trkpt><trkpt lat="43.63151" lon="11.76237"><ele>822</ele><time>2012-05-28T12:31:19Z</time></trkpt><trkpt lat="43.63151" lon="11.76236"><ele>818</ele><time>2012-05-28T12:31:23Z</time></trkpt><trkpt lat="43.63150" lon="11.76240"><ele>818</ele><time>2012-05-28T12:32:08Z</time></trkpt><trkpt lat="43.63147" lon="11.76238"><ele>820</ele><time>2012-05-28T12:32:21Z</time></trkpt><trkpt lat="43.63144" lon="11.76236"><ele>819</ele><time>2012-05-28T12:32:22Z</time></trkpt><trkpt lat="43.63140" lon="11.76233"><ele>819</ele><time>2012-05-28T12:32:24Z</time></trkpt><trkpt lat="43.63137" lon="11.76232"><ele>823</ele><time>2012-05-28T12:32:27Z</time></trkpt><trkpt lat="43.63134" lon="11.76231"><ele>826</ele><time>2012-05-28T12:32:30Z</time></trkpt><trkpt lat="43.63131" lon="11.76230"><ele>825</ele><time>2012-05-28T12:32:32Z</time></trkpt><trkpt lat="43.63128" lon="11.76227"><ele>826</ele><time>2012-05-28T12:32:33Z</time></trkpt><trkpt lat="43.63127" lon="11.76225"><ele>826</ele><time>2012-05-28T12:32:34Z</time></trkpt><trkpt lat="43.63121" lon="11.76214"><ele>827</ele><time>2012-05-28T12:32:39Z</time></trkpt><trkpt lat="43.63120" lon="11.76210"><ele>829</ele><time>2012-05-28T12:32:42Z</time></trkpt><trkpt lat="43.63119" lon="11.76202"><ele>832</ele><time>2012-05-28T12:32:44Z</time></trkpt><trkpt lat="43.63117" lon="11.76193"><ele>833</ele><time>2012-05-28T12:32:48Z</time></trkpt><trkpt lat="43.63117" lon="11.76189"><ele>833</ele><time>2012-05-28T12:32:50Z</time></trkpt><trkpt lat="43.63116" lon="11.76185"><ele>832</ele><time>2012-05-28T12:32:52Z</time></trkpt><trkpt lat="43.63114" lon="11.76181"><ele>832</ele><time>2012-05-28T12:32:54Z</time></trkpt><trkpt lat="43.63112" lon="11.76177"><ele>833</ele><time>2012-05-28T12:32:56Z</time></trkpt><trkpt lat="43.63109" lon="11.76174"><ele>834</ele><time>2012-05-28T12:32:58Z</time></trkpt><trkpt lat="43.63107" lon="11.76170"><ele>833</ele><time>2012-05-28T12:33:00Z</time></trkpt><trkpt lat="43.63105" lon="11.76164"><ele>833</ele><time>2012-05-28T12:33:03Z</time></trkpt><trkpt lat="43.63105" lon="11.76159"><ele>832</ele><time>2012-05-28T12:33:06Z</time></trkpt><trkpt lat="43.63107" lon="11.76156"><ele>833</ele><time>2012-05-28T12:33:07Z</time></trkpt><trkpt lat="43.63107" lon="11.76152"><ele>834</ele><time>2012-05-28T12:33:09Z</time></trkpt><trkpt lat="43.63106" lon="11.76143"><ele>832</ele><time>2012-05-28T12:33:13Z</time></trkpt><trkpt lat="43.63104" lon="11.76134"><ele>826</ele><time>2012-05-28T12:33:17Z</time></trkpt><trkpt lat="43.63103" lon="11.76128"><ele>825</ele><time>2012-05-28T12:33:21Z</time></trkpt><trkpt lat="43.63101" lon="11.76121"><ele>823</ele><time>2012-05-28T12:33:23Z</time></trkpt><trkpt lat="43.63099" lon="11.76110"><ele>827</ele><time>2012-05-28T12:33:30Z</time></trkpt><trkpt lat="43.63097" lon="11.76107"><ele>827</ele><time>2012-05-28T12:33:31Z</time></trkpt><trkpt lat="43.63090" lon="11.76096"><ele>829</ele><time>2012-05-28T12:33:36Z</time></trkpt><trkpt lat="43.63085" lon="11.76085"><ele>832</ele><time>2012-05-28T12:33:42Z</time></trkpt><trkpt lat="43.63079" lon="11.76071"><ele>833</ele><time>2012-05-28T12:33:47Z</time></trkpt><trkpt lat="43.63077" lon="11.76066"><ele>833</ele><time>2012-05-28T12:33:49Z</time></trkpt><trkpt lat="43.63076" lon="11.76057"><ele>831</ele><time>2012-05-28T12:33:52Z</time></trkpt><trkpt lat="43.63077" lon="11.76054"><ele>830</ele><time>2012-05-28T12:33:54Z</time></trkpt><trkpt lat="43.63082" lon="11.76044"><ele>830</ele><time>2012-05-28T12:34:02Z</time></trkpt><trkpt lat="43.63081" lon="11.76040"><ele>830</ele><time>2012-05-28T12:34:04Z</time></trkpt><trkpt lat="43.63077" lon="11.76026"><ele>829</ele><time>2012-05-28T12:34:10Z</time></trkpt><trkpt lat="43.63077" lon="11.76021"><ele>830</ele><time>2012-05-28T12:34:13Z</time></trkpt><trkpt lat="43.63078" lon="11.76017"><ele>829</ele><time>2012-05-28T12:34:15Z</time></trkpt><trkpt lat="43.63080" lon="11.76011"><ele>830</ele><time>2012-05-28T12:34:18Z</time></trkpt><trkpt lat="43.63082" lon="11.75998"><ele>833</ele><time>2012-05-28T12:34:26Z</time></trkpt><trkpt lat="43.63082" lon="11.75993"><ele>834</ele><time>2012-05-28T12:34:27Z</time></trkpt><trkpt lat="43.63080" lon="11.75989"><ele>839</ele><time>2012-05-28T12:34:30Z</time></trkpt><trkpt lat="43.63076" lon="11.75986"><ele>841</ele><time>2012-05-28T12:34:33Z</time></trkpt><trkpt lat="43.63075" lon="11.75980"><ele>840</ele><time>2012-05-28T12:34:37Z</time></trkpt><trkpt lat="43.63075" lon="11.75975"><ele>840</ele><time>2012-05-28T12:34:39Z</time></trkpt><trkpt lat="43.63074" lon="11.75972"><ele>843</ele><time>2012-05-28T12:34:42Z</time></trkpt><trkpt lat="43.63071" lon="11.75968"><ele>845</ele><time>2012-05-28T12:34:45Z</time></trkpt><trkpt lat="43.63070" lon="11.75963"><ele>845</ele><time>2012-05-28T12:34:47Z</time></trkpt><trkpt lat="43.63065" lon="11.75943"><ele>845</ele><time>2012-05-28T12:34:53Z</time></trkpt><trkpt lat="43.63063" lon="11.75939"><ele>845</ele><time>2012-05-28T12:34:55Z</time></trkpt><trkpt lat="43.63061" lon="11.75936"><ele>845</ele><time>2012-05-28T12:34:58Z</time></trkpt><trkpt lat="43.63060" lon="11.75931"><ele>846</ele><time>2012-05-28T12:35:01Z</time></trkpt><trkpt lat="43.63060" lon="11.75926"><ele>849</ele><time>2012-05-28T12:35:03Z</time></trkpt><trkpt lat="43.63059" lon="11.75918"><ele>855</ele><time>2012-05-28T12:35:05Z</time></trkpt><trkpt lat="43.63056" lon="11.75912"><ele>857</ele><time>2012-05-28T12:35:06Z</time></trkpt><trkpt lat="43.63048" lon="11.75901"><ele>855</ele><time>2012-05-28T12:35:07Z</time></trkpt><trkpt lat="43.63050" lon="11.75905"><ele>854</ele><time>2012-05-28T12:35:08Z</time></trkpt><trkpt lat="43.63048" lon="11.75906"><ele>854</ele><time>2012-05-28T12:35:12Z</time></trkpt><trkpt lat="43.63048" lon="11.75903"><ele>858</ele><time>2012-05-28T12:35:17Z</time></trkpt><trkpt lat="43.63047" lon="11.75899"><ele>858</ele><time>2012-05-28T12:35:19Z</time></trkpt><trkpt lat="43.63047" lon="11.75895"><ele>858</ele><time>2012-05-28T12:35:21Z</time></trkpt><trkpt lat="43.63047" lon="11.75891"><ele>857</ele><time>2012-05-28T12:35:23Z</time></trkpt><trkpt lat="43.63047" lon="11.75878"><ele>857</ele><time>2012-05-28T12:35:30Z</time></trkpt><trkpt lat="43.63045" lon="11.75875"><ele>855</ele><time>2012-05-28T12:35:32Z</time></trkpt><trkpt lat="43.63042" lon="11.75870"><ele>852</ele><time>2012-05-28T12:35:50Z</time></trkpt><trkpt lat="43.63042" lon="11.75864"><ele>851</ele><time>2012-05-28T12:35:51Z</time></trkpt><trkpt lat="43.63044" lon="11.75858"><ele>851</ele><time>2012-05-28T12:35:53Z</time></trkpt><trkpt lat="43.63045" lon="11.75854"><ele>848</ele><time>2012-05-28T12:35:55Z</time></trkpt><trkpt lat="43.63047" lon="11.75848"><ele>847</ele><time>2012-05-28T12:35:57Z</time></trkpt><trkpt lat="43.63046" lon="11.75845"><ele>848</ele><time>2012-05-28T12:36:00Z</time></trkpt><trkpt lat="43.63046" lon="11.75842"><ele>850</ele><time>2012-05-28T12:36:05Z</time></trkpt><trkpt lat="43.63048" lon="11.75840"><ele>851</ele><time>2012-05-28T12:36:07Z</time></trkpt><trkpt lat="43.63053" lon="11.75835"><ele>851</ele><time>2012-05-28T12:36:12Z</time></trkpt><trkpt lat="43.63053" lon="11.75831"><ele>851</ele><time>2012-05-28T12:36:16Z</time></trkpt><trkpt lat="43.63055" lon="11.75829"><ele>851</ele><time>2012-05-28T12:36:20Z</time></trkpt><trkpt lat="43.63057" lon="11.75828"><ele>851</ele><time>2012-05-28T12:36:22Z</time></trkpt><trkpt lat="43.63060" lon="11.75828"><ele>849</ele><time>2012-05-28T12:36:27Z</time></trkpt><trkpt lat="43.63063" lon="11.75830"><ele>850</ele><time>2012-05-28T12:36:29Z</time></trkpt><trkpt lat="43.63068" lon="11.75831"><ele>850</ele><time>2012-05-28T12:36:32Z</time></trkpt><trkpt lat="43.63071" lon="11.75830"><ele>850</ele><time>2012-05-28T12:36:34Z</time></trkpt><trkpt lat="43.63073" lon="11.75830"><ele>849</ele><time>2012-05-28T12:36:38Z</time></trkpt><trkpt lat="43.63077" lon="11.75828"><ele>847</ele><time>2012-05-28T12:36:54Z</time></trkpt><trkpt lat="43.63080" lon="11.75826"><ele>848</ele><time>2012-05-28T12:36:55Z</time></trkpt><trkpt lat="43.63088" lon="11.75820"><ele>844</ele><time>2012-05-28T12:36:58Z</time></trkpt><trkpt lat="43.63091" lon="11.75818"><ele>846</ele><time>2012-05-28T12:37:00Z</time></trkpt><trkpt lat="43.63094" lon="11.75816"><ele>850</ele><time>2012-05-28T12:37:03Z</time></trkpt><trkpt lat="43.63097" lon="11.75815"><ele>846</ele><time>2012-05-28T12:37:06Z</time></trkpt><trkpt lat="43.63101" lon="11.75814"><ele>846</ele><time>2012-05-28T12:37:08Z</time></trkpt><trkpt lat="43.63104" lon="11.75814"><ele>846</ele><time>2012-05-28T12:37:09Z</time></trkpt><trkpt lat="43.63114" lon="11.75813"><ele>845</ele><time>2012-05-28T12:37:13Z</time></trkpt><trkpt lat="43.63120" lon="11.75815"><ele>848</ele><time>2012-05-28T12:37:20Z</time></trkpt><trkpt lat="43.63123" lon="11.75814"><ele>848</ele><time>2012-05-28T12:37:26Z</time></trkpt><trkpt lat="43.63128" lon="11.75812"><ele>849</ele><time>2012-05-28T12:37:34Z</time></trkpt><trkpt lat="43.63129" lon="11.75810"><ele>850</ele><time>2012-05-28T12:37:37Z</time></trkpt><trkpt lat="43.63131" lon="11.75809"><ele>856</ele><time>2012-05-28T12:37:39Z</time></trkpt><trkpt lat="43.63134" lon="11.75808"><ele>858</ele><time>2012-05-28T12:37:41Z</time></trkpt><trkpt lat="43.63138" lon="11.75806"><ele>859</ele><time>2012-05-28T12:37:43Z</time></trkpt><trkpt lat="43.63140" lon="11.75802"><ele>859</ele><time>2012-05-28T12:37:46Z</time></trkpt><trkpt lat="43.63145" lon="11.75798"><ele>859</ele><time>2012-05-28T12:37:49Z</time></trkpt><trkpt lat="43.63149" lon="11.75798"><ele>862</ele><time>2012-05-28T12:37:51Z</time></trkpt><trkpt lat="43.63154" lon="11.75799"><ele>860</ele><time>2012-05-28T12:37:53Z</time></trkpt><trkpt lat="43.63162" lon="11.75804"><ele>860</ele><time>2012-05-28T12:37:54Z</time></trkpt><trkpt lat="43.63166" lon="11.75805"><ele>862</ele><time>2012-05-28T12:37:55Z</time></trkpt><trkpt lat="43.63173" lon="11.75806"><ele>861</ele><time>2012-05-28T12:37:57Z</time></trkpt><trkpt lat="43.63176" lon="11.75804"><ele>862</ele><time>2012-05-28T12:37:58Z</time></trkpt><trkpt lat="43.63187" lon="11.75798"><ele>863</ele><time>2012-05-28T12:38:03Z</time></trkpt><trkpt lat="43.63190" lon="11.75795"><ele>862</ele><time>2012-05-28T12:38:04Z</time></trkpt><trkpt lat="43.63193" lon="11.75790"><ele>861</ele><time>2012-05-28T12:38:07Z</time></trkpt><trkpt lat="43.63196" lon="11.75784"><ele>862</ele><time>2012-05-28T12:38:13Z</time></trkpt><trkpt lat="43.63199" lon="11.75781"><ele>861</ele><time>2012-05-28T12:38:15Z</time></trkpt><trkpt lat="43.63202" lon="11.75780"><ele>860</ele><time>2012-05-28T12:38:17Z</time></trkpt><trkpt lat="43.63205" lon="11.75778"><ele>859</ele><time>2012-05-28T12:38:19Z</time></trkpt><trkpt lat="43.63205" lon="11.75775"><ele>858</ele><time>2012-05-28T12:38:22Z</time></trkpt><trkpt lat="43.63203" lon="11.75772"><ele>858</ele><time>2012-05-28T12:38:24Z</time></trkpt><trkpt lat="43.63201" lon="11.75769"><ele>858</ele><time>2012-05-28T12:38:25Z</time></trkpt><trkpt lat="43.63199" lon="11.75773"><ele>858</ele><time>2012-05-28T12:38:29Z</time></trkpt><trkpt lat="43.63195" lon="11.75785"><ele>862</ele><time>2012-05-28T12:38:47Z</time></trkpt><trkpt lat="43.63194" lon="11.75788"><ele>863</ele><time>2012-05-28T12:38:49Z</time></trkpt><trkpt lat="43.63192" lon="11.75795"><ele>864</ele><time>2012-05-28T12:38:54Z</time></trkpt><trkpt lat="43.63188" lon="11.75802"><ele>862</ele><time>2012-05-28T12:38:58Z</time></trkpt><trkpt lat="43.63185" lon="11.75806"><ele>862</ele><time>2012-05-28T12:39:01Z</time></trkpt><trkpt lat="43.63177" lon="11.75815"><ele>862</ele><time>2012-05-28T12:39:07Z</time></trkpt><trkpt lat="43.63173" lon="11.75816"><ele>861</ele><time>2012-05-28T12:39:27Z</time></trkpt><trkpt lat="43.63170" lon="11.75818"><ele>860</ele><time>2012-05-28T12:39:33Z</time></trkpt><trkpt lat="43.63166" lon="11.75817"><ele>862</ele><time>2012-05-28T12:39:37Z</time></trkpt><trkpt lat="43.63157" lon="11.75818"><ele>863</ele><time>2012-05-28T12:39:43Z</time></trkpt><trkpt lat="43.63154" lon="11.75817"><ele>864</ele><time>2012-05-28T12:39:45Z</time></trkpt><trkpt lat="43.63152" lon="11.75816"><ele>864</ele><time>2012-05-28T12:39:48Z</time></trkpt><trkpt lat="43.63148" lon="11.75820"><ele>863</ele><time>2012-05-28T12:39:51Z</time></trkpt><trkpt lat="43.63145" lon="11.75822"><ele>858</ele><time>2012-05-28T12:39:54Z</time></trkpt><trkpt lat="43.63143" lon="11.75822"><ele>856</ele><time>2012-05-28T12:39:56Z</time></trkpt><trkpt lat="43.63140" lon="11.75823"><ele>858</ele><time>2012-05-28T12:39:59Z</time></trkpt><trkpt lat="43.63136" lon="11.75822"><ele>860</ele><time>2012-05-28T12:40:01Z</time></trkpt><trkpt lat="43.63134" lon="11.75820"><ele>856</ele><time>2012-05-28T12:40:02Z</time></trkpt><trkpt lat="43.63131" lon="11.75819"><ele>854</ele><time>2012-05-28T12:40:03Z</time></trkpt><trkpt lat="43.63123" lon="11.75816"><ele>853</ele><time>2012-05-28T12:40:08Z</time></trkpt><trkpt lat="43.63119" lon="11.75816"><ele>854</ele><time>2012-05-28T12:40:09Z</time></trkpt><trkpt lat="43.63116" lon="11.75817"><ele>855</ele><time>2012-05-28T12:40:10Z</time></trkpt><trkpt lat="43.63106" lon="11.75826"><ele>853</ele><time>2012-05-28T12:40:15Z</time></trkpt><trkpt lat="43.63097" lon="11.75832"><ele>854</ele><time>2012-05-28T12:40:18Z</time></trkpt><trkpt lat="43.63089" lon="11.75838"><ele>855</ele><time>2012-05-28T12:40:21Z</time></trkpt><trkpt lat="43.63085" lon="11.75839"><ele>857</ele><time>2012-05-28T12:40:22Z</time></trkpt><trkpt lat="43.63082" lon="11.75839"><ele>856</ele><time>2012-05-28T12:40:23Z</time></trkpt><trkpt lat="43.63059" lon="11.75841"><ele>853</ele><time>2012-05-28T12:40:33Z</time></trkpt><trkpt lat="43.63057" lon="11.75844"><ele>852</ele><time>2012-05-28T12:40:36Z</time></trkpt><trkpt lat="43.63055" lon="11.75851"><ele>852</ele><time>2012-05-28T12:40:40Z</time></trkpt><trkpt lat="43.63056" lon="11.75856"><ele>853</ele><time>2012-05-28T12:40:43Z</time></trkpt><trkpt lat="43.63061" lon="11.75858"><ele>856</ele><time>2012-05-28T12:40:47Z</time></trkpt><trkpt lat="43.63064" lon="11.75861"><ele>855</ele><time>2012-05-28T12:40:50Z</time></trkpt><trkpt lat="43.63065" lon="11.75865"><ele>854</ele><time>2012-05-28T12:40:54Z</time></trkpt><trkpt lat="43.63064" lon="11.75872"><ele>854</ele><time>2012-05-28T12:40:59Z</time></trkpt><trkpt lat="43.63065" lon="11.75876"><ele>854</ele><time>2012-05-28T12:41:01Z</time></trkpt><trkpt lat="43.63065" lon="11.75883"><ele>854</ele><time>2012-05-28T12:41:03Z</time></trkpt><trkpt lat="43.63064" lon="11.75886"><ele>854</ele><time>2012-05-28T12:41:05Z</time></trkpt><trkpt lat="43.63062" lon="11.75889"><ele>853</ele><time>2012-05-28T12:41:08Z</time></trkpt><trkpt lat="43.63063" lon="11.75895"><ele>848</ele><time>2012-05-28T12:41:10Z</time></trkpt><trkpt lat="43.63065" lon="11.75900"><ele>846</ele><time>2012-05-28T12:41:12Z</time></trkpt><trkpt lat="43.63068" lon="11.75904"><ele>845</ele><time>2012-05-28T12:41:14Z</time></trkpt><trkpt lat="43.63070" lon="11.75908"><ele>845</ele><time>2012-05-28T12:41:16Z</time></trkpt><trkpt lat="43.63071" lon="11.75912"><ele>845</ele><time>2012-05-28T12:41:18Z</time></trkpt><trkpt lat="43.63074" lon="11.75926"><ele>843</ele><time>2012-05-28T12:41:25Z</time></trkpt><trkpt lat="43.63074" lon="11.75930"><ele>848</ele><time>2012-05-28T12:41:26Z</time></trkpt><trkpt lat="43.63076" lon="11.75939"><ele>846</ele><time>2012-05-28T12:41:29Z</time></trkpt><trkpt lat="43.63076" lon="11.75943"><ele>848</ele><time>2012-05-28T12:41:30Z</time></trkpt><trkpt lat="43.63077" lon="11.75946"><ele>848</ele><time>2012-05-28T12:41:31Z</time></trkpt><trkpt lat="43.63079" lon="11.75959"><ele>848</ele><time>2012-05-28T12:41:32Z</time></trkpt><trkpt lat="43.63086" lon="11.75972"><ele>847</ele><time>2012-05-28T12:41:33Z</time></trkpt><trkpt lat="43.63090" lon="11.75977"><ele>847</ele><time>2012-05-28T12:41:34Z</time></trkpt><trkpt lat="43.63091" lon="11.75984"><ele>848</ele><time>2012-05-28T12:41:35Z</time></trkpt><trkpt lat="43.63093" lon="11.75988"><ele>850</ele><time>2012-05-28T12:41:39Z</time></trkpt><trkpt lat="43.63088" lon="11.75995"><ele>849</ele><time>2012-05-28T12:41:40Z</time></trkpt><trkpt lat="43.63086" lon="11.75999"><ele>845</ele><time>2012-05-28T12:41:44Z</time></trkpt><trkpt lat="43.63084" lon="11.76002"><ele>845</ele><time>2012-05-28T12:41:58Z</time></trkpt><trkpt lat="43.63082" lon="11.76003"><ele>842</ele><time>2012-05-28T12:42:01Z</time></trkpt><trkpt lat="43.63079" lon="11.76002"><ele>843</ele><time>2012-05-28T12:42:04Z</time></trkpt><trkpt lat="43.63068" lon="11.75999"><ele>844</ele><time>2012-05-28T12:42:19Z</time></trkpt><trkpt lat="43.63065" lon="11.75999"><ele>845</ele><time>2012-05-28T12:42:23Z</time></trkpt><trkpt lat="43.63063" lon="11.75999"><ele>847</ele><time>2012-05-28T12:42:25Z</time></trkpt><trkpt lat="43.63057" lon="11.75999"><ele>846</ele><time>2012-05-28T12:42:29Z</time></trkpt><trkpt lat="43.63054" lon="11.75997"><ele>848</ele><time>2012-05-28T12:42:32Z</time></trkpt><trkpt lat="43.63052" lon="11.75994"><ele>844</ele><time>2012-05-28T12:42:36Z</time></trkpt><trkpt lat="43.63049" lon="11.75998"><ele>847</ele><time>2012-05-28T12:42:42Z</time></trkpt><trkpt lat="43.63046" lon="11.76000"><ele>849</ele><time>2012-05-28T12:42:44Z</time></trkpt><trkpt lat="43.63043" lon="11.76000"><ele>850</ele><time>2012-05-28T12:42:46Z</time></trkpt><trkpt lat="43.63041" lon="11.76002"><ele>851</ele><time>2012-05-28T12:42:48Z</time></trkpt><trkpt lat="43.63038" lon="11.76006"><ele>852</ele><time>2012-05-28T12:42:50Z</time></trkpt><trkpt lat="43.63034" lon="11.76007"><ele>852</ele><time>2012-05-28T12:42:53Z</time></trkpt><trkpt lat="43.63031" lon="11.76007"><ele>853</ele><time>2012-05-28T12:42:55Z</time></trkpt><trkpt lat="43.63029" lon="11.76005"><ele>853</ele><time>2012-05-28T12:42:57Z</time></trkpt><trkpt lat="43.63025" lon="11.76003"><ele>853</ele><time>2012-05-28T12:43:00Z</time></trkpt><trkpt lat="43.63022" lon="11.75999"><ele>852</ele><time>2012-05-28T12:43:02Z</time></trkpt><trkpt lat="43.63021" lon="11.75996"><ele>855</ele><time>2012-05-28T12:43:03Z</time></trkpt><trkpt lat="43.63017" lon="11.75988"><ele>861</ele><time>2012-05-28T12:43:05Z</time></trkpt><trkpt lat="43.63012" lon="11.75976"><ele>861</ele><time>2012-05-28T12:43:09Z</time></trkpt><trkpt lat="43.63010" lon="11.75973"><ele>862</ele><time>2012-05-28T12:43:11Z</time></trkpt><trkpt lat="43.63009" lon="11.75970"><ele>861</ele><time>2012-05-28T12:43:14Z</time></trkpt><trkpt lat="43.63009" lon="11.75966"><ele>859</ele><time>2012-05-28T12:43:17Z</time></trkpt><trkpt lat="43.63009" lon="11.75963"><ele>858</ele><time>2012-05-28T12:43:21Z</time></trkpt><trkpt lat="43.63005" lon="11.75962"><ele>859</ele><time>2012-05-28T12:43:24Z</time></trkpt><trkpt lat="43.63005" lon="11.75958"><ele>858</ele><time>2012-05-28T12:43:27Z</time></trkpt><trkpt lat="43.63006" lon="11.75954"><ele>859</ele><time>2012-05-28T12:43:28Z</time></trkpt><trkpt lat="43.63006" lon="11.75951"><ele>859</ele><time>2012-05-28T12:43:31Z</time></trkpt><trkpt lat="43.63005" lon="11.75948"><ele>860</ele><time>2012-05-28T12:43:38Z</time></trkpt><trkpt lat="43.63006" lon="11.75944"><ele>860</ele><time>2012-05-28T12:43:41Z</time></trkpt><trkpt lat="43.63005" lon="11.75941"><ele>859</ele><time>2012-05-28T12:43:44Z</time></trkpt><trkpt lat="43.63005" lon="11.75937"><ele>856</ele><time>2012-05-28T12:43:47Z</time></trkpt><trkpt lat="43.63005" lon="11.75933"><ele>857</ele><time>2012-05-28T12:43:49Z</time></trkpt><trkpt lat="43.63005" lon="11.75929"><ele>856</ele><time>2012-05-28T12:43:52Z</time></trkpt><trkpt lat="43.63002" lon="11.75919"><ele>859</ele><time>2012-05-28T12:43:58Z</time></trkpt><trkpt lat="43.63000" lon="11.75916"><ele>858</ele><time>2012-05-28T12:44:02Z</time></trkpt><trkpt lat="43.62998" lon="11.75911"><ele>857</ele><time>2012-05-28T12:44:13Z</time></trkpt><trkpt lat="43.62995" lon="11.75909"><ele>858</ele><time>2012-05-28T12:44:16Z</time></trkpt><trkpt lat="43.62993" lon="11.75908"><ele>859</ele><time>2012-05-28T12:44:18Z</time></trkpt><trkpt lat="43.62989" lon="11.75906"><ele>861</ele><time>2012-05-28T12:44:20Z</time></trkpt><trkpt lat="43.62985" lon="11.75902"><ele>861</ele><time>2012-05-28T12:44:21Z</time></trkpt><trkpt lat="43.62976" lon="11.75894"><ele>865</ele><time>2012-05-28T12:44:28Z</time></trkpt><trkpt lat="43.62974" lon="11.75892"><ele>865</ele><time>2012-05-28T12:44:30Z</time></trkpt><trkpt lat="43.62972" lon="11.75891"><ele>867</ele><time>2012-05-28T12:44:39Z</time></trkpt><trkpt lat="43.62963" lon="11.75885"><ele>873</ele><time>2012-05-28T12:44:46Z</time></trkpt><trkpt lat="43.62960" lon="11.75885"><ele>876</ele><time>2012-05-28T12:44:48Z</time></trkpt><trkpt lat="43.62954" lon="11.75883"><ele>880</ele><time>2012-05-28T12:44:57Z</time></trkpt><trkpt lat="43.62953" lon="11.75879"><ele>880</ele><time>2012-05-28T12:45:02Z</time></trkpt><trkpt lat="43.62953" lon="11.75873"><ele>878</ele><time>2012-05-28T12:45:05Z</time></trkpt><trkpt lat="43.62951" lon="11.75861"><ele>879</ele><time>2012-05-28T12:45:17Z</time></trkpt><trkpt lat="43.62949" lon="11.75859"><ele>881</ele><time>2012-05-28T12:45:19Z</time></trkpt><trkpt lat="43.62945" lon="11.75857"><ele>880</ele><time>2012-05-28T12:45:23Z</time></trkpt><trkpt lat="43.62940" lon="11.75853"><ele>879</ele><time>2012-05-28T12:45:31Z</time></trkpt><trkpt lat="43.62940" lon="11.75848"><ele>878</ele><time>2012-05-28T12:45:37Z</time></trkpt><trkpt lat="43.62935" lon="11.75843"><ele>876</ele><time>2012-05-28T12:45:41Z</time></trkpt><trkpt lat="43.62929" lon="11.75839"><ele>877</ele><time>2012-05-28T12:45:44Z</time></trkpt><trkpt lat="43.62925" lon="11.75835"><ele>877</ele><time>2012-05-28T12:45:48Z</time></trkpt><trkpt lat="43.62922" lon="11.75830"><ele>877</ele><time>2012-05-28T12:45:50Z</time></trkpt><trkpt lat="43.62920" lon="11.75829"><ele>880</ele><time>2012-05-28T12:45:52Z</time></trkpt><trkpt lat="43.62917" lon="11.75830"><ele>880</ele><time>2012-05-28T12:45:54Z</time></trkpt><trkpt lat="43.62915" lon="11.75830"><ele>881</ele><time>2012-05-28T12:45:56Z</time></trkpt><trkpt lat="43.62912" lon="11.75828"><ele>881</ele><time>2012-05-28T12:46:00Z</time></trkpt><trkpt lat="43.62916" lon="11.75827"><ele>880</ele><time>2012-05-28T12:46:01Z</time></trkpt><trkpt lat="43.62921" lon="11.75826"><ele>882</ele><time>2012-05-28T12:46:05Z</time></trkpt><trkpt lat="43.62917" lon="11.75826"><ele>882</ele><time>2012-05-28T12:46:07Z</time></trkpt><trkpt lat="43.62914" lon="11.75825"><ele>884</ele><time>2012-05-28T12:46:09Z</time></trkpt><trkpt lat="43.62910" lon="11.75823"><ele>883</ele><time>2012-05-28T12:46:12Z</time></trkpt><trkpt lat="43.62907" lon="11.75825"><ele>881</ele><time>2012-05-28T12:46:15Z</time></trkpt><trkpt lat="43.62904" lon="11.75825"><ele>878</ele><time>2012-05-28T12:46:22Z</time></trkpt><trkpt lat="43.62900" lon="11.75826"><ele>881</ele><time>2012-05-28T12:46:28Z</time></trkpt><trkpt lat="43.62896" lon="11.75827"><ele>882</ele><time>2012-05-28T12:46:33Z</time></trkpt><trkpt lat="43.62892" lon="11.75829"><ele>889</ele><time>2012-05-28T12:46:36Z</time></trkpt><trkpt lat="43.62882" lon="11.75834"><ele>893</ele><time>2012-05-28T12:46:39Z</time></trkpt><trkpt lat="43.62877" lon="11.75834"><ele>893</ele><time>2012-05-28T12:46:41Z</time></trkpt><trkpt lat="43.62875" lon="11.75832"><ele>893</ele><time>2012-05-28T12:46:43Z</time></trkpt><trkpt lat="43.62873" lon="11.75831"><ele>894</ele><time>2012-05-28T12:46:47Z</time></trkpt><trkpt lat="43.62872" lon="11.75827"><ele>891</ele><time>2012-05-28T12:46:54Z</time></trkpt><trkpt lat="43.62869" lon="11.75823"><ele>891</ele><time>2012-05-28T12:46:56Z</time></trkpt><trkpt lat="43.62867" lon="11.75821"><ele>891</ele><time>2012-05-28T12:46:57Z</time></trkpt><trkpt lat="43.62865" lon="11.75817"><ele>891</ele><time>2012-05-28T12:47:01Z</time></trkpt><trkpt lat="43.62866" lon="11.75821"><ele>890</ele><time>2012-05-28T12:47:09Z</time></trkpt><trkpt lat="43.62864" lon="11.75824"><ele>886</ele><time>2012-05-28T12:47:11Z</time></trkpt><trkpt lat="43.62861" lon="11.75827"><ele>886</ele><time>2012-05-28T12:47:16Z</time></trkpt><trkpt lat="43.62858" lon="11.75827"><ele>885</ele><time>2012-05-28T12:47:17Z</time></trkpt><trkpt lat="43.62855" lon="11.75826"><ele>886</ele><time>2012-05-28T12:47:19Z</time></trkpt><trkpt lat="43.62851" lon="11.75821"><ele>885</ele><time>2012-05-28T12:47:25Z</time></trkpt><trkpt lat="43.62850" lon="11.75818"><ele>884</ele><time>2012-05-28T12:47:27Z</time></trkpt><trkpt lat="43.62848" lon="11.75816"><ele>884</ele><time>2012-05-28T12:47:29Z</time></trkpt><trkpt lat="43.62845" lon="11.75815"><ele>884</ele><time>2012-05-28T12:47:31Z</time></trkpt><trkpt lat="43.62842" lon="11.75814"><ele>884</ele><time>2012-05-28T12:47:33Z</time></trkpt><trkpt lat="43.62840" lon="11.75812"><ele>884</ele><time>2012-05-28T12:47:34Z</time></trkpt><trkpt lat="43.62837" lon="11.75810"><ele>884</ele><time>2012-05-28T12:47:36Z</time></trkpt><trkpt lat="43.62834" lon="11.75808"><ele>884</ele><time>2012-05-28T12:47:39Z</time></trkpt><trkpt lat="43.62832" lon="11.75806"><ele>885</ele><time>2012-05-28T12:47:42Z</time></trkpt><trkpt lat="43.62829" lon="11.75805"><ele>885</ele><time>2012-05-28T12:47:45Z</time></trkpt><trkpt lat="43.62824" lon="11.75803"><ele>892</ele><time>2012-05-28T12:47:49Z</time></trkpt><trkpt lat="43.62820" lon="11.75799"><ele>892</ele><time>2012-05-28T12:47:53Z</time></trkpt><trkpt lat="43.62819" lon="11.75796"><ele>896</ele><time>2012-05-28T12:47:55Z</time></trkpt><trkpt lat="43.62818" lon="11.75792"><ele>896</ele><time>2012-05-28T12:47:56Z</time></trkpt><trkpt lat="43.62815" lon="11.75791"><ele>897</ele><time>2012-05-28T12:48:00Z</time></trkpt><trkpt lat="43.62806" lon="11.75785"><ele>900</ele><time>2012-05-28T12:48:06Z</time></trkpt><trkpt lat="43.62801" lon="11.75783"><ele>902</ele><time>2012-05-28T12:48:11Z</time></trkpt><trkpt lat="43.62799" lon="11.75785"><ele>903</ele><time>2012-05-28T12:48:13Z</time></trkpt><trkpt lat="43.62795" lon="11.75787"><ele>905</ele><time>2012-05-28T12:48:25Z</time></trkpt><trkpt lat="43.62794" lon="11.75783"><ele>901</ele><time>2012-05-28T12:48:26Z</time></trkpt><trkpt lat="43.62794" lon="11.75775"><ele>902</ele><time>2012-05-28T12:48:28Z</time></trkpt><trkpt lat="43.62792" lon="11.75770"><ele>902</ele><time>2012-05-28T12:48:31Z</time></trkpt><trkpt lat="43.62789" lon="11.75768"><ele>902</ele><time>2012-05-28T12:48:32Z</time></trkpt><trkpt lat="43.62786" lon="11.75769"><ele>902</ele><time>2012-05-28T12:48:34Z</time></trkpt><trkpt lat="43.62782" lon="11.75771"><ele>903</ele><time>2012-05-28T12:48:36Z</time></trkpt><trkpt lat="43.62779" lon="11.75772"><ele>903</ele><time>2012-05-28T12:48:38Z</time></trkpt><trkpt lat="43.62777" lon="11.75770"><ele>904</ele><time>2012-05-28T12:48:40Z</time></trkpt><trkpt lat="43.62774" lon="11.75768"><ele>904</ele><time>2012-05-28T12:48:42Z</time></trkpt><trkpt lat="43.62772" lon="11.75765"><ele>905</ele><time>2012-05-28T12:48:44Z</time></trkpt><trkpt lat="43.62769" lon="11.75761"><ele>905</ele><time>2012-05-28T12:48:46Z</time></trkpt><trkpt lat="43.62767" lon="11.75759"><ele>905</ele><time>2012-05-28T12:48:47Z</time></trkpt><trkpt lat="43.62765" lon="11.75756"><ele>904</ele><time>2012-05-28T12:48:48Z</time></trkpt><trkpt lat="43.62758" lon="11.75747"><ele>904</ele><time>2012-05-28T12:48:51Z</time></trkpt><trkpt lat="43.62750" lon="11.75734"><ele>899</ele><time>2012-05-28T12:48:56Z</time></trkpt><trkpt lat="43.62746" lon="11.75724"><ele>897</ele><time>2012-05-28T12:49:00Z</time></trkpt><trkpt lat="43.62746" lon="11.75716"><ele>896</ele><time>2012-05-28T12:49:03Z</time></trkpt><trkpt lat="43.62743" lon="11.75700"><ele>901</ele><time>2012-05-28T12:49:06Z</time></trkpt><trkpt lat="43.62742" lon="11.75688"><ele>902</ele><time>2012-05-28T12:49:10Z</time></trkpt><trkpt lat="43.62742" lon="11.75684"><ele>904</ele><time>2012-05-28T12:49:12Z</time></trkpt><trkpt lat="43.62740" lon="11.75680"><ele>906</ele><time>2012-05-28T12:49:15Z</time></trkpt><trkpt lat="43.62737" lon="11.75674"><ele>903</ele><time>2012-05-28T12:49:17Z</time></trkpt><trkpt lat="43.62735" lon="11.75668"><ele>901</ele><time>2012-05-28T12:49:20Z</time></trkpt><trkpt lat="43.62732" lon="11.75660"><ele>908</ele><time>2012-05-28T12:49:24Z</time></trkpt><trkpt lat="43.62730" lon="11.75658"><ele>907</ele><time>2012-05-28T12:49:26Z</time></trkpt><trkpt lat="43.62726" lon="11.75656"><ele>908</ele><time>2012-05-28T12:49:28Z</time></trkpt><trkpt lat="43.62724" lon="11.75654"><ele>907</ele><time>2012-05-28T12:49:31Z</time></trkpt><trkpt lat="43.62721" lon="11.75654"><ele>906</ele><time>2012-05-28T12:49:32Z</time></trkpt><trkpt lat="43.62718" lon="11.75653"><ele>906</ele><time>2012-05-28T12:49:34Z</time></trkpt><trkpt lat="43.62714" lon="11.75653"><ele>906</ele><time>2012-05-28T12:49:37Z</time></trkpt><trkpt lat="43.62710" lon="11.75653"><ele>905</ele><time>2012-05-28T12:49:40Z</time></trkpt><trkpt lat="43.62706" lon="11.75651"><ele>902</ele><time>2012-05-28T12:49:41Z</time></trkpt><trkpt lat="43.62699" lon="11.75646"><ele>902</ele><time>2012-05-28T12:49:47Z</time></trkpt><trkpt lat="43.62697" lon="11.75643"><ele>902</ele><time>2012-05-28T12:49:50Z</time></trkpt><trkpt lat="43.62694" lon="11.75641"><ele>904</ele><time>2012-05-28T12:49:52Z</time></trkpt><trkpt lat="43.62683" lon="11.75632"><ele>907</ele><time>2012-05-28T12:49:58Z</time></trkpt><trkpt lat="43.62679" lon="11.75631"><ele>908</ele><time>2012-05-28T12:50:00Z</time></trkpt><trkpt lat="43.62673" lon="11.75628"><ele>909</ele><time>2012-05-28T12:50:04Z</time></trkpt><trkpt lat="43.62671" lon="11.75626"><ele>909</ele><time>2012-05-28T12:50:06Z</time></trkpt><trkpt lat="43.62669" lon="11.75622"><ele>905</ele><time>2012-05-28T12:50:08Z</time></trkpt><trkpt lat="43.62663" lon="11.75612"><ele>904</ele><time>2012-05-28T12:50:14Z</time></trkpt><trkpt lat="43.62660" lon="11.75609"><ele>907</ele><time>2012-05-28T12:50:16Z</time></trkpt><trkpt lat="43.62657" lon="11.75608"><ele>914</ele><time>2012-05-28T12:50:28Z</time></trkpt><trkpt lat="43.62654" lon="11.75607"><ele>916</ele><time>2012-05-28T12:50:32Z</time></trkpt><trkpt lat="43.62652" lon="11.75606"><ele>915</ele><time>2012-05-28T12:50:33Z</time></trkpt><trkpt lat="43.62650" lon="11.75604"><ele>916</ele><time>2012-05-28T12:50:36Z</time></trkpt><trkpt lat="43.62649" lon="11.75601"><ele>914</ele><time>2012-05-28T12:50:43Z</time></trkpt><trkpt lat="43.62647" lon="11.75598"><ele>915</ele><time>2012-05-28T12:50:46Z</time></trkpt><trkpt lat="43.62645" lon="11.75599"><ele>916</ele><time>2012-05-28T12:50:49Z</time></trkpt><trkpt lat="43.62642" lon="11.75598"><ele>919</ele><time>2012-05-28T12:50:53Z</time></trkpt><trkpt lat="43.62639" lon="11.75597"><ele>922</ele><time>2012-05-28T12:50:57Z</time></trkpt><trkpt lat="43.62635" lon="11.75595"><ele>922</ele><time>2012-05-28T12:50:59Z</time></trkpt><trkpt lat="43.62633" lon="11.75592"><ele>923</ele><time>2012-05-28T12:51:02Z</time></trkpt><trkpt lat="43.62630" lon="11.75589"><ele>923</ele><time>2012-05-28T12:51:05Z</time></trkpt><trkpt lat="43.62629" lon="11.75586"><ele>922</ele><time>2012-05-28T12:51:10Z</time></trkpt><trkpt lat="43.62628" lon="11.75581"><ele>922</ele><time>2012-05-28T12:51:17Z</time></trkpt><trkpt lat="43.62626" lon="11.75580"><ele>923</ele><time>2012-05-28T12:51:21Z</time></trkpt><trkpt lat="43.62623" lon="11.75580"><ele>922</ele><time>2012-05-28T12:51:24Z</time></trkpt><trkpt lat="43.62620" lon="11.75581"><ele>921</ele><time>2012-05-28T12:51:28Z</time></trkpt><trkpt lat="43.62617" lon="11.75584"><ele>926</ele><time>2012-05-28T12:51:32Z</time></trkpt><trkpt lat="43.62615" lon="11.75585"><ele>925</ele><time>2012-05-28T12:51:36Z</time></trkpt><trkpt lat="43.62612" lon="11.75584"><ele>924</ele><time>2012-05-28T12:51:40Z</time></trkpt><trkpt lat="43.62608" lon="11.75582"><ele>923</ele><time>2012-05-28T12:51:43Z</time></trkpt><trkpt lat="43.62609" lon="11.75579"><ele>924</ele><time>2012-05-28T12:51:47Z</time></trkpt><trkpt lat="43.62610" lon="11.75575"><ele>925</ele><time>2012-05-28T12:51:51Z</time></trkpt><trkpt lat="43.62612" lon="11.75573"><ele>922</ele><time>2012-05-28T12:51:54Z</time></trkpt><trkpt lat="43.62614" lon="11.75572"><ele>922</ele><time>2012-05-28T12:51:56Z</time></trkpt><trkpt lat="43.62612" lon="11.75569"><ele>923</ele><time>2012-05-28T12:51:58Z</time></trkpt><trkpt lat="43.62609" lon="11.75567"><ele>926</ele><time>2012-05-28T12:52:00Z</time></trkpt><trkpt lat="43.62606" lon="11.75566"><ele>927</ele><time>2012-05-28T12:52:02Z</time></trkpt><trkpt lat="43.62594" lon="11.75567"><ele>932</ele><time>2012-05-28T12:52:08Z</time></trkpt><trkpt lat="43.62592" lon="11.75566"><ele>931</ele><time>2012-05-28T12:52:09Z</time></trkpt><trkpt lat="43.62588" lon="11.75565"><ele>931</ele><time>2012-05-28T12:52:11Z</time></trkpt><trkpt lat="43.62586" lon="11.75563"><ele>931</ele><time>2012-05-28T12:52:12Z</time></trkpt><trkpt lat="43.62582" lon="11.75558"><ele>931</ele><time>2012-05-28T12:52:14Z</time></trkpt><trkpt lat="43.62579" lon="11.75554"><ele>930</ele><time>2012-05-28T12:52:17Z</time></trkpt><trkpt lat="43.62579" lon="11.75548"><ele>930</ele><time>2012-05-28T12:52:19Z</time></trkpt><trkpt lat="43.62581" lon="11.75545"><ele>930</ele><time>2012-05-28T12:52:21Z</time></trkpt><trkpt lat="43.62583" lon="11.75544"><ele>930</ele><time>2012-05-28T12:52:23Z</time></trkpt><trkpt lat="43.62587" lon="11.75544"><ele>931</ele><time>2012-05-28T12:52:27Z</time></trkpt><trkpt lat="43.62590" lon="11.75545"><ele>930</ele><time>2012-05-28T12:52:32Z</time></trkpt><trkpt lat="43.62594" lon="11.75550"><ele>930</ele><time>2012-05-28T12:52:35Z</time></trkpt><trkpt lat="43.62593" lon="11.75553"><ele>930</ele><time>2012-05-28T12:52:46Z</time></trkpt><trkpt lat="43.62591" lon="11.75554"><ele>927</ele><time>2012-05-28T12:52:51Z</time></trkpt><trkpt lat="43.62586" lon="11.75556"><ele>929</ele><time>2012-05-28T12:53:02Z</time></trkpt><trkpt lat="43.62574" lon="11.75561"><ele>937</ele><time>2012-05-28T12:53:07Z</time></trkpt><trkpt lat="43.62567" lon="11.75563"><ele>940</ele><time>2012-05-28T12:53:11Z</time></trkpt><trkpt lat="43.62564" lon="11.75561"><ele>940</ele><time>2012-05-28T12:53:16Z</time></trkpt><trkpt lat="43.62561" lon="11.75560"><ele>942</ele><time>2012-05-28T12:53:20Z</time></trkpt><trkpt lat="43.62559" lon="11.75558"><ele>941</ele><time>2012-05-28T12:53:23Z</time></trkpt><trkpt lat="43.62556" lon="11.75556"><ele>944</ele><time>2012-05-28T12:53:31Z</time></trkpt><trkpt lat="43.62551" lon="11.75554"><ele>945</ele><time>2012-05-28T12:53:33Z</time></trkpt><trkpt lat="43.62542" lon="11.75550"><ele>950</ele><time>2012-05-28T12:53:42Z</time></trkpt><trkpt lat="43.62539" lon="11.75550"><ele>950</ele><time>2012-05-28T12:53:45Z</time></trkpt><trkpt lat="43.62530" lon="11.75547"><ele>947</ele><time>2012-05-28T12:53:55Z</time></trkpt><trkpt lat="43.62530" lon="11.75543"><ele>949</ele><time>2012-05-28T12:54:02Z</time></trkpt><trkpt lat="43.62532" lon="11.75541"><ele>950</ele><time>2012-05-28T12:54:06Z</time></trkpt><trkpt lat="43.62534" lon="11.75537"><ele>949</ele><time>2012-05-28T12:54:09Z</time></trkpt><trkpt lat="43.62537" lon="11.75531"><ele>949</ele><time>2012-05-28T12:54:12Z</time></trkpt><trkpt lat="43.62538" lon="11.75527"><ele>949</ele><time>2012-05-28T12:54:14Z</time></trkpt><trkpt lat="43.62540" lon="11.75525"><ele>949</ele><time>2012-05-28T12:54:16Z</time></trkpt><trkpt lat="43.62543" lon="11.75520"><ele>951</ele><time>2012-05-28T12:54:18Z</time></trkpt><trkpt lat="43.62549" lon="11.75514"><ele>947</ele><time>2012-05-28T12:54:22Z</time></trkpt><trkpt lat="43.62555" lon="11.75506"><ele>947</ele><time>2012-05-28T12:54:27Z</time></trkpt><trkpt lat="43.62555" lon="11.75502"><ele>945</ele><time>2012-05-28T12:54:29Z</time></trkpt><trkpt lat="43.62555" lon="11.75496"><ele>945</ele><time>2012-05-28T12:54:31Z</time></trkpt><trkpt lat="43.62553" lon="11.75491"><ele>945</ele><time>2012-05-28T12:54:32Z</time></trkpt><trkpt lat="43.62550" lon="11.75486"><ele>946</ele><time>2012-05-28T12:54:35Z</time></trkpt><trkpt lat="43.62548" lon="11.75480"><ele>943</ele><time>2012-05-28T12:54:38Z</time></trkpt><trkpt lat="43.62549" lon="11.75477"><ele>942</ele><time>2012-05-28T12:54:41Z</time></trkpt><trkpt lat="43.62548" lon="11.75473"><ele>948</ele><time>2012-05-28T12:54:44Z</time></trkpt><trkpt lat="43.62546" lon="11.75470"><ele>946</ele><time>2012-05-28T12:54:46Z</time></trkpt><trkpt lat="43.62544" lon="11.75465"><ele>946</ele><time>2012-05-28T12:54:49Z</time></trkpt><trkpt lat="43.62542" lon="11.75461"><ele>945</ele><time>2012-05-28T12:54:50Z</time></trkpt><trkpt lat="43.62541" lon="11.75458"><ele>945</ele><time>2012-05-28T12:54:51Z</time></trkpt><trkpt lat="43.62536" lon="11.75446"><ele>945</ele><time>2012-05-28T12:54:55Z</time></trkpt><trkpt lat="43.62534" lon="11.75439"><ele>944</ele><time>2012-05-28T12:54:57Z</time></trkpt><trkpt lat="43.62531" lon="11.75426"><ele>951</ele><time>2012-05-28T12:55:03Z</time></trkpt><trkpt lat="43.62526" lon="11.75413"><ele>954</ele><time>2012-05-28T12:55:07Z</time></trkpt><trkpt lat="43.62522" lon="11.75404"><ele>956</ele><time>2012-05-28T12:55:14Z</time></trkpt><trkpt lat="43.62521" lon="11.75401"><ele>950</ele><time>2012-05-28T12:55:15Z</time></trkpt><trkpt lat="43.62520" lon="11.75397"><ele>950</ele><time>2012-05-28T12:55:17Z</time></trkpt><trkpt lat="43.62519" lon="11.75393"><ele>950</ele><time>2012-05-28T12:55:18Z</time></trkpt><trkpt lat="43.62519" lon="11.75386"><ele>948</ele><time>2012-05-28T12:55:21Z</time></trkpt><trkpt lat="43.62520" lon="11.75383"><ele>952</ele><time>2012-05-28T12:55:27Z</time></trkpt><trkpt lat="43.62517" lon="11.75380"><ele>956</ele><time>2012-05-28T12:55:28Z</time></trkpt><trkpt lat="43.62513" lon="11.75380"><ele>957</ele><time>2012-05-28T12:55:34Z</time></trkpt><trkpt lat="43.62511" lon="11.75377"><ele>957</ele><time>2012-05-28T12:55:38Z</time></trkpt><trkpt lat="43.62509" lon="11.75376"><ele>959</ele><time>2012-05-28T12:55:42Z</time></trkpt><trkpt lat="43.62500" lon="11.75368"><ele>961</ele><time>2012-05-28T12:55:52Z</time></trkpt><trkpt lat="43.62498" lon="11.75367"><ele>961</ele><time>2012-05-28T12:55:54Z</time></trkpt><trkpt lat="43.62490" lon="11.75359"><ele>967</ele><time>2012-05-28T12:56:03Z</time></trkpt><trkpt lat="43.62487" lon="11.75357"><ele>968</ele><time>2012-05-28T12:56:04Z</time></trkpt><trkpt lat="43.62485" lon="11.75355"><ele>967</ele><time>2012-05-28T12:56:07Z</time></trkpt><trkpt lat="43.62484" lon="11.75351"><ele>966</ele><time>2012-05-28T12:56:11Z</time></trkpt><trkpt lat="43.62487" lon="11.75346"><ele>966</ele><time>2012-05-28T12:56:32Z</time></trkpt><trkpt lat="43.62482" lon="11.75342"><ele>968</ele><time>2012-05-28T12:56:57Z</time></trkpt><trkpt lat="43.62485" lon="11.75342"><ele>967</ele><time>2012-05-28T12:57:05Z</time></trkpt><trkpt lat="43.62486" lon="11.75338"><ele>968</ele><time>2012-05-28T12:57:08Z</time></trkpt><trkpt lat="43.62487" lon="11.75335"><ele>968</ele><time>2012-05-28T12:57:11Z</time></trkpt><trkpt lat="43.62490" lon="11.75328"><ele>969</ele><time>2012-05-28T12:57:15Z</time></trkpt><trkpt lat="43.62492" lon="11.75325"><ele>970</ele><time>2012-05-28T12:57:18Z</time></trkpt><trkpt lat="43.62494" lon="11.75322"><ele>971</ele><time>2012-05-28T12:57:21Z</time></trkpt><trkpt lat="43.62496" lon="11.75319"><ele>971</ele><time>2012-05-28T12:57:23Z</time></trkpt><trkpt lat="43.62497" lon="11.75316"><ele>971</ele><time>2012-05-28T12:57:29Z</time></trkpt><trkpt lat="43.62499" lon="11.75312"><ele>972</ele><time>2012-05-28T12:57:31Z</time></trkpt><trkpt lat="43.62501" lon="11.75304"><ele>970</ele><time>2012-05-28T12:57:37Z</time></trkpt><trkpt lat="43.62501" lon="11.75301"><ele>969</ele><time>2012-05-28T12:57:39Z</time></trkpt><trkpt lat="43.62500" lon="11.75296"><ele>969</ele><time>2012-05-28T12:57:42Z</time></trkpt><trkpt lat="43.62502" lon="11.75297"><ele>968</ele><time>2012-05-28T12:57:43Z</time></trkpt><trkpt lat="43.62505" lon="11.75297"><ele>968</ele><time>2012-05-28T12:57:45Z</time></trkpt><trkpt lat="43.62508" lon="11.75297"><ele>968</ele><time>2012-05-28T12:57:48Z</time></trkpt><trkpt lat="43.62507" lon="11.75293"><ele>972</ele><time>2012-05-28T12:57:55Z</time></trkpt><trkpt lat="43.62508" lon="11.75291"><ele>972</ele><time>2012-05-28T12:57:59Z</time></trkpt><trkpt lat="43.62510" lon="11.75288"><ele>971</ele><time>2012-05-28T12:58:01Z</time></trkpt><trkpt lat="43.62512" lon="11.75285"><ele>971</ele><time>2012-05-28T12:58:05Z</time></trkpt><trkpt lat="43.62514" lon="11.75280"><ele>971</ele><time>2012-05-28T12:58:10Z</time></trkpt><trkpt lat="43.62517" lon="11.75276"><ele>971</ele><time>2012-05-28T12:58:12Z</time></trkpt><trkpt lat="43.62517" lon="11.75273"><ele>968</ele><time>2012-05-28T12:58:14Z</time></trkpt><trkpt lat="43.62517" lon="11.75268"><ele>969</ele><time>2012-05-28T12:58:17Z</time></trkpt><trkpt lat="43.62517" lon="11.75264"><ele>969</ele><time>2012-05-28T12:58:21Z</time></trkpt><trkpt lat="43.62516" lon="11.75261"><ele>972</ele><time>2012-05-28T12:58:26Z</time></trkpt><trkpt lat="43.62516" lon="11.75255"><ele>974</ele><time>2012-05-28T12:58:29Z</time></trkpt><trkpt lat="43.62515" lon="11.75250"><ele>975</ele><time>2012-05-28T12:58:31Z</time></trkpt><trkpt lat="43.62514" lon="11.75247"><ele>972</ele><time>2012-05-28T12:58:32Z</time></trkpt><trkpt lat="43.62514" lon="11.75242"><ele>973</ele><time>2012-05-28T12:58:35Z</time></trkpt><trkpt lat="43.62513" lon="11.75236"><ele>974</ele><time>2012-05-28T12:58:37Z</time></trkpt><trkpt lat="43.62512" lon="11.75229"><ele>974</ele><time>2012-05-28T12:58:40Z</time></trkpt><trkpt lat="43.62515" lon="11.75223"><ele>973</ele><time>2012-05-28T12:58:45Z</time></trkpt><trkpt lat="43.62517" lon="11.75221"><ele>973</ele><time>2012-05-28T12:58:47Z</time></trkpt><trkpt lat="43.62520" lon="11.75221"><ele>971</ele><time>2012-05-28T12:58:49Z</time></trkpt><trkpt lat="43.62522" lon="11.75222"><ele>970</ele><time>2012-05-28T12:58:52Z</time></trkpt><trkpt lat="43.62524" lon="11.75221"><ele>970</ele><time>2012-05-28T12:58:54Z</time></trkpt><trkpt lat="43.62526" lon="11.75219"><ele>969</ele><time>2012-05-28T12:58:56Z</time></trkpt><trkpt lat="43.62529" lon="11.75215"><ele>968</ele><time>2012-05-28T12:58:58Z</time></trkpt><trkpt lat="43.62533" lon="11.75209"><ele>967</ele><time>2012-05-28T12:59:01Z</time></trkpt><trkpt lat="43.62537" lon="11.75207"><ele>970</ele><time>2012-05-28T12:59:03Z</time></trkpt><trkpt lat="43.62542" lon="11.75202"><ele>970</ele><time>2012-05-28T12:59:07Z</time></trkpt><trkpt lat="43.62543" lon="11.75199"><ele>970</ele><time>2012-05-28T12:59:09Z</time></trkpt><trkpt lat="43.62551" lon="11.75191"><ele>968</ele><time>2012-05-28T12:59:13Z</time></trkpt><trkpt lat="43.62559" lon="11.75182"><ele>968</ele><time>2012-05-28T12:59:18Z</time></trkpt><trkpt lat="43.62562" lon="11.75179"><ele>967</ele><time>2012-05-28T12:59:19Z</time></trkpt><trkpt lat="43.62565" lon="11.75175"><ele>968</ele><time>2012-05-28T12:59:22Z</time></trkpt><trkpt lat="43.62566" lon="11.75171"><ele>968</ele><time>2012-05-28T12:59:23Z</time></trkpt><trkpt lat="43.62568" lon="11.75165"><ele>968</ele><time>2012-05-28T12:59:26Z</time></trkpt><trkpt lat="43.62570" lon="11.75161"><ele>968</ele><time>2012-05-28T12:59:28Z</time></trkpt><trkpt lat="43.62571" lon="11.75157"><ele>965</ele><time>2012-05-28T12:59:29Z</time></trkpt><trkpt lat="43.62574" lon="11.75151"><ele>964</ele><time>2012-05-28T12:59:31Z</time></trkpt><trkpt lat="43.62578" lon="11.75142"><ele>964</ele><time>2012-05-28T12:59:33Z</time></trkpt><trkpt lat="43.62581" lon="11.75138"><ele>966</ele><time>2012-05-28T12:59:35Z</time></trkpt><trkpt lat="43.62583" lon="11.75135"><ele>967</ele><time>2012-05-28T12:59:37Z</time></trkpt><trkpt lat="43.62586" lon="11.75131"><ele>967</ele><time>2012-05-28T12:59:39Z</time></trkpt><trkpt lat="43.62588" lon="11.75124"><ele>967</ele><time>2012-05-28T12:59:42Z</time></trkpt><trkpt lat="43.62589" lon="11.75116"><ele>966</ele><time>2012-05-28T12:59:45Z</time></trkpt><trkpt lat="43.62588" lon="11.75110"><ele>965</ele><time>2012-05-28T12:59:48Z</time></trkpt><trkpt lat="43.62584" lon="11.75096"><ele>965</ele><time>2012-05-28T12:59:53Z</time></trkpt><trkpt lat="43.62584" lon="11.75093"><ele>966</ele><time>2012-05-28T12:59:55Z</time></trkpt><trkpt lat="43.62583" lon="11.75083"><ele>967</ele><time>2012-05-28T13:00:01Z</time></trkpt><trkpt lat="43.62582" lon="11.75080"><ele>969</ele><time>2012-05-28T13:00:03Z</time></trkpt><trkpt lat="43.62577" lon="11.75068"><ele>970</ele><time>2012-05-28T13:00:08Z</time></trkpt><trkpt lat="43.62577" lon="11.75064"><ele>971</ele><time>2012-05-28T13:00:09Z</time></trkpt><trkpt lat="43.62576" lon="11.75061"><ele>972</ele><time>2012-05-28T13:00:10Z</time></trkpt><trkpt lat="43.62575" lon="11.75051"><ele>972</ele><time>2012-05-28T13:00:13Z</time></trkpt><trkpt lat="43.62574" lon="11.75044"><ele>973</ele><time>2012-05-28T13:00:15Z</time></trkpt><trkpt lat="43.62571" lon="11.75035"><ele>976</ele><time>2012-05-28T13:00:17Z</time></trkpt><trkpt lat="43.62569" lon="11.75032"><ele>977</ele><time>2012-05-28T13:00:18Z</time></trkpt><trkpt lat="43.62562" lon="11.75022"><ele>982</ele><time>2012-05-28T13:00:22Z</time></trkpt><trkpt lat="43.62561" lon="11.75019"><ele>986</ele><time>2012-05-28T13:00:24Z</time></trkpt><trkpt lat="43.62560" lon="11.75016"><ele>988</ele><time>2012-05-28T13:00:26Z</time></trkpt><trkpt lat="43.62558" lon="11.75011"><ele>995</ele><time>2012-05-28T13:00:31Z</time></trkpt><trkpt lat="43.62556" lon="11.75007"><ele>995</ele><time>2012-05-28T13:00:33Z</time></trkpt><trkpt lat="43.62551" lon="11.74993"><ele>993</ele><time>2012-05-28T13:00:37Z</time></trkpt><trkpt lat="43.62550" lon="11.74989"><ele>992</ele><time>2012-05-28T13:00:38Z</time></trkpt><trkpt lat="43.62550" lon="11.74985"><ele>992</ele><time>2012-05-28T13:00:39Z</time></trkpt><trkpt lat="43.62550" lon="11.74977"><ele>992</ele><time>2012-05-28T13:00:41Z</time></trkpt><trkpt lat="43.62551" lon="11.74973"><ele>991</ele><time>2012-05-28T13:00:42Z</time></trkpt><trkpt lat="43.62562" lon="11.74925"><ele>993</ele><time>2012-05-28T13:00:55Z</time></trkpt><trkpt lat="43.62565" lon="11.74922"><ele>993</ele><time>2012-05-28T13:00:58Z</time></trkpt><trkpt lat="43.62567" lon="11.74917"><ele>991</ele><time>2012-05-28T13:01:01Z</time></trkpt><trkpt lat="43.62570" lon="11.74914"><ele>989</ele><time>2012-05-28T13:01:04Z</time></trkpt><trkpt lat="43.62571" lon="11.74917"><ele>988</ele><time>2012-05-28T13:01:09Z</time></trkpt><trkpt lat="43.62570" lon="11.74915"><ele>986</ele><time>2012-05-28T13:01:34Z</time></trkpt><trkpt lat="43.62568" lon="11.74912"><ele>989</ele><time>2012-05-28T13:01:38Z</time></trkpt><trkpt lat="43.62564" lon="11.74910"><ele>990</ele><time>2012-05-28T13:01:44Z</time></trkpt><trkpt lat="43.62564" lon="11.74913"><ele>996</ele><time>2012-05-28T13:01:47Z</time></trkpt><trkpt lat="43.62564" lon="11.74918"><ele>997</ele><time>2012-05-28T13:01:49Z</time></trkpt><trkpt lat="43.62564" lon="11.74923"><ele>996</ele><time>2012-05-28T13:01:51Z</time></trkpt><trkpt lat="43.62565" lon="11.74928"><ele>995</ele><time>2012-05-28T13:01:53Z</time></trkpt><trkpt lat="43.62568" lon="11.74932"><ele>997</ele><time>2012-05-28T13:01:55Z</time></trkpt><trkpt lat="43.62571" lon="11.74936"><ele>998</ele><time>2012-05-28T13:01:57Z</time></trkpt><trkpt lat="43.62574" lon="11.74936"><ele>1000</ele><time>2012-05-28T13:01:59Z</time></trkpt><trkpt lat="43.62576" lon="11.74938"><ele>1001</ele><time>2012-05-28T13:02:01Z</time></trkpt><trkpt lat="43.62578" lon="11.74940"><ele>1001</ele><time>2012-05-28T13:02:02Z</time></trkpt><trkpt lat="43.62579" lon="11.74943"><ele>1001</ele><time>2012-05-28T13:02:04Z</time></trkpt><trkpt lat="43.62581" lon="11.74948"><ele>1003</ele><time>2012-05-28T13:02:08Z</time></trkpt><trkpt lat="43.62583" lon="11.74952"><ele>1005</ele><time>2012-05-28T13:02:11Z</time></trkpt><trkpt lat="43.62586" lon="11.74953"><ele>1006</ele><time>2012-05-28T13:02:15Z</time></trkpt><trkpt lat="43.62587" lon="11.74956"><ele>1007</ele><time>2012-05-28T13:02:16Z</time></trkpt><trkpt lat="43.62589" lon="11.74963"><ele>1011</ele><time>2012-05-28T13:02:21Z</time></trkpt><trkpt lat="43.62591" lon="11.74966"><ele>1013</ele><time>2012-05-28T13:02:23Z</time></trkpt><trkpt lat="43.62598" lon="11.74975"><ele>1018</ele><time>2012-05-28T13:02:31Z</time></trkpt><trkpt lat="43.62599" lon="11.74979"><ele>1018</ele><time>2012-05-28T13:02:40Z</time></trkpt><trkpt lat="43.62601" lon="11.74984"><ele>1020</ele><time>2012-05-28T13:02:45Z</time></trkpt><trkpt lat="43.62603" lon="11.74986"><ele>1019</ele><time>2012-05-28T13:02:47Z</time></trkpt><trkpt lat="43.62611" lon="11.74996"><ele>1019</ele><time>2012-05-28T13:02:55Z</time></trkpt><trkpt lat="43.62615" lon="11.75000"><ele>1020</ele><time>2012-05-28T13:02:59Z</time></trkpt><trkpt lat="43.62615" lon="11.75000"><ele>1017</ele><time>2012-05-28T13:02:59Z</time></trkpt><trkpt lat="43.62615" lon="11.75001"><ele>1016</ele><time>2012-05-28T13:03:22Z</time></trkpt><trkpt lat="43.62610" lon="11.75001"><ele>1014</ele><time>2012-05-28T13:03:38Z</time></trkpt><trkpt lat="43.62612" lon="11.75004"><ele>1014</ele><time>2012-05-28T13:03:48Z</time></trkpt><trkpt lat="43.62615" lon="11.75005"><ele>1013</ele><time>2012-05-28T13:04:04Z</time></trkpt><trkpt lat="43.62617" lon="11.75003"><ele>1013</ele><time>2012-05-28T13:04:45Z</time></trkpt><trkpt lat="43.62618" lon="11.75007"><ele>1014</ele><time>2012-05-28T13:04:52Z</time></trkpt><trkpt lat="43.62621" lon="11.75011"><ele>1015</ele><time>2012-05-28T13:05:04Z</time></trkpt><trkpt lat="43.62624" lon="11.75014"><ele>1015</ele><time>2012-05-28T13:05:06Z</time></trkpt><trkpt lat="43.62626" lon="11.75017"><ele>1015</ele><time>2012-05-28T13:05:07Z</time></trkpt><trkpt lat="43.62628" lon="11.75019"><ele>1016</ele><time>2012-05-28T13:05:08Z</time></trkpt><trkpt lat="43.62630" lon="11.75024"><ele>1016</ele><time>2012-05-28T13:05:10Z</time></trkpt><trkpt lat="43.62632" lon="11.75029"><ele>1015</ele><time>2012-05-28T13:05:12Z</time></trkpt><trkpt lat="43.62633" lon="11.75034"><ele>1020</ele><time>2012-05-28T13:05:14Z</time></trkpt><trkpt lat="43.62633" lon="11.75040"><ele>1021</ele><time>2012-05-28T13:05:16Z</time></trkpt><trkpt lat="43.62634" lon="11.75051"><ele>1023</ele><time>2012-05-28T13:05:21Z</time></trkpt><trkpt lat="43.62634" lon="11.75054"><ele>1023</ele><time>2012-05-28T13:05:22Z</time></trkpt><trkpt lat="43.62638" lon="11.75065"><ele>1025</ele><time>2012-05-28T13:05:27Z</time></trkpt><trkpt lat="43.62639" lon="11.75069"><ele>1022</ele><time>2012-05-28T13:05:29Z</time></trkpt><trkpt lat="43.62638" lon="11.75072"><ele>1026</ele><time>2012-05-28T13:05:31Z</time></trkpt><trkpt lat="43.62639" lon="11.75076"><ele>1028</ele><time>2012-05-28T13:05:36Z</time></trkpt><trkpt lat="43.62641" lon="11.75078"><ele>1030</ele><time>2012-05-28T13:05:39Z</time></trkpt><trkpt lat="43.62644" lon="11.75081"><ele>1030</ele><time>2012-05-28T13:05:41Z</time></trkpt><trkpt lat="43.62645" lon="11.75085"><ele>1029</ele><time>2012-05-28T13:05:43Z</time></trkpt><trkpt lat="43.62650" lon="11.75100"><ele>1028</ele><time>2012-05-28T13:05:50Z</time></trkpt><trkpt lat="43.62650" lon="11.75104"><ele>1027</ele><time>2012-05-28T13:05:51Z</time></trkpt><trkpt lat="43.62652" lon="11.75109"><ele>1029</ele><time>2012-05-28T13:05:54Z</time></trkpt><trkpt lat="43.62654" lon="11.75114"><ele>1028</ele><time>2012-05-28T13:05:56Z</time></trkpt><trkpt lat="43.62658" lon="11.75121"><ele>1026</ele><time>2012-05-28T13:06:00Z</time></trkpt><trkpt lat="43.62662" lon="11.75125"><ele>1025</ele><time>2012-05-28T13:06:02Z</time></trkpt><trkpt lat="43.62665" lon="11.75128"><ele>1025</ele><time>2012-05-28T13:06:03Z</time></trkpt><trkpt lat="43.62668" lon="11.75129"><ele>1026</ele><time>2012-05-28T13:06:04Z</time></trkpt><trkpt lat="43.62674" lon="11.75132"><ele>1024</ele><time>2012-05-28T13:06:07Z</time></trkpt><trkpt lat="43.62677" lon="11.75133"><ele>1024</ele><time>2012-05-28T13:06:09Z</time></trkpt><trkpt lat="43.62680" lon="11.75134"><ele>1026</ele><time>2012-05-28T13:06:11Z</time></trkpt><trkpt lat="43.62701" lon="11.75144"><ele>1024</ele><time>2012-05-28T13:06:23Z</time></trkpt><trkpt lat="43.62704" lon="11.75146"><ele>1023</ele><time>2012-05-28T13:06:25Z</time></trkpt><trkpt lat="43.62706" lon="11.75149"><ele>1023</ele><time>2012-05-28T13:06:27Z</time></trkpt><trkpt lat="43.62709" lon="11.75149"><ele>1020</ele><time>2012-05-28T13:06:30Z</time></trkpt><trkpt lat="43.62711" lon="11.75152"><ele>1021</ele><time>2012-05-28T13:06:33Z</time></trkpt><trkpt lat="43.62738" lon="11.75176"><ele>1021</ele><time>2012-05-28T13:06:49Z</time></trkpt><trkpt lat="43.62743" lon="11.75179"><ele>1026</ele><time>2012-05-28T13:06:52Z</time></trkpt><trkpt lat="43.62745" lon="11.75181"><ele>1027</ele><time>2012-05-28T13:06:54Z</time></trkpt><trkpt lat="43.62749" lon="11.75186"><ele>1032</ele><time>2012-05-28T13:06:58Z</time></trkpt><trkpt lat="43.62752" lon="11.75191"><ele>1029</ele><time>2012-05-28T13:07:01Z</time></trkpt><trkpt lat="43.62755" lon="11.75194"><ele>1030</ele><time>2012-05-28T13:07:03Z</time></trkpt><trkpt lat="43.62761" lon="11.75200"><ele>1030</ele><time>2012-05-28T13:07:07Z</time></trkpt><trkpt lat="43.62764" lon="11.75202"><ele>1030</ele><time>2012-05-28T13:07:09Z</time></trkpt><trkpt lat="43.62767" lon="11.75202"><ele>1031</ele><time>2012-05-28T13:07:11Z</time></trkpt><trkpt lat="43.62770" lon="11.75205"><ele>1030</ele><time>2012-05-28T13:07:13Z</time></trkpt><trkpt lat="43.62767" lon="11.75204"><ele>1031</ele><time>2012-05-28T13:07:21Z</time></trkpt><trkpt lat="43.62764" lon="11.75203"><ele>1032</ele><time>2012-05-28T13:07:27Z</time></trkpt><trkpt lat="43.62760" lon="11.75202"><ele>1038</ele><time>2012-05-28T13:07:56Z</time></trkpt><trkpt lat="43.62765" lon="11.75201"><ele>1037</ele><time>2012-05-28T13:08:11Z</time></trkpt><trkpt lat="43.62766" lon="11.75199"><ele>1038</ele><time>2012-05-28T13:08:14Z</time></trkpt><trkpt lat="43.62767" lon="11.75195"><ele>1036</ele><time>2012-05-28T13:08:19Z</time></trkpt><trkpt lat="43.62764" lon="11.75200"><ele>1036</ele><time>2012-05-28T13:08:25Z</time></trkpt><trkpt lat="43.62762" lon="11.75203"><ele>1037</ele><time>2012-05-28T13:08:27Z</time></trkpt><trkpt lat="43.62762" lon="11.75207"><ele>1037</ele><time>2012-05-28T13:08:30Z</time></trkpt><trkpt lat="43.62762" lon="11.75210"><ele>1036</ele><time>2012-05-28T13:08:34Z</time></trkpt><trkpt lat="43.62764" lon="11.75208"><ele>1033</ele><time>2012-05-28T13:09:01Z</time></trkpt><trkpt lat="43.62766" lon="11.75207"><ele>1032</ele><time>2012-05-28T13:09:51Z</time></trkpt><trkpt lat="43.62764" lon="11.75210"><ele>1033</ele><time>2012-05-28T13:10:02Z</time></trkpt><trkpt lat="43.62764" lon="11.75214"><ele>1034</ele><time>2012-05-28T13:10:06Z</time></trkpt><trkpt lat="43.62766" lon="11.75216"><ele>1033</ele><time>2012-05-28T13:10:09Z</time></trkpt><trkpt lat="43.62768" lon="11.75218"><ele>1032</ele><time>2012-05-28T13:10:10Z</time></trkpt><trkpt lat="43.62777" lon="11.75225"><ele>1033</ele><time>2012-05-28T13:10:14Z</time></trkpt><trkpt lat="43.62780" lon="11.75227"><ele>1032</ele><time>2012-05-28T13:10:15Z</time></trkpt><trkpt lat="43.62788" lon="11.75234"><ele>1035</ele><time>2012-05-28T13:10:18Z</time></trkpt><trkpt lat="43.62791" lon="11.75236"><ele>1036</ele><time>2012-05-28T13:10:19Z</time></trkpt><trkpt lat="43.62802" lon="11.75245"><ele>1037</ele><time>2012-05-28T13:10:24Z</time></trkpt><trkpt lat="43.62813" lon="11.75251"><ele>1037</ele><time>2012-05-28T13:10:26Z</time></trkpt><trkpt lat="43.62823" lon="11.75256"><ele>1035</ele><time>2012-05-28T13:10:31Z</time></trkpt><trkpt lat="43.62826" lon="11.75260"><ele>1035</ele><time>2012-05-28T13:10:36Z</time></trkpt><trkpt lat="43.62833" lon="11.75266"><ele>1036</ele><time>2012-05-28T13:10:41Z</time></trkpt><trkpt lat="43.62840" lon="11.75275"><ele>1035</ele><time>2012-05-28T13:10:45Z</time></trkpt><trkpt lat="43.62848" lon="11.75284"><ele>1034</ele><time>2012-05-28T13:10:51Z</time></trkpt><trkpt lat="43.62847" lon="11.75288"><ele>1033</ele><time>2012-05-28T13:11:01Z</time></trkpt><trkpt lat="43.62849" lon="11.75293"><ele>1032</ele><time>2012-05-28T13:11:08Z</time></trkpt><trkpt lat="43.62849" lon="11.75287"><ele>1033</ele><time>2012-05-28T13:12:02Z</time></trkpt><trkpt lat="43.62850" lon="11.75293"><ele>1034</ele><time>2012-05-28T13:12:04Z</time></trkpt><trkpt lat="43.62849" lon="11.75297"><ele>1032</ele><time>2012-05-28T13:12:19Z</time></trkpt><trkpt lat="43.62850" lon="11.75302"><ele>1032</ele><time>2012-05-28T13:12:21Z</time></trkpt><trkpt lat="43.62850" lon="11.75306"><ele>1032</ele><time>2012-05-28T13:12:25Z</time></trkpt><trkpt lat="43.62847" lon="11.75306"><ele>1033</ele><time>2012-05-28T13:12:28Z</time></trkpt><trkpt lat="43.62846" lon="11.75309"><ele>1036</ele><time>2012-05-28T13:12:31Z</time></trkpt><trkpt lat="43.62846" lon="11.75313"><ele>1039</ele><time>2012-05-28T13:12:35Z</time></trkpt><trkpt lat="43.62844" lon="11.75308"><ele>1039</ele><time>2012-05-28T13:12:54Z</time></trkpt><trkpt lat="43.62840" lon="11.75302"><ele>1041</ele><time>2012-05-28T13:12:56Z</time></trkpt><trkpt lat="43.62836" lon="11.75298"><ele>1043</ele><time>2012-05-28T13:12:58Z</time></trkpt><trkpt lat="43.62833" lon="11.75293"><ele>1040</ele><time>2012-05-28T13:12:59Z</time></trkpt><trkpt lat="43.62826" lon="11.75283"><ele>1039</ele><time>2012-05-28T13:13:03Z</time></trkpt><trkpt lat="43.62820" lon="11.75275"><ele>1040</ele><time>2012-05-28T13:13:06Z</time></trkpt><trkpt lat="43.62812" lon="11.75264"><ele>1042</ele><time>2012-05-28T13:13:09Z</time></trkpt><trkpt lat="43.62809" lon="11.75261"><ele>1042</ele><time>2012-05-28T13:13:10Z</time></trkpt><trkpt lat="43.62799" lon="11.75252"><ele>1042</ele><time>2012-05-28T13:13:13Z</time></trkpt><trkpt lat="43.62797" lon="11.75249"><ele>1042</ele><time>2012-05-28T13:13:14Z</time></trkpt><trkpt lat="43.62792" lon="11.75245"><ele>1041</ele><time>2012-05-28T13:13:16Z</time></trkpt><trkpt lat="43.62789" lon="11.75242"><ele>1041</ele><time>2012-05-28T13:13:17Z</time></trkpt><trkpt lat="43.62786" lon="11.75240"><ele>1043</ele><time>2012-05-28T13:13:18Z</time></trkpt><trkpt lat="43.62776" lon="11.75235"><ele>1044</ele><time>2012-05-28T13:13:21Z</time></trkpt><trkpt lat="43.62772" lon="11.75234"><ele>1045</ele><time>2012-05-28T13:13:22Z</time></trkpt><trkpt lat="43.62769" lon="11.75233"><ele>1044</ele><time>2012-05-28T13:13:23Z</time></trkpt><trkpt lat="43.62764" lon="11.75229"><ele>1043</ele><time>2012-05-28T13:13:25Z</time></trkpt><trkpt lat="43.62762" lon="11.75226"><ele>1044</ele><time>2012-05-28T13:13:26Z</time></trkpt><trkpt lat="43.62760" lon="11.75224"><ele>1044</ele><time>2012-05-28T13:13:27Z</time></trkpt><trkpt lat="43.62756" lon="11.75217"><ele>1044</ele><time>2012-05-28T13:13:30Z</time></trkpt><trkpt lat="43.62753" lon="11.75213"><ele>1043</ele><time>2012-05-28T13:13:32Z</time></trkpt><trkpt lat="43.62751" lon="11.75210"><ele>1043</ele><time>2012-05-28T13:13:33Z</time></trkpt><trkpt lat="43.62749" lon="11.75209"><ele>1043</ele><time>2012-05-28T13:13:34Z</time></trkpt><trkpt lat="43.62747" lon="11.75206"><ele>1042</ele><time>2012-05-28T13:13:35Z</time></trkpt><trkpt lat="43.62743" lon="11.75201"><ele>1042</ele><time>2012-05-28T13:13:37Z</time></trkpt><trkpt lat="43.62740" lon="11.75198"><ele>1042</ele><time>2012-05-28T13:13:38Z</time></trkpt><trkpt lat="43.62737" lon="11.75196"><ele>1041</ele><time>2012-05-28T13:13:39Z</time></trkpt><trkpt lat="43.62728" lon="11.75188"><ele>1039</ele><time>2012-05-28T13:13:42Z</time></trkpt><trkpt lat="43.62720" lon="11.75181"><ele>1039</ele><time>2012-05-28T13:13:44Z</time></trkpt><trkpt lat="43.62712" lon="11.75175"><ele>1039</ele><time>2012-05-28T13:13:46Z</time></trkpt><trkpt lat="43.62699" lon="11.75165"><ele>1037</ele><time>2012-05-28T13:13:48Z</time></trkpt><trkpt lat="43.62695" lon="11.75159"><ele>1037</ele><time>2012-05-28T13:13:49Z</time></trkpt><trkpt lat="43.62690" lon="11.75157"><ele>1036</ele><time>2012-05-28T13:13:50Z</time></trkpt><trkpt lat="43.62688" lon="11.75154"><ele>1037</ele><time>2012-05-28T13:13:51Z</time></trkpt><trkpt lat="43.62678" lon="11.75152"><ele>1036</ele><time>2012-05-28T13:13:52Z</time></trkpt><trkpt lat="43.62667" lon="11.75149"><ele>1035</ele><time>2012-05-28T13:13:54Z</time></trkpt><trkpt lat="43.62664" lon="11.75147"><ele>1034</ele><time>2012-05-28T13:13:55Z</time></trkpt><trkpt lat="43.62661" lon="11.75144"><ele>1034</ele><time>2012-05-28T13:13:56Z</time></trkpt><trkpt lat="43.62655" lon="11.75143"><ele>1034</ele><time>2012-05-28T13:13:57Z</time></trkpt><trkpt lat="43.62653" lon="11.75141"><ele>1034</ele><time>2012-05-28T13:13:58Z</time></trkpt><trkpt lat="43.62651" lon="11.75132"><ele>1033</ele><time>2012-05-28T13:13:59Z</time></trkpt><trkpt lat="43.62646" lon="11.75129"><ele>1033</ele><time>2012-05-28T13:14:00Z</time></trkpt><trkpt lat="43.62644" lon="11.75120"><ele>1033</ele><time>2012-05-28T13:14:01Z</time></trkpt><trkpt lat="43.62636" lon="11.75105"><ele>1032</ele><time>2012-05-28T13:14:04Z</time></trkpt><trkpt lat="43.62632" lon="11.75097"><ele>1032</ele><time>2012-05-28T13:14:06Z</time></trkpt><trkpt lat="43.62629" lon="11.75070"><ele>1031</ele><time>2012-05-28T13:14:08Z</time></trkpt><trkpt lat="43.62625" lon="11.75062"><ele>1031</ele><time>2012-05-28T13:14:09Z</time></trkpt><trkpt lat="43.62619" lon="11.75049"><ele>1030</ele><time>2012-05-28T13:14:11Z</time></trkpt><trkpt lat="43.62617" lon="11.75041"><ele>1030</ele><time>2012-05-28T13:14:13Z</time></trkpt><trkpt lat="43.62612" lon="11.75035"><ele>1030</ele><time>2012-05-28T13:14:15Z</time></trkpt><trkpt lat="43.62607" lon="11.75024"><ele>1029</ele><time>2012-05-28T13:14:17Z</time></trkpt><trkpt lat="43.62604" lon="11.75021"><ele>1030</ele><time>2012-05-28T13:14:18Z</time></trkpt><trkpt lat="43.62601" lon="11.75014"><ele>1030</ele><time>2012-05-28T13:14:19Z</time></trkpt><trkpt lat="43.62598" lon="11.75008"><ele>1029</ele><time>2012-05-28T13:14:20Z</time></trkpt><trkpt lat="43.62580" lon="11.74972"><ele>1021</ele><time>2012-05-28T13:14:25Z</time></trkpt><trkpt lat="43.62573" lon="11.74962"><ele>1018</ele><time>2012-05-28T13:14:26Z</time></trkpt><trkpt lat="43.62567" lon="11.74949"><ele>1015</ele><time>2012-05-28T13:14:29Z</time></trkpt><trkpt lat="43.62563" lon="11.74945"><ele>1014</ele><time>2012-05-28T13:14:30Z</time></trkpt><trkpt lat="43.62558" lon="11.74936"><ele>1012</ele><time>2012-05-28T13:14:32Z</time></trkpt><trkpt lat="43.62557" lon="11.74933"><ele>1011</ele><time>2012-05-28T13:14:33Z</time></trkpt><trkpt lat="43.62556" lon="11.74929"><ele>1011</ele><time>2012-05-28T13:14:34Z</time></trkpt><trkpt lat="43.62555" lon="11.74925"><ele>1010</ele><time>2012-05-28T13:14:35Z</time></trkpt><trkpt lat="43.62555" lon="11.74922"><ele>1010</ele><time>2012-05-28T13:14:36Z</time></trkpt><trkpt lat="43.62556" lon="11.74919"><ele>1008</ele><time>2012-05-28T13:14:37Z</time></trkpt><trkpt lat="43.62557" lon="11.74916"><ele>1007</ele><time>2012-05-28T13:14:38Z</time></trkpt><trkpt lat="43.62561" lon="11.74912"><ele>1006</ele><time>2012-05-28T13:14:40Z</time></trkpt><trkpt lat="43.62565" lon="11.74909"><ele>1005</ele><time>2012-05-28T13:14:42Z</time></trkpt><trkpt lat="43.62568" lon="11.74906"><ele>1005</ele><time>2012-05-28T13:14:44Z</time></trkpt><trkpt lat="43.62577" lon="11.74896"><ele>1003</ele><time>2012-05-28T13:14:50Z</time></trkpt><trkpt lat="43.62580" lon="11.74894"><ele>1002</ele><time>2012-05-28T13:14:51Z</time></trkpt><trkpt lat="43.62590" lon="11.74885"><ele>1002</ele><time>2012-05-28T13:14:55Z</time></trkpt><trkpt lat="43.62598" lon="11.74876"><ele>1002</ele><time>2012-05-28T13:14:58Z</time></trkpt><trkpt lat="43.62604" lon="11.74865"><ele>1001</ele><time>2012-05-28T13:15:02Z</time></trkpt><trkpt lat="43.62607" lon="11.74859"><ele>999</ele><time>2012-05-28T13:15:03Z</time></trkpt><trkpt lat="43.62611" lon="11.74855"><ele>995</ele><time>2012-05-28T13:15:04Z</time></trkpt><trkpt lat="43.62626" lon="11.74835"><ele>992</ele><time>2012-05-28T13:15:12Z</time></trkpt><trkpt lat="43.62631" lon="11.74825"><ele>990</ele><time>2012-05-28T13:15:18Z</time></trkpt><trkpt lat="43.62629" lon="11.74822"><ele>990</ele><time>2012-05-28T13:15:21Z</time></trkpt><trkpt lat="43.62627" lon="11.74819"><ele>991</ele><time>2012-05-28T13:15:24Z</time></trkpt><trkpt lat="43.62624" lon="11.74817"><ele>992</ele><time>2012-05-28T13:15:26Z</time></trkpt><trkpt lat="43.62620" lon="11.74812"><ele>992</ele><time>2012-05-28T13:15:30Z</time></trkpt><trkpt lat="43.62617" lon="11.74809"><ele>991</ele><time>2012-05-28T13:15:32Z</time></trkpt><trkpt lat="43.62613" lon="11.74805"><ele>990</ele><time>2012-05-28T13:15:33Z</time></trkpt><trkpt lat="43.62611" lon="11.74803"><ele>990</ele><time>2012-05-28T13:15:35Z</time></trkpt><trkpt lat="43.62610" lon="11.74801"><ele>990</ele><time>2012-05-28T13:15:36Z</time></trkpt><trkpt lat="43.62608" lon="11.74798"><ele>990</ele><time>2012-05-28T13:15:37Z</time></trkpt><trkpt lat="43.62607" lon="11.74795"><ele>989</ele><time>2012-05-28T13:15:38Z</time></trkpt><trkpt lat="43.62605" lon="11.74791"><ele>991</ele><time>2012-05-28T13:15:40Z</time></trkpt><trkpt lat="43.62606" lon="11.74786"><ele>996</ele><time>2012-05-28T13:15:42Z</time></trkpt><trkpt lat="43.62608" lon="11.74783"><ele>998</ele><time>2012-05-28T13:15:44Z</time></trkpt><trkpt lat="43.62610" lon="11.74779"><ele>997</ele><time>2012-05-28T13:15:46Z</time></trkpt><trkpt lat="43.62610" lon="11.74775"><ele>997</ele><time>2012-05-28T13:15:47Z</time></trkpt><trkpt lat="43.62610" lon="11.74772"><ele>996</ele><time>2012-05-28T13:15:48Z</time></trkpt><trkpt lat="43.62610" lon="11.74766"><ele>996</ele><time>2012-05-28T13:15:50Z</time></trkpt><trkpt lat="43.62610" lon="11.74752"><ele>998</ele><time>2012-05-28T13:15:53Z</time></trkpt><trkpt lat="43.62612" lon="11.74745"><ele>995</ele><time>2012-05-28T13:15:55Z</time></trkpt><trkpt lat="43.62615" lon="11.74734"><ele>994</ele><time>2012-05-28T13:15:57Z</time></trkpt><trkpt lat="43.62616" lon="11.74724"><ele>992</ele><time>2012-05-28T13:15:59Z</time></trkpt><trkpt lat="43.62620" lon="11.74704"><ele>987</ele><time>2012-05-28T13:16:05Z</time></trkpt><trkpt lat="43.62620" lon="11.74693"><ele>986</ele><time>2012-05-28T13:16:08Z</time></trkpt><trkpt lat="43.62619" lon="11.74689"><ele>986</ele><time>2012-05-28T13:16:09Z</time></trkpt><trkpt lat="43.62618" lon="11.74685"><ele>986</ele><time>2012-05-28T13:16:10Z</time></trkpt><trkpt lat="43.62613" lon="11.74674"><ele>990</ele><time>2012-05-28T13:16:13Z</time></trkpt><trkpt lat="43.62612" lon="11.74671"><ele>990</ele><time>2012-05-28T13:16:14Z</time></trkpt><trkpt lat="43.62612" lon="11.74666"><ele>990</ele><time>2012-05-28T13:16:16Z</time></trkpt><trkpt lat="43.62613" lon="11.74660"><ele>992</ele><time>2012-05-28T13:16:18Z</time></trkpt><trkpt lat="43.62612" lon="11.74658"><ele>987</ele><time>2012-05-28T13:16:19Z</time></trkpt><trkpt lat="43.62610" lon="11.74653"><ele>985</ele><time>2012-05-28T13:16:21Z</time></trkpt><trkpt lat="43.62606" lon="11.74647"><ele>985</ele><time>2012-05-28T13:16:23Z</time></trkpt><trkpt lat="43.62604" lon="11.74643"><ele>987</ele><time>2012-05-28T13:16:25Z</time></trkpt><trkpt lat="43.62603" lon="11.74639"><ele>986</ele><time>2012-05-28T13:16:27Z</time></trkpt><trkpt lat="43.62601" lon="11.74627"><ele>990</ele><time>2012-05-28T13:16:31Z</time></trkpt><trkpt lat="43.62601" lon="11.74624"><ele>990</ele><time>2012-05-28T13:16:32Z</time></trkpt><trkpt lat="43.62602" lon="11.74618"><ele>992</ele><time>2012-05-28T13:16:34Z</time></trkpt><trkpt lat="43.62602" lon="11.74614"><ele>992</ele><time>2012-05-28T13:16:36Z</time></trkpt><trkpt lat="43.62602" lon="11.74608"><ele>991</ele><time>2012-05-28T13:16:38Z</time></trkpt><trkpt lat="43.62602" lon="11.74603"><ele>993</ele><time>2012-05-28T13:16:40Z</time></trkpt><trkpt lat="43.62602" lon="11.74600"><ele>993</ele><time>2012-05-28T13:16:41Z</time></trkpt><trkpt lat="43.62602" lon="11.74596"><ele>992</ele><time>2012-05-28T13:16:42Z</time></trkpt><trkpt lat="43.62598" lon="11.74582"><ele>994</ele><time>2012-05-28T13:16:46Z</time></trkpt><trkpt lat="43.62594" lon="11.74572"><ele>999</ele><time>2012-05-28T13:16:48Z</time></trkpt><trkpt lat="43.62592" lon="11.74569"><ele>1000</ele><time>2012-05-28T13:16:49Z</time></trkpt><trkpt lat="43.62590" lon="11.74566"><ele>1000</ele><time>2012-05-28T13:16:50Z</time></trkpt><trkpt lat="43.62583" lon="11.74555"><ele>1000</ele><time>2012-05-28T13:16:53Z</time></trkpt><trkpt lat="43.62581" lon="11.74551"><ele>998</ele><time>2012-05-28T13:16:54Z</time></trkpt><trkpt lat="43.62576" lon="11.74534"><ele>997</ele><time>2012-05-28T13:16:58Z</time></trkpt><trkpt lat="43.62574" lon="11.74532"><ele>997</ele><time>2012-05-28T13:16:59Z</time></trkpt><trkpt lat="43.62573" lon="11.74527"><ele>996</ele><time>2012-05-28T13:17:00Z</time></trkpt><trkpt lat="43.62569" lon="11.74513"><ele>998</ele><time>2012-05-28T13:17:03Z</time></trkpt><trkpt lat="43.62568" lon="11.74506"><ele>1002</ele><time>2012-05-28T13:17:06Z</time></trkpt><trkpt lat="43.62568" lon="11.74500"><ele>1005</ele><time>2012-05-28T13:17:08Z</time></trkpt><trkpt lat="43.62568" lon="11.74496"><ele>1005</ele><time>2012-05-28T13:17:10Z</time></trkpt><trkpt lat="43.62569" lon="11.74492"><ele>1005</ele><time>2012-05-28T13:17:11Z</time></trkpt><trkpt lat="43.62570" lon="11.74473"><ele>1004</ele><time>2012-05-28T13:17:16Z</time></trkpt><trkpt lat="43.62570" lon="11.74468"><ele>1004</ele><time>2012-05-28T13:17:17Z</time></trkpt><trkpt lat="43.62570" lon="11.74464"><ele>1003</ele><time>2012-05-28T13:17:18Z</time></trkpt><trkpt lat="43.62571" lon="11.74443"><ele>1001</ele><time>2012-05-28T13:17:23Z</time></trkpt><trkpt lat="43.62571" lon="11.74435"><ele>1000</ele><time>2012-05-28T13:17:25Z</time></trkpt><trkpt lat="43.62571" lon="11.74427"><ele>998</ele><time>2012-05-28T13:17:26Z</time></trkpt><trkpt lat="43.62572" lon="11.74423"><ele>997</ele><time>2012-05-28T13:17:27Z</time></trkpt><trkpt lat="43.62572" lon="11.74418"><ele>996</ele><time>2012-05-28T13:17:28Z</time></trkpt><trkpt lat="43.62574" lon="11.74411"><ele>995</ele><time>2012-05-28T13:17:30Z</time></trkpt><trkpt lat="43.62577" lon="11.74397"><ele>994</ele><time>2012-05-28T13:17:35Z</time></trkpt><trkpt lat="43.62577" lon="11.74390"><ele>996</ele><time>2012-05-28T13:17:38Z</time></trkpt><trkpt lat="43.62577" lon="11.74386"><ele>997</ele><time>2012-05-28T13:17:39Z</time></trkpt><trkpt lat="43.62576" lon="11.74376"><ele>996</ele><time>2012-05-28T13:17:41Z</time></trkpt><trkpt lat="43.62573" lon="11.74357"><ele>996</ele><time>2012-05-28T13:17:45Z</time></trkpt><trkpt lat="43.62570" lon="11.74344"><ele>997</ele><time>2012-05-28T13:17:48Z</time></trkpt><trkpt lat="43.62570" lon="11.74340"><ele>997</ele><time>2012-05-28T13:17:49Z</time></trkpt><trkpt lat="43.62572" lon="11.74333"><ele>1003</ele><time>2012-05-28T13:17:51Z</time></trkpt><trkpt lat="43.62574" lon="11.74327"><ele>1004</ele><time>2012-05-28T13:17:53Z</time></trkpt><trkpt lat="43.62576" lon="11.74320"><ele>1003</ele><time>2012-05-28T13:17:54Z</time></trkpt><trkpt lat="43.62576" lon="11.74317"><ele>1003</ele><time>2012-05-28T13:17:56Z</time></trkpt><trkpt lat="43.62577" lon="11.74312"><ele>1002</ele><time>2012-05-28T13:17:57Z</time></trkpt><trkpt lat="43.62581" lon="11.74299"><ele>1002</ele><time>2012-05-28T13:18:00Z</time></trkpt><trkpt lat="43.62585" lon="11.74292"><ele>999</ele><time>2012-05-28T13:18:02Z</time></trkpt><trkpt lat="43.62588" lon="11.74285"><ele>997</ele><time>2012-05-28T13:18:03Z</time></trkpt><trkpt lat="43.62588" lon="11.74282"><ele>997</ele><time>2012-05-28T13:18:05Z</time></trkpt><trkpt lat="43.62588" lon="11.74278"><ele>998</ele><time>2012-05-28T13:18:06Z</time></trkpt><trkpt lat="43.62587" lon="11.74271"><ele>997</ele><time>2012-05-28T13:18:08Z</time></trkpt><trkpt lat="43.62587" lon="11.74267"><ele>998</ele><time>2012-05-28T13:18:09Z</time></trkpt><trkpt lat="43.62588" lon="11.74259"><ele>999</ele><time>2012-05-28T13:18:13Z</time></trkpt><trkpt lat="43.62589" lon="11.74256"><ele>996</ele><time>2012-05-28T13:18:18Z</time></trkpt><trkpt lat="43.62585" lon="11.74255"><ele>999</ele><time>2012-05-28T13:18:25Z</time></trkpt><trkpt lat="43.62574" lon="11.74253"><ele>1001</ele><time>2012-05-28T13:18:30Z</time></trkpt><trkpt lat="43.62570" lon="11.74251"><ele>1001</ele><time>2012-05-28T13:18:32Z</time></trkpt><trkpt lat="43.62567" lon="11.74249"><ele>1000</ele><time>2012-05-28T13:18:33Z</time></trkpt><trkpt lat="43.62563" lon="11.74245"><ele>1000</ele><time>2012-05-28T13:18:36Z</time></trkpt><trkpt lat="43.62562" lon="11.74242"><ele>999</ele><time>2012-05-28T13:18:37Z</time></trkpt><trkpt lat="43.62560" lon="11.74237"><ele>1000</ele><time>2012-05-28T13:18:39Z</time></trkpt><trkpt lat="43.62560" lon="11.74233"><ele>999</ele><time>2012-05-28T13:18:41Z</time></trkpt><trkpt lat="43.62559" lon="11.74218"><ele>1002</ele><time>2012-05-28T13:18:47Z</time></trkpt><trkpt lat="43.62557" lon="11.74215"><ele>1001</ele><time>2012-05-28T13:18:48Z</time></trkpt><trkpt lat="43.62554" lon="11.74206"><ele>1000</ele><time>2012-05-28T13:18:51Z</time></trkpt><trkpt lat="43.62552" lon="11.74198"><ele>999</ele><time>2012-05-28T13:18:53Z</time></trkpt><trkpt lat="43.62548" lon="11.74181"><ele>1002</ele><time>2012-05-28T13:18:57Z</time></trkpt><trkpt lat="43.62548" lon="11.74177"><ele>1003</ele><time>2012-05-28T13:18:58Z</time></trkpt><trkpt lat="43.62548" lon="11.74168"><ele>1003</ele><time>2012-05-28T13:19:01Z</time></trkpt><trkpt lat="43.62548" lon="11.74165"><ele>1005</ele><time>2012-05-28T13:19:02Z</time></trkpt><trkpt lat="43.62549" lon="11.74161"><ele>1006</ele><time>2012-05-28T13:19:03Z</time></trkpt><trkpt lat="43.62550" lon="11.74158"><ele>1002</ele><time>2012-05-28T13:19:04Z</time></trkpt><trkpt lat="43.62552" lon="11.74155"><ele>1000</ele><time>2012-05-28T13:19:05Z</time></trkpt><trkpt lat="43.62554" lon="11.74153"><ele>1000</ele><time>2012-05-28T13:19:06Z</time></trkpt><trkpt lat="43.62559" lon="11.74150"><ele>999</ele><time>2012-05-28T13:19:08Z</time></trkpt><trkpt lat="43.62568" lon="11.74141"><ele>999</ele><time>2012-05-28T13:19:13Z</time></trkpt><trkpt lat="43.62570" lon="11.74136"><ele>1000</ele><time>2012-05-28T13:19:14Z</time></trkpt><trkpt lat="43.62576" lon="11.74123"><ele>1003</ele><time>2012-05-28T13:19:18Z</time></trkpt><trkpt lat="43.62578" lon="11.74120"><ele>1003</ele><time>2012-05-28T13:19:19Z</time></trkpt><trkpt lat="43.62581" lon="11.74115"><ele>1004</ele><time>2012-05-28T13:19:21Z</time></trkpt><trkpt lat="43.62582" lon="11.74111"><ele>1004</ele><time>2012-05-28T13:19:22Z</time></trkpt><trkpt lat="43.62594" lon="11.74086"><ele>999</ele><time>2012-05-28T13:19:30Z</time></trkpt><trkpt lat="43.62595" lon="11.74084"><ele>999</ele><time>2012-05-28T13:19:31Z</time></trkpt><trkpt lat="43.62598" lon="11.74078"><ele>1000</ele><time>2012-05-28T13:19:33Z</time></trkpt><trkpt lat="43.62601" lon="11.74073"><ele>1001</ele><time>2012-05-28T13:19:35Z</time></trkpt><trkpt lat="43.62603" lon="11.74067"><ele>1005</ele><time>2012-05-28T13:19:38Z</time></trkpt><trkpt lat="43.62604" lon="11.74063"><ele>1007</ele><time>2012-05-28T13:19:40Z</time></trkpt><trkpt lat="43.62604" lon="11.74058"><ele>1007</ele><time>2012-05-28T13:19:43Z</time></trkpt><trkpt lat="43.62604" lon="11.74052"><ele>1006</ele><time>2012-05-28T13:19:45Z</time></trkpt><trkpt lat="43.62604" lon="11.74048"><ele>1006</ele><time>2012-05-28T13:19:46Z</time></trkpt><trkpt lat="43.62605" lon="11.74037"><ele>1006</ele><time>2012-05-28T13:19:49Z</time></trkpt><trkpt lat="43.62604" lon="11.74031"><ele>1006</ele><time>2012-05-28T13:19:50Z</time></trkpt><trkpt lat="43.62603" lon="11.74017"><ele>1005</ele><time>2012-05-28T13:19:53Z</time></trkpt><trkpt lat="43.62604" lon="11.74008"><ele>1006</ele><time>2012-05-28T13:19:55Z</time></trkpt><trkpt lat="43.62606" lon="11.73999"><ele>1005</ele><time>2012-05-28T13:19:57Z</time></trkpt><trkpt lat="43.62608" lon="11.73994"><ele>1005</ele><time>2012-05-28T13:19:58Z</time></trkpt><trkpt lat="43.62609" lon="11.73990"><ele>1005</ele><time>2012-05-28T13:19:59Z</time></trkpt><trkpt lat="43.62611" lon="11.73987"><ele>1004</ele><time>2012-05-28T13:20:00Z</time></trkpt><trkpt lat="43.62614" lon="11.73980"><ele>1006</ele><time>2012-05-28T13:20:02Z</time></trkpt><trkpt lat="43.62617" lon="11.73976"><ele>1006</ele><time>2012-05-28T13:20:03Z</time></trkpt><trkpt lat="43.62619" lon="11.73971"><ele>1006</ele><time>2012-05-28T13:20:04Z</time></trkpt><trkpt lat="43.62628" lon="11.73956"><ele>1011</ele><time>2012-05-28T13:20:08Z</time></trkpt><trkpt lat="43.62629" lon="11.73952"><ele>1012</ele><time>2012-05-28T13:20:09Z</time></trkpt><trkpt lat="43.62631" lon="11.73948"><ele>1012</ele><time>2012-05-28T13:20:10Z</time></trkpt><trkpt lat="43.62632" lon="11.73945"><ele>1012</ele><time>2012-05-28T13:20:11Z</time></trkpt><trkpt lat="43.62637" lon="11.73934"><ele>1013</ele><time>2012-05-28T13:20:14Z</time></trkpt><trkpt lat="43.62641" lon="11.73924"><ele>1019</ele><time>2012-05-28T13:20:17Z</time></trkpt><trkpt lat="43.62643" lon="11.73917"><ele>1019</ele><time>2012-05-28T13:20:18Z</time></trkpt><trkpt lat="43.62644" lon="11.73914"><ele>1020</ele><time>2012-05-28T13:20:19Z</time></trkpt><trkpt lat="43.62647" lon="11.73909"><ele>1021</ele><time>2012-05-28T13:20:22Z</time></trkpt><trkpt lat="43.62650" lon="11.73903"><ele>1020</ele><time>2012-05-28T13:20:24Z</time></trkpt><trkpt lat="43.62654" lon="11.73891"><ele>1018</ele><time>2012-05-28T13:20:28Z</time></trkpt><trkpt lat="43.62655" lon="11.73886"><ele>1018</ele><time>2012-05-28T13:20:30Z</time></trkpt><trkpt lat="43.62658" lon="11.73875"><ele>1017</ele><time>2012-05-28T13:20:34Z</time></trkpt><trkpt lat="43.62658" lon="11.73867"><ele>1019</ele><time>2012-05-28T13:20:36Z</time></trkpt><trkpt lat="43.62656" lon="11.73856"><ele>1019</ele><time>2012-05-28T13:20:39Z</time></trkpt><trkpt lat="43.62654" lon="11.73847"><ele>1018</ele><time>2012-05-28T13:20:41Z</time></trkpt><trkpt lat="43.62651" lon="11.73838"><ele>1020</ele><time>2012-05-28T13:20:43Z</time></trkpt><trkpt lat="43.62633" lon="11.73792"><ele>1019</ele><time>2012-05-28T13:20:51Z</time></trkpt><trkpt lat="43.62631" lon="11.73781"><ele>1020</ele><time>2012-05-28T13:20:52Z</time></trkpt><trkpt lat="43.62630" lon="11.73778"><ele>1020</ele><time>2012-05-28T13:20:54Z</time></trkpt><trkpt lat="43.62629" lon="11.73773"><ele>1021</ele><time>2012-05-28T13:20:56Z</time></trkpt><trkpt lat="43.62627" lon="11.73769"><ele>1021</ele><time>2012-05-28T13:20:58Z</time></trkpt><trkpt lat="43.62626" lon="11.73766"><ele>1025</ele><time>2012-05-28T13:21:00Z</time></trkpt><trkpt lat="43.62623" lon="11.73761"><ele>1023</ele><time>2012-05-28T13:21:03Z</time></trkpt><trkpt lat="43.62620" lon="11.73757"><ele>1022</ele><time>2012-05-28T13:21:05Z</time></trkpt><trkpt lat="43.62618" lon="11.73748"><ele>1022</ele><time>2012-05-28T13:21:07Z</time></trkpt><trkpt lat="43.62618" lon="11.73743"><ele>1021</ele><time>2012-05-28T13:21:08Z</time></trkpt><trkpt lat="43.62618" lon="11.73740"><ele>1021</ele><time>2012-05-28T13:21:09Z</time></trkpt><trkpt lat="43.62618" lon="11.73736"><ele>1020</ele><time>2012-05-28T13:21:10Z</time></trkpt><trkpt lat="43.62617" lon="11.73730"><ele>1020</ele><time>2012-05-28T13:21:11Z</time></trkpt><trkpt lat="43.62615" lon="11.73726"><ele>1020</ele><time>2012-05-28T13:21:13Z</time></trkpt><trkpt lat="43.62610" lon="11.73718"><ele>1021</ele><time>2012-05-28T13:21:15Z</time></trkpt><trkpt lat="43.62606" lon="11.73713"><ele>1017</ele><time>2012-05-28T13:21:17Z</time></trkpt><trkpt lat="43.62604" lon="11.73709"><ele>1016</ele><time>2012-05-28T13:21:19Z</time></trkpt><trkpt lat="43.62602" lon="11.73705"><ele>1016</ele><time>2012-05-28T13:21:21Z</time></trkpt><trkpt lat="43.62594" lon="11.73694"><ele>1016</ele><time>2012-05-28T13:21:25Z</time></trkpt><trkpt lat="43.62588" lon="11.73690"><ele>1016</ele><time>2012-05-28T13:21:27Z</time></trkpt><trkpt lat="43.62578" lon="11.73684"><ele>1019</ele><time>2012-05-28T13:21:30Z</time></trkpt><trkpt lat="43.62575" lon="11.73683"><ele>1019</ele><time>2012-05-28T13:21:31Z</time></trkpt><trkpt lat="43.62565" lon="11.73679"><ele>1022</ele><time>2012-05-28T13:21:35Z</time></trkpt><trkpt lat="43.62560" lon="11.73676"><ele>1022</ele><time>2012-05-28T13:21:37Z</time></trkpt><trkpt lat="43.62556" lon="11.73672"><ele>1022</ele><time>2012-05-28T13:21:38Z</time></trkpt><trkpt lat="43.62548" lon="11.73662"><ele>1021</ele><time>2012-05-28T13:21:40Z</time></trkpt><trkpt lat="43.62536" lon="11.73643"><ele>1021</ele><time>2012-05-28T13:21:42Z</time></trkpt><trkpt lat="43.62530" lon="11.73635"><ele>1021</ele><time>2012-05-28T13:21:43Z</time></trkpt><trkpt lat="43.62526" lon="11.73633"><ele>1020</ele><time>2012-05-28T13:21:45Z</time></trkpt><trkpt lat="43.62522" lon="11.73628"><ele>1020</ele><time>2012-05-28T13:21:47Z</time></trkpt><trkpt lat="43.62520" lon="11.73624"><ele>1020</ele><time>2012-05-28T13:21:48Z</time></trkpt><trkpt lat="43.62510" lon="11.73618"><ele>1020</ele><time>2012-05-28T13:21:49Z</time></trkpt><trkpt lat="43.62506" lon="11.73612"><ele>1017</ele><time>2012-05-28T13:21:50Z</time></trkpt><trkpt lat="43.62502" lon="11.73609"><ele>1017</ele><time>2012-05-28T13:21:51Z</time></trkpt><trkpt lat="43.62491" lon="11.73603"><ele>1017</ele><time>2012-05-28T13:21:53Z</time></trkpt><trkpt lat="43.62481" lon="11.73599"><ele>1014</ele><time>2012-05-28T13:21:56Z</time></trkpt><trkpt lat="43.62472" lon="11.73599"><ele>1014</ele><time>2012-05-28T13:21:58Z</time></trkpt><trkpt lat="43.62470" lon="11.73598"><ele>1014</ele><time>2012-05-28T13:21:59Z</time></trkpt><trkpt lat="43.62465" lon="11.73599"><ele>1014</ele><time>2012-05-28T13:22:01Z</time></trkpt><trkpt lat="43.62462" lon="11.73599"><ele>1014</ele><time>2012-05-28T13:22:03Z</time></trkpt><trkpt lat="43.62460" lon="11.73598"><ele>1013</ele><time>2012-05-28T13:22:05Z</time></trkpt><trkpt lat="43.62457" lon="11.73596"><ele>1014</ele><time>2012-05-28T13:22:08Z</time></trkpt><trkpt lat="43.62445" lon="11.73591"><ele>1013</ele><time>2012-05-28T13:22:12Z</time></trkpt><trkpt lat="43.62441" lon="11.73591"><ele>1013</ele><time>2012-05-28T13:22:13Z</time></trkpt><trkpt lat="43.62430" lon="11.73588"><ele>1013</ele><time>2012-05-28T13:22:16Z</time></trkpt><trkpt lat="43.62426" lon="11.73586"><ele>1015</ele><time>2012-05-28T13:22:17Z</time></trkpt><trkpt lat="43.62416" lon="11.73579"><ele>1018</ele><time>2012-05-28T13:22:20Z</time></trkpt><trkpt lat="43.62410" lon="11.73572"><ele>1020</ele><time>2012-05-28T13:22:22Z</time></trkpt><trkpt lat="43.62405" lon="11.73571"><ele>1021</ele><time>2012-05-28T13:22:23Z</time></trkpt><trkpt lat="43.62394" lon="11.73568"><ele>1024</ele><time>2012-05-28T13:22:26Z</time></trkpt><trkpt lat="43.62386" lon="11.73565"><ele>1024</ele><time>2012-05-28T13:22:33Z</time></trkpt><trkpt lat="43.62387" lon="11.73561"><ele>1022</ele><time>2012-05-28T13:22:40Z</time></trkpt><trkpt lat="43.62388" lon="11.73558"><ele>1021</ele><time>2012-05-28T13:22:44Z</time></trkpt><trkpt lat="43.62389" lon="11.73555"><ele>1020</ele><time>2012-05-28T13:22:46Z</time></trkpt><trkpt lat="43.62386" lon="11.73551"><ele>1020</ele><time>2012-05-28T13:22:50Z</time></trkpt><trkpt lat="43.62379" lon="11.73551"><ele>1018</ele><time>2012-05-28T13:22:52Z</time></trkpt><trkpt lat="43.62376" lon="11.73551"><ele>1018</ele><time>2012-05-28T13:22:53Z</time></trkpt><trkpt lat="43.62372" lon="11.73553"><ele>1018</ele><time>2012-05-28T13:22:59Z</time></trkpt><trkpt lat="43.62379" lon="11.73553"><ele>1017</ele><time>2012-05-28T13:23:06Z</time></trkpt><trkpt lat="43.62378" lon="11.73548"><ele>1015</ele><time>2012-05-28T13:23:20Z</time></trkpt><trkpt lat="43.62377" lon="11.73543"><ele>1014</ele><time>2012-05-28T13:23:22Z</time></trkpt><trkpt lat="43.62376" lon="11.73540"><ele>1014</ele><time>2012-05-28T13:23:25Z</time></trkpt><trkpt lat="43.62376" lon="11.73545"><ele>1013</ele><time>2012-05-28T13:23:29Z</time></trkpt><trkpt lat="43.62370" lon="11.73548"><ele>1016</ele><time>2012-05-28T13:23:37Z</time></trkpt><trkpt lat="43.62368" lon="11.73548"><ele>1017</ele><time>2012-05-28T13:23:38Z</time></trkpt><trkpt lat="43.62355" lon="11.73545"><ele>1018</ele><time>2012-05-28T13:23:42Z</time></trkpt><trkpt lat="43.62358" lon="11.73545"><ele>1019</ele><time>2012-05-28T13:23:46Z</time></trkpt><trkpt lat="43.62364" lon="11.73544"><ele>1018</ele><time>2012-05-28T13:23:50Z</time></trkpt><trkpt lat="43.62364" lon="11.73540"><ele>1021</ele><time>2012-05-28T13:23:53Z</time></trkpt><trkpt lat="43.62362" lon="11.73538"><ele>1021</ele><time>2012-05-28T13:23:55Z</time></trkpt><trkpt lat="43.62359" lon="11.73536"><ele>1019</ele><time>2012-05-28T13:23:56Z</time></trkpt><trkpt lat="43.62357" lon="11.73535"><ele>1020</ele><time>2012-05-28T13:23:57Z</time></trkpt><trkpt lat="43.62355" lon="11.73536"><ele>1009</ele><time>2012-05-28T13:24:00Z</time></trkpt><trkpt lat="43.62358" lon="11.73541"><ele>1008</ele><time>2012-05-28T13:24:02Z</time></trkpt><trkpt lat="43.62359" lon="11.73544"><ele>1009</ele><time>2012-05-28T13:24:05Z</time></trkpt><trkpt lat="43.62359" lon="11.73552"><ele>1009</ele><time>2012-05-28T13:24:08Z</time></trkpt><trkpt lat="43.62364" lon="11.73556"><ele>1007</ele><time>2012-05-28T13:24:12Z</time></trkpt><trkpt lat="43.62365" lon="11.73555"><ele>1007</ele><time>2012-05-28T13:24:13Z</time></trkpt><trkpt lat="43.62370" lon="11.73553"><ele>1010</ele><time>2012-05-28T13:24:15Z</time></trkpt><trkpt lat="43.62375" lon="11.73551"><ele>1011</ele><time>2012-05-28T13:24:21Z</time></trkpt><trkpt lat="43.62375" lon="11.73548"><ele>1014</ele><time>2012-05-28T13:24:25Z</time></trkpt><trkpt lat="43.62375" lon="11.73544"><ele>1014</ele><time>2012-05-28T13:24:32Z</time></trkpt><trkpt lat="43.62379" lon="11.73544"><ele>1012</ele><time>2012-05-28T13:24:43Z</time></trkpt><trkpt lat="43.62381" lon="11.73547"><ele>1012</ele><time>2012-05-28T13:25:07Z</time></trkpt><trkpt lat="43.62381" lon="11.73550"><ele>1014</ele><time>2012-05-28T13:25:11Z</time></trkpt><trkpt lat="43.62384" lon="11.73551"><ele>1015</ele><time>2012-05-28T13:25:14Z</time></trkpt><trkpt lat="43.62388" lon="11.73554"><ele>1016</ele><time>2012-05-28T13:25:17Z</time></trkpt><trkpt lat="43.62391" lon="11.73556"><ele>1017</ele><time>2012-05-28T13:25:19Z</time></trkpt><trkpt lat="43.62394" lon="11.73558"><ele>1018</ele><time>2012-05-28T13:25:21Z</time></trkpt><trkpt lat="43.62393" lon="11.73554"><ele>1019</ele><time>2012-05-28T13:25:26Z</time></trkpt><trkpt lat="43.62392" lon="11.73551"><ele>1019</ele><time>2012-05-28T13:25:29Z</time></trkpt><trkpt lat="43.62391" lon="11.73548"><ele>1020</ele><time>2012-05-28T13:25:33Z</time></trkpt><trkpt lat="43.62389" lon="11.73545"><ele>1019</ele><time>2012-05-28T13:25:36Z</time></trkpt><trkpt lat="43.62386" lon="11.73543"><ele>1019</ele><time>2012-05-28T13:25:39Z</time></trkpt><trkpt lat="43.62382" lon="11.73543"><ele>1018</ele><time>2012-05-28T13:25:43Z</time></trkpt><trkpt lat="43.62378" lon="11.73544"><ele>1020</ele><time>2012-05-28T13:26:01Z</time></trkpt><trkpt lat="43.62374" lon="11.73548"><ele>1014</ele><time>2012-05-28T13:26:12Z</time></trkpt><trkpt lat="43.62375" lon="11.73542"><ele>1014</ele><time>2012-05-28T13:26:54Z</time></trkpt><trkpt lat="43.62378" lon="11.73541"><ele>1013</ele><time>2012-05-28T13:26:57Z</time></trkpt><trkpt lat="43.62381" lon="11.73545"><ele>1013</ele><time>2012-05-28T13:27:01Z</time></trkpt><trkpt lat="43.62378" lon="11.73543"><ele>1015</ele><time>2012-05-28T13:27:10Z</time></trkpt><trkpt lat="43.62376" lon="11.73540"><ele>1016</ele><time>2012-05-28T13:27:11Z</time></trkpt><trkpt lat="43.62372" lon="11.73533"><ele>1013</ele><time>2012-05-28T13:27:29Z</time></trkpt><trkpt lat="43.62370" lon="11.73531"><ele>1018</ele><time>2012-05-28T13:27:36Z</time></trkpt><trkpt lat="43.62373" lon="11.73537"><ele>1020</ele><time>2012-05-28T13:27:50Z</time></trkpt><trkpt lat="43.62375" lon="11.73539"><ele>1017</ele><time>2012-05-28T13:28:02Z</time></trkpt><trkpt lat="43.62375" lon="11.73545"><ele>1017</ele><time>2012-05-28T13:28:13Z</time></trkpt><trkpt lat="43.62374" lon="11.73548"><ele>1022</ele><time>2012-05-28T13:28:39Z</time></trkpt><trkpt lat="43.62377" lon="11.73549"><ele>1017</ele><time>2012-05-28T13:28:49Z</time></trkpt><trkpt lat="43.62373" lon="11.73550"><ele>1016</ele><time>2012-05-28T13:29:19Z</time></trkpt><trkpt lat="43.62371" lon="11.73550"><ele>1016</ele><time>2012-05-28T13:29:22Z</time></trkpt><trkpt lat="43.62368" lon="11.73550"><ele>1015</ele><time>2012-05-28T13:29:25Z</time></trkpt><trkpt lat="43.62371" lon="11.73550"><ele>1020</ele><time>2012-05-28T13:29:35Z</time></trkpt><trkpt lat="43.62373" lon="11.73553"><ele>1023</ele><time>2012-05-28T13:29:38Z</time></trkpt><trkpt lat="43.62371" lon="11.73554"><ele>1026</ele><time>2012-05-28T13:29:45Z</time></trkpt><trkpt lat="43.62368" lon="11.73553"><ele>1028</ele><time>2012-05-28T13:29:51Z</time></trkpt><trkpt lat="43.62365" lon="11.73552"><ele>1020</ele><time>2012-05-28T13:30:10Z</time></trkpt><trkpt lat="43.62362" lon="11.73552"><ele>1021</ele><time>2012-05-28T13:30:14Z</time></trkpt><trkpt lat="43.62366" lon="11.73553"><ele>1022</ele><time>2012-05-28T13:30:23Z</time></trkpt><trkpt lat="43.62371" lon="11.73558"><ele>1022</ele><time>2012-05-28T13:30:55Z</time></trkpt><trkpt lat="43.62375" lon="11.73558"><ele>1022</ele><time>2012-05-28T13:30:58Z</time></trkpt><trkpt lat="43.62377" lon="11.73556"><ele>1022</ele><time>2012-05-28T13:31:01Z</time></trkpt><trkpt lat="43.62377" lon="11.73552"><ele>1024</ele><time>2012-05-28T13:31:04Z</time></trkpt><trkpt lat="43.62375" lon="11.73547"><ele>1025</ele><time>2012-05-28T13:31:09Z</time></trkpt><trkpt lat="43.62372" lon="11.73544"><ele>1024</ele><time>2012-05-28T13:31:11Z</time></trkpt><trkpt lat="43.62368" lon="11.73543"><ele>1030</ele><time>2012-05-28T13:31:19Z</time></trkpt><trkpt lat="43.62358" lon="11.73539"><ele>1032</ele><time>2012-05-28T13:31:24Z</time></trkpt><trkpt lat="43.62352" lon="11.73536"><ele>1035</ele><time>2012-05-28T13:31:29Z</time></trkpt><trkpt lat="43.62342" lon="11.73528"><ele>1033</ele><time>2012-05-28T13:31:35Z</time></trkpt><trkpt lat="43.62339" lon="11.73524"><ele>1034</ele><time>2012-05-28T13:31:37Z</time></trkpt><trkpt lat="43.62337" lon="11.73519"><ele>1034</ele><time>2012-05-28T13:31:41Z</time></trkpt><trkpt lat="43.62338" lon="11.73515"><ele>1035</ele><time>2012-05-28T13:31:45Z</time></trkpt><trkpt lat="43.62335" lon="11.73516"><ele>1039</ele><time>2012-05-28T13:31:53Z</time></trkpt><trkpt lat="43.62332" lon="11.73519"><ele>1038</ele><time>2012-05-28T13:31:57Z</time></trkpt><trkpt lat="43.62328" lon="11.73520"><ele>1040</ele><time>2012-05-28T13:31:58Z</time></trkpt><trkpt lat="43.62322" lon="11.73521"><ele>1039</ele><time>2012-05-28T13:32:00Z</time></trkpt><trkpt lat="43.62321" lon="11.73517"><ele>1040</ele><time>2012-05-28T13:32:05Z</time></trkpt><trkpt lat="43.62318" lon="11.73515"><ele>1040</ele><time>2012-05-28T13:32:09Z</time></trkpt><trkpt lat="43.62315" lon="11.73513"><ele>1042</ele><time>2012-05-28T13:32:11Z</time></trkpt><trkpt lat="43.62314" lon="11.73506"><ele>1042</ele><time>2012-05-28T13:32:17Z</time></trkpt><trkpt lat="43.62310" lon="11.73503"><ele>1042</ele><time>2012-05-28T13:32:19Z</time></trkpt><trkpt lat="43.62307" lon="11.73499"><ele>1040</ele><time>2012-05-28T13:32:21Z</time></trkpt><trkpt lat="43.62305" lon="11.73498"><ele>1044</ele><time>2012-05-28T13:32:33Z</time></trkpt><trkpt lat="43.62301" lon="11.73496"><ele>1046</ele><time>2012-05-28T13:32:37Z</time></trkpt><trkpt lat="43.62299" lon="11.73493"><ele>1046</ele><time>2012-05-28T13:32:40Z</time></trkpt><trkpt lat="43.62295" lon="11.73491"><ele>1046</ele><time>2012-05-28T13:32:42Z</time></trkpt><trkpt lat="43.62288" lon="11.73485"><ele>1045</ele><time>2012-05-28T13:32:45Z</time></trkpt><trkpt lat="43.62286" lon="11.73483"><ele>1045</ele><time>2012-05-28T13:32:47Z</time></trkpt><trkpt lat="43.62284" lon="11.73479"><ele>1045</ele><time>2012-05-28T13:32:50Z</time></trkpt><trkpt lat="43.62281" lon="11.73476"><ele>1045</ele><time>2012-05-28T13:32:53Z</time></trkpt><trkpt lat="43.62274" lon="11.73470"><ele>1047</ele><time>2012-05-28T13:33:01Z</time></trkpt><trkpt lat="43.62273" lon="11.73473"><ele>1050</ele><time>2012-05-28T13:33:03Z</time></trkpt><trkpt lat="43.62270" lon="11.73473"><ele>1052</ele><time>2012-05-28T13:33:13Z</time></trkpt><trkpt lat="43.62270" lon="11.73469"><ele>1053</ele><time>2012-05-28T13:33:15Z</time></trkpt><trkpt lat="43.62267" lon="11.73467"><ele>1055</ele><time>2012-05-28T13:33:21Z</time></trkpt><trkpt lat="43.62264" lon="11.73467"><ele>1053</ele><time>2012-05-28T13:33:23Z</time></trkpt><trkpt lat="43.62262" lon="11.73466"><ele>1053</ele><time>2012-05-28T13:33:25Z</time></trkpt><trkpt lat="43.62260" lon="11.73464"><ele>1048</ele><time>2012-05-28T13:33:28Z</time></trkpt><trkpt lat="43.62259" lon="11.73460"><ele>1048</ele><time>2012-05-28T13:33:32Z</time></trkpt><trkpt lat="43.62257" lon="11.73458"><ele>1047</ele><time>2012-05-28T13:33:34Z</time></trkpt><trkpt lat="43.62254" lon="11.73458"><ele>1064</ele><time>2012-05-28T13:33:40Z</time></trkpt><trkpt lat="43.62251" lon="11.73456"><ele>1065</ele><time>2012-05-28T13:33:43Z</time></trkpt><trkpt lat="43.62253" lon="11.73452"><ele>1067</ele><time>2012-05-28T13:33:47Z</time></trkpt><trkpt lat="43.62252" lon="11.73448"><ele>1068</ele><time>2012-05-28T13:33:49Z</time></trkpt><trkpt lat="43.62250" lon="11.73443"><ele>1066</ele><time>2012-05-28T13:33:51Z</time></trkpt><trkpt lat="43.62247" lon="11.73430"><ele>1064</ele><time>2012-05-28T13:33:55Z</time></trkpt><trkpt lat="43.62247" lon="11.73427"><ele>1072</ele><time>2012-05-28T13:34:01Z</time></trkpt><trkpt lat="43.62244" lon="11.73423"><ele>1071</ele><time>2012-05-28T13:34:05Z</time></trkpt><trkpt lat="43.62237" lon="11.73411"><ele>1071</ele><time>2012-05-28T13:34:11Z</time></trkpt><trkpt lat="43.62236" lon="11.73407"><ele>1072</ele><time>2012-05-28T13:34:12Z</time></trkpt><trkpt lat="43.62233" lon="11.73403"><ele>1070</ele><time>2012-05-28T13:34:15Z</time></trkpt><trkpt lat="43.62230" lon="11.73401"><ele>1068</ele><time>2012-05-28T13:34:17Z</time></trkpt><trkpt lat="43.62228" lon="11.73398"><ele>1068</ele><time>2012-05-28T13:34:19Z</time></trkpt><trkpt lat="43.62226" lon="11.73395"><ele>1063</ele><time>2012-05-28T13:34:20Z</time></trkpt><trkpt lat="43.62220" lon="11.73385"><ele>1061</ele><time>2012-05-28T13:34:27Z</time></trkpt><trkpt lat="43.62219" lon="11.73381"><ele>1061</ele><time>2012-05-28T13:34:30Z</time></trkpt><trkpt lat="43.62217" lon="11.73380"><ele>1058</ele><time>2012-05-28T13:34:36Z</time></trkpt><trkpt lat="43.62214" lon="11.73378"><ele>1060</ele><time>2012-05-28T13:34:39Z</time></trkpt><trkpt lat="43.62211" lon="11.73376"><ele>1055</ele><time>2012-05-28T13:34:42Z</time></trkpt><trkpt lat="43.62209" lon="11.73376"><ele>1057</ele><time>2012-05-28T13:34:47Z</time></trkpt><trkpt lat="43.62206" lon="11.73375"><ele>1056</ele><time>2012-05-28T13:34:49Z</time></trkpt><trkpt lat="43.62197" lon="11.73370"><ele>1058</ele><time>2012-05-28T13:34:55Z</time></trkpt><trkpt lat="43.62198" lon="11.73366"><ele>1059</ele><time>2012-05-28T13:35:00Z</time></trkpt><trkpt lat="43.62200" lon="11.73364"><ele>1059</ele><time>2012-05-28T13:35:03Z</time></trkpt><trkpt lat="43.62198" lon="11.73361"><ele>1064</ele><time>2012-05-28T13:35:14Z</time></trkpt><trkpt lat="43.62195" lon="11.73360"><ele>1064</ele><time>2012-05-28T13:35:17Z</time></trkpt><trkpt lat="43.62183" lon="11.73356"><ele>1071</ele><time>2012-05-28T13:35:23Z</time></trkpt><trkpt lat="43.62179" lon="11.73354"><ele>1071</ele><time>2012-05-28T13:35:25Z</time></trkpt><trkpt lat="43.62176" lon="11.73353"><ele>1070</ele><time>2012-05-28T13:35:27Z</time></trkpt><trkpt lat="43.62175" lon="11.73350"><ele>1068</ele><time>2012-05-28T13:35:31Z</time></trkpt><trkpt lat="43.62172" lon="11.73347"><ele>1068</ele><time>2012-05-28T13:35:33Z</time></trkpt><trkpt lat="43.62168" lon="11.73345"><ele>1069</ele><time>2012-05-28T13:35:35Z</time></trkpt><trkpt lat="43.62163" lon="11.73341"><ele>1074</ele><time>2012-05-28T13:35:45Z</time></trkpt><trkpt lat="43.62160" lon="11.73334"><ele>1073</ele><time>2012-05-28T13:35:50Z</time></trkpt><trkpt lat="43.62156" lon="11.73329"><ele>1073</ele><time>2012-05-28T13:35:55Z</time></trkpt><trkpt lat="43.62154" lon="11.73331"><ele>1080</ele><time>2012-05-28T13:36:05Z</time></trkpt><trkpt lat="43.62150" lon="11.73330"><ele>1082</ele><time>2012-05-28T13:36:08Z</time></trkpt><trkpt lat="43.62145" lon="11.73328"><ele>1082</ele><time>2012-05-28T13:36:09Z</time></trkpt><trkpt lat="43.62140" lon="11.73325"><ele>1081</ele><time>2012-05-28T13:36:12Z</time></trkpt><trkpt lat="43.62138" lon="11.73323"><ele>1081</ele><time>2012-05-28T13:36:14Z</time></trkpt><trkpt lat="43.62135" lon="11.73320"><ele>1081</ele><time>2012-05-28T13:36:16Z</time></trkpt><trkpt lat="43.62133" lon="11.73319"><ele>1079</ele><time>2012-05-28T13:36:17Z</time></trkpt><trkpt lat="43.62131" lon="11.73318"><ele>1079</ele><time>2012-05-28T13:36:18Z</time></trkpt><trkpt lat="43.62125" lon="11.73313"><ele>1075</ele><time>2012-05-28T13:36:21Z</time></trkpt><trkpt lat="43.62123" lon="11.73311"><ele>1071</ele><time>2012-05-28T13:36:23Z</time></trkpt><trkpt lat="43.62121" lon="11.73310"><ele>1074</ele><time>2012-05-28T13:36:28Z</time></trkpt><trkpt lat="43.62115" lon="11.73306"><ele>1077</ele><time>2012-05-28T13:36:32Z</time></trkpt><trkpt lat="43.62106" lon="11.73299"><ele>1077</ele><time>2012-05-28T13:36:38Z</time></trkpt><trkpt lat="43.62103" lon="11.73297"><ele>1082</ele><time>2012-05-28T13:36:46Z</time></trkpt><trkpt lat="43.62102" lon="11.73293"><ele>1083</ele><time>2012-05-28T13:36:49Z</time></trkpt><trkpt lat="43.62100" lon="11.73295"><ele>1087</ele><time>2012-05-28T13:37:00Z</time></trkpt><trkpt lat="43.62097" lon="11.73295"><ele>1087</ele><time>2012-05-28T13:37:01Z</time></trkpt><trkpt lat="43.62093" lon="11.73292"><ele>1088</ele><time>2012-05-28T13:37:04Z</time></trkpt><trkpt lat="43.62087" lon="11.73286"><ele>1088</ele><time>2012-05-28T13:37:07Z</time></trkpt><trkpt lat="43.62086" lon="11.73284"><ele>1088</ele><time>2012-05-28T13:37:08Z</time></trkpt><trkpt lat="43.62081" lon="11.73282"><ele>1088</ele><time>2012-05-28T13:37:12Z</time></trkpt><trkpt lat="43.62082" lon="11.73281"><ele>1088</ele><time>2012-05-28T13:37:13Z</time></trkpt><trkpt lat="43.62081" lon="11.73278"><ele>1087</ele><time>2012-05-28T13:37:16Z</time></trkpt><trkpt lat="43.62077" lon="11.73278"><ele>1087</ele><time>2012-05-28T13:37:22Z</time></trkpt><trkpt lat="43.62073" lon="11.73279"><ele>1085</ele><time>2012-05-28T13:37:24Z</time></trkpt><trkpt lat="43.62069" lon="11.73280"><ele>1084</ele><time>2012-05-28T13:37:26Z</time></trkpt><trkpt lat="43.62066" lon="11.73281"><ele>1082</ele><time>2012-05-28T13:37:27Z</time></trkpt><trkpt lat="43.62058" lon="11.73280"><ele>1081</ele><time>2012-05-28T13:37:28Z</time></trkpt><trkpt lat="43.62047" lon="11.73278"><ele>1078</ele><time>2012-05-28T13:37:32Z</time></trkpt><trkpt lat="43.62042" lon="11.73276"><ele>1076</ele><time>2012-05-28T13:37:33Z</time></trkpt><trkpt lat="43.62038" lon="11.73275"><ele>1076</ele><time>2012-05-28T13:37:34Z</time></trkpt><trkpt lat="43.62028" lon="11.73273"><ele>1079</ele><time>2012-05-28T13:37:37Z</time></trkpt><trkpt lat="43.62025" lon="11.73273"><ele>1079</ele><time>2012-05-28T13:37:38Z</time></trkpt><trkpt lat="43.62023" lon="11.73273"><ele>1082</ele><time>2012-05-28T13:37:39Z</time></trkpt><trkpt lat="43.62018" lon="11.73273"><ele>1080</ele><time>2012-05-28T13:37:41Z</time></trkpt><trkpt lat="43.62007" lon="11.73273"><ele>1082</ele><time>2012-05-28T13:37:46Z</time></trkpt><trkpt lat="43.61998" lon="11.73274"><ele>1081</ele><time>2012-05-28T13:37:49Z</time></trkpt><trkpt lat="43.61987" lon="11.73275"><ele>1085</ele><time>2012-05-28T13:37:53Z</time></trkpt><trkpt lat="43.61983" lon="11.73274"><ele>1085</ele><time>2012-05-28T13:37:54Z</time></trkpt><trkpt lat="43.61981" lon="11.73274"><ele>1086</ele><time>2012-05-28T13:37:55Z</time></trkpt><trkpt lat="43.61975" lon="11.73273"><ele>1083</ele><time>2012-05-28T13:37:57Z</time></trkpt><trkpt lat="43.61971" lon="11.73271"><ele>1085</ele><time>2012-05-28T13:38:01Z</time></trkpt><trkpt lat="43.61968" lon="11.73272"><ele>1087</ele><time>2012-05-28T13:38:18Z</time></trkpt><trkpt lat="43.61964" lon="11.73272"><ele>1086</ele><time>2012-05-28T13:38:20Z</time></trkpt><trkpt lat="43.61953" lon="11.73271"><ele>1087</ele><time>2012-05-28T13:38:24Z</time></trkpt><trkpt lat="43.61939" lon="11.73273"><ele>1078</ele><time>2012-05-28T13:38:29Z</time></trkpt><trkpt lat="43.61936" lon="11.73276"><ele>1079</ele><time>2012-05-28T13:38:31Z</time></trkpt><trkpt lat="43.61924" lon="11.73282"><ele>1082</ele><time>2012-05-28T13:38:35Z</time></trkpt><trkpt lat="43.61916" lon="11.73286"><ele>1082</ele><time>2012-05-28T13:38:37Z</time></trkpt><trkpt lat="43.61911" lon="11.73286"><ele>1083</ele><time>2012-05-28T13:38:38Z</time></trkpt><trkpt lat="43.61906" lon="11.73286"><ele>1083</ele><time>2012-05-28T13:38:39Z</time></trkpt><trkpt lat="43.61901" lon="11.73285"><ele>1084</ele><time>2012-05-28T13:38:40Z</time></trkpt><trkpt lat="43.61896" lon="11.73282"><ele>1084</ele><time>2012-05-28T13:38:41Z</time></trkpt><trkpt lat="43.61894" lon="11.73277"><ele>1080</ele><time>2012-05-28T13:38:42Z</time></trkpt><trkpt lat="43.61887" lon="11.73262"><ele>1074</ele><time>2012-05-28T13:38:45Z</time></trkpt><trkpt lat="43.61886" lon="11.73257"><ele>1072</ele><time>2012-05-28T13:38:46Z</time></trkpt><trkpt lat="43.61885" lon="11.73254"><ele>1070</ele><time>2012-05-28T13:38:47Z</time></trkpt><trkpt lat="43.61884" lon="11.73251"><ele>1070</ele><time>2012-05-28T13:38:48Z</time></trkpt><trkpt lat="43.61881" lon="11.73246"><ele>1070</ele><time>2012-05-28T13:38:51Z</time></trkpt><trkpt lat="43.61884" lon="11.73250"><ele>1069</ele><time>2012-05-28T13:39:07Z</time></trkpt><trkpt lat="43.61884" lon="11.73246"><ele>1076</ele><time>2012-05-28T13:39:12Z</time></trkpt><trkpt lat="43.61879" lon="11.73248"><ele>1076</ele><time>2012-05-28T13:39:15Z</time></trkpt><trkpt lat="43.61876" lon="11.73249"><ele>1076</ele><time>2012-05-28T13:39:17Z</time></trkpt><trkpt lat="43.61872" lon="11.73249"><ele>1081</ele><time>2012-05-28T13:39:19Z</time></trkpt><trkpt lat="43.61868" lon="11.73248"><ele>1080</ele><time>2012-05-28T13:39:21Z</time></trkpt><trkpt lat="43.61864" lon="11.73246"><ele>1080</ele><time>2012-05-28T13:39:23Z</time></trkpt><trkpt lat="43.61858" lon="11.73244"><ele>1080</ele><time>2012-05-28T13:39:27Z</time></trkpt><trkpt lat="43.61854" lon="11.73244"><ele>1080</ele><time>2012-05-28T13:39:29Z</time></trkpt><trkpt lat="43.61852" lon="11.73242"><ele>1080</ele><time>2012-05-28T13:39:30Z</time></trkpt><trkpt lat="43.61849" lon="11.73241"><ele>1081</ele><time>2012-05-28T13:39:31Z</time></trkpt><trkpt lat="43.61846" lon="11.73235"><ele>1082</ele><time>2012-05-28T13:39:33Z</time></trkpt><trkpt lat="43.61844" lon="11.73229"><ele>1081</ele><time>2012-05-28T13:39:34Z</time></trkpt><trkpt lat="43.61840" lon="11.73217"><ele>1081</ele><time>2012-05-28T13:39:36Z</time></trkpt><trkpt lat="43.61839" lon="11.73212"><ele>1081</ele><time>2012-05-28T13:39:37Z</time></trkpt><trkpt lat="43.61838" lon="11.73205"><ele>1081</ele><time>2012-05-28T13:39:38Z</time></trkpt><trkpt lat="43.61835" lon="11.73192"><ele>1081</ele><time>2012-05-28T13:39:40Z</time></trkpt><trkpt lat="43.61834" lon="11.73186"><ele>1081</ele><time>2012-05-28T13:39:41Z</time></trkpt><trkpt lat="43.61833" lon="11.73182"><ele>1081</ele><time>2012-05-28T13:39:42Z</time></trkpt><trkpt lat="43.61822" lon="11.73152"><ele>1082</ele><time>2012-05-28T13:39:49Z</time></trkpt><trkpt lat="43.61821" lon="11.73146"><ele>1082</ele><time>2012-05-28T13:39:50Z</time></trkpt><trkpt lat="43.61819" lon="11.73132"><ele>1083</ele><time>2012-05-28T13:39:53Z</time></trkpt><trkpt lat="43.61818" lon="11.73129"><ele>1089</ele><time>2012-05-28T13:39:54Z</time></trkpt><trkpt lat="43.61814" lon="11.73115"><ele>1091</ele><time>2012-05-28T13:40:00Z</time></trkpt><trkpt lat="43.61813" lon="11.73111"><ele>1090</ele><time>2012-05-28T13:40:01Z</time></trkpt><trkpt lat="43.61811" lon="11.73106"><ele>1087</ele><time>2012-05-28T13:40:02Z</time></trkpt><trkpt lat="43.61808" lon="11.73101"><ele>1081</ele><time>2012-05-28T13:40:03Z</time></trkpt><trkpt lat="43.61799" lon="11.73087"><ele>1074</ele><time>2012-05-28T13:40:06Z</time></trkpt><trkpt lat="43.61795" lon="11.73082"><ele>1074</ele><time>2012-05-28T13:40:07Z</time></trkpt><trkpt lat="43.61779" lon="11.73062"><ele>1073</ele><time>2012-05-28T13:40:13Z</time></trkpt><trkpt lat="43.61778" lon="11.73058"><ele>1073</ele><time>2012-05-28T13:40:14Z</time></trkpt><trkpt lat="43.61775" lon="11.73053"><ele>1074</ele><time>2012-05-28T13:40:16Z</time></trkpt><trkpt lat="43.61776" lon="11.73050"><ele>1073</ele><time>2012-05-28T13:40:17Z</time></trkpt><trkpt lat="43.61776" lon="11.73045"><ele>1074</ele><time>2012-05-28T13:40:19Z</time></trkpt><trkpt lat="43.61776" lon="11.73035"><ele>1078</ele><time>2012-05-28T13:40:25Z</time></trkpt><trkpt lat="43.61775" lon="11.73031"><ele>1080</ele><time>2012-05-28T13:40:27Z</time></trkpt><trkpt lat="43.61773" lon="11.73026"><ele>1083</ele><time>2012-05-28T13:40:29Z</time></trkpt><trkpt lat="43.61771" lon="11.73022"><ele>1083</ele><time>2012-05-28T13:40:31Z</time></trkpt><trkpt lat="43.61770" lon="11.73019"><ele>1083</ele><time>2012-05-28T13:40:32Z</time></trkpt><trkpt lat="43.61769" lon="11.73016"><ele>1083</ele><time>2012-05-28T13:40:33Z</time></trkpt><trkpt lat="43.61764" lon="11.73002"><ele>1083</ele><time>2012-05-28T13:40:38Z</time></trkpt><trkpt lat="43.61764" lon="11.72998"><ele>1084</ele><time>2012-05-28T13:40:39Z</time></trkpt><trkpt lat="43.61763" lon="11.72982"><ele>1079</ele><time>2012-05-28T13:40:42Z</time></trkpt><trkpt lat="43.61763" lon="11.72976"><ele>1079</ele><time>2012-05-28T13:40:43Z</time></trkpt><trkpt lat="43.61764" lon="11.72970"><ele>1080</ele><time>2012-05-28T13:40:44Z</time></trkpt><trkpt lat="43.61766" lon="11.72965"><ele>1080</ele><time>2012-05-28T13:40:45Z</time></trkpt><trkpt lat="43.61766" lon="11.72962"><ele>1080</ele><time>2012-05-28T13:40:46Z</time></trkpt><trkpt lat="43.61768" lon="11.72957"><ele>1077</ele><time>2012-05-28T13:40:47Z</time></trkpt><trkpt lat="43.61770" lon="11.72952"><ele>1075</ele><time>2012-05-28T13:40:48Z</time></trkpt><trkpt lat="43.61772" lon="11.72948"><ele>1074</ele><time>2012-05-28T13:40:49Z</time></trkpt><trkpt lat="43.61773" lon="11.72944"><ele>1073</ele><time>2012-05-28T13:40:50Z</time></trkpt><trkpt lat="43.61776" lon="11.72940"><ele>1073</ele><time>2012-05-28T13:40:51Z</time></trkpt><trkpt lat="43.61780" lon="11.72933"><ele>1074</ele><time>2012-05-28T13:40:53Z</time></trkpt><trkpt lat="43.61781" lon="11.72928"><ele>1074</ele><time>2012-05-28T13:40:55Z</time></trkpt><trkpt lat="43.61786" lon="11.72915"><ele>1075</ele><time>2012-05-28T13:41:00Z</time></trkpt><trkpt lat="43.61787" lon="11.72913"><ele>1075</ele><time>2012-05-28T13:41:01Z</time></trkpt><trkpt lat="43.61796" lon="11.72902"><ele>1081</ele><time>2012-05-28T13:41:05Z</time></trkpt><trkpt lat="43.61799" lon="11.72895"><ele>1086</ele><time>2012-05-28T13:41:07Z</time></trkpt><trkpt lat="43.61806" lon="11.72885"><ele>1085</ele><time>2012-05-28T13:41:11Z</time></trkpt><trkpt lat="43.61808" lon="11.72882"><ele>1086</ele><time>2012-05-28T13:41:12Z</time></trkpt><trkpt lat="43.61809" lon="11.72876"><ele>1088</ele><time>2012-05-28T13:41:14Z</time></trkpt><trkpt lat="43.61808" lon="11.72869"><ele>1085</ele><time>2012-05-28T13:41:16Z</time></trkpt><trkpt lat="43.61807" lon="11.72864"><ele>1083</ele><time>2012-05-28T13:41:17Z</time></trkpt><trkpt lat="43.61807" lon="11.72860"><ele>1083</ele><time>2012-05-28T13:41:18Z</time></trkpt><trkpt lat="43.61805" lon="11.72854"><ele>1082</ele><time>2012-05-28T13:41:19Z</time></trkpt><trkpt lat="43.61804" lon="11.72843"><ele>1081</ele><time>2012-05-28T13:41:20Z</time></trkpt><trkpt lat="43.61804" lon="11.72838"><ele>1081</ele><time>2012-05-28T13:41:22Z</time></trkpt><trkpt lat="43.61804" lon="11.72833"><ele>1079</ele><time>2012-05-28T13:41:23Z</time></trkpt><trkpt lat="43.61815" lon="11.72816"><ele>1080</ele><time>2012-05-28T13:41:25Z</time></trkpt><trkpt lat="43.61818" lon="11.72808"><ele>1081</ele><time>2012-05-28T13:41:26Z</time></trkpt><trkpt lat="43.61820" lon="11.72803"><ele>1081</ele><time>2012-05-28T13:41:27Z</time></trkpt><trkpt lat="43.61822" lon="11.72791"><ele>1080</ele><time>2012-05-28T13:41:29Z</time></trkpt><trkpt lat="43.61825" lon="11.72788"><ele>1079</ele><time>2012-05-28T13:41:30Z</time></trkpt><trkpt lat="43.61828" lon="11.72785"><ele>1078</ele><time>2012-05-28T13:41:31Z</time></trkpt><trkpt lat="43.61829" lon="11.72782"><ele>1078</ele><time>2012-05-28T13:41:32Z</time></trkpt><trkpt lat="43.61829" lon="11.72775"><ele>1080</ele><time>2012-05-28T13:41:33Z</time></trkpt><trkpt lat="43.61831" lon="11.72769"><ele>1083</ele><time>2012-05-28T13:41:34Z</time></trkpt><trkpt lat="43.61834" lon="11.72766"><ele>1080</ele><time>2012-05-28T13:41:35Z</time></trkpt><trkpt lat="43.61836" lon="11.72762"><ele>1081</ele><time>2012-05-28T13:41:36Z</time></trkpt><trkpt lat="43.61838" lon="11.72759"><ele>1079</ele><time>2012-05-28T13:41:37Z</time></trkpt><trkpt lat="43.61839" lon="11.72755"><ele>1079</ele><time>2012-05-28T13:41:38Z</time></trkpt><trkpt lat="43.61846" lon="11.72744"><ele>1079</ele><time>2012-05-28T13:41:42Z</time></trkpt><trkpt lat="43.61847" lon="11.72740"><ele>1078</ele><time>2012-05-28T13:41:45Z</time></trkpt><trkpt lat="43.61848" lon="11.72736"><ele>1079</ele><time>2012-05-28T13:41:47Z</time></trkpt><trkpt lat="43.61851" lon="11.72719"><ele>1077</ele><time>2012-05-28T13:41:51Z</time></trkpt><trkpt lat="43.61852" lon="11.72715"><ele>1080</ele><time>2012-05-28T13:41:52Z</time></trkpt><trkpt lat="43.61853" lon="11.72710"><ele>1082</ele><time>2012-05-28T13:41:53Z</time></trkpt><trkpt lat="43.61855" lon="11.72706"><ele>1083</ele><time>2012-05-28T13:41:54Z</time></trkpt><trkpt lat="43.61856" lon="11.72699"><ele>1084</ele><time>2012-05-28T13:41:55Z</time></trkpt><trkpt lat="43.61858" lon="11.72695"><ele>1085</ele><time>2012-05-28T13:41:56Z</time></trkpt><trkpt lat="43.61860" lon="11.72691"><ele>1081</ele><time>2012-05-28T13:41:57Z</time></trkpt><trkpt lat="43.61861" lon="11.72687"><ele>1081</ele><time>2012-05-28T13:41:58Z</time></trkpt><trkpt lat="43.61863" lon="11.72683"><ele>1079</ele><time>2012-05-28T13:41:59Z</time></trkpt><trkpt lat="43.61864" lon="11.72674"><ele>1079</ele><time>2012-05-28T13:42:01Z</time></trkpt><trkpt lat="43.61864" lon="11.72669"><ele>1079</ele><time>2012-05-28T13:42:02Z</time></trkpt><trkpt lat="43.61865" lon="11.72664"><ele>1077</ele><time>2012-05-28T13:42:03Z</time></trkpt><trkpt lat="43.61865" lon="11.72659"><ele>1076</ele><time>2012-05-28T13:42:04Z</time></trkpt><trkpt lat="43.61867" lon="11.72655"><ele>1075</ele><time>2012-05-28T13:42:05Z</time></trkpt><trkpt lat="43.61867" lon="11.72649"><ele>1078</ele><time>2012-05-28T13:42:06Z</time></trkpt><trkpt lat="43.61868" lon="11.72645"><ele>1077</ele><time>2012-05-28T13:42:07Z</time></trkpt><trkpt lat="43.61868" lon="11.72635"><ele>1077</ele><time>2012-05-28T13:42:09Z</time></trkpt><trkpt lat="43.61868" lon="11.72626"><ele>1078</ele><time>2012-05-28T13:42:11Z</time></trkpt><trkpt lat="43.61868" lon="11.72610"><ele>1079</ele><time>2012-05-28T13:42:14Z</time></trkpt><trkpt lat="43.61869" lon="11.72606"><ele>1080</ele><time>2012-05-28T13:42:15Z</time></trkpt><trkpt lat="43.61869" lon="11.72595"><ele>1079</ele><time>2012-05-28T13:42:17Z</time></trkpt><trkpt lat="43.61869" lon="11.72590"><ele>1078</ele><time>2012-05-28T13:42:18Z</time></trkpt><trkpt lat="43.61868" lon="11.72585"><ele>1079</ele><time>2012-05-28T13:42:19Z</time></trkpt><trkpt lat="43.61869" lon="11.72574"><ele>1083</ele><time>2012-05-28T13:42:21Z</time></trkpt><trkpt lat="43.61870" lon="11.72569"><ele>1083</ele><time>2012-05-28T13:42:22Z</time></trkpt><trkpt lat="43.61870" lon="11.72564"><ele>1083</ele><time>2012-05-28T13:42:23Z</time></trkpt><trkpt lat="43.61872" lon="11.72546"><ele>1082</ele><time>2012-05-28T13:42:26Z</time></trkpt><trkpt lat="43.61872" lon="11.72540"><ele>1082</ele><time>2012-05-28T13:42:27Z</time></trkpt><trkpt lat="43.61873" lon="11.72529"><ele>1081</ele><time>2012-05-28T13:42:29Z</time></trkpt><trkpt lat="43.61875" lon="11.72520"><ele>1080</ele><time>2012-05-28T13:42:31Z</time></trkpt><trkpt lat="43.61878" lon="11.72513"><ele>1080</ele><time>2012-05-28T13:42:33Z</time></trkpt><trkpt lat="43.61880" lon="11.72510"><ele>1079</ele><time>2012-05-28T13:42:34Z</time></trkpt><trkpt lat="43.61890" lon="11.72499"><ele>1078</ele><time>2012-05-28T13:42:38Z</time></trkpt><trkpt lat="43.61899" lon="11.72491"><ele>1076</ele><time>2012-05-28T13:42:41Z</time></trkpt><trkpt lat="43.61902" lon="11.72489"><ele>1074</ele><time>2012-05-28T13:42:42Z</time></trkpt><trkpt lat="43.61905" lon="11.72488"><ele>1074</ele><time>2012-05-28T13:42:43Z</time></trkpt><trkpt lat="43.61908" lon="11.72488"><ele>1073</ele><time>2012-05-28T13:42:44Z</time></trkpt><trkpt lat="43.61909" lon="11.72491"><ele>1074</ele><time>2012-05-28T13:42:47Z</time></trkpt><trkpt lat="43.61911" lon="11.72493"><ele>1077</ele><time>2012-05-28T13:43:02Z</time></trkpt><trkpt lat="43.61912" lon="11.72488"><ele>1075</ele><time>2012-05-28T13:43:22Z</time></trkpt><trkpt lat="43.61915" lon="11.72486"><ele>1075</ele><time>2012-05-28T13:43:23Z</time></trkpt><trkpt lat="43.61919" lon="11.72484"><ele>1075</ele><time>2012-05-28T13:43:24Z</time></trkpt><trkpt lat="43.61934" lon="11.72468"><ele>1075</ele><time>2012-05-28T13:43:27Z</time></trkpt><trkpt lat="43.61933" lon="11.72462"><ele>1075</ele><time>2012-05-28T13:43:28Z</time></trkpt><trkpt lat="43.61929" lon="11.72457"><ele>1076</ele><time>2012-05-28T13:43:29Z</time></trkpt><trkpt lat="43.61925" lon="11.72449"><ele>1076</ele><time>2012-05-28T13:43:30Z</time></trkpt><trkpt lat="43.61924" lon="11.72443"><ele>1076</ele><time>2012-05-28T13:43:31Z</time></trkpt><trkpt lat="43.61924" lon="11.72437"><ele>1076</ele><time>2012-05-28T13:43:32Z</time></trkpt><trkpt lat="43.61922" lon="11.72432"><ele>1077</ele><time>2012-05-28T13:43:33Z</time></trkpt><trkpt lat="43.61921" lon="11.72427"><ele>1077</ele><time>2012-05-28T13:43:34Z</time></trkpt><trkpt lat="43.61920" lon="11.72421"><ele>1078</ele><time>2012-05-28T13:43:35Z</time></trkpt><trkpt lat="43.61918" lon="11.72417"><ele>1079</ele><time>2012-05-28T13:43:36Z</time></trkpt><trkpt lat="43.61915" lon="11.72411"><ele>1080</ele><time>2012-05-28T13:43:37Z</time></trkpt><trkpt lat="43.61914" lon="11.72406"><ele>1080</ele><time>2012-05-28T13:43:38Z</time></trkpt><trkpt lat="43.61917" lon="11.72402"><ele>1080</ele><time>2012-05-28T13:43:39Z</time></trkpt><trkpt lat="43.61913" lon="11.72388"><ele>1079</ele><time>2012-05-28T13:43:41Z</time></trkpt><trkpt lat="43.61913" lon="11.72383"><ele>1079</ele><time>2012-05-28T13:43:42Z</time></trkpt><trkpt lat="43.61914" lon="11.72377"><ele>1079</ele><time>2012-05-28T13:43:43Z</time></trkpt><trkpt lat="43.61915" lon="11.72372"><ele>1078</ele><time>2012-05-28T13:43:44Z</time></trkpt><trkpt lat="43.61916" lon="11.72367"><ele>1078</ele><time>2012-05-28T13:43:45Z</time></trkpt><trkpt lat="43.61917" lon="11.72362"><ele>1079</ele><time>2012-05-28T13:43:46Z</time></trkpt><trkpt lat="43.61919" lon="11.72339"><ele>1076</ele><time>2012-05-28T13:43:49Z</time></trkpt><trkpt lat="43.61920" lon="11.72319"><ele>1075</ele><time>2012-05-28T13:43:51Z</time></trkpt><trkpt lat="43.61919" lon="11.72309"><ele>1075</ele><time>2012-05-28T13:43:52Z</time></trkpt><trkpt lat="43.61916" lon="11.72293"><ele>1073</ele><time>2012-05-28T13:43:53Z</time></trkpt><trkpt lat="43.61915" lon="11.72272"><ele>1073</ele><time>2012-05-28T13:43:55Z</time></trkpt><trkpt lat="43.61916" lon="11.72253"><ele>1071</ele><time>2012-05-28T13:43:57Z</time></trkpt><trkpt lat="43.61918" lon="11.72239"><ele>1071</ele><time>2012-05-28T13:43:59Z</time></trkpt><trkpt lat="43.61921" lon="11.72235"><ele>1072</ele><time>2012-05-28T13:44:00Z</time></trkpt><trkpt lat="43.61923" lon="11.72229"><ele>1073</ele><time>2012-05-28T13:44:01Z</time></trkpt><trkpt lat="43.61925" lon="11.72229"><ele>1074</ele><time>2012-05-28T13:44:02Z</time></trkpt><trkpt lat="43.61926" lon="11.72222"><ele>1072</ele><time>2012-05-28T13:44:03Z</time></trkpt><trkpt lat="43.61926" lon="11.72217"><ele>1071</ele><time>2012-05-28T13:44:04Z</time></trkpt><trkpt lat="43.61927" lon="11.72212"><ele>1070</ele><time>2012-05-28T13:44:05Z</time></trkpt><trkpt lat="43.61928" lon="11.72208"><ele>1071</ele><time>2012-05-28T13:44:06Z</time></trkpt><trkpt lat="43.61933" lon="11.72192"><ele>1072</ele><time>2012-05-28T13:44:10Z</time></trkpt><trkpt lat="43.61935" lon="11.72188"><ele>1072</ele><time>2012-05-28T13:44:11Z</time></trkpt><trkpt lat="43.61936" lon="11.72184"><ele>1072</ele><time>2012-05-28T13:44:12Z</time></trkpt><trkpt lat="43.61940" lon="11.72174"><ele>1070</ele><time>2012-05-28T13:44:17Z</time></trkpt><trkpt lat="43.61942" lon="11.72172"><ele>1072</ele><time>2012-05-28T13:44:19Z</time></trkpt><trkpt lat="43.61945" lon="11.72171"><ele>1072</ele><time>2012-05-28T13:44:21Z</time></trkpt><trkpt lat="43.61949" lon="11.72168"><ele>1074</ele><time>2012-05-28T13:44:23Z</time></trkpt><trkpt lat="43.61952" lon="11.72165"><ele>1073</ele><time>2012-05-28T13:44:25Z</time></trkpt><trkpt lat="43.61954" lon="11.72161"><ele>1073</ele><time>2012-05-28T13:44:27Z</time></trkpt><trkpt lat="43.61956" lon="11.72158"><ele>1074</ele><time>2012-05-28T13:44:28Z</time></trkpt><trkpt lat="43.61960" lon="11.72149"><ele>1077</ele><time>2012-05-28T13:44:33Z</time></trkpt><trkpt lat="43.61961" lon="11.72146"><ele>1077</ele><time>2012-05-28T13:44:35Z</time></trkpt><trkpt lat="43.61962" lon="11.72141"><ele>1076</ele><time>2012-05-28T13:44:38Z</time></trkpt><trkpt lat="43.61964" lon="11.72138"><ele>1076</ele><time>2012-05-28T13:44:41Z</time></trkpt><trkpt lat="43.61966" lon="11.72133"><ele>1076</ele><time>2012-05-28T13:44:45Z</time></trkpt><trkpt lat="43.61968" lon="11.72129"><ele>1074</ele><time>2012-05-28T13:44:47Z</time></trkpt><trkpt lat="43.61971" lon="11.72126"><ele>1072</ele><time>2012-05-28T13:44:49Z</time></trkpt><trkpt lat="43.61972" lon="11.72122"><ele>1077</ele><time>2012-05-28T13:44:51Z</time></trkpt><trkpt lat="43.61973" lon="11.72119"><ele>1080</ele><time>2012-05-28T13:44:54Z</time></trkpt><trkpt lat="43.61976" lon="11.72116"><ele>1082</ele><time>2012-05-28T13:44:57Z</time></trkpt><trkpt lat="43.61980" lon="11.72112"><ele>1084</ele><time>2012-05-28T13:45:00Z</time></trkpt><trkpt lat="43.61984" lon="11.72106"><ele>1082</ele><time>2012-05-28T13:45:04Z</time></trkpt><trkpt lat="43.61985" lon="11.72102"><ele>1080</ele><time>2012-05-28T13:45:06Z</time></trkpt><trkpt lat="43.61986" lon="11.72098"><ele>1081</ele><time>2012-05-28T13:45:09Z</time></trkpt><trkpt lat="43.61989" lon="11.72097"><ele>1081</ele><time>2012-05-28T13:45:11Z</time></trkpt><trkpt lat="43.61991" lon="11.72097"><ele>1081</ele><time>2012-05-28T13:45:13Z</time></trkpt><trkpt lat="43.61996" lon="11.72097"><ele>1079</ele><time>2012-05-28T13:45:18Z</time></trkpt><trkpt lat="43.61997" lon="11.72093"><ele>1078</ele><time>2012-05-28T13:45:22Z</time></trkpt><trkpt lat="43.61997" lon="11.72089"><ele>1079</ele><time>2012-05-28T13:45:24Z</time></trkpt><trkpt lat="43.61996" lon="11.72081"><ele>1082</ele><time>2012-05-28T13:45:30Z</time></trkpt><trkpt lat="43.61995" lon="11.72078"><ele>1082</ele><time>2012-05-28T13:45:32Z</time></trkpt><trkpt lat="43.61993" lon="11.72075"><ele>1083</ele><time>2012-05-28T13:45:34Z</time></trkpt><trkpt lat="43.61991" lon="11.72074"><ele>1086</ele><time>2012-05-28T13:45:38Z</time></trkpt><trkpt lat="43.61990" lon="11.72071"><ele>1091</ele><time>2012-05-28T13:45:43Z</time></trkpt><trkpt lat="43.61989" lon="11.72065"><ele>1095</ele><time>2012-05-28T13:45:46Z</time></trkpt><trkpt lat="43.61989" lon="11.72060"><ele>1095</ele><time>2012-05-28T13:45:49Z</time></trkpt><trkpt lat="43.61990" lon="11.72046"><ele>1095</ele><time>2012-05-28T13:45:56Z</time></trkpt><trkpt lat="43.61990" lon="11.72036"><ele>1097</ele><time>2012-05-28T13:46:00Z</time></trkpt><trkpt lat="43.61993" lon="11.72035"><ele>1095</ele><time>2012-05-28T13:46:06Z</time></trkpt><trkpt lat="43.61995" lon="11.72034"><ele>1096</ele><time>2012-05-28T13:46:12Z</time></trkpt><trkpt lat="43.61998" lon="11.72035"><ele>1097</ele><time>2012-05-28T13:46:15Z</time></trkpt><trkpt lat="43.62000" lon="11.72034"><ele>1098</ele><time>2012-05-28T13:46:18Z</time></trkpt><trkpt lat="43.62003" lon="11.72033"><ele>1098</ele><time>2012-05-28T13:46:21Z</time></trkpt><trkpt lat="43.62006" lon="11.72033"><ele>1100</ele><time>2012-05-28T13:46:23Z</time></trkpt><trkpt lat="43.62010" lon="11.72034"><ele>1099</ele><time>2012-05-28T13:46:27Z</time></trkpt><trkpt lat="43.62013" lon="11.72035"><ele>1098</ele><time>2012-05-28T13:46:31Z</time></trkpt><trkpt lat="43.62015" lon="11.72031"><ele>1097</ele><time>2012-05-28T13:46:35Z</time></trkpt><trkpt lat="43.62017" lon="11.72029"><ele>1097</ele><time>2012-05-28T13:46:37Z</time></trkpt><trkpt lat="43.62021" lon="11.72027"><ele>1098</ele><time>2012-05-28T13:46:39Z</time></trkpt><trkpt lat="43.62023" lon="11.72024"><ele>1096</ele><time>2012-05-28T13:46:41Z</time></trkpt><trkpt lat="43.62025" lon="11.72022"><ele>1095</ele><time>2012-05-28T13:46:43Z</time></trkpt><trkpt lat="43.62030" lon="11.72018"><ele>1096</ele><time>2012-05-28T13:46:46Z</time></trkpt><trkpt lat="43.62032" lon="11.72017"><ele>1097</ele><time>2012-05-28T13:46:48Z</time></trkpt><trkpt lat="43.62034" lon="11.72015"><ele>1096</ele><time>2012-05-28T13:46:50Z</time></trkpt><trkpt lat="43.62037" lon="11.72013"><ele>1096</ele><time>2012-05-28T13:46:52Z</time></trkpt><trkpt lat="43.62040" lon="11.72011"><ele>1093</ele><time>2012-05-28T13:46:54Z</time></trkpt><trkpt lat="43.62044" lon="11.72007"><ele>1101</ele><time>2012-05-28T13:47:00Z</time></trkpt><trkpt lat="43.62042" lon="11.72004"><ele>1103</ele><time>2012-05-28T13:47:03Z</time></trkpt><trkpt lat="43.62041" lon="11.72000"><ele>1102</ele><time>2012-05-28T13:47:06Z</time></trkpt><trkpt lat="43.62041" lon="11.71996"><ele>1102</ele><time>2012-05-28T13:47:10Z</time></trkpt><trkpt lat="43.62041" lon="11.71992"><ele>1104</ele><time>2012-05-28T13:47:13Z</time></trkpt><trkpt lat="43.62042" lon="11.71987"><ele>1103</ele><time>2012-05-28T13:47:16Z</time></trkpt><trkpt lat="43.62042" lon="11.71983"><ele>1104</ele><time>2012-05-28T13:47:19Z</time></trkpt><trkpt lat="43.62043" lon="11.71979"><ele>1104</ele><time>2012-05-28T13:47:22Z</time></trkpt><trkpt lat="43.62045" lon="11.71976"><ele>1103</ele><time>2012-05-28T13:47:24Z</time></trkpt><trkpt lat="43.62047" lon="11.71970"><ele>1106</ele><time>2012-05-28T13:47:29Z</time></trkpt><trkpt lat="43.62047" lon="11.71967"><ele>1106</ele><time>2012-05-28T13:47:31Z</time></trkpt><trkpt lat="43.62048" lon="11.71964"><ele>1105</ele><time>2012-05-28T13:47:33Z</time></trkpt><trkpt lat="43.62055" lon="11.71955"><ele>1103</ele><time>2012-05-28T13:47:37Z</time></trkpt><trkpt lat="43.62058" lon="11.71952"><ele>1103</ele><time>2012-05-28T13:47:38Z</time></trkpt><trkpt lat="43.62075" lon="11.71936"><ele>1102</ele><time>2012-05-28T13:47:44Z</time></trkpt><trkpt lat="43.62078" lon="11.71933"><ele>1102</ele><time>2012-05-28T13:47:45Z</time></trkpt><trkpt lat="43.62081" lon="11.71931"><ele>1104</ele><time>2012-05-28T13:47:46Z</time></trkpt><trkpt lat="43.62086" lon="11.71928"><ele>1104</ele><time>2012-05-28T13:47:48Z</time></trkpt><trkpt lat="43.62091" lon="11.71927"><ele>1104</ele><time>2012-05-28T13:47:50Z</time></trkpt><trkpt lat="43.62093" lon="11.71926"><ele>1101</ele><time>2012-05-28T13:47:51Z</time></trkpt><trkpt lat="43.62104" lon="11.71925"><ele>1101</ele><time>2012-05-28T13:47:55Z</time></trkpt><trkpt lat="43.62111" lon="11.71923"><ele>1100</ele><time>2012-05-28T13:47:58Z</time></trkpt><trkpt lat="43.62114" lon="11.71921"><ele>1101</ele><time>2012-05-28T13:48:00Z</time></trkpt><trkpt lat="43.62118" lon="11.71916"><ele>1104</ele><time>2012-05-28T13:48:02Z</time></trkpt><trkpt lat="43.62125" lon="11.71907"><ele>1106</ele><time>2012-05-28T13:48:06Z</time></trkpt><trkpt lat="43.62128" lon="11.71905"><ele>1106</ele><time>2012-05-28T13:48:07Z</time></trkpt><trkpt lat="43.62131" lon="11.71904"><ele>1104</ele><time>2012-05-28T13:48:08Z</time></trkpt><trkpt lat="43.62161" lon="11.71887"><ele>1103</ele><time>2012-05-28T13:48:17Z</time></trkpt><trkpt lat="43.62164" lon="11.71884"><ele>1103</ele><time>2012-05-28T13:48:18Z</time></trkpt><trkpt lat="43.62184" lon="11.71869"><ele>1107</ele><time>2012-05-28T13:48:24Z</time></trkpt><trkpt lat="43.62193" lon="11.71860"><ele>1109</ele><time>2012-05-28T13:48:28Z</time></trkpt><trkpt lat="43.62196" lon="11.71856"><ele>1112</ele><time>2012-05-28T13:48:30Z</time></trkpt><trkpt lat="43.62198" lon="11.71854"><ele>1112</ele><time>2012-05-28T13:48:31Z</time></trkpt><trkpt lat="43.62201" lon="11.71848"><ele>1111</ele><time>2012-05-28T13:48:33Z</time></trkpt><trkpt lat="43.62206" lon="11.71838"><ele>1112</ele><time>2012-05-28T13:48:37Z</time></trkpt><trkpt lat="43.62213" lon="11.71831"><ele>1108</ele><time>2012-05-28T13:48:41Z</time></trkpt><trkpt lat="43.62216" lon="11.71828"><ele>1108</ele><time>2012-05-28T13:48:43Z</time></trkpt><trkpt lat="43.62218" lon="11.71824"><ele>1108</ele><time>2012-05-28T13:48:45Z</time></trkpt><trkpt lat="43.62219" lon="11.71820"><ele>1108</ele><time>2012-05-28T13:48:48Z</time></trkpt><trkpt lat="43.62219" lon="11.71815"><ele>1108</ele><time>2012-05-28T13:48:51Z</time></trkpt><trkpt lat="43.62220" lon="11.71812"><ele>1106</ele><time>2012-05-28T13:48:53Z</time></trkpt><trkpt lat="43.62221" lon="11.71809"><ele>1105</ele><time>2012-05-28T13:48:55Z</time></trkpt><trkpt lat="43.62221" lon="11.71806"><ele>1105</ele><time>2012-05-28T13:48:57Z</time></trkpt><trkpt lat="43.62220" lon="11.71802"><ele>1114</ele><time>2012-05-28T13:48:59Z</time></trkpt><trkpt lat="43.62220" lon="11.71798"><ele>1115</ele><time>2012-05-28T13:49:01Z</time></trkpt><trkpt lat="43.62220" lon="11.71793"><ele>1117</ele><time>2012-05-28T13:49:03Z</time></trkpt><trkpt lat="43.62220" lon="11.71787"><ele>1116</ele><time>2012-05-28T13:49:05Z</time></trkpt><trkpt lat="43.62220" lon="11.71783"><ele>1116</ele><time>2012-05-28T13:49:06Z</time></trkpt><trkpt lat="43.62220" lon="11.71773"><ele>1120</ele><time>2012-05-28T13:49:09Z</time></trkpt><trkpt lat="43.62217" lon="11.71768"><ele>1124</ele><time>2012-05-28T13:49:11Z</time></trkpt><trkpt lat="43.62215" lon="11.71766"><ele>1123</ele><time>2012-05-28T13:49:12Z</time></trkpt><trkpt lat="43.62212" lon="11.71761"><ele>1123</ele><time>2012-05-28T13:49:14Z</time></trkpt><trkpt lat="43.62211" lon="11.71757"><ele>1123</ele><time>2012-05-28T13:49:16Z</time></trkpt><trkpt lat="43.62213" lon="11.71754"><ele>1124</ele><time>2012-05-28T13:49:18Z</time></trkpt><trkpt lat="43.62228" lon="11.71735"><ele>1121</ele><time>2012-05-28T13:49:28Z</time></trkpt><trkpt lat="43.62230" lon="11.71732"><ele>1120</ele><time>2012-05-28T13:49:30Z</time></trkpt><trkpt lat="43.62233" lon="11.71728"><ele>1121</ele><time>2012-05-28T13:49:32Z</time></trkpt><trkpt lat="43.62236" lon="11.71727"><ele>1121</ele><time>2012-05-28T13:49:34Z</time></trkpt><trkpt lat="43.62239" lon="11.71726"><ele>1122</ele><time>2012-05-28T13:49:36Z</time></trkpt><trkpt lat="43.62258" lon="11.71713"><ele>1115</ele><time>2012-05-28T13:49:46Z</time></trkpt><trkpt lat="43.62262" lon="11.71711"><ele>1116</ele><time>2012-05-28T13:49:48Z</time></trkpt><trkpt lat="43.62265" lon="11.71707"><ele>1115</ele><time>2012-05-28T13:49:50Z</time></trkpt><trkpt lat="43.62268" lon="11.71706"><ele>1118</ele><time>2012-05-28T13:49:52Z</time></trkpt><trkpt lat="43.62270" lon="11.71704"><ele>1118</ele><time>2012-05-28T13:49:54Z</time></trkpt><trkpt lat="43.62273" lon="11.71700"><ele>1122</ele><time>2012-05-28T13:49:57Z</time></trkpt><trkpt lat="43.62280" lon="11.71690"><ele>1126</ele><time>2012-05-28T13:50:03Z</time></trkpt><trkpt lat="43.62282" lon="11.71688"><ele>1126</ele><time>2012-05-28T13:50:04Z</time></trkpt><trkpt lat="43.62285" lon="11.71685"><ele>1126</ele><time>2012-05-28T13:50:06Z</time></trkpt><trkpt lat="43.62288" lon="11.71680"><ele>1126</ele><time>2012-05-28T13:50:08Z</time></trkpt><trkpt lat="43.62296" lon="11.71672"><ele>1126</ele><time>2012-05-28T13:50:13Z</time></trkpt><trkpt lat="43.62300" lon="11.71670"><ele>1130</ele><time>2012-05-28T13:50:15Z</time></trkpt><trkpt lat="43.62304" lon="11.71668"><ele>1128</ele><time>2012-05-28T13:50:17Z</time></trkpt><trkpt lat="43.62306" lon="11.71666"><ele>1131</ele><time>2012-05-28T13:50:18Z</time></trkpt><trkpt lat="43.62324" lon="11.71646"><ele>1132</ele><time>2012-05-28T13:50:25Z</time></trkpt><trkpt lat="43.62326" lon="11.71643"><ele>1132</ele><time>2012-05-28T13:50:26Z</time></trkpt><trkpt lat="43.62328" lon="11.71641"><ele>1132</ele><time>2012-05-28T13:50:27Z</time></trkpt><trkpt lat="43.62330" lon="11.71636"><ele>1134</ele><time>2012-05-28T13:50:29Z</time></trkpt><trkpt lat="43.62331" lon="11.71633"><ele>1134</ele><time>2012-05-28T13:50:30Z</time></trkpt><trkpt lat="43.62337" lon="11.71622"><ele>1130</ele><time>2012-05-28T13:50:34Z</time></trkpt><trkpt lat="43.62339" lon="11.71618"><ele>1131</ele><time>2012-05-28T13:50:35Z</time></trkpt><trkpt lat="43.62340" lon="11.71614"><ele>1132</ele><time>2012-05-28T13:50:36Z</time></trkpt><trkpt lat="43.62342" lon="11.71611"><ele>1132</ele><time>2012-05-28T13:50:37Z</time></trkpt><trkpt lat="43.62343" lon="11.71607"><ele>1132</ele><time>2012-05-28T13:50:38Z</time></trkpt><trkpt lat="43.62344" lon="11.71604"><ele>1133</ele><time>2012-05-28T13:50:39Z</time></trkpt><trkpt lat="43.62346" lon="11.71600"><ele>1135</ele><time>2012-05-28T13:50:40Z</time></trkpt><trkpt lat="43.62349" lon="11.71592"><ele>1134</ele><time>2012-05-28T13:50:43Z</time></trkpt><trkpt lat="43.62351" lon="11.71590"><ele>1134</ele><time>2012-05-28T13:50:44Z</time></trkpt><trkpt lat="43.62353" lon="11.71587"><ele>1134</ele><time>2012-05-28T13:50:45Z</time></trkpt><trkpt lat="43.62356" lon="11.71584"><ele>1129</ele><time>2012-05-28T13:50:47Z</time></trkpt><trkpt lat="43.62359" lon="11.71581"><ele>1128</ele><time>2012-05-28T13:50:49Z</time></trkpt><trkpt lat="43.62368" lon="11.71572"><ele>1128</ele><time>2012-05-28T13:50:54Z</time></trkpt><trkpt lat="43.62369" lon="11.71569"><ele>1131</ele><time>2012-05-28T13:50:55Z</time></trkpt><trkpt lat="43.62372" lon="11.71563"><ele>1131</ele><time>2012-05-28T13:50:58Z</time></trkpt><trkpt lat="43.62374" lon="11.71560"><ele>1134</ele><time>2012-05-28T13:51:00Z</time></trkpt><trkpt lat="43.62376" lon="11.71556"><ele>1136</ele><time>2012-05-28T13:51:02Z</time></trkpt><trkpt lat="43.62379" lon="11.71549"><ele>1135</ele><time>2012-05-28T13:51:05Z</time></trkpt><trkpt lat="43.62381" lon="11.71546"><ele>1136</ele><time>2012-05-28T13:51:07Z</time></trkpt><trkpt lat="43.62383" lon="11.71548"><ele>1132</ele><time>2012-05-28T13:51:08Z</time></trkpt><trkpt lat="43.62386" lon="11.71548"><ele>1130</ele><time>2012-05-28T13:51:10Z</time></trkpt><trkpt lat="43.62388" lon="11.71551"><ele>1131</ele><time>2012-05-28T13:51:11Z</time></trkpt><trkpt lat="43.62393" lon="11.71550"><ele>1135</ele><time>2012-05-28T13:51:14Z</time></trkpt><trkpt lat="43.62395" lon="11.71547"><ele>1136</ele><time>2012-05-28T13:51:16Z</time></trkpt><trkpt lat="43.62397" lon="11.71543"><ele>1137</ele><time>2012-05-28T13:51:18Z</time></trkpt><trkpt lat="43.62397" lon="11.71539"><ele>1141</ele><time>2012-05-28T13:51:19Z</time></trkpt><trkpt lat="43.62398" lon="11.71536"><ele>1140</ele><time>2012-05-28T13:51:20Z</time></trkpt><trkpt lat="43.62401" lon="11.71530"><ele>1132</ele><time>2012-05-28T13:51:23Z</time></trkpt><trkpt lat="43.62407" lon="11.71518"><ele>1135</ele><time>2012-05-28T13:51:30Z</time></trkpt><trkpt lat="43.62409" lon="11.71515"><ele>1136</ele><time>2012-05-28T13:51:32Z</time></trkpt><trkpt lat="43.62410" lon="11.71511"><ele>1138</ele><time>2012-05-28T13:51:34Z</time></trkpt><trkpt lat="43.62412" lon="11.71507"><ele>1138</ele><time>2012-05-28T13:51:36Z</time></trkpt><trkpt lat="43.62415" lon="11.71503"><ele>1139</ele><time>2012-05-28T13:51:39Z</time></trkpt><trkpt lat="43.62418" lon="11.71500"><ele>1139</ele><time>2012-05-28T13:51:41Z</time></trkpt><trkpt lat="43.62421" lon="11.71497"><ele>1138</ele><time>2012-05-28T13:51:43Z</time></trkpt><trkpt lat="43.62429" lon="11.71488"><ele>1142</ele><time>2012-05-28T13:51:49Z</time></trkpt><trkpt lat="43.62432" lon="11.71487"><ele>1141</ele><time>2012-05-28T13:51:51Z</time></trkpt><trkpt lat="43.62434" lon="11.71486"><ele>1142</ele><time>2012-05-28T13:51:53Z</time></trkpt><trkpt lat="43.62440" lon="11.71481"><ele>1148</ele><time>2012-05-28T13:51:57Z</time></trkpt><trkpt lat="43.62442" lon="11.71478"><ele>1148</ele><time>2012-05-28T13:51:58Z</time></trkpt><trkpt lat="43.62444" lon="11.71475"><ele>1146</ele><time>2012-05-28T13:52:00Z</time></trkpt><trkpt lat="43.62447" lon="11.71474"><ele>1146</ele><time>2012-05-28T13:52:02Z</time></trkpt><trkpt lat="43.62450" lon="11.71473"><ele>1146</ele><time>2012-05-28T13:52:04Z</time></trkpt><trkpt lat="43.62454" lon="11.71470"><ele>1147</ele><time>2012-05-28T13:52:06Z</time></trkpt><trkpt lat="43.62458" lon="11.71467"><ele>1150</ele><time>2012-05-28T13:52:09Z</time></trkpt><trkpt lat="43.62460" lon="11.71466"><ele>1152</ele><time>2012-05-28T13:52:11Z</time></trkpt><trkpt lat="43.62470" lon="11.71462"><ele>1152</ele><time>2012-05-28T13:52:17Z</time></trkpt><trkpt lat="43.62472" lon="11.71460"><ele>1151</ele><time>2012-05-28T13:52:19Z</time></trkpt><trkpt lat="43.62474" lon="11.71458"><ele>1151</ele><time>2012-05-28T13:52:21Z</time></trkpt><trkpt lat="43.62477" lon="11.71455"><ele>1150</ele><time>2012-05-28T13:52:24Z</time></trkpt><trkpt lat="43.62481" lon="11.71453"><ele>1152</ele><time>2012-05-28T13:52:26Z</time></trkpt><trkpt lat="43.62487" lon="11.71453"><ele>1148</ele><time>2012-05-28T13:52:29Z</time></trkpt><trkpt lat="43.62495" lon="11.71451"><ele>1150</ele><time>2012-05-28T13:52:36Z</time></trkpt><trkpt lat="43.62496" lon="11.71448"><ele>1151</ele><time>2012-05-28T13:52:47Z</time></trkpt><trkpt lat="43.62498" lon="11.71445"><ele>1151</ele><time>2012-05-28T13:52:49Z</time></trkpt><trkpt lat="43.62501" lon="11.71442"><ele>1154</ele><time>2012-05-28T13:52:51Z</time></trkpt><trkpt lat="43.62503" lon="11.71440"><ele>1154</ele><time>2012-05-28T13:52:52Z</time></trkpt><trkpt lat="43.62521" lon="11.71427"><ele>1154</ele><time>2012-05-28T13:53:00Z</time></trkpt><trkpt lat="43.62527" lon="11.71424"><ele>1153</ele><time>2012-05-28T13:53:02Z</time></trkpt><trkpt lat="43.62530" lon="11.71424"><ele>1152</ele><time>2012-05-28T13:53:03Z</time></trkpt><trkpt lat="43.62542" lon="11.71421"><ele>1152</ele><time>2012-05-28T13:53:07Z</time></trkpt><trkpt lat="43.62545" lon="11.71418"><ele>1156</ele><time>2012-05-28T13:53:08Z</time></trkpt><trkpt lat="43.62546" lon="11.71414"><ele>1156</ele><time>2012-05-28T13:53:09Z</time></trkpt><trkpt lat="43.62553" lon="11.71403"><ele>1158</ele><time>2012-05-28T13:53:13Z</time></trkpt><trkpt lat="43.62557" lon="11.71402"><ele>1159</ele><time>2012-05-28T13:53:15Z</time></trkpt><trkpt lat="43.62565" lon="11.71398"><ele>1162</ele><time>2012-05-28T13:53:18Z</time></trkpt><trkpt lat="43.62567" lon="11.71396"><ele>1163</ele><time>2012-05-28T13:53:19Z</time></trkpt><trkpt lat="43.62570" lon="11.71394"><ele>1163</ele><time>2012-05-28T13:53:20Z</time></trkpt><trkpt lat="43.62579" lon="11.71388"><ele>1163</ele><time>2012-05-28T13:53:23Z</time></trkpt><trkpt lat="43.62587" lon="11.71380"><ele>1163</ele><time>2012-05-28T13:53:26Z</time></trkpt><trkpt lat="43.62590" lon="11.71376"><ele>1163</ele><time>2012-05-28T13:53:27Z</time></trkpt><trkpt lat="43.62597" lon="11.71363"><ele>1163</ele><time>2012-05-28T13:53:30Z</time></trkpt><trkpt lat="43.62600" lon="11.71360"><ele>1163</ele><time>2012-05-28T13:53:31Z</time></trkpt><trkpt lat="43.62603" lon="11.71357"><ele>1162</ele><time>2012-05-28T13:53:32Z</time></trkpt><trkpt lat="43.62611" lon="11.71352"><ele>1162</ele><time>2012-05-28T13:53:34Z</time></trkpt><trkpt lat="43.62614" lon="11.71350"><ele>1162</ele><time>2012-05-28T13:53:35Z</time></trkpt><trkpt lat="43.62623" lon="11.71344"><ele>1162</ele><time>2012-05-28T13:53:38Z</time></trkpt><trkpt lat="43.62625" lon="11.71342"><ele>1162</ele><time>2012-05-28T13:53:39Z</time></trkpt><trkpt lat="43.62626" lon="11.71339"><ele>1161</ele><time>2012-05-28T13:53:40Z</time></trkpt><trkpt lat="43.62628" lon="11.71336"><ele>1161</ele><time>2012-05-28T13:53:41Z</time></trkpt><trkpt lat="43.62634" lon="11.71330"><ele>1154</ele><time>2012-05-28T13:53:44Z</time></trkpt><trkpt lat="43.62637" lon="11.71330"><ele>1153</ele><time>2012-05-28T13:53:45Z</time></trkpt><trkpt lat="43.62648" lon="11.71330"><ele>1153</ele><time>2012-05-28T13:53:48Z</time></trkpt><trkpt lat="43.62651" lon="11.71329"><ele>1153</ele><time>2012-05-28T13:53:49Z</time></trkpt><trkpt lat="43.62653" lon="11.71326"><ele>1152</ele><time>2012-05-28T13:53:50Z</time></trkpt><trkpt lat="43.62656" lon="11.71324"><ele>1152</ele><time>2012-05-28T13:53:51Z</time></trkpt><trkpt lat="43.62657" lon="11.71320"><ele>1152</ele><time>2012-05-28T13:53:52Z</time></trkpt><trkpt lat="43.62657" lon="11.71312"><ele>1153</ele><time>2012-05-28T13:53:53Z</time></trkpt><trkpt lat="43.62658" lon="11.71309"><ele>1153</ele><time>2012-05-28T13:53:54Z</time></trkpt><trkpt lat="43.62659" lon="11.71303"><ele>1153</ele><time>2012-05-28T13:53:55Z</time></trkpt><trkpt lat="43.62658" lon="11.71298"><ele>1153</ele><time>2012-05-28T13:53:56Z</time></trkpt><trkpt lat="43.62659" lon="11.71293"><ele>1155</ele><time>2012-05-28T13:53:57Z</time></trkpt><trkpt lat="43.62659" lon="11.71289"><ele>1156</ele><time>2012-05-28T13:53:58Z</time></trkpt><trkpt lat="43.62660" lon="11.71286"><ele>1156</ele><time>2012-05-28T13:53:59Z</time></trkpt><trkpt lat="43.62661" lon="11.71281"><ele>1160</ele><time>2012-05-28T13:54:01Z</time></trkpt><trkpt lat="43.62663" lon="11.71277"><ele>1160</ele><time>2012-05-28T13:54:03Z</time></trkpt><trkpt lat="43.62670" lon="11.71265"><ele>1160</ele><time>2012-05-28T13:54:08Z</time></trkpt><trkpt lat="43.62672" lon="11.71262"><ele>1160</ele><time>2012-05-28T13:54:09Z</time></trkpt><trkpt lat="43.62679" lon="11.71252"><ele>1159</ele><time>2012-05-28T13:54:12Z</time></trkpt><trkpt lat="43.62680" lon="11.71249"><ele>1159</ele><time>2012-05-28T13:54:13Z</time></trkpt><trkpt lat="43.62684" lon="11.71241"><ele>1160</ele><time>2012-05-28T13:54:16Z</time></trkpt><trkpt lat="43.62685" lon="11.71238"><ele>1159</ele><time>2012-05-28T13:54:17Z</time></trkpt><trkpt lat="43.62687" lon="11.71235"><ele>1160</ele><time>2012-05-28T13:54:18Z</time></trkpt><trkpt lat="43.62688" lon="11.71231"><ele>1160</ele><time>2012-05-28T13:54:19Z</time></trkpt><trkpt lat="43.62690" lon="11.71226"><ele>1160</ele><time>2012-05-28T13:54:21Z</time></trkpt><trkpt lat="43.62691" lon="11.71222"><ele>1161</ele><time>2012-05-28T13:54:23Z</time></trkpt><trkpt lat="43.62693" lon="11.71218"><ele>1160</ele><time>2012-05-28T13:54:25Z</time></trkpt><trkpt lat="43.62695" lon="11.71213"><ele>1160</ele><time>2012-05-28T13:54:27Z</time></trkpt><trkpt lat="43.62696" lon="11.71209"><ele>1160</ele><time>2012-05-28T13:54:29Z</time></trkpt><trkpt lat="43.62696" lon="11.71203"><ele>1158</ele><time>2012-05-28T13:54:31Z</time></trkpt><trkpt lat="43.62695" lon="11.71199"><ele>1158</ele><time>2012-05-28T13:54:32Z</time></trkpt><trkpt lat="43.62694" lon="11.71195"><ele>1157</ele><time>2012-05-28T13:54:33Z</time></trkpt><trkpt lat="43.62693" lon="11.71192"><ele>1157</ele><time>2012-05-28T13:54:34Z</time></trkpt><trkpt lat="43.62690" lon="11.71179"><ele>1159</ele><time>2012-05-28T13:54:38Z</time></trkpt><trkpt lat="43.62690" lon="11.71176"><ele>1159</ele><time>2012-05-28T13:54:39Z</time></trkpt><trkpt lat="43.62691" lon="11.71172"><ele>1160</ele><time>2012-05-28T13:54:40Z</time></trkpt><trkpt lat="43.62692" lon="11.71168"><ele>1160</ele><time>2012-05-28T13:54:41Z</time></trkpt><trkpt lat="43.62699" lon="11.71160"><ele>1156</ele><time>2012-05-28T13:54:43Z</time></trkpt><trkpt lat="43.62714" lon="11.71148"><ele>1156</ele><time>2012-05-28T13:54:45Z</time></trkpt><trkpt lat="43.62717" lon="11.71144"><ele>1155</ele><time>2012-05-28T13:54:46Z</time></trkpt><trkpt lat="43.62725" lon="11.71137"><ele>1154</ele><time>2012-05-28T13:54:48Z</time></trkpt><trkpt lat="43.62730" lon="11.71134"><ele>1153</ele><time>2012-05-28T13:54:49Z</time></trkpt><trkpt lat="43.62735" lon="11.71130"><ele>1152</ele><time>2012-05-28T13:54:50Z</time></trkpt><trkpt lat="43.62734" lon="11.71121"><ele>1152</ele><time>2012-05-28T13:54:51Z</time></trkpt><trkpt lat="43.62733" lon="11.71099"><ele>1154</ele><time>2012-05-28T13:54:53Z</time></trkpt><trkpt lat="43.62734" lon="11.71089"><ele>1154</ele><time>2012-05-28T13:54:54Z</time></trkpt><trkpt lat="43.62735" lon="11.71079"><ele>1154</ele><time>2012-05-28T13:54:55Z</time></trkpt><trkpt lat="43.62735" lon="11.71062"><ele>1153</ele><time>2012-05-28T13:54:57Z</time></trkpt><trkpt lat="43.62737" lon="11.71056"><ele>1152</ele><time>2012-05-28T13:54:58Z</time></trkpt><trkpt lat="43.62743" lon="11.71041"><ele>1153</ele><time>2012-05-28T13:55:00Z</time></trkpt><trkpt lat="43.62745" lon="11.71035"><ele>1153</ele><time>2012-05-28T13:55:01Z</time></trkpt><trkpt lat="43.62750" lon="11.71030"><ele>1154</ele><time>2012-05-28T13:55:02Z</time></trkpt><trkpt lat="43.62752" lon="11.71024"><ele>1154</ele><time>2012-05-28T13:55:03Z</time></trkpt><trkpt lat="43.62754" lon="11.71006"><ele>1156</ele><time>2012-05-28T13:55:06Z</time></trkpt><trkpt lat="43.62757" lon="11.71001"><ele>1156</ele><time>2012-05-28T13:55:07Z</time></trkpt><trkpt lat="43.62761" lon="11.70996"><ele>1155</ele><time>2012-05-28T13:55:08Z</time></trkpt><trkpt lat="43.62766" lon="11.70991"><ele>1155</ele><time>2012-05-28T13:55:09Z</time></trkpt><trkpt lat="43.62769" lon="11.70987"><ele>1155</ele><time>2012-05-28T13:55:10Z</time></trkpt><trkpt lat="43.62770" lon="11.70981"><ele>1151</ele><time>2012-05-28T13:55:12Z</time></trkpt><trkpt lat="43.62771" lon="11.70974"><ele>1153</ele><time>2012-05-28T13:55:14Z</time></trkpt><trkpt lat="43.62776" lon="11.70961"><ele>1156</ele><time>2012-05-28T13:55:18Z</time></trkpt><trkpt lat="43.62777" lon="11.70959"><ele>1157</ele><time>2012-05-28T13:55:19Z</time></trkpt><trkpt lat="43.62781" lon="11.70952"><ele>1155</ele><time>2012-05-28T13:55:22Z</time></trkpt><trkpt lat="43.62787" lon="11.70942"><ele>1157</ele><time>2012-05-28T13:55:27Z</time></trkpt><trkpt lat="43.62790" lon="11.70939"><ele>1162</ele><time>2012-05-28T13:55:29Z</time></trkpt><trkpt lat="43.62793" lon="11.70936"><ele>1161</ele><time>2012-05-28T13:55:31Z</time></trkpt><trkpt lat="43.62794" lon="11.70931"><ele>1161</ele><time>2012-05-28T13:55:33Z</time></trkpt><trkpt lat="43.62795" lon="11.70926"><ele>1161</ele><time>2012-05-28T13:55:35Z</time></trkpt><trkpt lat="43.62795" lon="11.70921"><ele>1161</ele><time>2012-05-28T13:55:37Z</time></trkpt><trkpt lat="43.62793" lon="11.70916"><ele>1161</ele><time>2012-05-28T13:55:39Z</time></trkpt><trkpt lat="43.62790" lon="11.70913"><ele>1162</ele><time>2012-05-28T13:55:41Z</time></trkpt><trkpt lat="43.62789" lon="11.70911"><ele>1163</ele><time>2012-05-28T13:55:43Z</time></trkpt><trkpt lat="43.62786" lon="11.70907"><ele>1161</ele><time>2012-05-28T13:55:46Z</time></trkpt><trkpt lat="43.62785" lon="11.70904"><ele>1160</ele><time>2012-05-28T13:55:47Z</time></trkpt><trkpt lat="43.62783" lon="11.70898"><ele>1160</ele><time>2012-05-28T13:55:49Z</time></trkpt><trkpt lat="43.62784" lon="11.70894"><ele>1160</ele><time>2012-05-28T13:55:50Z</time></trkpt><trkpt lat="43.62787" lon="11.70889"><ele>1159</ele><time>2012-05-28T13:55:51Z</time></trkpt><trkpt lat="43.62789" lon="11.70886"><ele>1159</ele><time>2012-05-28T13:55:52Z</time></trkpt><trkpt lat="43.62792" lon="11.70883"><ele>1159</ele><time>2012-05-28T13:55:53Z</time></trkpt><trkpt lat="43.62800" lon="11.70878"><ele>1157</ele><time>2012-05-28T13:55:55Z</time></trkpt><trkpt lat="43.62808" lon="11.70874"><ele>1157</ele><time>2012-05-28T13:55:57Z</time></trkpt><trkpt lat="43.62824" lon="11.70868"><ele>1158</ele><time>2012-05-28T13:55:58Z</time></trkpt><trkpt lat="43.62835" lon="11.70857"><ele>1158</ele><time>2012-05-28T13:56:00Z</time></trkpt><trkpt lat="43.62843" lon="11.70849"><ele>1157</ele><time>2012-05-28T13:56:02Z</time></trkpt><trkpt lat="43.62849" lon="11.70836"><ele>1157</ele><time>2012-05-28T13:56:04Z</time></trkpt><trkpt lat="43.62851" lon="11.70830"><ele>1156</ele><time>2012-05-28T13:56:05Z</time></trkpt><trkpt lat="43.62847" lon="11.70823"><ele>1155</ele><time>2012-05-28T13:56:06Z</time></trkpt><trkpt lat="43.62847" lon="11.70817"><ele>1153</ele><time>2012-05-28T13:56:07Z</time></trkpt><trkpt lat="43.62849" lon="11.70810"><ele>1152</ele><time>2012-05-28T13:56:08Z</time></trkpt><trkpt lat="43.62850" lon="11.70806"><ele>1148</ele><time>2012-05-28T13:56:09Z</time></trkpt><trkpt lat="43.62851" lon="11.70800"><ele>1146</ele><time>2012-05-28T13:56:10Z</time></trkpt><trkpt lat="43.62851" lon="11.70782"><ele>1144</ele><time>2012-05-28T13:56:13Z</time></trkpt><trkpt lat="43.62851" lon="11.70777"><ele>1143</ele><time>2012-05-28T13:56:14Z</time></trkpt><trkpt lat="43.62851" lon="11.70771"><ele>1144</ele><time>2012-05-28T13:56:15Z</time></trkpt><trkpt lat="43.62851" lon="11.70765"><ele>1146</ele><time>2012-05-28T13:56:16Z</time></trkpt><trkpt lat="43.62851" lon="11.70761"><ele>1146</ele><time>2012-05-28T13:56:17Z</time></trkpt><trkpt lat="43.62850" lon="11.70756"><ele>1146</ele><time>2012-05-28T13:56:18Z</time></trkpt><trkpt lat="43.62850" lon="11.70752"><ele>1146</ele><time>2012-05-28T13:56:19Z</time></trkpt><trkpt lat="43.62853" lon="11.70748"><ele>1147</ele><time>2012-05-28T13:56:20Z</time></trkpt><trkpt lat="43.62854" lon="11.70744"><ele>1147</ele><time>2012-05-28T13:56:21Z</time></trkpt><trkpt lat="43.62854" lon="11.70740"><ele>1146</ele><time>2012-05-28T13:56:22Z</time></trkpt><trkpt lat="43.62854" lon="11.70736"><ele>1146</ele><time>2012-05-28T13:56:23Z</time></trkpt><trkpt lat="43.62854" lon="11.70721"><ele>1147</ele><time>2012-05-28T13:56:27Z</time></trkpt><trkpt lat="43.62854" lon="11.70718"><ele>1147</ele><time>2012-05-28T13:56:28Z</time></trkpt><trkpt lat="43.62852" lon="11.70713"><ele>1149</ele><time>2012-05-28T13:56:30Z</time></trkpt><trkpt lat="43.62851" lon="11.70709"><ele>1150</ele><time>2012-05-28T13:56:32Z</time></trkpt><trkpt lat="43.62850" lon="11.70705"><ele>1151</ele><time>2012-05-28T13:56:33Z</time></trkpt><trkpt lat="43.62850" lon="11.70702"><ele>1152</ele><time>2012-05-28T13:56:34Z</time></trkpt><trkpt lat="43.62849" lon="11.70689"><ele>1153</ele><time>2012-05-28T13:56:39Z</time></trkpt><trkpt lat="43.62849" lon="11.70684"><ele>1153</ele><time>2012-05-28T13:56:41Z</time></trkpt><trkpt lat="43.62849" lon="11.70678"><ele>1154</ele><time>2012-05-28T13:56:43Z</time></trkpt><trkpt lat="43.62852" lon="11.70667"><ele>1151</ele><time>2012-05-28T13:56:47Z</time></trkpt><trkpt lat="43.62854" lon="11.70665"><ele>1151</ele><time>2012-05-28T13:56:48Z</time></trkpt><trkpt lat="43.62862" lon="11.70657"><ele>1150</ele><time>2012-05-28T13:56:52Z</time></trkpt><trkpt lat="43.62867" lon="11.70653"><ele>1150</ele><time>2012-05-28T13:56:55Z</time></trkpt><trkpt lat="43.62870" lon="11.70650"><ele>1151</ele><time>2012-05-28T13:56:57Z</time></trkpt><trkpt lat="43.62872" lon="11.70645"><ele>1151</ele><time>2012-05-28T13:56:59Z</time></trkpt><trkpt lat="43.62873" lon="11.70637"><ele>1148</ele><time>2012-05-28T13:57:02Z</time></trkpt><trkpt lat="43.62872" lon="11.70633"><ele>1149</ele><time>2012-05-28T13:57:04Z</time></trkpt><trkpt lat="43.62871" lon="11.70627"><ele>1151</ele><time>2012-05-28T13:57:06Z</time></trkpt><trkpt lat="43.62871" lon="11.70619"><ele>1153</ele><time>2012-05-28T13:57:10Z</time></trkpt><trkpt lat="43.62869" lon="11.70615"><ele>1157</ele><time>2012-05-28T13:57:22Z</time></trkpt><trkpt lat="43.62871" lon="11.70612"><ele>1156</ele><time>2012-05-28T13:57:52Z</time></trkpt><trkpt lat="43.62873" lon="11.70615"><ele>1155</ele><time>2012-05-28T13:57:56Z</time></trkpt><trkpt lat="43.62872" lon="11.70621"><ele>1154</ele><time>2012-05-28T13:57:59Z</time></trkpt><trkpt lat="43.62869" lon="11.70628"><ele>1153</ele><time>2012-05-28T13:58:01Z</time></trkpt><trkpt lat="43.62858" lon="11.70658"><ele>1154</ele><time>2012-05-28T13:58:07Z</time></trkpt><trkpt lat="43.62857" lon="11.70663"><ele>1154</ele><time>2012-05-28T13:58:08Z</time></trkpt><trkpt lat="43.62854" lon="11.70672"><ele>1153</ele><time>2012-05-28T13:58:10Z</time></trkpt><trkpt lat="43.62855" lon="11.70682"><ele>1152</ele><time>2012-05-28T13:58:12Z</time></trkpt><trkpt lat="43.62859" lon="11.70693"><ele>1153</ele><time>2012-05-28T13:58:14Z</time></trkpt><trkpt lat="43.62866" lon="11.70719"><ele>1153</ele><time>2012-05-28T13:58:16Z</time></trkpt><trkpt lat="43.62866" lon="11.70728"><ele>1153</ele><time>2012-05-28T13:58:17Z</time></trkpt><trkpt lat="43.62867" lon="11.70736"><ele>1152</ele><time>2012-05-28T13:58:18Z</time></trkpt><trkpt lat="43.62869" lon="11.70749"><ele>1151</ele><time>2012-05-28T13:58:21Z</time></trkpt><trkpt lat="43.62871" lon="11.70751"><ele>1151</ele><time>2012-05-28T13:58:22Z</time></trkpt><trkpt lat="43.62874" lon="11.70756"><ele>1152</ele><time>2012-05-28T13:58:24Z</time></trkpt><trkpt lat="43.62878" lon="11.70756"><ele>1152</ele><time>2012-05-28T13:58:26Z</time></trkpt><trkpt lat="43.62878" lon="11.70752"><ele>1151</ele><time>2012-05-28T13:58:28Z</time></trkpt><trkpt lat="43.62878" lon="11.70748"><ele>1152</ele><time>2012-05-28T13:58:31Z</time></trkpt><trkpt lat="43.62881" lon="11.70746"><ele>1152</ele><time>2012-05-28T13:58:36Z</time></trkpt><trkpt lat="43.62886" lon="11.70746"><ele>1156</ele><time>2012-05-28T13:58:52Z</time></trkpt><trkpt lat="43.62887" lon="11.70749"><ele>1155</ele><time>2012-05-28T13:58:57Z</time></trkpt><trkpt lat="43.62887" lon="11.70753"><ele>1151</ele><time>2012-05-28T13:59:02Z</time></trkpt><trkpt lat="43.62889" lon="11.70756"><ele>1149</ele><time>2012-05-28T13:59:07Z</time></trkpt><trkpt lat="43.62888" lon="11.70759"><ele>1150</ele><time>2012-05-28T13:59:10Z</time></trkpt><trkpt lat="43.62886" lon="11.70760"><ele>1149</ele><time>2012-05-28T13:59:13Z</time></trkpt><trkpt lat="43.62884" lon="11.70762"><ele>1143</ele><time>2012-05-28T13:59:16Z</time></trkpt><trkpt lat="43.62881" lon="11.70763"><ele>1139</ele><time>2012-05-28T13:59:21Z</time></trkpt><trkpt lat="43.62879" lon="11.70762"><ele>1139</ele><time>2012-05-28T13:59:23Z</time></trkpt><trkpt lat="43.62872" lon="11.70759"><ele>1141</ele><time>2012-05-28T13:59:29Z</time></trkpt><trkpt lat="43.62869" lon="11.70760"><ele>1141</ele><time>2012-05-28T13:59:31Z</time></trkpt><trkpt lat="43.62866" lon="11.70759"><ele>1142</ele><time>2012-05-28T13:59:33Z</time></trkpt><trkpt lat="43.62863" lon="11.70756"><ele>1143</ele><time>2012-05-28T13:59:35Z</time></trkpt><trkpt lat="43.62861" lon="11.70750"><ele>1143</ele><time>2012-05-28T13:59:37Z</time></trkpt><trkpt lat="43.62860" lon="11.70746"><ele>1143</ele><time>2012-05-28T13:59:38Z</time></trkpt><trkpt lat="43.62860" lon="11.70743"><ele>1143</ele><time>2012-05-28T13:59:39Z</time></trkpt><trkpt lat="43.62859" lon="11.70737"><ele>1144</ele><time>2012-05-28T13:59:41Z</time></trkpt><trkpt lat="43.62858" lon="11.70728"><ele>1142</ele><time>2012-05-28T13:59:45Z</time></trkpt><trkpt lat="43.62857" lon="11.70723"><ele>1143</ele><time>2012-05-28T13:59:47Z</time></trkpt><trkpt lat="43.62856" lon="11.70718"><ele>1144</ele><time>2012-05-28T13:59:49Z</time></trkpt><trkpt lat="43.62854" lon="11.70715"><ele>1144</ele><time>2012-05-28T13:59:51Z</time></trkpt><trkpt lat="43.62853" lon="11.70711"><ele>1145</ele><time>2012-05-28T13:59:53Z</time></trkpt><trkpt lat="43.62854" lon="11.70706"><ele>1145</ele><time>2012-05-28T13:59:55Z</time></trkpt><trkpt lat="43.62854" lon="11.70702"><ele>1146</ele><time>2012-05-28T13:59:57Z</time></trkpt><trkpt lat="43.62853" lon="11.70697"><ele>1146</ele><time>2012-05-28T13:59:59Z</time></trkpt><trkpt lat="43.62852" lon="11.70693"><ele>1147</ele><time>2012-05-28T14:00:01Z</time></trkpt><trkpt lat="43.62852" lon="11.70689"><ele>1148</ele><time>2012-05-28T14:00:04Z</time></trkpt><trkpt lat="43.62851" lon="11.70686"><ele>1150</ele><time>2012-05-28T14:00:06Z</time></trkpt><trkpt lat="43.62849" lon="11.70673"><ele>1148</ele><time>2012-05-28T14:00:12Z</time></trkpt><trkpt lat="43.62850" lon="11.70669"><ele>1152</ele><time>2012-05-28T14:00:13Z</time></trkpt><trkpt lat="43.62851" lon="11.70664"><ele>1152</ele><time>2012-05-28T14:00:15Z</time></trkpt><trkpt lat="43.62851" lon="11.70660"><ele>1150</ele><time>2012-05-28T14:00:18Z</time></trkpt><trkpt lat="43.62848" lon="11.70661"><ele>1149</ele><time>2012-05-28T14:00:20Z</time></trkpt><trkpt lat="43.62850" lon="11.70658"><ele>1152</ele><time>2012-05-28T14:00:23Z</time></trkpt><trkpt lat="43.62852" lon="11.70653"><ele>1152</ele><time>2012-05-28T14:00:25Z</time></trkpt><trkpt lat="43.62856" lon="11.70642"><ele>1155</ele><time>2012-05-28T14:00:28Z</time></trkpt><trkpt lat="43.62857" lon="11.70639"><ele>1159</ele><time>2012-05-28T14:00:29Z</time></trkpt><trkpt lat="43.62856" lon="11.70634"><ele>1155</ele><time>2012-05-28T14:00:34Z</time></trkpt><trkpt lat="43.62856" lon="11.70630"><ele>1156</ele><time>2012-05-28T14:00:38Z</time></trkpt><trkpt lat="43.62857" lon="11.70627"><ele>1158</ele><time>2012-05-28T14:00:41Z</time></trkpt><trkpt lat="43.62857" lon="11.70621"><ele>1160</ele><time>2012-05-28T14:00:43Z</time></trkpt><trkpt lat="43.62857" lon="11.70592"><ele>1159</ele><time>2012-05-28T14:00:50Z</time></trkpt><trkpt lat="43.62859" lon="11.70589"><ele>1163</ele><time>2012-05-28T14:00:53Z</time></trkpt><trkpt lat="43.62862" lon="11.70588"><ele>1163</ele><time>2012-05-28T14:00:56Z</time></trkpt><trkpt lat="43.62868" lon="11.70590"><ele>1164</ele><time>2012-05-28T14:00:58Z</time></trkpt><trkpt lat="43.62873" lon="11.70591"><ele>1165</ele><time>2012-05-28T14:01:02Z</time></trkpt><trkpt lat="43.62873" lon="11.70595"><ele>1166</ele><time>2012-05-28T14:01:07Z</time></trkpt><trkpt lat="43.62875" lon="11.70595"><ele>1168</ele><time>2012-05-28T14:01:10Z</time></trkpt><trkpt lat="43.62877" lon="11.70593"><ele>1171</ele><time>2012-05-28T14:01:12Z</time></trkpt><trkpt lat="43.62879" lon="11.70590"><ele>1171</ele><time>2012-05-28T14:01:14Z</time></trkpt><trkpt lat="43.62881" lon="11.70587"><ele>1172</ele><time>2012-05-28T14:01:17Z</time></trkpt><trkpt lat="43.62882" lon="11.70583"><ele>1172</ele><time>2012-05-28T14:01:20Z</time></trkpt><trkpt lat="43.62884" lon="11.70578"><ele>1172</ele><time>2012-05-28T14:01:23Z</time></trkpt><trkpt lat="43.62885" lon="11.70572"><ele>1172</ele><time>2012-05-28T14:01:28Z</time></trkpt><trkpt lat="43.62885" lon="11.70567"><ele>1172</ele><time>2012-05-28T14:01:31Z</time></trkpt><trkpt lat="43.62887" lon="11.70564"><ele>1168</ele><time>2012-05-28T14:01:33Z</time></trkpt><trkpt lat="43.62889" lon="11.70558"><ele>1167</ele><time>2012-05-28T14:01:35Z</time></trkpt><trkpt lat="43.62893" lon="11.70552"><ele>1168</ele><time>2012-05-28T14:01:38Z</time></trkpt><trkpt lat="43.62892" lon="11.70549"><ele>1177</ele><time>2012-05-28T14:01:45Z</time></trkpt><trkpt lat="43.62894" lon="11.70543"><ele>1176</ele><time>2012-05-28T14:01:48Z</time></trkpt><trkpt lat="43.62894" lon="11.70540"><ele>1177</ele><time>2012-05-28T14:01:49Z</time></trkpt><trkpt lat="43.62894" lon="11.70534"><ele>1177</ele><time>2012-05-28T14:01:51Z</time></trkpt><trkpt lat="43.62894" lon="11.70530"><ele>1175</ele><time>2012-05-28T14:01:54Z</time></trkpt><trkpt lat="43.62895" lon="11.70528"><ele>1179</ele><time>2012-05-28T14:02:00Z</time></trkpt><trkpt lat="43.62898" lon="11.70526"><ele>1182</ele><time>2012-05-28T14:02:04Z</time></trkpt><trkpt lat="43.62898" lon="11.70522"><ele>1181</ele><time>2012-05-28T14:02:07Z</time></trkpt><trkpt lat="43.62900" lon="11.70517"><ele>1181</ele><time>2012-05-28T14:02:10Z</time></trkpt><trkpt lat="43.62902" lon="11.70513"><ele>1181</ele><time>2012-05-28T14:02:12Z</time></trkpt><trkpt lat="43.62902" lon="11.70510"><ele>1182</ele><time>2012-05-28T14:02:14Z</time></trkpt><trkpt lat="43.62903" lon="11.70507"><ele>1180</ele><time>2012-05-28T14:02:17Z</time></trkpt><trkpt lat="43.62903" lon="11.70503"><ele>1184</ele><time>2012-05-28T14:02:20Z</time></trkpt><trkpt lat="43.62903" lon="11.70500"><ele>1185</ele><time>2012-05-28T14:02:24Z</time></trkpt><trkpt lat="43.62904" lon="11.70497"><ele>1186</ele><time>2012-05-28T14:02:26Z</time></trkpt><trkpt lat="43.62906" lon="11.70494"><ele>1189</ele><time>2012-05-28T14:02:28Z</time></trkpt><trkpt lat="43.62909" lon="11.70493"><ele>1190</ele><time>2012-05-28T14:02:30Z</time></trkpt><trkpt lat="43.62910" lon="11.70491"><ele>1190</ele><time>2012-05-28T14:02:33Z</time></trkpt><trkpt lat="43.62911" lon="11.70487"><ele>1190</ele><time>2012-05-28T14:02:37Z</time></trkpt><trkpt lat="43.62912" lon="11.70484"><ele>1190</ele><time>2012-05-28T14:02:39Z</time></trkpt><trkpt lat="43.62914" lon="11.70469"><ele>1189</ele><time>2012-05-28T14:02:50Z</time></trkpt><trkpt lat="43.62915" lon="11.70465"><ele>1190</ele><time>2012-05-28T14:02:52Z</time></trkpt><trkpt lat="43.62916" lon="11.70461"><ele>1191</ele><time>2012-05-28T14:02:54Z</time></trkpt><trkpt lat="43.62918" lon="11.70450"><ele>1190</ele><time>2012-05-28T14:03:00Z</time></trkpt><trkpt lat="43.62918" lon="11.70447"><ele>1190</ele><time>2012-05-28T14:03:02Z</time></trkpt><trkpt lat="43.62918" lon="11.70443"><ele>1187</ele><time>2012-05-28T14:03:04Z</time></trkpt><trkpt lat="43.62918" lon="11.70439"><ele>1190</ele><time>2012-05-28T14:03:06Z</time></trkpt><trkpt lat="43.62919" lon="11.70436"><ele>1190</ele><time>2012-05-28T14:03:08Z</time></trkpt><trkpt lat="43.62928" lon="11.70410"><ele>1193</ele><time>2012-05-28T14:03:18Z</time></trkpt><trkpt lat="43.62929" lon="11.70407"><ele>1193</ele><time>2012-05-28T14:03:19Z</time></trkpt><trkpt lat="43.62929" lon="11.70403"><ele>1193</ele><time>2012-05-28T14:03:20Z</time></trkpt><trkpt lat="43.62930" lon="11.70400"><ele>1193</ele><time>2012-05-28T14:03:21Z</time></trkpt><trkpt lat="43.62931" lon="11.70395"><ele>1192</ele><time>2012-05-28T14:03:23Z</time></trkpt><trkpt lat="43.62933" lon="11.70391"><ele>1192</ele><time>2012-05-28T14:03:25Z</time></trkpt><trkpt lat="43.62934" lon="11.70385"><ele>1191</ele><time>2012-05-28T14:03:27Z</time></trkpt><trkpt lat="43.62934" lon="11.70382"><ele>1191</ele><time>2012-05-28T14:03:28Z</time></trkpt><trkpt lat="43.62933" lon="11.70379"><ele>1191</ele><time>2012-05-28T14:03:29Z</time></trkpt><trkpt lat="43.62933" lon="11.70374"><ele>1192</ele><time>2012-05-28T14:03:31Z</time></trkpt><trkpt lat="43.62933" lon="11.70370"><ele>1191</ele><time>2012-05-28T14:03:33Z</time></trkpt><trkpt lat="43.62933" lon="11.70366"><ele>1190</ele><time>2012-05-28T14:03:35Z</time></trkpt><trkpt lat="43.62935" lon="11.70363"><ele>1189</ele><time>2012-05-28T14:03:39Z</time></trkpt><trkpt lat="43.62937" lon="11.70361"><ele>1190</ele><time>2012-05-28T14:03:41Z</time></trkpt><trkpt lat="43.62938" lon="11.70357"><ele>1190</ele><time>2012-05-28T14:03:43Z</time></trkpt><trkpt lat="43.62944" lon="11.70347"><ele>1194</ele><time>2012-05-28T14:03:53Z</time></trkpt><trkpt lat="43.62948" lon="11.70337"><ele>1202</ele><time>2012-05-28T14:04:04Z</time></trkpt><trkpt lat="43.62946" lon="11.70334"><ele>1202</ele><time>2012-05-28T14:04:07Z</time></trkpt><trkpt lat="43.62944" lon="11.70332"><ele>1205</ele><time>2012-05-28T14:04:09Z</time></trkpt><trkpt lat="43.62942" lon="11.70329"><ele>1206</ele><time>2012-05-28T14:04:11Z</time></trkpt><trkpt lat="43.62940" lon="11.70326"><ele>1205</ele><time>2012-05-28T14:04:14Z</time></trkpt><trkpt lat="43.62938" lon="11.70324"><ele>1206</ele><time>2012-05-28T14:04:17Z</time></trkpt><trkpt lat="43.62935" lon="11.70324"><ele>1206</ele><time>2012-05-28T14:04:19Z</time></trkpt><trkpt lat="43.62934" lon="11.70320"><ele>1204</ele><time>2012-05-28T14:04:22Z</time></trkpt><trkpt lat="43.62932" lon="11.70316"><ele>1205</ele><time>2012-05-28T14:04:26Z</time></trkpt><trkpt lat="43.62927" lon="11.70305"><ele>1205</ele><time>2012-05-28T14:04:34Z</time></trkpt><trkpt lat="43.62928" lon="11.70301"><ele>1205</ele><time>2012-05-28T14:04:38Z</time></trkpt><trkpt lat="43.62926" lon="11.70298"><ele>1203</ele><time>2012-05-28T14:04:42Z</time></trkpt><trkpt lat="43.62925" lon="11.70295"><ele>1204</ele><time>2012-05-28T14:04:44Z</time></trkpt><trkpt lat="43.62925" lon="11.70291"><ele>1203</ele><time>2012-05-28T14:04:46Z</time></trkpt><trkpt lat="43.62926" lon="11.70286"><ele>1203</ele><time>2012-05-28T14:04:48Z</time></trkpt><trkpt lat="43.62927" lon="11.70281"><ele>1204</ele><time>2012-05-28T14:04:50Z</time></trkpt><trkpt lat="43.62929" lon="11.70277"><ele>1202</ele><time>2012-05-28T14:04:52Z</time></trkpt><trkpt lat="43.62932" lon="11.70273"><ele>1201</ele><time>2012-05-28T14:04:54Z</time></trkpt><trkpt lat="43.62939" lon="11.70263"><ele>1200</ele><time>2012-05-28T14:04:59Z</time></trkpt><trkpt lat="43.62941" lon="11.70258"><ele>1200</ele><time>2012-05-28T14:05:01Z</time></trkpt><trkpt lat="43.62941" lon="11.70255"><ele>1201</ele><time>2012-05-28T14:05:02Z</time></trkpt><trkpt lat="43.62942" lon="11.70250"><ele>1202</ele><time>2012-05-28T14:05:04Z</time></trkpt><trkpt lat="43.62943" lon="11.70246"><ele>1201</ele><time>2012-05-28T14:05:05Z</time></trkpt><trkpt lat="43.62945" lon="11.70241"><ele>1200</ele><time>2012-05-28T14:05:07Z</time></trkpt><trkpt lat="43.62947" lon="11.70236"><ele>1202</ele><time>2012-05-28T14:05:09Z</time></trkpt><trkpt lat="43.62951" lon="11.70229"><ele>1205</ele><time>2012-05-28T14:05:14Z</time></trkpt><trkpt lat="43.62951" lon="11.70225"><ele>1206</ele><time>2012-05-28T14:05:16Z</time></trkpt><trkpt lat="43.62950" lon="11.70222"><ele>1206</ele><time>2012-05-28T14:05:17Z</time></trkpt><trkpt lat="43.62951" lon="11.70216"><ele>1209</ele><time>2012-05-28T14:05:19Z</time></trkpt><trkpt lat="43.62953" lon="11.70212"><ele>1210</ele><time>2012-05-28T14:05:21Z</time></trkpt><trkpt lat="43.62953" lon="11.70204"><ele>1211</ele><time>2012-05-28T14:05:26Z</time></trkpt><trkpt lat="43.62952" lon="11.70200"><ele>1213</ele><time>2012-05-28T14:05:29Z</time></trkpt><trkpt lat="43.62952" lon="11.70197"><ele>1210</ele><time>2012-05-28T14:05:31Z</time></trkpt><trkpt lat="43.62952" lon="11.70190"><ele>1210</ele><time>2012-05-28T14:05:34Z</time></trkpt><trkpt lat="43.62951" lon="11.70185"><ele>1214</ele><time>2012-05-28T14:05:36Z</time></trkpt><trkpt lat="43.62951" lon="11.70181"><ele>1214</ele><time>2012-05-28T14:05:39Z</time></trkpt><trkpt lat="43.62952" lon="11.70178"><ele>1215</ele><time>2012-05-28T14:05:41Z</time></trkpt><trkpt lat="43.62952" lon="11.70173"><ele>1214</ele><time>2012-05-28T14:05:43Z</time></trkpt><trkpt lat="43.62952" lon="11.70168"><ele>1214</ele><time>2012-05-28T14:05:45Z</time></trkpt><trkpt lat="43.62953" lon="11.70152"><ele>1210</ele><time>2012-05-28T14:05:51Z</time></trkpt><trkpt lat="43.62955" lon="11.70148"><ele>1208</ele><time>2012-05-28T14:05:53Z</time></trkpt><trkpt lat="43.62957" lon="11.70145"><ele>1208</ele><time>2012-05-28T14:05:54Z</time></trkpt><trkpt lat="43.62959" lon="11.70142"><ele>1208</ele><time>2012-05-28T14:05:55Z</time></trkpt><trkpt lat="43.62963" lon="11.70134"><ele>1206</ele><time>2012-05-28T14:05:59Z</time></trkpt><trkpt lat="43.62965" lon="11.70129"><ele>1207</ele><time>2012-05-28T14:06:01Z</time></trkpt><trkpt lat="43.62968" lon="11.70121"><ele>1207</ele><time>2012-05-28T14:06:04Z</time></trkpt><trkpt lat="43.62970" lon="11.70118"><ele>1205</ele><time>2012-05-28T14:06:06Z</time></trkpt><trkpt lat="43.62972" lon="11.70113"><ele>1205</ele><time>2012-05-28T14:06:08Z</time></trkpt><trkpt lat="43.62979" lon="11.70102"><ele>1208</ele><time>2012-05-28T14:06:14Z</time></trkpt><trkpt lat="43.62981" lon="11.70100"><ele>1207</ele><time>2012-05-28T14:06:16Z</time></trkpt><trkpt lat="43.62985" lon="11.70099"><ele>1209</ele><time>2012-05-28T14:06:18Z</time></trkpt><trkpt lat="43.62990" lon="11.70097"><ele>1208</ele><time>2012-05-28T14:06:20Z</time></trkpt><trkpt lat="43.62992" lon="11.70095"><ele>1208</ele><time>2012-05-28T14:06:21Z</time></trkpt><trkpt lat="43.63001" lon="11.70088"><ele>1208</ele><time>2012-05-28T14:06:24Z</time></trkpt><trkpt lat="43.63004" lon="11.70084"><ele>1208</ele><time>2012-05-28T14:06:25Z</time></trkpt><trkpt lat="43.63007" lon="11.70080"><ele>1208</ele><time>2012-05-28T14:06:26Z</time></trkpt><trkpt lat="43.63010" lon="11.70076"><ele>1209</ele><time>2012-05-28T14:06:27Z</time></trkpt><trkpt lat="43.63020" lon="11.70065"><ele>1211</ele><time>2012-05-28T14:06:30Z</time></trkpt><trkpt lat="43.63024" lon="11.70061"><ele>1212</ele><time>2012-05-28T14:06:31Z</time></trkpt><trkpt lat="43.63031" lon="11.70056"><ele>1212</ele><time>2012-05-28T14:06:33Z</time></trkpt><trkpt lat="43.63040" lon="11.70046"><ele>1213</ele><time>2012-05-28T14:06:36Z</time></trkpt><trkpt lat="43.63051" lon="11.70034"><ele>1215</ele><time>2012-05-28T14:06:39Z</time></trkpt><trkpt lat="43.63055" lon="11.70030"><ele>1215</ele><time>2012-05-28T14:06:40Z</time></trkpt><trkpt lat="43.63069" lon="11.70019"><ele>1216</ele><time>2012-05-28T14:06:42Z</time></trkpt><trkpt lat="43.63073" lon="11.70016"><ele>1216</ele><time>2012-05-28T14:06:43Z</time></trkpt><trkpt lat="43.63083" lon="11.70009"><ele>1216</ele><time>2012-05-28T14:06:45Z</time></trkpt><trkpt lat="43.63090" lon="11.70004"><ele>1217</ele><time>2012-05-28T14:06:46Z</time></trkpt><trkpt lat="43.63102" lon="11.69989"><ele>1217</ele><time>2012-05-28T14:06:48Z</time></trkpt><trkpt lat="43.63111" lon="11.69980"><ele>1216</ele><time>2012-05-28T14:06:50Z</time></trkpt><trkpt lat="43.63116" lon="11.69981"><ele>1216</ele><time>2012-05-28T14:06:51Z</time></trkpt><trkpt lat="43.63122" lon="11.69979"><ele>1217</ele><time>2012-05-28T14:06:53Z</time></trkpt><trkpt lat="43.63127" lon="11.69977"><ele>1217</ele><time>2012-05-28T14:06:54Z</time></trkpt><trkpt lat="43.63133" lon="11.69976"><ele>1216</ele><time>2012-05-28T14:06:55Z</time></trkpt><trkpt lat="43.63139" lon="11.69970"><ele>1215</ele><time>2012-05-28T14:06:56Z</time></trkpt><trkpt lat="43.63143" lon="11.69965"><ele>1214</ele><time>2012-05-28T14:06:57Z</time></trkpt><trkpt lat="43.63151" lon="11.69951"><ele>1213</ele><time>2012-05-28T14:06:59Z</time></trkpt><trkpt lat="43.63160" lon="11.69937"><ele>1212</ele><time>2012-05-28T14:07:01Z</time></trkpt><trkpt lat="43.63163" lon="11.69931"><ele>1212</ele><time>2012-05-28T14:07:02Z</time></trkpt><trkpt lat="43.63164" lon="11.69923"><ele>1213</ele><time>2012-05-28T14:07:03Z</time></trkpt><trkpt lat="43.63169" lon="11.69918"><ele>1212</ele><time>2012-05-28T14:07:04Z</time></trkpt><trkpt lat="43.63178" lon="11.69909"><ele>1211</ele><time>2012-05-28T14:07:06Z</time></trkpt><trkpt lat="43.63183" lon="11.69906"><ele>1211</ele><time>2012-05-28T14:07:07Z</time></trkpt><trkpt lat="43.63186" lon="11.69904"><ele>1211</ele><time>2012-05-28T14:07:08Z</time></trkpt><trkpt lat="43.63189" lon="11.69898"><ele>1211</ele><time>2012-05-28T14:07:09Z</time></trkpt><trkpt lat="43.63196" lon="11.69893"><ele>1211</ele><time>2012-05-28T14:07:10Z</time></trkpt><trkpt lat="43.63202" lon="11.69885"><ele>1211</ele><time>2012-05-28T14:07:11Z</time></trkpt><trkpt lat="43.63206" lon="11.69880"><ele>1211</ele><time>2012-05-28T14:07:12Z</time></trkpt><trkpt lat="43.63213" lon="11.69874"><ele>1212</ele><time>2012-05-28T14:07:14Z</time></trkpt><trkpt lat="43.63217" lon="11.69873"><ele>1212</ele><time>2012-05-28T14:07:15Z</time></trkpt><trkpt lat="43.63220" lon="11.69870"><ele>1212</ele><time>2012-05-28T14:07:16Z</time></trkpt><trkpt lat="43.63225" lon="11.69866"><ele>1213</ele><time>2012-05-28T14:07:17Z</time></trkpt><trkpt lat="43.63230" lon="11.69865"><ele>1213</ele><time>2012-05-28T14:07:18Z</time></trkpt><trkpt lat="43.63233" lon="11.69864"><ele>1213</ele><time>2012-05-28T14:07:19Z</time></trkpt><trkpt lat="43.63237" lon="11.69861"><ele>1212</ele><time>2012-05-28T14:07:20Z</time></trkpt><trkpt lat="43.63240" lon="11.69860"><ele>1212</ele><time>2012-05-28T14:07:21Z</time></trkpt><trkpt lat="43.63243" lon="11.69857"><ele>1213</ele><time>2012-05-28T14:07:23Z</time></trkpt><trkpt lat="43.63245" lon="11.69856"><ele>1214</ele><time>2012-05-28T14:07:24Z</time></trkpt><trkpt lat="43.63255" lon="11.69853"><ele>1214</ele><time>2012-05-28T14:07:28Z</time></trkpt><trkpt lat="43.63258" lon="11.69852"><ele>1214</ele><time>2012-05-28T14:07:29Z</time></trkpt><trkpt lat="43.63268" lon="11.69852"><ele>1215</ele><time>2012-05-28T14:07:33Z</time></trkpt><trkpt lat="43.63270" lon="11.69853"><ele>1216</ele><time>2012-05-28T14:07:34Z</time></trkpt><trkpt lat="43.63275" lon="11.69853"><ele>1215</ele><time>2012-05-28T14:07:36Z</time></trkpt><trkpt lat="43.63279" lon="11.69852"><ele>1216</ele><time>2012-05-28T14:07:38Z</time></trkpt><trkpt lat="43.63287" lon="11.69851"><ele>1218</ele><time>2012-05-28T14:07:41Z</time></trkpt><trkpt lat="43.63297" lon="11.69851"><ele>1217</ele><time>2012-05-28T14:07:44Z</time></trkpt><trkpt lat="43.63308" lon="11.69850"><ele>1215</ele><time>2012-05-28T14:07:47Z</time></trkpt><trkpt lat="43.63330" lon="11.69847"><ele>1215</ele><time>2012-05-28T14:07:54Z</time></trkpt><trkpt lat="43.63334" lon="11.69844"><ele>1216</ele><time>2012-05-28T14:07:56Z</time></trkpt><trkpt lat="43.63338" lon="11.69840"><ele>1216</ele><time>2012-05-28T14:07:58Z</time></trkpt><trkpt lat="43.63342" lon="11.69836"><ele>1216</ele><time>2012-05-28T14:08:00Z</time></trkpt><trkpt lat="43.63346" lon="11.69835"><ele>1217</ele><time>2012-05-28T14:08:02Z</time></trkpt><trkpt lat="43.63350" lon="11.69835"><ele>1217</ele><time>2012-05-28T14:08:03Z</time></trkpt><trkpt lat="43.63354" lon="11.69833"><ele>1216</ele><time>2012-05-28T14:08:05Z</time></trkpt><trkpt lat="43.63357" lon="11.69831"><ele>1216</ele><time>2012-05-28T14:08:07Z</time></trkpt><trkpt lat="43.63360" lon="11.69829"><ele>1216</ele><time>2012-05-28T14:08:09Z</time></trkpt><trkpt lat="43.63365" lon="11.69828"><ele>1214</ele><time>2012-05-28T14:08:12Z</time></trkpt><trkpt lat="43.63370" lon="11.69830"><ele>1216</ele><time>2012-05-28T14:08:19Z</time></trkpt><trkpt lat="43.63370" lon="11.69827"><ele>1214</ele><time>2012-05-28T14:08:26Z</time></trkpt><trkpt lat="43.63369" lon="11.69821"><ele>1217</ele><time>2012-05-28T14:08:29Z</time></trkpt><trkpt lat="43.63369" lon="11.69826"><ele>1216</ele><time>2012-05-28T14:08:37Z</time></trkpt><trkpt lat="43.63367" lon="11.69829"><ele>1217</ele><time>2012-05-28T14:08:40Z</time></trkpt><trkpt lat="43.63370" lon="11.69838"><ele>1217</ele><time>2012-05-28T14:08:44Z</time></trkpt><trkpt lat="43.63370" lon="11.69847"><ele>1216</ele><time>2012-05-28T14:08:49Z</time></trkpt><trkpt lat="43.63368" lon="11.69847"><ele>1211</ele><time>2012-05-28T14:08:54Z</time></trkpt><trkpt lat="43.63367" lon="11.69844"><ele>1209</ele><time>2012-05-28T14:08:57Z</time></trkpt><trkpt lat="43.63369" lon="11.69844"><ele>1206</ele><time>2012-05-28T14:09:05Z</time></trkpt><trkpt lat="43.63372" lon="11.69843"><ele>1204</ele><time>2012-05-28T14:09:07Z</time></trkpt><trkpt lat="43.63374" lon="11.69842"><ele>1205</ele><time>2012-05-28T14:09:09Z</time></trkpt><trkpt lat="43.63372" lon="11.69844"><ele>1208</ele><time>2012-05-28T14:09:17Z</time></trkpt><trkpt lat="43.63369" lon="11.69844"><ele>1208</ele><time>2012-05-28T14:09:20Z</time></trkpt><trkpt lat="43.63368" lon="11.69840"><ele>1210</ele><time>2012-05-28T14:09:23Z</time></trkpt><trkpt lat="43.63367" lon="11.69837"><ele>1208</ele><time>2012-05-28T14:09:25Z</time></trkpt><trkpt lat="43.63369" lon="11.69841"><ele>1209</ele><time>2012-05-28T14:09:31Z</time></trkpt><trkpt lat="43.63371" lon="11.69842"><ele>1214</ele><time>2012-05-28T14:09:34Z</time></trkpt><trkpt lat="43.63372" lon="11.69849"><ele>1221</ele><time>2012-05-28T14:09:54Z</time></trkpt><trkpt lat="43.63372" lon="11.69853"><ele>1222</ele><time>2012-05-28T14:10:01Z</time></trkpt><trkpt lat="43.63373" lon="11.69856"><ele>1224</ele><time>2012-05-28T14:10:07Z</time></trkpt><trkpt lat="43.63376" lon="11.69857"><ele>1220</ele><time>2012-05-28T14:10:10Z</time></trkpt><trkpt lat="43.63376" lon="11.69854"><ele>1222</ele><time>2012-05-28T14:10:13Z</time></trkpt><trkpt lat="43.63372" lon="11.69850"><ele>1222</ele><time>2012-05-28T14:10:20Z</time></trkpt><trkpt lat="43.63374" lon="11.69846"><ele>1219</ele><time>2012-05-28T14:10:36Z</time></trkpt><trkpt lat="43.63374" lon="11.69842"><ele>1221</ele><time>2012-05-28T14:10:39Z</time></trkpt><trkpt lat="43.63374" lon="11.69837"><ele>1224</ele><time>2012-05-28T14:10:46Z</time></trkpt><trkpt lat="43.63374" lon="11.69845"><ele>1225</ele><time>2012-05-28T14:10:52Z</time></trkpt><trkpt lat="43.63377" lon="11.69849"><ele>1224</ele><time>2012-05-28T14:10:57Z</time></trkpt><trkpt lat="43.63376" lon="11.69846"><ele>1225</ele><time>2012-05-28T14:11:06Z</time></trkpt><trkpt lat="43.63375" lon="11.69843"><ele>1226</ele><time>2012-05-28T14:11:09Z</time></trkpt><trkpt lat="43.63376" lon="11.69840"><ele>1224</ele><time>2012-05-28T14:11:13Z</time></trkpt><trkpt lat="43.63378" lon="11.69838"><ele>1226</ele><time>2012-05-28T14:11:16Z</time></trkpt><trkpt lat="43.63377" lon="11.69836"><ele>1229</ele><time>2012-05-28T14:11:27Z</time></trkpt><trkpt lat="43.63374" lon="11.69833"><ele>1224</ele><time>2012-05-28T14:11:35Z</time></trkpt><trkpt lat="43.63373" lon="11.69830"><ele>1226</ele><time>2012-05-28T14:11:37Z</time></trkpt><trkpt lat="43.63368" lon="11.69823"><ele>1227</ele><time>2012-05-28T14:11:41Z</time></trkpt><trkpt lat="43.63363" lon="11.69815"><ele>1225</ele><time>2012-05-28T14:11:45Z</time></trkpt><trkpt lat="43.63366" lon="11.69810"><ele>1213</ele><time>2012-05-28T14:11:57Z</time></trkpt><trkpt lat="43.63367" lon="11.69815"><ele>1213</ele><time>2012-05-28T14:12:07Z</time></trkpt><trkpt lat="43.63373" lon="11.69830"><ele>1215</ele><time>2012-05-28T14:12:11Z</time></trkpt><trkpt lat="43.63376" lon="11.69838"><ele>1215</ele><time>2012-05-28T14:12:15Z</time></trkpt><trkpt lat="43.63376" lon="11.69842"><ele>1214</ele><time>2012-05-28T14:12:17Z</time></trkpt><trkpt lat="43.63379" lon="11.69842"><ele>1216</ele><time>2012-05-28T14:12:23Z</time></trkpt><trkpt lat="43.63379" lon="11.69839"><ele>1217</ele><time>2012-05-28T14:12:30Z</time></trkpt><trkpt lat="43.63382" lon="11.69836"><ele>1217</ele><time>2012-05-28T14:12:32Z</time></trkpt><trkpt lat="43.63384" lon="11.69833"><ele>1215</ele><time>2012-05-28T14:12:33Z</time></trkpt><trkpt lat="43.63394" lon="11.69819"><ele>1215</ele><time>2012-05-28T14:12:38Z</time></trkpt><trkpt lat="43.63400" lon="11.69811"><ele>1215</ele><time>2012-05-28T14:12:41Z</time></trkpt><trkpt lat="43.63404" lon="11.69806"><ele>1215</ele><time>2012-05-28T14:12:43Z</time></trkpt><trkpt lat="43.63411" lon="11.69802"><ele>1216</ele><time>2012-05-28T14:12:46Z</time></trkpt><trkpt lat="43.63419" lon="11.69798"><ele>1217</ele><time>2012-05-28T14:12:49Z</time></trkpt><trkpt lat="43.63423" lon="11.69796"><ele>1217</ele><time>2012-05-28T14:12:50Z</time></trkpt><trkpt lat="43.63434" lon="11.69789"><ele>1217</ele><time>2012-05-28T14:12:54Z</time></trkpt><trkpt lat="43.63436" lon="11.69787"><ele>1216</ele><time>2012-05-28T14:12:55Z</time></trkpt><trkpt lat="43.63445" lon="11.69779"><ele>1216</ele><time>2012-05-28T14:12:59Z</time></trkpt><trkpt lat="43.63448" lon="11.69777"><ele>1215</ele><time>2012-05-28T14:13:00Z</time></trkpt><trkpt lat="43.63451" lon="11.69775"><ele>1214</ele><time>2012-05-28T14:13:01Z</time></trkpt><trkpt lat="43.63461" lon="11.69769"><ele>1212</ele><time>2012-05-28T14:13:05Z</time></trkpt><trkpt lat="43.63467" lon="11.69767"><ele>1215</ele><time>2012-05-28T14:13:07Z</time></trkpt><trkpt lat="43.63473" lon="11.69766"><ele>1212</ele><time>2012-05-28T14:13:09Z</time></trkpt><trkpt lat="43.63476" lon="11.69767"><ele>1213</ele><time>2012-05-28T14:13:10Z</time></trkpt><trkpt lat="43.63480" lon="11.69768"><ele>1213</ele><time>2012-05-28T14:13:11Z</time></trkpt><trkpt lat="43.63483" lon="11.69770"><ele>1213</ele><time>2012-05-28T14:13:12Z</time></trkpt><trkpt lat="43.63503" lon="11.69785"><ele>1213</ele><time>2012-05-28T14:13:20Z</time></trkpt><trkpt lat="43.63505" lon="11.69786"><ele>1212</ele><time>2012-05-28T14:13:21Z</time></trkpt><trkpt lat="43.63513" lon="11.69788"><ele>1209</ele><time>2012-05-28T14:13:23Z</time></trkpt><trkpt lat="43.63517" lon="11.69788"><ele>1210</ele><time>2012-05-28T14:13:24Z</time></trkpt><trkpt lat="43.63521" lon="11.69787"><ele>1211</ele><time>2012-05-28T14:13:25Z</time></trkpt><trkpt lat="43.63532" lon="11.69784"><ele>1211</ele><time>2012-05-28T14:13:28Z</time></trkpt><trkpt lat="43.63534" lon="11.69785"><ele>1212</ele><time>2012-05-28T14:13:29Z</time></trkpt><trkpt lat="43.63538" lon="11.69789"><ele>1212</ele><time>2012-05-28T14:13:31Z</time></trkpt><trkpt lat="43.63540" lon="11.69792"><ele>1212</ele><time>2012-05-28T14:13:32Z</time></trkpt><trkpt lat="43.63543" lon="11.69801"><ele>1212</ele><time>2012-05-28T14:13:34Z</time></trkpt><trkpt lat="43.63543" lon="11.69806"><ele>1211</ele><time>2012-05-28T14:13:35Z</time></trkpt><trkpt lat="43.63544" lon="11.69823"><ele>1213</ele><time>2012-05-28T14:13:38Z</time></trkpt><trkpt lat="43.63544" lon="11.69830"><ele>1213</ele><time>2012-05-28T14:13:39Z</time></trkpt><trkpt lat="43.63543" lon="11.69841"><ele>1215</ele><time>2012-05-28T14:13:41Z</time></trkpt><trkpt lat="43.63543" lon="11.69853"><ele>1213</ele><time>2012-05-28T14:13:43Z</time></trkpt><trkpt lat="43.63544" lon="11.69859"><ele>1212</ele><time>2012-05-28T14:13:44Z</time></trkpt><trkpt lat="43.63545" lon="11.69864"><ele>1211</ele><time>2012-05-28T14:13:45Z</time></trkpt><trkpt lat="43.63556" lon="11.69884"><ele>1207</ele><time>2012-05-28T14:13:48Z</time></trkpt><trkpt lat="43.63557" lon="11.69890"><ele>1206</ele><time>2012-05-28T14:13:49Z</time></trkpt><trkpt lat="43.63559" lon="11.69894"><ele>1207</ele><time>2012-05-28T14:13:50Z</time></trkpt><trkpt lat="43.63558" lon="11.69890"><ele>1203</ele><time>2012-05-28T14:13:51Z</time></trkpt><trkpt lat="43.63560" lon="11.69894"><ele>1199</ele><time>2012-05-28T14:13:54Z</time></trkpt><trkpt lat="43.63562" lon="11.69896"><ele>1198</ele><time>2012-05-28T14:13:55Z</time></trkpt><trkpt lat="43.63564" lon="11.69903"><ele>1200</ele><time>2012-05-28T14:13:56Z</time></trkpt><trkpt lat="43.63565" lon="11.69907"><ele>1200</ele><time>2012-05-28T14:13:57Z</time></trkpt><trkpt lat="43.63567" lon="11.69909"><ele>1200</ele><time>2012-05-28T14:13:58Z</time></trkpt><trkpt lat="43.63569" lon="11.69913"><ele>1200</ele><time>2012-05-28T14:13:59Z</time></trkpt><trkpt lat="43.63571" lon="11.69917"><ele>1200</ele><time>2012-05-28T14:14:00Z</time></trkpt><trkpt lat="43.63572" lon="11.69921"><ele>1199</ele><time>2012-05-28T14:14:01Z</time></trkpt><trkpt lat="43.63579" lon="11.69934"><ele>1199</ele><time>2012-05-28T14:14:04Z</time></trkpt><trkpt lat="43.63581" lon="11.69937"><ele>1198</ele><time>2012-05-28T14:14:05Z</time></trkpt><trkpt lat="43.63586" lon="11.69942"><ele>1196</ele><time>2012-05-28T14:14:07Z</time></trkpt><trkpt lat="43.63593" lon="11.69944"><ele>1191</ele><time>2012-05-28T14:14:09Z</time></trkpt><trkpt lat="43.63596" lon="11.69945"><ele>1191</ele><time>2012-05-28T14:14:10Z</time></trkpt><trkpt lat="43.63598" lon="11.69948"><ele>1194</ele><time>2012-05-28T14:14:11Z</time></trkpt><trkpt lat="43.63599" lon="11.69950"><ele>1195</ele><time>2012-05-28T14:14:12Z</time></trkpt><trkpt lat="43.63600" lon="11.69953"><ele>1195</ele><time>2012-05-28T14:14:13Z</time></trkpt><trkpt lat="43.63603" lon="11.69960"><ele>1195</ele><time>2012-05-28T14:14:16Z</time></trkpt><trkpt lat="43.63607" lon="11.69961"><ele>1196</ele><time>2012-05-28T14:14:18Z</time></trkpt><trkpt lat="43.63612" lon="11.69961"><ele>1197</ele><time>2012-05-28T14:14:20Z</time></trkpt><trkpt lat="43.63616" lon="11.69960"><ele>1198</ele><time>2012-05-28T14:14:21Z</time></trkpt><trkpt lat="43.63627" lon="11.69958"><ele>1198</ele><time>2012-05-28T14:14:24Z</time></trkpt><trkpt lat="43.63630" lon="11.69958"><ele>1198</ele><time>2012-05-28T14:14:25Z</time></trkpt><trkpt lat="43.63637" lon="11.69959"><ele>1198</ele><time>2012-05-28T14:14:27Z</time></trkpt><trkpt lat="43.63639" lon="11.69960"><ele>1198</ele><time>2012-05-28T14:14:28Z</time></trkpt><trkpt lat="43.63649" lon="11.69962"><ele>1198</ele><time>2012-05-28T14:14:31Z</time></trkpt><trkpt lat="43.63652" lon="11.69962"><ele>1198</ele><time>2012-05-28T14:14:32Z</time></trkpt><trkpt lat="43.63661" lon="11.69961"><ele>1199</ele><time>2012-05-28T14:14:34Z</time></trkpt><trkpt lat="43.63673" lon="11.69956"><ele>1198</ele><time>2012-05-28T14:14:35Z</time></trkpt><trkpt lat="43.63680" lon="11.69955"><ele>1199</ele><time>2012-05-28T14:14:36Z</time></trkpt><trkpt lat="43.63685" lon="11.69950"><ele>1199</ele><time>2012-05-28T14:14:37Z</time></trkpt><trkpt lat="43.63693" lon="11.69947"><ele>1199</ele><time>2012-05-28T14:14:38Z</time></trkpt><trkpt lat="43.63706" lon="11.69940"><ele>1199</ele><time>2012-05-28T14:14:40Z</time></trkpt><trkpt lat="43.63707" lon="11.69935"><ele>1200</ele><time>2012-05-28T14:14:41Z</time></trkpt><trkpt lat="43.63711" lon="11.69930"><ele>1200</ele><time>2012-05-28T14:14:42Z</time></trkpt><trkpt lat="43.63718" lon="11.69916"><ele>1200</ele><time>2012-05-28T14:14:44Z</time></trkpt><trkpt lat="43.63724" lon="11.69910"><ele>1199</ele><time>2012-05-28T14:14:45Z</time></trkpt><trkpt lat="43.63731" lon="11.69900"><ele>1199</ele><time>2012-05-28T14:14:47Z</time></trkpt><trkpt lat="43.63736" lon="11.69893"><ele>1199</ele><time>2012-05-28T14:14:48Z</time></trkpt><trkpt lat="43.63744" lon="11.69881"><ele>1198</ele><time>2012-05-28T14:14:50Z</time></trkpt><trkpt lat="43.63748" lon="11.69872"><ele>1196</ele><time>2012-05-28T14:14:51Z</time></trkpt><trkpt lat="43.63752" lon="11.69864"><ele>1195</ele><time>2012-05-28T14:14:52Z</time></trkpt><trkpt lat="43.63757" lon="11.69858"><ele>1195</ele><time>2012-05-28T14:14:53Z</time></trkpt><trkpt lat="43.63762" lon="11.69852"><ele>1195</ele><time>2012-05-28T14:14:54Z</time></trkpt><trkpt lat="43.63774" lon="11.69840"><ele>1194</ele><time>2012-05-28T14:14:56Z</time></trkpt><trkpt lat="43.63782" lon="11.69841"><ele>1195</ele><time>2012-05-28T14:14:58Z</time></trkpt><trkpt lat="43.63788" lon="11.69844"><ele>1196</ele><time>2012-05-28T14:14:59Z</time></trkpt><trkpt lat="43.63793" lon="11.69849"><ele>1197</ele><time>2012-05-28T14:15:00Z</time></trkpt><trkpt lat="43.63805" lon="11.69861"><ele>1200</ele><time>2012-05-28T14:15:02Z</time></trkpt><trkpt lat="43.63812" lon="11.69871"><ele>1199</ele><time>2012-05-28T14:15:04Z</time></trkpt><trkpt lat="43.63819" lon="11.69886"><ele>1197</ele><time>2012-05-28T14:15:06Z</time></trkpt><trkpt lat="43.63824" lon="11.69902"><ele>1195</ele><time>2012-05-28T14:15:08Z</time></trkpt><trkpt lat="43.63828" lon="11.69920"><ele>1193</ele><time>2012-05-28T14:15:10Z</time></trkpt><trkpt lat="43.63830" lon="11.69938"><ele>1192</ele><time>2012-05-28T14:15:13Z</time></trkpt><trkpt lat="43.63830" lon="11.69949"><ele>1191</ele><time>2012-05-28T14:15:14Z</time></trkpt><trkpt lat="43.63831" lon="11.69958"><ele>1192</ele><time>2012-05-28T14:15:15Z</time></trkpt><trkpt lat="43.63832" lon="11.69965"><ele>1191</ele><time>2012-05-28T14:15:16Z</time></trkpt><trkpt lat="43.63830" lon="11.69973"><ele>1191</ele><time>2012-05-28T14:15:17Z</time></trkpt><trkpt lat="43.63827" lon="11.69981"><ele>1190</ele><time>2012-05-28T14:15:18Z</time></trkpt><trkpt lat="43.63827" lon="11.69985"><ele>1189</ele><time>2012-05-28T14:15:19Z</time></trkpt><trkpt lat="43.63826" lon="11.69994"><ele>1192</ele><time>2012-05-28T14:15:20Z</time></trkpt><trkpt lat="43.63825" lon="11.70008"><ele>1191</ele><time>2012-05-28T14:15:22Z</time></trkpt><trkpt lat="43.63823" lon="11.70013"><ele>1191</ele><time>2012-05-28T14:15:23Z</time></trkpt><trkpt lat="43.63824" lon="11.70026"><ele>1191</ele><time>2012-05-28T14:15:24Z</time></trkpt><trkpt lat="43.63828" lon="11.70033"><ele>1190</ele><time>2012-05-28T14:15:25Z</time></trkpt><trkpt lat="43.63829" lon="11.70041"><ele>1190</ele><time>2012-05-28T14:15:26Z</time></trkpt><trkpt lat="43.63828" lon="11.70046"><ele>1190</ele><time>2012-05-28T14:15:27Z</time></trkpt><trkpt lat="43.63830" lon="11.70063"><ele>1187</ele><time>2012-05-28T14:15:29Z</time></trkpt><trkpt lat="43.63832" lon="11.70069"><ele>1186</ele><time>2012-05-28T14:15:30Z</time></trkpt><trkpt lat="43.63832" lon="11.70078"><ele>1185</ele><time>2012-05-28T14:15:31Z</time></trkpt><trkpt lat="43.63838" lon="11.70087"><ele>1183</ele><time>2012-05-28T14:15:32Z</time></trkpt><trkpt lat="43.63840" lon="11.70092"><ele>1182</ele><time>2012-05-28T14:15:33Z</time></trkpt><trkpt lat="43.63843" lon="11.70099"><ele>1182</ele><time>2012-05-28T14:15:34Z</time></trkpt><trkpt lat="43.63844" lon="11.70106"><ele>1182</ele><time>2012-05-28T14:15:35Z</time></trkpt><trkpt lat="43.63847" lon="11.70107"><ele>1181</ele><time>2012-05-28T14:15:36Z</time></trkpt><trkpt lat="43.63851" lon="11.70114"><ele>1182</ele><time>2012-05-28T14:15:37Z</time></trkpt><trkpt lat="43.63856" lon="11.70117"><ele>1181</ele><time>2012-05-28T14:15:39Z</time></trkpt><trkpt lat="43.63859" lon="11.70123"><ele>1182</ele><time>2012-05-28T14:15:40Z</time></trkpt><trkpt lat="43.63869" lon="11.70133"><ele>1180</ele><time>2012-05-28T14:15:42Z</time></trkpt><trkpt lat="43.63880" lon="11.70140"><ele>1180</ele><time>2012-05-28T14:15:44Z</time></trkpt><trkpt lat="43.63884" lon="11.70156"><ele>1180</ele><time>2012-05-28T14:15:45Z</time></trkpt><trkpt lat="43.63890" lon="11.70161"><ele>1180</ele><time>2012-05-28T14:15:46Z</time></trkpt><trkpt lat="43.63880" lon="11.70166"><ele>1179</ele><time>2012-05-28T14:15:47Z</time></trkpt><trkpt lat="43.63877" lon="11.70175"><ele>1178</ele><time>2012-05-28T14:15:48Z</time></trkpt><trkpt lat="43.63876" lon="11.70191"><ele>1177</ele><time>2012-05-28T14:15:50Z</time></trkpt><trkpt lat="43.63874" lon="11.70198"><ele>1176</ele><time>2012-05-28T14:15:51Z</time></trkpt><trkpt lat="43.63879" lon="11.70210"><ele>1176</ele><time>2012-05-28T14:15:52Z</time></trkpt><trkpt lat="43.63880" lon="11.70218"><ele>1176</ele><time>2012-05-28T14:15:53Z</time></trkpt><trkpt lat="43.63880" lon="11.70225"><ele>1175</ele><time>2012-05-28T14:15:54Z</time></trkpt><trkpt lat="43.63887" lon="11.70232"><ele>1175</ele><time>2012-05-28T14:15:55Z</time></trkpt><trkpt lat="43.63891" lon="11.70240"><ele>1174</ele><time>2012-05-28T14:15:56Z</time></trkpt><trkpt lat="43.63895" lon="11.70257"><ele>1171</ele><time>2012-05-28T14:15:58Z</time></trkpt><trkpt lat="43.63897" lon="11.70264"><ele>1168</ele><time>2012-05-28T14:15:59Z</time></trkpt><trkpt lat="43.63899" lon="11.70271"><ele>1168</ele><time>2012-05-28T14:16:00Z</time></trkpt><trkpt lat="43.63901" lon="11.70278"><ele>1168</ele><time>2012-05-28T14:16:01Z</time></trkpt><trkpt lat="43.63898" lon="11.70286"><ele>1168</ele><time>2012-05-28T14:16:02Z</time></trkpt><trkpt lat="43.63897" lon="11.70295"><ele>1167</ele><time>2012-05-28T14:16:03Z</time></trkpt><trkpt lat="43.63895" lon="11.70325"><ele>1167</ele><time>2012-05-28T14:16:07Z</time></trkpt><trkpt lat="43.63896" lon="11.70331"><ele>1167</ele><time>2012-05-28T14:16:08Z</time></trkpt><trkpt lat="43.63896" lon="11.70339"><ele>1165</ele><time>2012-05-28T14:16:09Z</time></trkpt><trkpt lat="43.63900" lon="11.70350"><ele>1164</ele><time>2012-05-28T14:16:11Z</time></trkpt><trkpt lat="43.63905" lon="11.70358"><ele>1164</ele><time>2012-05-28T14:16:12Z</time></trkpt><trkpt lat="43.63908" lon="11.70361"><ele>1163</ele><time>2012-05-28T14:16:13Z</time></trkpt><trkpt lat="43.63911" lon="11.70367"><ele>1163</ele><time>2012-05-28T14:16:14Z</time></trkpt><trkpt lat="43.63915" lon="11.70372"><ele>1163</ele><time>2012-05-28T14:16:15Z</time></trkpt><trkpt lat="43.63920" lon="11.70378"><ele>1162</ele><time>2012-05-28T14:16:16Z</time></trkpt><trkpt lat="43.63926" lon="11.70379"><ele>1163</ele><time>2012-05-28T14:16:17Z</time></trkpt><trkpt lat="43.63930" lon="11.70384"><ele>1162</ele><time>2012-05-28T14:16:18Z</time></trkpt><trkpt lat="43.63931" lon="11.70398"><ele>1172</ele><time>2012-05-28T14:16:19Z</time></trkpt><trkpt lat="43.63933" lon="11.70408"><ele>1171</ele><time>2012-05-28T14:16:20Z</time></trkpt><trkpt lat="43.63938" lon="11.70424"><ele>1170</ele><time>2012-05-28T14:16:22Z</time></trkpt><trkpt lat="43.63940" lon="11.70435"><ele>1169</ele><time>2012-05-28T14:16:23Z</time></trkpt><trkpt lat="43.63940" lon="11.70440"><ele>1169</ele><time>2012-05-28T14:16:24Z</time></trkpt><trkpt lat="43.63942" lon="11.70449"><ele>1168</ele><time>2012-05-28T14:16:25Z</time></trkpt><trkpt lat="43.63942" lon="11.70460"><ele>1168</ele><time>2012-05-28T14:16:26Z</time></trkpt><trkpt lat="43.63939" lon="11.70467"><ele>1168</ele><time>2012-05-28T14:16:27Z</time></trkpt><trkpt lat="43.63939" lon="11.70476"><ele>1168</ele><time>2012-05-28T14:16:28Z</time></trkpt><trkpt lat="43.63939" lon="11.70491"><ele>1167</ele><time>2012-05-28T14:16:30Z</time></trkpt><trkpt lat="43.63942" lon="11.70504"><ele>1166</ele><time>2012-05-28T14:16:32Z</time></trkpt><trkpt lat="43.63946" lon="11.70512"><ele>1166</ele><time>2012-05-28T14:16:33Z</time></trkpt><trkpt lat="43.63950" lon="11.70518"><ele>1163</ele><time>2012-05-28T14:16:34Z</time></trkpt><trkpt lat="43.63954" lon="11.70525"><ele>1160</ele><time>2012-05-28T14:16:35Z</time></trkpt><trkpt lat="43.63956" lon="11.70540"><ele>1159</ele><time>2012-05-28T14:16:37Z</time></trkpt><trkpt lat="43.63953" lon="11.70547"><ele>1159</ele><time>2012-05-28T14:16:38Z</time></trkpt><trkpt lat="43.63947" lon="11.70559"><ele>1159</ele><time>2012-05-28T14:16:40Z</time></trkpt><trkpt lat="43.63944" lon="11.70565"><ele>1158</ele><time>2012-05-28T14:16:41Z</time></trkpt><trkpt lat="43.63942" lon="11.70571"><ele>1158</ele><time>2012-05-28T14:16:42Z</time></trkpt><trkpt lat="43.63938" lon="11.70574"><ele>1157</ele><time>2012-05-28T14:16:43Z</time></trkpt><trkpt lat="43.63935" lon="11.70593"><ele>1155</ele><time>2012-05-28T14:16:45Z</time></trkpt><trkpt lat="43.63935" lon="11.70604"><ele>1154</ele><time>2012-05-28T14:16:46Z</time></trkpt><trkpt lat="43.63935" lon="11.70615"><ele>1153</ele><time>2012-05-28T14:16:47Z</time></trkpt><trkpt lat="43.63935" lon="11.70629"><ele>1151</ele><time>2012-05-28T14:16:49Z</time></trkpt><trkpt lat="43.63937" lon="11.70637"><ele>1151</ele><time>2012-05-28T14:16:50Z</time></trkpt><trkpt lat="43.63943" lon="11.70653"><ele>1151</ele><time>2012-05-28T14:16:52Z</time></trkpt><trkpt lat="43.63945" lon="11.70661"><ele>1151</ele><time>2012-05-28T14:16:53Z</time></trkpt><trkpt lat="43.63946" lon="11.70669"><ele>1151</ele><time>2012-05-28T14:16:54Z</time></trkpt><trkpt lat="43.63948" lon="11.70677"><ele>1151</ele><time>2012-05-28T14:16:55Z</time></trkpt><trkpt lat="43.63949" lon="11.70688"><ele>1151</ele><time>2012-05-28T14:16:56Z</time></trkpt><trkpt lat="43.63957" lon="11.70690"><ele>1147</ele><time>2012-05-28T14:16:57Z</time></trkpt><trkpt lat="43.63961" lon="11.70698"><ele>1145</ele><time>2012-05-28T14:16:58Z</time></trkpt><trkpt lat="43.63968" lon="11.70710"><ele>1145</ele><time>2012-05-28T14:17:00Z</time></trkpt><trkpt lat="43.63971" lon="11.70720"><ele>1146</ele><time>2012-05-28T14:17:01Z</time></trkpt><trkpt lat="43.63974" lon="11.70727"><ele>1145</ele><time>2012-05-28T14:17:02Z</time></trkpt><trkpt lat="43.63983" lon="11.70744"><ele>1143</ele><time>2012-05-28T14:17:04Z</time></trkpt><trkpt lat="43.63986" lon="11.70753"><ele>1143</ele><time>2012-05-28T14:17:05Z</time></trkpt><trkpt lat="43.63990" lon="11.70759"><ele>1142</ele><time>2012-05-28T14:17:06Z</time></trkpt><trkpt lat="43.63991" lon="11.70767"><ele>1143</ele><time>2012-05-28T14:17:07Z</time></trkpt><trkpt lat="43.63995" lon="11.70772"><ele>1143</ele><time>2012-05-28T14:17:08Z</time></trkpt><trkpt lat="43.63997" lon="11.70774"><ele>1141</ele><time>2012-05-28T14:17:09Z</time></trkpt><trkpt lat="43.63999" lon="11.70778"><ele>1140</ele><time>2012-05-28T14:17:10Z</time></trkpt><trkpt lat="43.64003" lon="11.70780"><ele>1139</ele><time>2012-05-28T14:17:11Z</time></trkpt><trkpt lat="43.64006" lon="11.70783"><ele>1141</ele><time>2012-05-28T14:17:12Z</time></trkpt><trkpt lat="43.64009" lon="11.70783"><ele>1141</ele><time>2012-05-28T14:17:13Z</time></trkpt><trkpt lat="43.64021" lon="11.70784"><ele>1142</ele><time>2012-05-28T14:17:17Z</time></trkpt><trkpt lat="43.64026" lon="11.70783"><ele>1142</ele><time>2012-05-28T14:17:19Z</time></trkpt><trkpt lat="43.64028" lon="11.70781"><ele>1142</ele><time>2012-05-28T14:17:20Z</time></trkpt><trkpt lat="43.64030" lon="11.70780"><ele>1142</ele><time>2012-05-28T14:17:21Z</time></trkpt><trkpt lat="43.64032" lon="11.70776"><ele>1142</ele><time>2012-05-28T14:17:22Z</time></trkpt><trkpt lat="43.64035" lon="11.70775"><ele>1142</ele><time>2012-05-28T14:17:23Z</time></trkpt><trkpt lat="43.64036" lon="11.70770"><ele>1142</ele><time>2012-05-28T14:17:24Z</time></trkpt><trkpt lat="43.64041" lon="11.70756"><ele>1142</ele><time>2012-05-28T14:17:29Z</time></trkpt><trkpt lat="43.64042" lon="11.70753"><ele>1142</ele><time>2012-05-28T14:17:30Z</time></trkpt><trkpt lat="43.64045" lon="11.70736"><ele>1143</ele><time>2012-05-28T14:17:34Z</time></trkpt><trkpt lat="43.64046" lon="11.70730"><ele>1143</ele><time>2012-05-28T14:17:35Z</time></trkpt><trkpt lat="43.64052" lon="11.70697"><ele>1139</ele><time>2012-05-28T14:17:40Z</time></trkpt><trkpt lat="43.64055" lon="11.70687"><ele>1140</ele><time>2012-05-28T14:17:41Z</time></trkpt><trkpt lat="43.64058" lon="11.70684"><ele>1139</ele><time>2012-05-28T14:17:42Z</time></trkpt><trkpt lat="43.64059" lon="11.70676"><ele>1140</ele><time>2012-05-28T14:17:43Z</time></trkpt><trkpt lat="43.64063" lon="11.70670"><ele>1140</ele><time>2012-05-28T14:17:44Z</time></trkpt><trkpt lat="43.64068" lon="11.70658"><ele>1140</ele><time>2012-05-28T14:17:46Z</time></trkpt><trkpt lat="43.64074" lon="11.70655"><ele>1140</ele><time>2012-05-28T14:17:47Z</time></trkpt><trkpt lat="43.64080" lon="11.70651"><ele>1140</ele><time>2012-05-28T14:17:48Z</time></trkpt><trkpt lat="43.64094" lon="11.70641"><ele>1142</ele><time>2012-05-28T14:17:50Z</time></trkpt><trkpt lat="43.64099" lon="11.70637"><ele>1142</ele><time>2012-05-28T14:17:51Z</time></trkpt><trkpt lat="43.64104" lon="11.70632"><ele>1143</ele><time>2012-05-28T14:17:52Z</time></trkpt><trkpt lat="43.64108" lon="11.70627"><ele>1143</ele><time>2012-05-28T14:17:53Z</time></trkpt><trkpt lat="43.64116" lon="11.70620"><ele>1142</ele><time>2012-05-28T14:17:54Z</time></trkpt><trkpt lat="43.64128" lon="11.70609"><ele>1140</ele><time>2012-05-28T14:17:56Z</time></trkpt><trkpt lat="43.64141" lon="11.70596"><ele>1139</ele><time>2012-05-28T14:17:58Z</time></trkpt><trkpt lat="43.64145" lon="11.70591"><ele>1138</ele><time>2012-05-28T14:17:59Z</time></trkpt><trkpt lat="43.64150" lon="11.70587"><ele>1138</ele><time>2012-05-28T14:18:00Z</time></trkpt><trkpt lat="43.64153" lon="11.70580"><ele>1138</ele><time>2012-05-28T14:18:01Z</time></trkpt><trkpt lat="43.64156" lon="11.70573"><ele>1138</ele><time>2012-05-28T14:18:02Z</time></trkpt><trkpt lat="43.64160" lon="11.70558"><ele>1138</ele><time>2012-05-28T14:18:04Z</time></trkpt><trkpt lat="43.64168" lon="11.70542"><ele>1137</ele><time>2012-05-28T14:18:06Z</time></trkpt><trkpt lat="43.64174" lon="11.70533"><ele>1137</ele><time>2012-05-28T14:18:07Z</time></trkpt><trkpt lat="43.64181" lon="11.70526"><ele>1136</ele><time>2012-05-28T14:18:08Z</time></trkpt><trkpt lat="43.64186" lon="11.70522"><ele>1135</ele><time>2012-05-28T14:18:09Z</time></trkpt><trkpt lat="43.64200" lon="11.70512"><ele>1131</ele><time>2012-05-28T14:18:11Z</time></trkpt><trkpt lat="43.64208" lon="11.70508"><ele>1131</ele><time>2012-05-28T14:18:12Z</time></trkpt><trkpt lat="43.64213" lon="11.70503"><ele>1130</ele><time>2012-05-28T14:18:13Z</time></trkpt><trkpt lat="43.64221" lon="11.70494"><ele>1127</ele><time>2012-05-28T14:18:15Z</time></trkpt><trkpt lat="43.64224" lon="11.70487"><ele>1128</ele><time>2012-05-28T14:18:16Z</time></trkpt><trkpt lat="43.64225" lon="11.70480"><ele>1127</ele><time>2012-05-28T14:18:17Z</time></trkpt><trkpt lat="43.64224" lon="11.70474"><ele>1126</ele><time>2012-05-28T14:18:18Z</time></trkpt><trkpt lat="43.64222" lon="11.70468"><ele>1127</ele><time>2012-05-28T14:18:19Z</time></trkpt><trkpt lat="43.64215" lon="11.70457"><ele>1127</ele><time>2012-05-28T14:18:21Z</time></trkpt><trkpt lat="43.64211" lon="11.70452"><ele>1127</ele><time>2012-05-28T14:18:22Z</time></trkpt><trkpt lat="43.64206" lon="11.70445"><ele>1127</ele><time>2012-05-28T14:18:24Z</time></trkpt><trkpt lat="43.64206" lon="11.70440"><ele>1127</ele><time>2012-05-28T14:18:25Z</time></trkpt><trkpt lat="43.64206" lon="11.70434"><ele>1127</ele><time>2012-05-28T14:18:26Z</time></trkpt><trkpt lat="43.64206" lon="11.70425"><ele>1127</ele><time>2012-05-28T14:18:27Z</time></trkpt><trkpt lat="43.64209" lon="11.70406"><ele>1126</ele><time>2012-05-28T14:18:29Z</time></trkpt><trkpt lat="43.64211" lon="11.70397"><ele>1126</ele><time>2012-05-28T14:18:30Z</time></trkpt><trkpt lat="43.64214" lon="11.70389"><ele>1125</ele><time>2012-05-28T14:18:31Z</time></trkpt><trkpt lat="43.64221" lon="11.70371"><ele>1123</ele><time>2012-05-28T14:18:33Z</time></trkpt><trkpt lat="43.64225" lon="11.70364"><ele>1123</ele><time>2012-05-28T14:18:34Z</time></trkpt><trkpt lat="43.64223" lon="11.70356"><ele>1123</ele><time>2012-05-28T14:18:35Z</time></trkpt><trkpt lat="43.64224" lon="11.70349"><ele>1123</ele><time>2012-05-28T14:18:36Z</time></trkpt><trkpt lat="43.64223" lon="11.70341"><ele>1122</ele><time>2012-05-28T14:18:37Z</time></trkpt><trkpt lat="43.64221" lon="11.70333"><ele>1122</ele><time>2012-05-28T14:18:38Z</time></trkpt><trkpt lat="43.64221" lon="11.70325"><ele>1122</ele><time>2012-05-28T14:18:39Z</time></trkpt><trkpt lat="43.64219" lon="11.70317"><ele>1122</ele><time>2012-05-28T14:18:40Z</time></trkpt><trkpt lat="43.64217" lon="11.70299"><ele>1122</ele><time>2012-05-28T14:18:42Z</time></trkpt><trkpt lat="43.64217" lon="11.70289"><ele>1121</ele><time>2012-05-28T14:18:43Z</time></trkpt><trkpt lat="43.64218" lon="11.70270"><ele>1121</ele><time>2012-05-28T14:18:45Z</time></trkpt><trkpt lat="43.64221" lon="11.70262"><ele>1121</ele><time>2012-05-28T14:18:46Z</time></trkpt><trkpt lat="43.64223" lon="11.70254"><ele>1120</ele><time>2012-05-28T14:18:47Z</time></trkpt><trkpt lat="43.64224" lon="11.70246"><ele>1120</ele><time>2012-05-28T14:18:48Z</time></trkpt><trkpt lat="43.64227" lon="11.70228"><ele>1119</ele><time>2012-05-28T14:18:50Z</time></trkpt><trkpt lat="43.64228" lon="11.70220"><ele>1119</ele><time>2012-05-28T14:18:51Z</time></trkpt><trkpt lat="43.64229" lon="11.70188"><ele>1118</ele><time>2012-05-28T14:18:56Z</time></trkpt><trkpt lat="43.64227" lon="11.70182"><ele>1118</ele><time>2012-05-28T14:18:57Z</time></trkpt><trkpt lat="43.64227" lon="11.70169"><ele>1120</ele><time>2012-05-28T14:18:59Z</time></trkpt><trkpt lat="43.64227" lon="11.70165"><ele>1121</ele><time>2012-05-28T14:19:00Z</time></trkpt><trkpt lat="43.64225" lon="11.70157"><ele>1122</ele><time>2012-05-28T14:19:01Z</time></trkpt><trkpt lat="43.64222" lon="11.70151"><ele>1122</ele><time>2012-05-28T14:19:02Z</time></trkpt><trkpt lat="43.64219" lon="11.70146"><ele>1123</ele><time>2012-05-28T14:19:03Z</time></trkpt><trkpt lat="43.64220" lon="11.70137"><ele>1122</ele><time>2012-05-28T14:19:04Z</time></trkpt><trkpt lat="43.64218" lon="11.70126"><ele>1121</ele><time>2012-05-28T14:19:05Z</time></trkpt><trkpt lat="43.64219" lon="11.70116"><ele>1121</ele><time>2012-05-28T14:19:06Z</time></trkpt><trkpt lat="43.64220" lon="11.70097"><ele>1118</ele><time>2012-05-28T14:19:08Z</time></trkpt><trkpt lat="43.64220" lon="11.70089"><ele>1118</ele><time>2012-05-28T14:19:09Z</time></trkpt><trkpt lat="43.64221" lon="11.70081"><ele>1116</ele><time>2012-05-28T14:19:10Z</time></trkpt><trkpt lat="43.64222" lon="11.70066"><ele>1115</ele><time>2012-05-28T14:19:12Z</time></trkpt><trkpt lat="43.64221" lon="11.70060"><ele>1116</ele><time>2012-05-28T14:19:13Z</time></trkpt><trkpt lat="43.64221" lon="11.70055"><ele>1116</ele><time>2012-05-28T14:19:14Z</time></trkpt><trkpt lat="43.64221" lon="11.70048"><ele>1117</ele><time>2012-05-28T14:19:15Z</time></trkpt><trkpt lat="43.64220" lon="11.70042"><ele>1117</ele><time>2012-05-28T14:19:16Z</time></trkpt><trkpt lat="43.64222" lon="11.70032"><ele>1117</ele><time>2012-05-28T14:19:17Z</time></trkpt><trkpt lat="43.64222" lon="11.70024"><ele>1117</ele><time>2012-05-28T14:19:18Z</time></trkpt><trkpt lat="43.64224" lon="11.70016"><ele>1117</ele><time>2012-05-28T14:19:19Z</time></trkpt><trkpt lat="43.64225" lon="11.70005"><ele>1115</ele><time>2012-05-28T14:19:20Z</time></trkpt><trkpt lat="43.64226" lon="11.69997"><ele>1115</ele><time>2012-05-28T14:19:21Z</time></trkpt><trkpt lat="43.64230" lon="11.69983"><ele>1115</ele><time>2012-05-28T14:19:24Z</time></trkpt><trkpt lat="43.64232" lon="11.69982"><ele>1115</ele><time>2012-05-28T14:19:25Z</time></trkpt><trkpt lat="43.64235" lon="11.69984"><ele>1116</ele><time>2012-05-28T14:19:28Z</time></trkpt><trkpt lat="43.64238" lon="11.69985"><ele>1117</ele><time>2012-05-28T14:19:31Z</time></trkpt><trkpt lat="43.64241" lon="11.69983"><ele>1119</ele><time>2012-05-28T14:19:35Z</time></trkpt><trkpt lat="43.64245" lon="11.69985"><ele>1119</ele><time>2012-05-28T14:19:44Z</time></trkpt><trkpt lat="43.64248" lon="11.69984"><ele>1117</ele><time>2012-05-28T14:19:49Z</time></trkpt><trkpt lat="43.64248" lon="11.69988"><ele>1115</ele><time>2012-05-28T14:19:53Z</time></trkpt><trkpt lat="43.64249" lon="11.69985"><ele>1116</ele><time>2012-05-28T14:20:15Z</time></trkpt><trkpt lat="43.64248" lon="11.69988"><ele>1112</ele><time>2012-05-28T14:20:24Z</time></trkpt><trkpt lat="43.64247" lon="11.69991"><ele>1112</ele><time>2012-05-28T14:20:25Z</time></trkpt><trkpt lat="43.64246" lon="11.69999"><ele>1111</ele><time>2012-05-28T14:20:27Z</time></trkpt><trkpt lat="43.64246" lon="11.70014"><ele>1112</ele><time>2012-05-28T14:20:31Z</time></trkpt><trkpt lat="43.64246" lon="11.70018"><ele>1112</ele><time>2012-05-28T14:20:32Z</time></trkpt><trkpt lat="43.64247" lon="11.70021"><ele>1112</ele><time>2012-05-28T14:20:33Z</time></trkpt><trkpt lat="43.64251" lon="11.70030"><ele>1110</ele><time>2012-05-28T14:20:36Z</time></trkpt><trkpt lat="43.64253" lon="11.70032"><ele>1110</ele><time>2012-05-28T14:20:37Z</time></trkpt><trkpt lat="43.64260" lon="11.70043"><ele>1110</ele><time>2012-05-28T14:20:41Z</time></trkpt><trkpt lat="43.64263" lon="11.70047"><ele>1110</ele><time>2012-05-28T14:20:43Z</time></trkpt><trkpt lat="43.64268" lon="11.70054"><ele>1110</ele><time>2012-05-28T14:20:47Z</time></trkpt><trkpt lat="43.64270" lon="11.70057"><ele>1113</ele><time>2012-05-28T14:20:50Z</time></trkpt><trkpt lat="43.64273" lon="11.70062"><ele>1114</ele><time>2012-05-28T14:20:52Z</time></trkpt><trkpt lat="43.64273" lon="11.70066"><ele>1114</ele><time>2012-05-28T14:20:53Z</time></trkpt><trkpt lat="43.64274" lon="11.70071"><ele>1114</ele><time>2012-05-28T14:20:54Z</time></trkpt><trkpt lat="43.64274" lon="11.70076"><ele>1115</ele><time>2012-05-28T14:20:55Z</time></trkpt><trkpt lat="43.64274" lon="11.70080"><ele>1115</ele><time>2012-05-28T14:20:56Z</time></trkpt><trkpt lat="43.64275" lon="11.70084"><ele>1112</ele><time>2012-05-28T14:20:57Z</time></trkpt><trkpt lat="43.64276" lon="11.70087"><ele>1112</ele><time>2012-05-28T14:20:58Z</time></trkpt><trkpt lat="43.64280" lon="11.70092"><ele>1106</ele><time>2012-05-28T14:21:00Z</time></trkpt><trkpt lat="43.64287" lon="11.70101"><ele>1102</ele><time>2012-05-28T14:21:04Z</time></trkpt><trkpt lat="43.64294" lon="11.70112"><ele>1102</ele><time>2012-05-28T14:21:07Z</time></trkpt><trkpt lat="43.64298" lon="11.70120"><ele>1102</ele><time>2012-05-28T14:21:09Z</time></trkpt><trkpt lat="43.64300" lon="11.70125"><ele>1102</ele><time>2012-05-28T14:21:10Z</time></trkpt><trkpt lat="43.64304" lon="11.70136"><ele>1102</ele><time>2012-05-28T14:21:12Z</time></trkpt><trkpt lat="43.64306" lon="11.70143"><ele>1100</ele><time>2012-05-28T14:21:13Z</time></trkpt><trkpt lat="43.64307" lon="11.70154"><ele>1097</ele><time>2012-05-28T14:21:14Z</time></trkpt><trkpt lat="43.64309" lon="11.70160"><ele>1097</ele><time>2012-05-28T14:21:15Z</time></trkpt><trkpt lat="43.64314" lon="11.70165"><ele>1097</ele><time>2012-05-28T14:21:16Z</time></trkpt><trkpt lat="43.64319" lon="11.70171"><ele>1098</ele><time>2012-05-28T14:21:17Z</time></trkpt><trkpt lat="43.64322" lon="11.70176"><ele>1098</ele><time>2012-05-28T14:21:18Z</time></trkpt><trkpt lat="43.64333" lon="11.70194"><ele>1098</ele><time>2012-05-28T14:21:20Z</time></trkpt><trkpt lat="43.64337" lon="11.70198"><ele>1098</ele><time>2012-05-28T14:21:21Z</time></trkpt><trkpt lat="43.64341" lon="11.70201"><ele>1099</ele><time>2012-05-28T14:21:22Z</time></trkpt><trkpt lat="43.64344" lon="11.70210"><ele>1098</ele><time>2012-05-28T14:21:23Z</time></trkpt><trkpt lat="43.64348" lon="11.70214"><ele>1099</ele><time>2012-05-28T14:21:24Z</time></trkpt><trkpt lat="43.64349" lon="11.70221"><ele>1099</ele><time>2012-05-28T14:21:25Z</time></trkpt><trkpt lat="43.64356" lon="11.70222"><ele>1099</ele><time>2012-05-28T14:21:26Z</time></trkpt><trkpt lat="43.64361" lon="11.70229"><ele>1098</ele><time>2012-05-28T14:21:27Z</time></trkpt><trkpt lat="43.64366" lon="11.70235"><ele>1098</ele><time>2012-05-28T14:21:28Z</time></trkpt><trkpt lat="43.64371" lon="11.70238"><ele>1098</ele><time>2012-05-28T14:21:29Z</time></trkpt><trkpt lat="43.64374" lon="11.70243"><ele>1098</ele><time>2012-05-28T14:21:30Z</time></trkpt><trkpt lat="43.64376" lon="11.70250"><ele>1099</ele><time>2012-05-28T14:21:31Z</time></trkpt><trkpt lat="43.64380" lon="11.70257"><ele>1098</ele><time>2012-05-28T14:21:32Z</time></trkpt><trkpt lat="43.64382" lon="11.70261"><ele>1097</ele><time>2012-05-28T14:21:33Z</time></trkpt><trkpt lat="43.64391" lon="11.70276"><ele>1096</ele><time>2012-05-28T14:21:36Z</time></trkpt><trkpt lat="43.64394" lon="11.70280"><ele>1096</ele><time>2012-05-28T14:21:37Z</time></trkpt><trkpt lat="43.64398" lon="11.70281"><ele>1096</ele><time>2012-05-28T14:21:38Z</time></trkpt><trkpt lat="43.64402" lon="11.70279"><ele>1097</ele><time>2012-05-28T14:21:39Z</time></trkpt><trkpt lat="43.64408" lon="11.70276"><ele>1097</ele><time>2012-05-28T14:21:41Z</time></trkpt><trkpt lat="43.64412" lon="11.70276"><ele>1097</ele><time>2012-05-28T14:21:42Z</time></trkpt><trkpt lat="43.64416" lon="11.70272"><ele>1097</ele><time>2012-05-28T14:21:43Z</time></trkpt><trkpt lat="43.64420" lon="11.70273"><ele>1098</ele><time>2012-05-28T14:21:44Z</time></trkpt><trkpt lat="43.64425" lon="11.70273"><ele>1097</ele><time>2012-05-28T14:21:45Z</time></trkpt><trkpt lat="43.64435" lon="11.70283"><ele>1097</ele><time>2012-05-28T14:21:46Z</time></trkpt><trkpt lat="43.64442" lon="11.70288"><ele>1097</ele><time>2012-05-28T14:21:47Z</time></trkpt><trkpt lat="43.64447" lon="11.70293"><ele>1096</ele><time>2012-05-28T14:21:48Z</time></trkpt><trkpt lat="43.64449" lon="11.70298"><ele>1096</ele><time>2012-05-28T14:21:49Z</time></trkpt><trkpt lat="43.64454" lon="11.70309"><ele>1096</ele><time>2012-05-28T14:21:51Z</time></trkpt><trkpt lat="43.64456" lon="11.70318"><ele>1096</ele><time>2012-05-28T14:21:52Z</time></trkpt><trkpt lat="43.64456" lon="11.70328"><ele>1096</ele><time>2012-05-28T14:21:53Z</time></trkpt><trkpt lat="43.64459" lon="11.70334"><ele>1096</ele><time>2012-05-28T14:21:54Z</time></trkpt><trkpt lat="43.64460" lon="11.70341"><ele>1096</ele><time>2012-05-28T14:21:55Z</time></trkpt><trkpt lat="43.64459" lon="11.70359"><ele>1097</ele><time>2012-05-28T14:21:57Z</time></trkpt><trkpt lat="43.64460" lon="11.70369"><ele>1095</ele><time>2012-05-28T14:21:58Z</time></trkpt><trkpt lat="43.64462" lon="11.70387"><ele>1094</ele><time>2012-05-28T14:22:01Z</time></trkpt><trkpt lat="43.64464" lon="11.70387"><ele>1092</ele><time>2012-05-28T14:22:02Z</time></trkpt><trkpt lat="43.64466" lon="11.70391"><ele>1091</ele><time>2012-05-28T14:22:03Z</time></trkpt><trkpt lat="43.64472" lon="11.70388"><ele>1091</ele><time>2012-05-28T14:22:04Z</time></trkpt><trkpt lat="43.64488" lon="11.70379"><ele>1091</ele><time>2012-05-28T14:22:06Z</time></trkpt><trkpt lat="43.64493" lon="11.70378"><ele>1091</ele><time>2012-05-28T14:22:07Z</time></trkpt><trkpt lat="43.64495" lon="11.70366"><ele>1091</ele><time>2012-05-28T14:22:08Z</time></trkpt><trkpt lat="43.64498" lon="11.70365"><ele>1091</ele><time>2012-05-28T14:22:09Z</time></trkpt><trkpt lat="43.64508" lon="11.70365"><ele>1089</ele><time>2012-05-28T14:22:10Z</time></trkpt><trkpt lat="43.64511" lon="11.70371"><ele>1088</ele><time>2012-05-28T14:22:11Z</time></trkpt><trkpt lat="43.64511" lon="11.70380"><ele>1088</ele><time>2012-05-28T14:22:12Z</time></trkpt><trkpt lat="43.64509" lon="11.70388"><ele>1088</ele><time>2012-05-28T14:22:13Z</time></trkpt><trkpt lat="43.64508" lon="11.70397"><ele>1087</ele><time>2012-05-28T14:22:14Z</time></trkpt><trkpt lat="43.64508" lon="11.70404"><ele>1087</ele><time>2012-05-28T14:22:15Z</time></trkpt><trkpt lat="43.64506" lon="11.70413"><ele>1087</ele><time>2012-05-28T14:22:16Z</time></trkpt><trkpt lat="43.64507" lon="11.70428"><ele>1087</ele><time>2012-05-28T14:22:17Z</time></trkpt><trkpt lat="43.64506" lon="11.70436"><ele>1086</ele><time>2012-05-28T14:22:18Z</time></trkpt><trkpt lat="43.64497" lon="11.70456"><ele>1083</ele><time>2012-05-28T14:22:20Z</time></trkpt><trkpt lat="43.64495" lon="11.70464"><ele>1082</ele><time>2012-05-28T14:22:21Z</time></trkpt><trkpt lat="43.64491" lon="11.70483"><ele>1081</ele><time>2012-05-28T14:22:24Z</time></trkpt><trkpt lat="43.64491" lon="11.70499"><ele>1077</ele><time>2012-05-28T14:22:26Z</time></trkpt><trkpt lat="43.64497" lon="11.70505"><ele>1077</ele><time>2012-05-28T14:22:27Z</time></trkpt><trkpt lat="43.64500" lon="11.70511"><ele>1077</ele><time>2012-05-28T14:22:28Z</time></trkpt><trkpt lat="43.64502" lon="11.70514"><ele>1077</ele><time>2012-05-28T14:22:29Z</time></trkpt><trkpt lat="43.64505" lon="11.70518"><ele>1078</ele><time>2012-05-28T14:22:30Z</time></trkpt><trkpt lat="43.64510" lon="11.70529"><ele>1076</ele><time>2012-05-28T14:22:32Z</time></trkpt><trkpt lat="43.64513" lon="11.70530"><ele>1077</ele><time>2012-05-28T14:22:33Z</time></trkpt><trkpt lat="43.64515" lon="11.70535"><ele>1077</ele><time>2012-05-28T14:22:34Z</time></trkpt><trkpt lat="43.64518" lon="11.70538"><ele>1076</ele><time>2012-05-28T14:22:35Z</time></trkpt><trkpt lat="43.64520" lon="11.70542"><ele>1077</ele><time>2012-05-28T14:22:36Z</time></trkpt><trkpt lat="43.64521" lon="11.70552"><ele>1076</ele><time>2012-05-28T14:22:37Z</time></trkpt><trkpt lat="43.64524" lon="11.70562"><ele>1076</ele><time>2012-05-28T14:22:39Z</time></trkpt><trkpt lat="43.64528" lon="11.70575"><ele>1076</ele><time>2012-05-28T14:22:41Z</time></trkpt><trkpt lat="43.64532" lon="11.70591"><ele>1076</ele><time>2012-05-28T14:22:43Z</time></trkpt><trkpt lat="43.64527" lon="11.70600"><ele>1075</ele><time>2012-05-28T14:22:44Z</time></trkpt><trkpt lat="43.64527" lon="11.70611"><ele>1074</ele><time>2012-05-28T14:22:45Z</time></trkpt><trkpt lat="43.64529" lon="11.70623"><ele>1074</ele><time>2012-05-28T14:22:46Z</time></trkpt><trkpt lat="43.64533" lon="11.70642"><ele>1073</ele><time>2012-05-28T14:22:48Z</time></trkpt><trkpt lat="43.64539" lon="11.70650"><ele>1069</ele><time>2012-05-28T14:22:49Z</time></trkpt><trkpt lat="43.64540" lon="11.70658"><ele>1068</ele><time>2012-05-28T14:22:50Z</time></trkpt><trkpt lat="43.64545" lon="11.70681"><ele>1063</ele><time>2012-05-28T14:22:52Z</time></trkpt><trkpt lat="43.64549" lon="11.70699"><ele>1062</ele><time>2012-05-28T14:22:54Z</time></trkpt><trkpt lat="43.64553" lon="11.70708"><ele>1062</ele><time>2012-05-28T14:22:55Z</time></trkpt><trkpt lat="43.64557" lon="11.70717"><ele>1062</ele><time>2012-05-28T14:22:56Z</time></trkpt><trkpt lat="43.64566" lon="11.70709"><ele>1060</ele><time>2012-05-28T14:22:57Z</time></trkpt><trkpt lat="43.64571" lon="11.70711"><ele>1060</ele><time>2012-05-28T14:22:58Z</time></trkpt><trkpt lat="43.64574" lon="11.70714"><ele>1060</ele><time>2012-05-28T14:22:59Z</time></trkpt><trkpt lat="43.64577" lon="11.70716"><ele>1060</ele><time>2012-05-28T14:23:00Z</time></trkpt><trkpt lat="43.64582" lon="11.70717"><ele>1053</ele><time>2012-05-28T14:23:01Z</time></trkpt><trkpt lat="43.64586" lon="11.70718"><ele>1047</ele><time>2012-05-28T14:23:02Z</time></trkpt><trkpt lat="43.64589" lon="11.70720"><ele>1047</ele><time>2012-05-28T14:23:03Z</time></trkpt><trkpt lat="43.64592" lon="11.70726"><ele>1047</ele><time>2012-05-28T14:23:04Z</time></trkpt><trkpt lat="43.64599" lon="11.70728"><ele>1048</ele><time>2012-05-28T14:23:05Z</time></trkpt><trkpt lat="43.64599" lon="11.70740"><ele>1049</ele><time>2012-05-28T14:23:06Z</time></trkpt><trkpt lat="43.64601" lon="11.70747"><ele>1049</ele><time>2012-05-28T14:23:07Z</time></trkpt><trkpt lat="43.64604" lon="11.70753"><ele>1049</ele><time>2012-05-28T14:23:08Z</time></trkpt><trkpt lat="43.64606" lon="11.70756"><ele>1049</ele><time>2012-05-28T14:23:09Z</time></trkpt><trkpt lat="43.64609" lon="11.70763"><ele>1048</ele><time>2012-05-28T14:23:10Z</time></trkpt><trkpt lat="43.64616" lon="11.70778"><ele>1048</ele><time>2012-05-28T14:23:12Z</time></trkpt><trkpt lat="43.64624" lon="11.70793"><ele>1047</ele><time>2012-05-28T14:23:14Z</time></trkpt><trkpt lat="43.64627" lon="11.70803"><ele>1048</ele><time>2012-05-28T14:23:15Z</time></trkpt><trkpt lat="43.64629" lon="11.70806"><ele>1048</ele><time>2012-05-28T14:23:16Z</time></trkpt><trkpt lat="43.64636" lon="11.70815"><ele>1047</ele><time>2012-05-28T14:23:19Z</time></trkpt><trkpt lat="43.64639" lon="11.70817"><ele>1047</ele><time>2012-05-28T14:23:20Z</time></trkpt><trkpt lat="43.64642" lon="11.70816"><ele>1047</ele><time>2012-05-28T14:23:21Z</time></trkpt><trkpt lat="43.64647" lon="11.70817"><ele>1048</ele><time>2012-05-28T14:23:22Z</time></trkpt><trkpt lat="43.64651" lon="11.70819"><ele>1049</ele><time>2012-05-28T14:23:23Z</time></trkpt><trkpt lat="43.64663" lon="11.70824"><ele>1048</ele><time>2012-05-28T14:23:26Z</time></trkpt><trkpt lat="43.64670" lon="11.70832"><ele>1047</ele><time>2012-05-28T14:23:27Z</time></trkpt><trkpt lat="43.64674" lon="11.70834"><ele>1047</ele><time>2012-05-28T14:23:28Z</time></trkpt><trkpt lat="43.64678" lon="11.70835"><ele>1052</ele><time>2012-05-28T14:23:29Z</time></trkpt><trkpt lat="43.64685" lon="11.70833"><ele>1053</ele><time>2012-05-28T14:23:31Z</time></trkpt><trkpt lat="43.64690" lon="11.70836"><ele>1053</ele><time>2012-05-28T14:23:32Z</time></trkpt><trkpt lat="43.64694" lon="11.70837"><ele>1053</ele><time>2012-05-28T14:23:33Z</time></trkpt><trkpt lat="43.64703" lon="11.70836"><ele>1053</ele><time>2012-05-28T14:23:34Z</time></trkpt><trkpt lat="43.64706" lon="11.70837"><ele>1053</ele><time>2012-05-28T14:23:35Z</time></trkpt><trkpt lat="43.64712" lon="11.70849"><ele>1050</ele><time>2012-05-28T14:23:36Z</time></trkpt><trkpt lat="43.64717" lon="11.70851"><ele>1050</ele><time>2012-05-28T14:23:37Z</time></trkpt><trkpt lat="43.64720" lon="11.70857"><ele>1050</ele><time>2012-05-28T14:23:38Z</time></trkpt><trkpt lat="43.64723" lon="11.70871"><ele>1049</ele><time>2012-05-28T14:23:39Z</time></trkpt><trkpt lat="43.64730" lon="11.70877"><ele>1049</ele><time>2012-05-28T14:23:40Z</time></trkpt><trkpt lat="43.64732" lon="11.70886"><ele>1049</ele><time>2012-05-28T14:23:41Z</time></trkpt><trkpt lat="43.64734" lon="11.70902"><ele>1047</ele><time>2012-05-28T14:23:44Z</time></trkpt><trkpt lat="43.64734" lon="11.70907"><ele>1047</ele><time>2012-05-28T14:23:45Z</time></trkpt><trkpt lat="43.64736" lon="11.70908"><ele>1047</ele><time>2012-05-28T14:23:46Z</time></trkpt><trkpt lat="43.64738" lon="11.70912"><ele>1047</ele><time>2012-05-28T14:23:47Z</time></trkpt><trkpt lat="43.64741" lon="11.70914"><ele>1047</ele><time>2012-05-28T14:23:48Z</time></trkpt><trkpt lat="43.64744" lon="11.70916"><ele>1047</ele><time>2012-05-28T14:23:49Z</time></trkpt><trkpt lat="43.64748" lon="11.70919"><ele>1047</ele><time>2012-05-28T14:23:50Z</time></trkpt><trkpt lat="43.64750" lon="11.70921"><ele>1047</ele><time>2012-05-28T14:23:51Z</time></trkpt><trkpt lat="43.64753" lon="11.70925"><ele>1047</ele><time>2012-05-28T14:23:52Z</time></trkpt><trkpt lat="43.64756" lon="11.70927"><ele>1047</ele><time>2012-05-28T14:23:53Z</time></trkpt><trkpt lat="43.64760" lon="11.70928"><ele>1047</ele><time>2012-05-28T14:23:54Z</time></trkpt><trkpt lat="43.64765" lon="11.70930"><ele>1048</ele><time>2012-05-28T14:23:56Z</time></trkpt><trkpt lat="43.64772" lon="11.70930"><ele>1050</ele><time>2012-05-28T14:23:59Z</time></trkpt><trkpt lat="43.64791" lon="11.70935"><ele>1050</ele><time>2012-05-28T14:24:04Z</time></trkpt><trkpt lat="43.64802" lon="11.70969"><ele>1048</ele><time>2012-05-28T14:24:05Z</time></trkpt><trkpt lat="43.64805" lon="11.70979"><ele>1048</ele><time>2012-05-28T14:24:06Z</time></trkpt><trkpt lat="43.64805" lon="11.70986"><ele>1048</ele><time>2012-05-28T14:24:07Z</time></trkpt><trkpt lat="43.64803" lon="11.71005"><ele>1044</ele><time>2012-05-28T14:24:09Z</time></trkpt><trkpt lat="43.64802" lon="11.71012"><ele>1042</ele><time>2012-05-28T14:24:10Z</time></trkpt><trkpt lat="43.64799" lon="11.71026"><ele>1043</ele><time>2012-05-28T14:24:12Z</time></trkpt><trkpt lat="43.64796" lon="11.71033"><ele>1042</ele><time>2012-05-28T14:24:13Z</time></trkpt><trkpt lat="43.64794" lon="11.71037"><ele>1042</ele><time>2012-05-28T14:24:14Z</time></trkpt><trkpt lat="43.64790" lon="11.71041"><ele>1042</ele><time>2012-05-28T14:24:15Z</time></trkpt><trkpt lat="43.64789" lon="11.71045"><ele>1042</ele><time>2012-05-28T14:24:16Z</time></trkpt><trkpt lat="43.64788" lon="11.71056"><ele>1038</ele><time>2012-05-28T14:24:17Z</time></trkpt><trkpt lat="43.64785" lon="11.71060"><ele>1038</ele><time>2012-05-28T14:24:18Z</time></trkpt><trkpt lat="43.64782" lon="11.71067"><ele>1036</ele><time>2012-05-28T14:24:19Z</time></trkpt><trkpt lat="43.64781" lon="11.71075"><ele>1034</ele><time>2012-05-28T14:24:20Z</time></trkpt><trkpt lat="43.64781" lon="11.71092"><ele>1031</ele><time>2012-05-28T14:24:23Z</time></trkpt><trkpt lat="43.64782" lon="11.71097"><ele>1029</ele><time>2012-05-28T14:24:24Z</time></trkpt><trkpt lat="43.64783" lon="11.71102"><ele>1026</ele><time>2012-05-28T14:24:25Z</time></trkpt><trkpt lat="43.64785" lon="11.71119"><ele>1023</ele><time>2012-05-28T14:24:27Z</time></trkpt><trkpt lat="43.64785" lon="11.71127"><ele>1023</ele><time>2012-05-28T14:24:28Z</time></trkpt><trkpt lat="43.64786" lon="11.71135"><ele>1022</ele><time>2012-05-28T14:24:29Z</time></trkpt><trkpt lat="43.64783" lon="11.71143"><ele>1023</ele><time>2012-05-28T14:24:30Z</time></trkpt><trkpt lat="43.64781" lon="11.71151"><ele>1023</ele><time>2012-05-28T14:24:31Z</time></trkpt><trkpt lat="43.64780" lon="11.71158"><ele>1023</ele><time>2012-05-28T14:24:32Z</time></trkpt><trkpt lat="43.64780" lon="11.71170"><ele>1023</ele><time>2012-05-28T14:24:33Z</time></trkpt><trkpt lat="43.64780" lon="11.71176"><ele>1021</ele><time>2012-05-28T14:24:34Z</time></trkpt><trkpt lat="43.64778" lon="11.71186"><ele>1020</ele><time>2012-05-28T14:24:35Z</time></trkpt><trkpt lat="43.64779" lon="11.71195"><ele>1020</ele><time>2012-05-28T14:24:36Z</time></trkpt><trkpt lat="43.64780" lon="11.71203"><ele>1019</ele><time>2012-05-28T14:24:37Z</time></trkpt><trkpt lat="43.64781" lon="11.71212"><ele>1018</ele><time>2012-05-28T14:24:38Z</time></trkpt><trkpt lat="43.64781" lon="11.71220"><ele>1017</ele><time>2012-05-28T14:24:39Z</time></trkpt><trkpt lat="43.64784" lon="11.71225"><ele>1017</ele><time>2012-05-28T14:24:40Z</time></trkpt><trkpt lat="43.64783" lon="11.71233"><ele>1017</ele><time>2012-05-28T14:24:41Z</time></trkpt><trkpt lat="43.64787" lon="11.71238"><ele>1017</ele><time>2012-05-28T14:24:42Z</time></trkpt><trkpt lat="43.64788" lon="11.71247"><ele>1017</ele><time>2012-05-28T14:24:43Z</time></trkpt><trkpt lat="43.64790" lon="11.71252"><ele>1017</ele><time>2012-05-28T14:24:44Z</time></trkpt><trkpt lat="43.64794" lon="11.71258"><ele>1017</ele><time>2012-05-28T14:24:45Z</time></trkpt><trkpt lat="43.64795" lon="11.71263"><ele>1017</ele><time>2012-05-28T14:24:46Z</time></trkpt><trkpt lat="43.64798" lon="11.71264"><ele>1017</ele><time>2012-05-28T14:24:47Z</time></trkpt><trkpt lat="43.64804" lon="11.71265"><ele>1017</ele><time>2012-05-28T14:24:48Z</time></trkpt><trkpt lat="43.64807" lon="11.71267"><ele>1018</ele><time>2012-05-28T14:24:49Z</time></trkpt><trkpt lat="43.64812" lon="11.71271"><ele>1017</ele><time>2012-05-28T14:24:50Z</time></trkpt><trkpt lat="43.64819" lon="11.71274"><ele>1017</ele><time>2012-05-28T14:24:52Z</time></trkpt><trkpt lat="43.64823" lon="11.71274"><ele>1017</ele><time>2012-05-28T14:24:53Z</time></trkpt><trkpt lat="43.64827" lon="11.71272"><ele>1017</ele><time>2012-05-28T14:24:54Z</time></trkpt><trkpt lat="43.64835" lon="11.71269"><ele>1018</ele><time>2012-05-28T14:24:56Z</time></trkpt><trkpt lat="43.64838" lon="11.71270"><ele>1018</ele><time>2012-05-28T14:24:57Z</time></trkpt><trkpt lat="43.64845" lon="11.71271"><ele>1018</ele><time>2012-05-28T14:24:59Z</time></trkpt><trkpt lat="43.64849" lon="11.71271"><ele>1019</ele><time>2012-05-28T14:25:00Z</time></trkpt><trkpt lat="43.64851" lon="11.71272"><ele>1018</ele><time>2012-05-28T14:25:01Z</time></trkpt><trkpt lat="43.64858" lon="11.71279"><ele>1018</ele><time>2012-05-28T14:25:03Z</time></trkpt><trkpt lat="43.64862" lon="11.71286"><ele>1018</ele><time>2012-05-28T14:25:04Z</time></trkpt><trkpt lat="43.64864" lon="11.71294"><ele>1018</ele><time>2012-05-28T14:25:05Z</time></trkpt><trkpt lat="43.64866" lon="11.71302"><ele>1019</ele><time>2012-05-28T14:25:06Z</time></trkpt><trkpt lat="43.64869" lon="11.71321"><ele>1019</ele><time>2012-05-28T14:25:08Z</time></trkpt><trkpt lat="43.64870" lon="11.71339"><ele>1018</ele><time>2012-05-28T14:25:10Z</time></trkpt><trkpt lat="43.64872" lon="11.71366"><ele>1010</ele><time>2012-05-28T14:25:12Z</time></trkpt><trkpt lat="43.64869" lon="11.71383"><ele>1009</ele><time>2012-05-28T14:25:14Z</time></trkpt><trkpt lat="43.64867" lon="11.71389"><ele>1009</ele><time>2012-05-28T14:25:15Z</time></trkpt><trkpt lat="43.64861" lon="11.71398"><ele>1010</ele><time>2012-05-28T14:25:17Z</time></trkpt><trkpt lat="43.64857" lon="11.71403"><ele>1010</ele><time>2012-05-28T14:25:18Z</time></trkpt><trkpt lat="43.64853" lon="11.71412"><ele>1009</ele><time>2012-05-28T14:25:19Z</time></trkpt><trkpt lat="43.64849" lon="11.71422"><ele>1009</ele><time>2012-05-28T14:25:20Z</time></trkpt><trkpt lat="43.64845" lon="11.71428"><ele>1009</ele><time>2012-05-28T14:25:21Z</time></trkpt><trkpt lat="43.64841" lon="11.71433"><ele>1009</ele><time>2012-05-28T14:25:22Z</time></trkpt><trkpt lat="43.64840" lon="11.71439"><ele>1008</ele><time>2012-05-28T14:25:23Z</time></trkpt><trkpt lat="43.64836" lon="11.71446"><ele>1008</ele><time>2012-05-28T14:25:24Z</time></trkpt><trkpt lat="43.64835" lon="11.71453"><ele>1008</ele><time>2012-05-28T14:25:25Z</time></trkpt><trkpt lat="43.64832" lon="11.71476"><ele>1007</ele><time>2012-05-28T14:25:27Z</time></trkpt><trkpt lat="43.64836" lon="11.71486"><ele>1006</ele><time>2012-05-28T14:25:28Z</time></trkpt><trkpt lat="43.64837" lon="11.71496"><ele>1008</ele><time>2012-05-28T14:25:29Z</time></trkpt><trkpt lat="43.64838" lon="11.71505"><ele>1008</ele><time>2012-05-28T14:25:30Z</time></trkpt><trkpt lat="43.64838" lon="11.71514"><ele>1009</ele><time>2012-05-28T14:25:31Z</time></trkpt><trkpt lat="43.64835" lon="11.71521"><ele>1008</ele><time>2012-05-28T14:25:32Z</time></trkpt><trkpt lat="43.64837" lon="11.71527"><ele>1006</ele><time>2012-05-28T14:25:33Z</time></trkpt><trkpt lat="43.64839" lon="11.71544"><ele>1005</ele><time>2012-05-28T14:25:35Z</time></trkpt><trkpt lat="43.64841" lon="11.71561"><ele>1005</ele><time>2012-05-28T14:25:37Z</time></trkpt><trkpt lat="43.64843" lon="11.71570"><ele>1005</ele><time>2012-05-28T14:25:38Z</time></trkpt><trkpt lat="43.64843" lon="11.71578"><ele>1005</ele><time>2012-05-28T14:25:39Z</time></trkpt><trkpt lat="43.64843" lon="11.71592"><ele>1005</ele><time>2012-05-28T14:25:40Z</time></trkpt><trkpt lat="43.64843" lon="11.71595"><ele>1005</ele><time>2012-05-28T14:25:41Z</time></trkpt><trkpt lat="43.64842" lon="11.71601"><ele>1003</ele><time>2012-05-28T14:25:42Z</time></trkpt><trkpt lat="43.64842" lon="11.71605"><ele>1002</ele><time>2012-05-28T14:25:43Z</time></trkpt><trkpt lat="43.64843" lon="11.71608"><ele>1000</ele><time>2012-05-28T14:25:44Z</time></trkpt><trkpt lat="43.64844" lon="11.71612"><ele>1000</ele><time>2012-05-28T14:25:49Z</time></trkpt><trkpt lat="43.64847" lon="11.71611"><ele>1001</ele><time>2012-05-28T14:25:50Z</time></trkpt><trkpt lat="43.64844" lon="11.71613"><ele>993</ele><time>2012-05-28T14:26:02Z</time></trkpt><trkpt lat="43.64842" lon="11.71619"><ele>994</ele><time>2012-05-28T14:26:11Z</time></trkpt><trkpt lat="43.64844" lon="11.71622"><ele>997</ele><time>2012-05-28T14:26:38Z</time></trkpt><trkpt lat="43.64846" lon="11.71618"><ele>993</ele><time>2012-05-28T14:26:47Z</time></trkpt><trkpt lat="43.64849" lon="11.71616"><ele>989</ele><time>2012-05-28T14:26:53Z</time></trkpt><trkpt lat="43.64852" lon="11.71616"><ele>986</ele><time>2012-05-28T14:27:05Z</time></trkpt><trkpt lat="43.64855" lon="11.71615"><ele>987</ele><time>2012-05-28T14:27:08Z</time></trkpt><trkpt lat="43.64851" lon="11.71615"><ele>985</ele><time>2012-05-28T14:27:31Z</time></trkpt><trkpt lat="43.64852" lon="11.71612"><ele>988</ele><time>2012-05-28T14:27:51Z</time></trkpt><trkpt lat="43.64855" lon="11.71612"><ele>990</ele><time>2012-05-28T14:27:59Z</time></trkpt><trkpt lat="43.64856" lon="11.71615"><ele>988</ele><time>2012-05-28T14:28:26Z</time></trkpt><trkpt lat="43.64859" lon="11.71618"><ele>989</ele><time>2012-05-28T14:28:27Z</time></trkpt><trkpt lat="43.64862" lon="11.71620"><ele>989</ele><time>2012-05-28T14:28:28Z</time></trkpt><trkpt lat="43.64870" lon="11.71628"><ele>988</ele><time>2012-05-28T14:28:31Z</time></trkpt><trkpt lat="43.64873" lon="11.71634"><ele>984</ele><time>2012-05-28T14:28:32Z</time></trkpt><trkpt lat="43.64876" lon="11.71637"><ele>983</ele><time>2012-05-28T14:28:33Z</time></trkpt><trkpt lat="43.64881" lon="11.71654"><ele>981</ele><time>2012-05-28T14:28:34Z</time></trkpt><trkpt lat="43.64885" lon="11.71661"><ele>982</ele><time>2012-05-28T14:28:35Z</time></trkpt><trkpt lat="43.64892" lon="11.71675"><ele>980</ele><time>2012-05-28T14:28:37Z</time></trkpt><trkpt lat="43.64893" lon="11.71682"><ele>980</ele><time>2012-05-28T14:28:38Z</time></trkpt><trkpt lat="43.64896" lon="11.71699"><ele>980</ele><time>2012-05-28T14:28:40Z</time></trkpt><trkpt lat="43.64897" lon="11.71708"><ele>979</ele><time>2012-05-28T14:28:41Z</time></trkpt><trkpt lat="43.64897" lon="11.71718"><ele>980</ele><time>2012-05-28T14:28:42Z</time></trkpt><trkpt lat="43.64901" lon="11.71738"><ele>979</ele><time>2012-05-28T14:28:44Z</time></trkpt><trkpt lat="43.64904" lon="11.71753"><ele>980</ele><time>2012-05-28T14:28:46Z</time></trkpt><trkpt lat="43.64905" lon="11.71763"><ele>979</ele><time>2012-05-28T14:28:47Z</time></trkpt><trkpt lat="43.64907" lon="11.71773"><ele>979</ele><time>2012-05-28T14:28:48Z</time></trkpt><trkpt lat="43.64917" lon="11.71816"><ele>978</ele><time>2012-05-28T14:28:52Z</time></trkpt><trkpt lat="43.64921" lon="11.71831"><ele>977</ele><time>2012-05-28T14:28:54Z</time></trkpt><trkpt lat="43.64923" lon="11.71852"><ele>976</ele><time>2012-05-28T14:28:56Z</time></trkpt><trkpt lat="43.64923" lon="11.71863"><ele>977</ele><time>2012-05-28T14:28:57Z</time></trkpt><trkpt lat="43.64920" lon="11.71874"><ele>977</ele><time>2012-05-28T14:28:58Z</time></trkpt><trkpt lat="43.64919" lon="11.71889"><ele>977</ele><time>2012-05-28T14:28:59Z</time></trkpt><trkpt lat="43.64921" lon="11.71900"><ele>976</ele><time>2012-05-28T14:29:00Z</time></trkpt><trkpt lat="43.64921" lon="11.71910"><ele>976</ele><time>2012-05-28T14:29:01Z</time></trkpt><trkpt lat="43.64926" lon="11.71915"><ele>976</ele><time>2012-05-28T14:29:02Z</time></trkpt><trkpt lat="43.64927" lon="11.71923"><ele>976</ele><time>2012-05-28T14:29:03Z</time></trkpt><trkpt lat="43.64924" lon="11.71938"><ele>976</ele><time>2012-05-28T14:29:04Z</time></trkpt><trkpt lat="43.64919" lon="11.71948"><ele>975</ele><time>2012-05-28T14:29:05Z</time></trkpt><trkpt lat="43.64912" lon="11.71967"><ele>972</ele><time>2012-05-28T14:29:07Z</time></trkpt><trkpt lat="43.64908" lon="11.71985"><ele>971</ele><time>2012-05-28T14:29:09Z</time></trkpt><trkpt lat="43.64912" lon="11.71993"><ele>970</ele><time>2012-05-28T14:29:10Z</time></trkpt><trkpt lat="43.64917" lon="11.72009"><ele>970</ele><time>2012-05-28T14:29:12Z</time></trkpt><trkpt lat="43.64928" lon="11.72041"><ele>970</ele><time>2012-05-28T14:29:16Z</time></trkpt><trkpt lat="43.64935" lon="11.72049"><ele>968</ele><time>2012-05-28T14:29:17Z</time></trkpt><trkpt lat="43.64938" lon="11.72056"><ele>966</ele><time>2012-05-28T14:29:18Z</time></trkpt><trkpt lat="43.64944" lon="11.72065"><ele>966</ele><time>2012-05-28T14:29:19Z</time></trkpt><trkpt lat="43.64946" lon="11.72076"><ele>966</ele><time>2012-05-28T14:29:20Z</time></trkpt><trkpt lat="43.64952" lon="11.72084"><ele>964</ele><time>2012-05-28T14:29:21Z</time></trkpt><trkpt lat="43.64957" lon="11.72094"><ele>962</ele><time>2012-05-28T14:29:22Z</time></trkpt><trkpt lat="43.64963" lon="11.72103"><ele>962</ele><time>2012-05-28T14:29:23Z</time></trkpt><trkpt lat="43.64964" lon="11.72118"><ele>962</ele><time>2012-05-28T14:29:24Z</time></trkpt><trkpt lat="43.64967" lon="11.72125"><ele>962</ele><time>2012-05-28T14:29:25Z</time></trkpt><trkpt lat="43.64968" lon="11.72132"><ele>960</ele><time>2012-05-28T14:29:26Z</time></trkpt><trkpt lat="43.64970" lon="11.72149"><ele>961</ele><time>2012-05-28T14:29:28Z</time></trkpt><trkpt lat="43.64973" lon="11.72159"><ele>960</ele><time>2012-05-28T14:29:29Z</time></trkpt><trkpt lat="43.64976" lon="11.72166"><ele>960</ele><time>2012-05-28T14:29:30Z</time></trkpt><trkpt lat="43.64977" lon="11.72174"><ele>960</ele><time>2012-05-28T14:29:31Z</time></trkpt><trkpt lat="43.64980" lon="11.72182"><ele>959</ele><time>2012-05-28T14:29:32Z</time></trkpt><trkpt lat="43.64985" lon="11.72201"><ele>957</ele><time>2012-05-28T14:29:34Z</time></trkpt><trkpt lat="43.64989" lon="11.72217"><ele>956</ele><time>2012-05-28T14:29:36Z</time></trkpt><trkpt lat="43.64990" lon="11.72227"><ele>956</ele><time>2012-05-28T14:29:37Z</time></trkpt><trkpt lat="43.64993" lon="11.72235"><ele>956</ele><time>2012-05-28T14:29:38Z</time></trkpt><trkpt lat="43.64997" lon="11.72243"><ele>956</ele><time>2012-05-28T14:29:39Z</time></trkpt><trkpt lat="43.64998" lon="11.72251"><ele>955</ele><time>2012-05-28T14:29:40Z</time></trkpt><trkpt lat="43.65001" lon="11.72260"><ele>955</ele><time>2012-05-28T14:29:41Z</time></trkpt><trkpt lat="43.65006" lon="11.72276"><ele>955</ele><time>2012-05-28T14:29:43Z</time></trkpt><trkpt lat="43.65008" lon="11.72286"><ele>949</ele><time>2012-05-28T14:29:44Z</time></trkpt><trkpt lat="43.65011" lon="11.72293"><ele>948</ele><time>2012-05-28T14:29:45Z</time></trkpt><trkpt lat="43.65014" lon="11.72300"><ele>948</ele><time>2012-05-28T14:29:46Z</time></trkpt><trkpt lat="43.65017" lon="11.72309"><ele>947</ele><time>2012-05-28T14:29:47Z</time></trkpt><trkpt lat="43.65021" lon="11.72325"><ele>947</ele><time>2012-05-28T14:29:49Z</time></trkpt><trkpt lat="43.65023" lon="11.72336"><ele>948</ele><time>2012-05-28T14:29:50Z</time></trkpt><trkpt lat="43.65023" lon="11.72348"><ele>946</ele><time>2012-05-28T14:29:51Z</time></trkpt><trkpt lat="43.65024" lon="11.72357"><ele>944</ele><time>2012-05-28T14:29:52Z</time></trkpt><trkpt lat="43.65023" lon="11.72367"><ele>945</ele><time>2012-05-28T14:29:53Z</time></trkpt><trkpt lat="43.65022" lon="11.72386"><ele>944</ele><time>2012-05-28T14:29:55Z</time></trkpt><trkpt lat="43.65025" lon="11.72394"><ele>944</ele><time>2012-05-28T14:29:56Z</time></trkpt><trkpt lat="43.65029" lon="11.72407"><ele>945</ele><time>2012-05-28T14:29:58Z</time></trkpt><trkpt lat="43.65032" lon="11.72413"><ele>945</ele><time>2012-05-28T14:29:59Z</time></trkpt><trkpt lat="43.65034" lon="11.72420"><ele>944</ele><time>2012-05-28T14:30:00Z</time></trkpt><trkpt lat="43.65037" lon="11.72427"><ele>944</ele><time>2012-05-28T14:30:01Z</time></trkpt><trkpt lat="43.65040" lon="11.72432"><ele>945</ele><time>2012-05-28T14:30:02Z</time></trkpt><trkpt lat="43.65042" lon="11.72439"><ele>946</ele><time>2012-05-28T14:30:03Z</time></trkpt><trkpt lat="43.65043" lon="11.72445"><ele>946</ele><time>2012-05-28T14:30:04Z</time></trkpt><trkpt lat="43.65041" lon="11.72461"><ele>942</ele><time>2012-05-28T14:30:06Z</time></trkpt><trkpt lat="43.65036" lon="11.72471"><ele>940</ele><time>2012-05-28T14:30:08Z</time></trkpt><trkpt lat="43.65032" lon="11.72475"><ele>940</ele><time>2012-05-28T14:30:09Z</time></trkpt><trkpt lat="43.65028" lon="11.72471"><ele>939</ele><time>2012-05-28T14:30:10Z</time></trkpt><trkpt lat="43.65025" lon="11.72471"><ele>939</ele><time>2012-05-28T14:30:11Z</time></trkpt><trkpt lat="43.65017" lon="11.72469"><ele>939</ele><time>2012-05-28T14:30:12Z</time></trkpt><trkpt lat="43.65014" lon="11.72468"><ele>940</ele><time>2012-05-28T14:30:13Z</time></trkpt><trkpt lat="43.65012" lon="11.72458"><ele>939</ele><time>2012-05-28T14:30:15Z</time></trkpt><trkpt lat="43.65013" lon="11.72446"><ele>939</ele><time>2012-05-28T14:30:16Z</time></trkpt><trkpt lat="43.65011" lon="11.72442"><ele>939</ele><time>2012-05-28T14:30:17Z</time></trkpt><trkpt lat="43.65011" lon="11.72438"><ele>940</ele><time>2012-05-28T14:30:18Z</time></trkpt><trkpt lat="43.65010" lon="11.72427"><ele>940</ele><time>2012-05-28T14:30:21Z</time></trkpt><trkpt lat="43.65008" lon="11.72423"><ele>940</ele><time>2012-05-28T14:30:22Z</time></trkpt><trkpt lat="43.65007" lon="11.72420"><ele>939</ele><time>2012-05-28T14:30:23Z</time></trkpt><trkpt lat="43.65007" lon="11.72417"><ele>938</ele><time>2012-05-28T14:30:24Z</time></trkpt><trkpt lat="43.65006" lon="11.72413"><ele>938</ele><time>2012-05-28T14:30:26Z</time></trkpt><trkpt lat="43.65004" lon="11.72409"><ele>939</ele><time>2012-05-28T14:30:28Z</time></trkpt><trkpt lat="43.64997" lon="11.72398"><ele>939</ele><time>2012-05-28T14:30:33Z</time></trkpt><trkpt lat="43.64996" lon="11.72395"><ele>940</ele><time>2012-05-28T14:30:34Z</time></trkpt><trkpt lat="43.64996" lon="11.72392"><ele>940</ele><time>2012-05-28T14:30:35Z</time></trkpt><trkpt lat="43.64995" lon="11.72386"><ele>940</ele><time>2012-05-28T14:30:37Z</time></trkpt><trkpt lat="43.64993" lon="11.72381"><ele>941</ele><time>2012-05-28T14:30:39Z</time></trkpt><trkpt lat="43.64992" lon="11.72377"><ele>941</ele><time>2012-05-28T14:30:40Z</time></trkpt><trkpt lat="43.64987" lon="11.72364"><ele>940</ele><time>2012-05-28T14:30:43Z</time></trkpt><trkpt lat="43.64981" lon="11.72342"><ele>941</ele><time>2012-05-28T14:30:45Z</time></trkpt><trkpt lat="43.64977" lon="11.72336"><ele>942</ele><time>2012-05-28T14:30:46Z</time></trkpt><trkpt lat="43.64973" lon="11.72331"><ele>942</ele><time>2012-05-28T14:30:47Z</time></trkpt><trkpt lat="43.64965" lon="11.72320"><ele>942</ele><time>2012-05-28T14:30:50Z</time></trkpt><trkpt lat="43.64962" lon="11.72314"><ele>940</ele><time>2012-05-28T14:30:51Z</time></trkpt><trkpt lat="43.64958" lon="11.72311"><ele>939</ele><time>2012-05-28T14:30:52Z</time></trkpt><trkpt lat="43.64955" lon="11.72307"><ele>939</ele><time>2012-05-28T14:30:53Z</time></trkpt><trkpt lat="43.64948" lon="11.72295"><ele>939</ele><time>2012-05-28T14:30:56Z</time></trkpt><trkpt lat="43.64947" lon="11.72289"><ele>939</ele><time>2012-05-28T14:30:57Z</time></trkpt><trkpt lat="43.64947" lon="11.72284"><ele>939</ele><time>2012-05-28T14:30:58Z</time></trkpt><trkpt lat="43.64945" lon="11.72277"><ele>938</ele><time>2012-05-28T14:30:59Z</time></trkpt><trkpt lat="43.64940" lon="11.72260"><ele>936</ele><time>2012-05-28T14:31:01Z</time></trkpt><trkpt lat="43.64936" lon="11.72255"><ele>937</ele><time>2012-05-28T14:31:02Z</time></trkpt><trkpt lat="43.64934" lon="11.72249"><ele>937</ele><time>2012-05-28T14:31:03Z</time></trkpt><trkpt lat="43.64931" lon="11.72241"><ele>938</ele><time>2012-05-28T14:31:04Z</time></trkpt><trkpt lat="43.64929" lon="11.72229"><ele>937</ele><time>2012-05-28T14:31:05Z</time></trkpt><trkpt lat="43.64926" lon="11.72209"><ele>936</ele><time>2012-05-28T14:31:07Z</time></trkpt><trkpt lat="43.64923" lon="11.72199"><ele>935</ele><time>2012-05-28T14:31:08Z</time></trkpt><trkpt lat="43.64921" lon="11.72192"><ele>935</ele><time>2012-05-28T14:31:09Z</time></trkpt><trkpt lat="43.64919" lon="11.72186"><ele>934</ele><time>2012-05-28T14:31:10Z</time></trkpt><trkpt lat="43.64912" lon="11.72173"><ele>935</ele><time>2012-05-28T14:31:13Z</time></trkpt><trkpt lat="43.64910" lon="11.72168"><ele>934</ele><time>2012-05-28T14:31:14Z</time></trkpt><trkpt lat="43.64906" lon="11.72164"><ele>933</ele><time>2012-05-28T14:31:15Z</time></trkpt><trkpt lat="43.64905" lon="11.72159"><ele>933</ele><time>2012-05-28T14:31:16Z</time></trkpt><trkpt lat="43.64903" lon="11.72157"><ele>931</ele><time>2012-05-28T14:31:17Z</time></trkpt><trkpt lat="43.64899" lon="11.72154"><ele>930</ele><time>2012-05-28T14:31:18Z</time></trkpt><trkpt lat="43.64888" lon="11.72146"><ele>927</ele><time>2012-05-28T14:31:22Z</time></trkpt><trkpt lat="43.64880" lon="11.72146"><ele>927</ele><time>2012-05-28T14:31:23Z</time></trkpt><trkpt lat="43.64871" lon="11.72151"><ele>928</ele><time>2012-05-28T14:31:24Z</time></trkpt><trkpt lat="43.64863" lon="11.72150"><ele>928</ele><time>2012-05-28T14:31:25Z</time></trkpt><trkpt lat="43.64860" lon="11.72153"><ele>928</ele><time>2012-05-28T14:31:26Z</time></trkpt><trkpt lat="43.64854" lon="11.72154"><ele>928</ele><time>2012-05-28T14:31:27Z</time></trkpt><trkpt lat="43.64843" lon="11.72153"><ele>929</ele><time>2012-05-28T14:31:29Z</time></trkpt><trkpt lat="43.64837" lon="11.72149"><ele>928</ele><time>2012-05-28T14:31:30Z</time></trkpt><trkpt lat="43.64834" lon="11.72144"><ele>928</ele><time>2012-05-28T14:31:31Z</time></trkpt><trkpt lat="43.64832" lon="11.72135"><ele>927</ele><time>2012-05-28T14:31:32Z</time></trkpt><trkpt lat="43.64828" lon="11.72131"><ele>925</ele><time>2012-05-28T14:31:33Z</time></trkpt><trkpt lat="43.64823" lon="11.72122"><ele>924</ele><time>2012-05-28T14:31:35Z</time></trkpt><trkpt lat="43.64823" lon="11.72103"><ele>924</ele><time>2012-05-28T14:31:37Z</time></trkpt><trkpt lat="43.64822" lon="11.72092"><ele>924</ele><time>2012-05-28T14:31:38Z</time></trkpt><trkpt lat="43.64820" lon="11.72081"><ele>924</ele><time>2012-05-28T14:31:39Z</time></trkpt><trkpt lat="43.64816" lon="11.72063"><ele>924</ele><time>2012-05-28T14:31:41Z</time></trkpt><trkpt lat="43.64812" lon="11.72056"><ele>924</ele><time>2012-05-28T14:31:42Z</time></trkpt><trkpt lat="43.64808" lon="11.72052"><ele>923</ele><time>2012-05-28T14:31:43Z</time></trkpt><trkpt lat="43.64801" lon="11.72050"><ele>922</ele><time>2012-05-28T14:31:44Z</time></trkpt><trkpt lat="43.64795" lon="11.72049"><ele>922</ele><time>2012-05-28T14:31:45Z</time></trkpt><trkpt lat="43.64790" lon="11.72051"><ele>923</ele><time>2012-05-28T14:31:47Z</time></trkpt><trkpt lat="43.64786" lon="11.72057"><ele>922</ele><time>2012-05-28T14:31:48Z</time></trkpt><trkpt lat="43.64784" lon="11.72061"><ele>921</ele><time>2012-05-28T14:31:49Z</time></trkpt><trkpt lat="43.64786" lon="11.72068"><ele>920</ele><time>2012-05-28T14:31:50Z</time></trkpt><trkpt lat="43.64787" lon="11.72074"><ele>920</ele><time>2012-05-28T14:31:51Z</time></trkpt><trkpt lat="43.64791" lon="11.72082"><ele>919</ele><time>2012-05-28T14:31:52Z</time></trkpt><trkpt lat="43.64793" lon="11.72091"><ele>918</ele><time>2012-05-28T14:31:53Z</time></trkpt><trkpt lat="43.64795" lon="11.72097"><ele>918</ele><time>2012-05-28T14:31:54Z</time></trkpt><trkpt lat="43.64797" lon="11.72105"><ele>918</ele><time>2012-05-28T14:31:55Z</time></trkpt><trkpt lat="43.64799" lon="11.72113"><ele>917</ele><time>2012-05-28T14:31:56Z</time></trkpt><trkpt lat="43.64799" lon="11.72122"><ele>916</ele><time>2012-05-28T14:31:57Z</time></trkpt><trkpt lat="43.64801" lon="11.72136"><ele>914</ele><time>2012-05-28T14:31:59Z</time></trkpt><trkpt lat="43.64802" lon="11.72143"><ele>914</ele><time>2012-05-28T14:32:00Z</time></trkpt><trkpt lat="43.64804" lon="11.72149"><ele>913</ele><time>2012-05-28T14:32:01Z</time></trkpt><trkpt lat="43.64805" lon="11.72156"><ele>912</ele><time>2012-05-28T14:32:02Z</time></trkpt><trkpt lat="43.64810" lon="11.72163"><ele>912</ele><time>2012-05-28T14:32:04Z</time></trkpt><trkpt lat="43.64814" lon="11.72165"><ele>912</ele><time>2012-05-28T14:32:05Z</time></trkpt><trkpt lat="43.64816" lon="11.72170"><ele>912</ele><time>2012-05-28T14:32:07Z</time></trkpt><trkpt lat="43.64821" lon="11.72176"><ele>910</ele><time>2012-05-28T14:32:10Z</time></trkpt><trkpt lat="43.64826" lon="11.72184"><ele>911</ele><time>2012-05-28T14:32:13Z</time></trkpt><trkpt lat="43.64830" lon="11.72189"><ele>911</ele><time>2012-05-28T14:32:16Z</time></trkpt><trkpt lat="43.64835" lon="11.72192"><ele>910</ele><time>2012-05-28T14:32:19Z</time></trkpt><trkpt lat="43.64855" lon="11.72207"><ele>910</ele><time>2012-05-28T14:32:25Z</time></trkpt><trkpt lat="43.64859" lon="11.72212"><ele>909</ele><time>2012-05-28T14:32:26Z</time></trkpt><trkpt lat="43.64863" lon="11.72218"><ele>908</ele><time>2012-05-28T14:32:27Z</time></trkpt><trkpt lat="43.64867" lon="11.72224"><ele>908</ele><time>2012-05-28T14:32:28Z</time></trkpt><trkpt lat="43.64874" lon="11.72235"><ele>907</ele><time>2012-05-28T14:32:30Z</time></trkpt><trkpt lat="43.64877" lon="11.72241"><ele>906</ele><time>2012-05-28T14:32:31Z</time></trkpt><trkpt lat="43.64882" lon="11.72253"><ele>904</ele><time>2012-05-28T14:32:33Z</time></trkpt><trkpt lat="43.64885" lon="11.72264"><ele>903</ele><time>2012-05-28T14:32:35Z</time></trkpt><trkpt lat="43.64886" lon="11.72270"><ele>902</ele><time>2012-05-28T14:32:36Z</time></trkpt><trkpt lat="43.64885" lon="11.72276"><ele>902</ele><time>2012-05-28T14:32:37Z</time></trkpt><trkpt lat="43.64881" lon="11.72290"><ele>901</ele><time>2012-05-28T14:32:39Z</time></trkpt><trkpt lat="43.64879" lon="11.72297"><ele>900</ele><time>2012-05-28T14:32:40Z</time></trkpt><trkpt lat="43.64877" lon="11.72311"><ele>898</ele><time>2012-05-28T14:32:42Z</time></trkpt><trkpt lat="43.64876" lon="11.72319"><ele>897</ele><time>2012-05-28T14:32:43Z</time></trkpt><trkpt lat="43.64877" lon="11.72341"><ele>895</ele><time>2012-05-28T14:32:45Z</time></trkpt><trkpt lat="43.64877" lon="11.72349"><ele>894</ele><time>2012-05-28T14:32:46Z</time></trkpt><trkpt lat="43.64880" lon="11.72356"><ele>893</ele><time>2012-05-28T14:32:47Z</time></trkpt><trkpt lat="43.64880" lon="11.72363"><ele>892</ele><time>2012-05-28T14:32:48Z</time></trkpt><trkpt lat="43.64884" lon="11.72369"><ele>889</ele><time>2012-05-28T14:32:49Z</time></trkpt><trkpt lat="43.64885" lon="11.72377"><ele>888</ele><time>2012-05-28T14:32:50Z</time></trkpt><trkpt lat="43.64885" lon="11.72385"><ele>888</ele><time>2012-05-28T14:32:51Z</time></trkpt><trkpt lat="43.64887" lon="11.72397"><ele>888</ele><time>2012-05-28T14:32:53Z</time></trkpt><trkpt lat="43.64884" lon="11.72412"><ele>889</ele><time>2012-05-28T14:32:55Z</time></trkpt><trkpt lat="43.64885" lon="11.72417"><ele>888</ele><time>2012-05-28T14:32:56Z</time></trkpt><trkpt lat="43.64886" lon="11.72422"><ele>888</ele><time>2012-05-28T14:32:57Z</time></trkpt><trkpt lat="43.64886" lon="11.72428"><ele>888</ele><time>2012-05-28T14:32:58Z</time></trkpt><trkpt lat="43.64888" lon="11.72433"><ele>888</ele><time>2012-05-28T14:32:59Z</time></trkpt><trkpt lat="43.64889" lon="11.72437"><ele>888</ele><time>2012-05-28T14:33:00Z</time></trkpt><trkpt lat="43.64891" lon="11.72441"><ele>887</ele><time>2012-05-28T14:33:01Z</time></trkpt><trkpt lat="43.64897" lon="11.72452"><ele>885</ele><time>2012-05-28T14:33:04Z</time></trkpt><trkpt lat="43.64898" lon="11.72456"><ele>885</ele><time>2012-05-28T14:33:05Z</time></trkpt><trkpt lat="43.64900" lon="11.72459"><ele>885</ele><time>2012-05-28T14:33:06Z</time></trkpt><trkpt lat="43.64906" lon="11.72474"><ele>884</ele><time>2012-05-28T14:33:09Z</time></trkpt><trkpt lat="43.64912" lon="11.72488"><ele>884</ele><time>2012-05-28T14:33:12Z</time></trkpt><trkpt lat="43.64914" lon="11.72497"><ele>882</ele><time>2012-05-28T14:33:14Z</time></trkpt><trkpt lat="43.64917" lon="11.72508"><ele>883</ele><time>2012-05-28T14:33:16Z</time></trkpt><trkpt lat="43.64920" lon="11.72521"><ele>884</ele><time>2012-05-28T14:33:19Z</time></trkpt><trkpt lat="43.64920" lon="11.72526"><ele>883</ele><time>2012-05-28T14:33:20Z</time></trkpt><trkpt lat="43.64921" lon="11.72539"><ele>881</ele><time>2012-05-28T14:33:23Z</time></trkpt><trkpt lat="43.64921" lon="11.72545"><ele>880</ele><time>2012-05-28T14:33:24Z</time></trkpt><trkpt lat="43.64922" lon="11.72574"><ele>878</ele><time>2012-05-28T14:33:30Z</time></trkpt><trkpt lat="43.64923" lon="11.72577"><ele>873</ele><time>2012-05-28T14:33:31Z</time></trkpt><trkpt lat="43.64923" lon="11.72581"><ele>870</ele><time>2012-05-28T14:33:32Z</time></trkpt><trkpt lat="43.64924" lon="11.72586"><ele>871</ele><time>2012-05-28T14:33:34Z</time></trkpt><trkpt lat="43.64925" lon="11.72589"><ele>872</ele><time>2012-05-28T14:33:35Z</time></trkpt><trkpt lat="43.64920" lon="11.72586"><ele>869</ele><time>2012-05-28T14:33:46Z</time></trkpt><trkpt lat="43.64919" lon="11.72590"><ele>872</ele><time>2012-05-28T14:34:06Z</time></trkpt><trkpt lat="43.64915" lon="11.72588"><ele>877</ele><time>2012-05-28T14:34:16Z</time></trkpt><trkpt lat="43.64912" lon="11.72591"><ele>883</ele><time>2012-05-28T14:34:25Z</time></trkpt><trkpt lat="43.64910" lon="11.72592"><ele>882</ele><time>2012-05-28T14:34:29Z</time></trkpt><trkpt lat="43.64912" lon="11.72592"><ele>881</ele><time>2012-05-28T14:34:32Z</time></trkpt><trkpt lat="43.64911" lon="11.72589"><ele>878</ele><time>2012-05-28T14:34:41Z</time></trkpt><trkpt lat="43.64905" lon="11.72602"><ele>876</ele><time>2012-05-28T14:35:01Z</time></trkpt><trkpt lat="43.64897" lon="11.72614"><ele>876</ele><time>2012-05-28T14:35:04Z</time></trkpt><trkpt lat="43.64893" lon="11.72618"><ele>875</ele><time>2012-05-28T14:35:05Z</time></trkpt><trkpt lat="43.64889" lon="11.72622"><ele>875</ele><time>2012-05-28T14:35:06Z</time></trkpt><trkpt lat="43.64876" lon="11.72627"><ele>875</ele><time>2012-05-28T14:35:07Z</time></trkpt><trkpt lat="43.64869" lon="11.72631"><ele>876</ele><time>2012-05-28T14:35:08Z</time></trkpt><trkpt lat="43.64864" lon="11.72633"><ele>875</ele><time>2012-05-28T14:35:09Z</time></trkpt><trkpt lat="43.64859" lon="11.72636"><ele>875</ele><time>2012-05-28T14:35:10Z</time></trkpt><trkpt lat="43.64850" lon="11.72639"><ele>875</ele><time>2012-05-28T14:35:11Z</time></trkpt><trkpt lat="43.64845" lon="11.72646"><ele>875</ele><time>2012-05-28T14:35:12Z</time></trkpt><trkpt lat="43.64833" lon="11.72658"><ele>873</ele><time>2012-05-28T14:35:14Z</time></trkpt><trkpt lat="43.64829" lon="11.72665"><ele>872</ele><time>2012-05-28T14:35:15Z</time></trkpt><trkpt lat="43.64820" lon="11.72681"><ele>868</ele><time>2012-05-28T14:35:17Z</time></trkpt><trkpt lat="43.64809" lon="11.72699"><ele>865</ele><time>2012-05-28T14:35:19Z</time></trkpt><trkpt lat="43.64805" lon="11.72709"><ele>865</ele><time>2012-05-28T14:35:20Z</time></trkpt><trkpt lat="43.64798" lon="11.72729"><ele>864</ele><time>2012-05-28T14:35:22Z</time></trkpt><trkpt lat="43.64798" lon="11.72738"><ele>864</ele><time>2012-05-28T14:35:23Z</time></trkpt><trkpt lat="43.64795" lon="11.72748"><ele>863</ele><time>2012-05-28T14:35:24Z</time></trkpt><trkpt lat="43.64796" lon="11.72755"><ele>864</ele><time>2012-05-28T14:35:25Z</time></trkpt><trkpt lat="43.64796" lon="11.72764"><ele>865</ele><time>2012-05-28T14:35:26Z</time></trkpt><trkpt lat="43.64795" lon="11.72773"><ele>865</ele><time>2012-05-28T14:35:27Z</time></trkpt><trkpt lat="43.64792" lon="11.72782"><ele>865</ele><time>2012-05-28T14:35:28Z</time></trkpt><trkpt lat="43.64790" lon="11.72791"><ele>865</ele><time>2012-05-28T14:35:29Z</time></trkpt><trkpt lat="43.64783" lon="11.72793"><ele>865</ele><time>2012-05-28T14:35:30Z</time></trkpt><trkpt lat="43.64778" lon="11.72800"><ele>864</ele><time>2012-05-28T14:35:31Z</time></trkpt><trkpt lat="43.64772" lon="11.72806"><ele>863</ele><time>2012-05-28T14:35:32Z</time></trkpt><trkpt lat="43.64768" lon="11.72813"><ele>863</ele><time>2012-05-28T14:35:33Z</time></trkpt><trkpt lat="43.64763" lon="11.72826"><ele>863</ele><time>2012-05-28T14:35:34Z</time></trkpt><trkpt lat="43.64756" lon="11.72839"><ele>863</ele><time>2012-05-28T14:35:35Z</time></trkpt><trkpt lat="43.64749" lon="11.72850"><ele>863</ele><time>2012-05-28T14:35:36Z</time></trkpt><trkpt lat="43.64743" lon="11.72855"><ele>862</ele><time>2012-05-28T14:35:37Z</time></trkpt><trkpt lat="43.64739" lon="11.72863"><ele>861</ele><time>2012-05-28T14:35:38Z</time></trkpt><trkpt lat="43.64730" lon="11.72876"><ele>859</ele><time>2012-05-28T14:35:40Z</time></trkpt><trkpt lat="43.64723" lon="11.72890"><ele>858</ele><time>2012-05-28T14:35:42Z</time></trkpt><trkpt lat="43.64716" lon="11.72896"><ele>858</ele><time>2012-05-28T14:35:43Z</time></trkpt><trkpt lat="43.64714" lon="11.72901"><ele>858</ele><time>2012-05-28T14:35:44Z</time></trkpt><trkpt lat="43.64708" lon="11.72906"><ele>858</ele><time>2012-05-28T14:35:45Z</time></trkpt><trkpt lat="43.64702" lon="11.72911"><ele>857</ele><time>2012-05-28T14:35:46Z</time></trkpt><trkpt lat="43.64695" lon="11.72917"><ele>857</ele><time>2012-05-28T14:35:47Z</time></trkpt><trkpt lat="43.64673" lon="11.72935"><ele>857</ele><time>2012-05-28T14:35:50Z</time></trkpt><trkpt lat="43.64669" lon="11.72940"><ele>858</ele><time>2012-05-28T14:35:51Z</time></trkpt><trkpt lat="43.64664" lon="11.72944"><ele>858</ele><time>2012-05-28T14:35:52Z</time></trkpt><trkpt lat="43.64661" lon="11.72950"><ele>859</ele><time>2012-05-28T14:35:53Z</time></trkpt><trkpt lat="43.64659" lon="11.72955"><ele>859</ele><time>2012-05-28T14:35:54Z</time></trkpt><trkpt lat="43.64656" lon="11.72958"><ele>859</ele><time>2012-05-28T14:35:55Z</time></trkpt><trkpt lat="43.64653" lon="11.72962"><ele>859</ele><time>2012-05-28T14:35:56Z</time></trkpt><trkpt lat="43.64649" lon="11.72965"><ele>858</ele><time>2012-05-28T14:35:57Z</time></trkpt><trkpt lat="43.64645" lon="11.72976"><ele>858</ele><time>2012-05-28T14:35:59Z</time></trkpt><trkpt lat="43.64637" lon="11.72992"><ele>856</ele><time>2012-05-28T14:36:01Z</time></trkpt><trkpt lat="43.64635" lon="11.72999"><ele>856</ele><time>2012-05-28T14:36:02Z</time></trkpt><trkpt lat="43.64634" lon="11.73008"><ele>856</ele><time>2012-05-28T14:36:03Z</time></trkpt><trkpt lat="43.64632" lon="11.73012"><ele>854</ele><time>2012-05-28T14:36:04Z</time></trkpt><trkpt lat="43.64632" lon="11.73015"><ele>854</ele><time>2012-05-28T14:36:05Z</time></trkpt><trkpt lat="43.64632" lon="11.73020"><ele>854</ele><time>2012-05-28T14:36:06Z</time></trkpt><trkpt lat="43.64636" lon="11.73009"><ele>856</ele><time>2012-05-28T14:36:07Z</time></trkpt><trkpt lat="43.64643" lon="11.73009"><ele>855</ele><time>2012-05-28T14:36:08Z</time></trkpt><trkpt lat="43.64646" lon="11.73008"><ele>855</ele><time>2012-05-28T14:36:09Z</time></trkpt><trkpt lat="43.64658" lon="11.72999"><ele>856</ele><time>2012-05-28T14:36:10Z</time></trkpt><trkpt lat="43.64670" lon="11.72992"><ele>856</ele><time>2012-05-28T14:36:12Z</time></trkpt><trkpt lat="43.64677" lon="11.72995"><ele>858</ele><time>2012-05-28T14:36:13Z</time></trkpt><trkpt lat="43.64682" lon="11.72991"><ele>861</ele><time>2012-05-28T14:36:14Z</time></trkpt><trkpt lat="43.64691" lon="11.72992"><ele>862</ele><time>2012-05-28T14:36:15Z</time></trkpt><trkpt lat="43.64698" lon="11.72991"><ele>864</ele><time>2012-05-28T14:36:16Z</time></trkpt><trkpt lat="43.64706" lon="11.72996"><ele>862</ele><time>2012-05-28T14:36:17Z</time></trkpt><trkpt lat="43.64721" lon="11.73002"><ele>862</ele><time>2012-05-28T14:36:19Z</time></trkpt><trkpt lat="43.64727" lon="11.73002"><ele>862</ele><time>2012-05-28T14:36:20Z</time></trkpt><trkpt lat="43.64734" lon="11.73004"><ele>862</ele><time>2012-05-28T14:36:21Z</time></trkpt><trkpt lat="43.64739" lon="11.73011"><ele>862</ele><time>2012-05-28T14:36:22Z</time></trkpt><trkpt lat="43.64746" lon="11.73016"><ele>861</ele><time>2012-05-28T14:36:23Z</time></trkpt><trkpt lat="43.64751" lon="11.73019"><ele>861</ele><time>2012-05-28T14:36:24Z</time></trkpt><trkpt lat="43.64761" lon="11.73027"><ele>861</ele><time>2012-05-28T14:36:26Z</time></trkpt><trkpt lat="43.64762" lon="11.73049"><ele>861</ele><time>2012-05-28T14:36:27Z</time></trkpt><trkpt lat="43.64765" lon="11.73060"><ele>860</ele><time>2012-05-28T14:36:28Z</time></trkpt><trkpt lat="43.64767" lon="11.73085"><ele>858</ele><time>2012-05-28T14:36:30Z</time></trkpt><trkpt lat="43.64764" lon="11.73096"><ele>858</ele><time>2012-05-28T14:36:31Z</time></trkpt><trkpt lat="43.64763" lon="11.73107"><ele>857</ele><time>2012-05-28T14:36:32Z</time></trkpt><trkpt lat="43.64761" lon="11.73133"><ele>854</ele><time>2012-05-28T14:36:34Z</time></trkpt><trkpt lat="43.64757" lon="11.73147"><ele>852</ele><time>2012-05-28T14:36:35Z</time></trkpt><trkpt lat="43.64756" lon="11.73164"><ele>850</ele><time>2012-05-28T14:36:36Z</time></trkpt><trkpt lat="43.64754" lon="11.73178"><ele>847</ele><time>2012-05-28T14:36:37Z</time></trkpt><trkpt lat="43.64751" lon="11.73191"><ele>846</ele><time>2012-05-28T14:36:38Z</time></trkpt><trkpt lat="43.64750" lon="11.73205"><ele>843</ele><time>2012-05-28T14:36:39Z</time></trkpt><trkpt lat="43.64748" lon="11.73219"><ele>841</ele><time>2012-05-28T14:36:40Z</time></trkpt><trkpt lat="43.64746" lon="11.73247"><ele>839</ele><time>2012-05-28T14:36:42Z</time></trkpt><trkpt lat="43.64745" lon="11.73260"><ele>837</ele><time>2012-05-28T14:36:43Z</time></trkpt><trkpt lat="43.64745" lon="11.73273"><ele>837</ele><time>2012-05-28T14:36:44Z</time></trkpt><trkpt lat="43.64750" lon="11.73283"><ele>837</ele><time>2012-05-28T14:36:45Z</time></trkpt><trkpt lat="43.64754" lon="11.73294"><ele>837</ele><time>2012-05-28T14:36:46Z</time></trkpt><trkpt lat="43.64764" lon="11.73299"><ele>836</ele><time>2012-05-28T14:36:47Z</time></trkpt><trkpt lat="43.64771" lon="11.73304"><ele>835</ele><time>2012-05-28T14:36:48Z</time></trkpt><trkpt lat="43.64784" lon="11.73315"><ele>834</ele><time>2012-05-28T14:36:50Z</time></trkpt><trkpt lat="43.64791" lon="11.73326"><ele>833</ele><time>2012-05-28T14:36:51Z</time></trkpt><trkpt lat="43.64798" lon="11.73349"><ele>833</ele><time>2012-05-28T14:36:53Z</time></trkpt><trkpt lat="43.64798" lon="11.73361"><ele>831</ele><time>2012-05-28T14:36:54Z</time></trkpt><trkpt lat="43.64801" lon="11.73372"><ele>830</ele><time>2012-05-28T14:36:55Z</time></trkpt><trkpt lat="43.64809" lon="11.73374"><ele>829</ele><time>2012-05-28T14:36:56Z</time></trkpt><trkpt lat="43.64815" lon="11.73379"><ele>829</ele><time>2012-05-28T14:36:57Z</time></trkpt><trkpt lat="43.64827" lon="11.73387"><ele>828</ele><time>2012-05-28T14:36:59Z</time></trkpt><trkpt lat="43.64832" lon="11.73395"><ele>826</ele><time>2012-05-28T14:37:00Z</time></trkpt><trkpt lat="43.64844" lon="11.73412"><ele>824</ele><time>2012-05-28T14:37:02Z</time></trkpt><trkpt lat="43.64851" lon="11.73419"><ele>824</ele><time>2012-05-28T14:37:03Z</time></trkpt><trkpt lat="43.64854" lon="11.73428"><ele>823</ele><time>2012-05-28T14:37:04Z</time></trkpt><trkpt lat="43.64857" lon="11.73440"><ele>823</ele><time>2012-05-28T14:37:05Z</time></trkpt><trkpt lat="43.64856" lon="11.73451"><ele>823</ele><time>2012-05-28T14:37:06Z</time></trkpt><trkpt lat="43.64853" lon="11.73460"><ele>822</ele><time>2012-05-28T14:37:07Z</time></trkpt><trkpt lat="43.64851" lon="11.73468"><ele>822</ele><time>2012-05-28T14:37:08Z</time></trkpt><trkpt lat="43.64851" lon="11.73478"><ele>822</ele><time>2012-05-28T14:37:09Z</time></trkpt><trkpt lat="43.64850" lon="11.73487"><ele>822</ele><time>2012-05-28T14:37:10Z</time></trkpt><trkpt lat="43.64847" lon="11.73528"><ele>822</ele><time>2012-05-28T14:37:14Z</time></trkpt><trkpt lat="43.64844" lon="11.73542"><ele>821</ele><time>2012-05-28T14:37:15Z</time></trkpt><trkpt lat="43.64848" lon="11.73559"><ele>820</ele><time>2012-05-28T14:37:16Z</time></trkpt><trkpt lat="43.64847" lon="11.73572"><ele>820</ele><time>2012-05-28T14:37:17Z</time></trkpt><trkpt lat="43.64847" lon="11.73586"><ele>820</ele><time>2012-05-28T14:37:18Z</time></trkpt><trkpt lat="43.64850" lon="11.73609"><ele>821</ele><time>2012-05-28T14:37:20Z</time></trkpt><trkpt lat="43.64853" lon="11.73623"><ele>820</ele><time>2012-05-28T14:37:21Z</time></trkpt><trkpt lat="43.64853" lon="11.73634"><ele>819</ele><time>2012-05-28T14:37:22Z</time></trkpt><trkpt lat="43.64861" lon="11.73639"><ele>819</ele><time>2012-05-28T14:37:23Z</time></trkpt><trkpt lat="43.64869" lon="11.73646"><ele>818</ele><time>2012-05-28T14:37:24Z</time></trkpt><trkpt lat="43.64876" lon="11.73650"><ele>818</ele><time>2012-05-28T14:37:25Z</time></trkpt><trkpt lat="43.64884" lon="11.73653"><ele>817</ele><time>2012-05-28T14:37:26Z</time></trkpt><trkpt lat="43.64891" lon="11.73659"><ele>817</ele><time>2012-05-28T14:37:27Z</time></trkpt><trkpt lat="43.64898" lon="11.73662"><ele>818</ele><time>2012-05-28T14:37:28Z</time></trkpt><trkpt lat="43.64905" lon="11.73670"><ele>817</ele><time>2012-05-28T14:37:29Z</time></trkpt><trkpt lat="43.64918" lon="11.73686"><ele>817</ele><time>2012-05-28T14:37:31Z</time></trkpt><trkpt lat="43.64922" lon="11.73697"><ele>816</ele><time>2012-05-28T14:37:32Z</time></trkpt><trkpt lat="43.64925" lon="11.73709"><ele>815</ele><time>2012-05-28T14:37:33Z</time></trkpt><trkpt lat="43.64929" lon="11.73733"><ele>814</ele><time>2012-05-28T14:37:35Z</time></trkpt><trkpt lat="43.64931" lon="11.73745"><ele>812</ele><time>2012-05-28T14:37:36Z</time></trkpt><trkpt lat="43.64933" lon="11.73759"><ele>810</ele><time>2012-05-28T14:37:37Z</time></trkpt><trkpt lat="43.64931" lon="11.73774"><ele>810</ele><time>2012-05-28T14:37:38Z</time></trkpt><trkpt lat="43.64934" lon="11.73785"><ele>810</ele><time>2012-05-28T14:37:39Z</time></trkpt><trkpt lat="43.64937" lon="11.73794"><ele>810</ele><time>2012-05-28T14:37:40Z</time></trkpt><trkpt lat="43.64944" lon="11.73798"><ele>810</ele><time>2012-05-28T14:37:41Z</time></trkpt><trkpt lat="43.64949" lon="11.73806"><ele>810</ele><time>2012-05-28T14:37:42Z</time></trkpt><trkpt lat="43.64959" lon="11.73800"><ele>809</ele><time>2012-05-28T14:37:43Z</time></trkpt><trkpt lat="43.64964" lon="11.73793"><ele>808</ele><time>2012-05-28T14:37:44Z</time></trkpt><trkpt lat="43.64962" lon="11.73777"><ele>808</ele><time>2012-05-28T14:37:45Z</time></trkpt><trkpt lat="43.64959" lon="11.73768"><ele>808</ele><time>2012-05-28T14:37:46Z</time></trkpt><trkpt lat="43.64959" lon="11.73759"><ele>809</ele><time>2012-05-28T14:37:47Z</time></trkpt><trkpt lat="43.64961" lon="11.73751"><ele>810</ele><time>2012-05-28T14:37:48Z</time></trkpt><trkpt lat="43.64965" lon="11.73748"><ele>809</ele><time>2012-05-28T14:37:49Z</time></trkpt><trkpt lat="43.64970" lon="11.73750"><ele>809</ele><time>2012-05-28T14:37:50Z</time></trkpt><trkpt lat="43.64975" lon="11.73754"><ele>807</ele><time>2012-05-28T14:37:51Z</time></trkpt><trkpt lat="43.64982" lon="11.73758"><ele>806</ele><time>2012-05-28T14:37:52Z</time></trkpt><trkpt lat="43.64987" lon="11.73763"><ele>806</ele><time>2012-05-28T14:37:53Z</time></trkpt><trkpt lat="43.64996" lon="11.73765"><ele>806</ele><time>2012-05-28T14:37:54Z</time></trkpt><trkpt lat="43.64999" lon="11.73776"><ele>806</ele><time>2012-05-28T14:37:55Z</time></trkpt><trkpt lat="43.65002" lon="11.73789"><ele>806</ele><time>2012-05-28T14:37:56Z</time></trkpt><trkpt lat="43.65005" lon="11.73799"><ele>805</ele><time>2012-05-28T14:37:57Z</time></trkpt><trkpt lat="43.65011" lon="11.73799"><ele>805</ele><time>2012-05-28T14:37:58Z</time></trkpt><trkpt lat="43.65017" lon="11.73798"><ele>805</ele><time>2012-05-28T14:37:59Z</time></trkpt><trkpt lat="43.65024" lon="11.73799"><ele>806</ele><time>2012-05-28T14:38:00Z</time></trkpt><trkpt lat="43.65043" lon="11.73787"><ele>807</ele><time>2012-05-28T14:38:03Z</time></trkpt><trkpt lat="43.65048" lon="11.73786"><ele>807</ele><time>2012-05-28T14:38:04Z</time></trkpt><trkpt lat="43.65054" lon="11.73786"><ele>807</ele><time>2012-05-28T14:38:05Z</time></trkpt><trkpt lat="43.65067" lon="11.73781"><ele>807</ele><time>2012-05-28T14:38:07Z</time></trkpt><trkpt lat="43.65072" lon="11.73778"><ele>806</ele><time>2012-05-28T14:38:08Z</time></trkpt><trkpt lat="43.65080" lon="11.73774"><ele>806</ele><time>2012-05-28T14:38:09Z</time></trkpt><trkpt lat="43.65088" lon="11.73773"><ele>807</ele><time>2012-05-28T14:38:10Z</time></trkpt><trkpt lat="43.65097" lon="11.73772"><ele>807</ele><time>2012-05-28T14:38:11Z</time></trkpt><trkpt lat="43.65104" lon="11.73772"><ele>806</ele><time>2012-05-28T14:38:12Z</time></trkpt><trkpt lat="43.65112" lon="11.73777"><ele>805</ele><time>2012-05-28T14:38:13Z</time></trkpt><trkpt lat="43.65114" lon="11.73794"><ele>803</ele><time>2012-05-28T14:38:14Z</time></trkpt><trkpt lat="43.65109" lon="11.73811"><ele>802</ele><time>2012-05-28T14:38:15Z</time></trkpt><trkpt lat="43.65104" lon="11.73821"><ele>801</ele><time>2012-05-28T14:38:16Z</time></trkpt><trkpt lat="43.65097" lon="11.73829"><ele>801</ele><time>2012-05-28T14:38:17Z</time></trkpt><trkpt lat="43.65091" lon="11.73839"><ele>800</ele><time>2012-05-28T14:38:18Z</time></trkpt><trkpt lat="43.65085" lon="11.73847"><ele>800</ele><time>2012-05-28T14:38:19Z</time></trkpt><trkpt lat="43.65076" lon="11.73857"><ele>799</ele><time>2012-05-28T14:38:20Z</time></trkpt><trkpt lat="43.65069" lon="11.73864"><ele>798</ele><time>2012-05-28T14:38:21Z</time></trkpt><trkpt lat="43.65061" lon="11.73871"><ele>798</ele><time>2012-05-28T14:38:22Z</time></trkpt><trkpt lat="43.65053" lon="11.73875"><ele>798</ele><time>2012-05-28T14:38:23Z</time></trkpt><trkpt lat="43.65045" lon="11.73882"><ele>797</ele><time>2012-05-28T14:38:24Z</time></trkpt><trkpt lat="43.65037" lon="11.73891"><ele>797</ele><time>2012-05-28T14:38:25Z</time></trkpt><trkpt lat="43.65029" lon="11.73901"><ele>797</ele><time>2012-05-28T14:38:26Z</time></trkpt><trkpt lat="43.65019" lon="11.73908"><ele>797</ele><time>2012-05-28T14:38:27Z</time></trkpt><trkpt lat="43.65012" lon="11.73914"><ele>797</ele><time>2012-05-28T14:38:28Z</time></trkpt><trkpt lat="43.64994" lon="11.73930"><ele>798</ele><time>2012-05-28T14:38:30Z</time></trkpt><trkpt lat="43.64980" lon="11.73936"><ele>797</ele><time>2012-05-28T14:38:31Z</time></trkpt><trkpt lat="43.64974" lon="11.73942"><ele>796</ele><time>2012-05-28T14:38:32Z</time></trkpt><trkpt lat="43.64967" lon="11.73947"><ele>796</ele><time>2012-05-28T14:38:33Z</time></trkpt><trkpt lat="43.64963" lon="11.73955"><ele>795</ele><time>2012-05-28T14:38:34Z</time></trkpt><trkpt lat="43.64961" lon="11.73964"><ele>796</ele><time>2012-05-28T14:38:35Z</time></trkpt><trkpt lat="43.64955" lon="11.73983"><ele>795</ele><time>2012-05-28T14:38:37Z</time></trkpt><trkpt lat="43.64951" lon="11.73991"><ele>795</ele><time>2012-05-28T14:38:38Z</time></trkpt><trkpt lat="43.64945" lon="11.73996"><ele>795</ele><time>2012-05-28T14:38:39Z</time></trkpt><trkpt lat="43.64938" lon="11.73999"><ele>795</ele><time>2012-05-28T14:38:40Z</time></trkpt><trkpt lat="43.64933" lon="11.74000"><ele>795</ele><time>2012-05-28T14:38:41Z</time></trkpt><trkpt lat="43.64925" lon="11.74002"><ele>795</ele><time>2012-05-28T14:38:42Z</time></trkpt><trkpt lat="43.64896" lon="11.74009"><ele>794</ele><time>2012-05-28T14:38:44Z</time></trkpt><trkpt lat="43.64883" lon="11.74015"><ele>793</ele><time>2012-05-28T14:38:45Z</time></trkpt><trkpt lat="43.64874" lon="11.74021"><ele>793</ele><time>2012-05-28T14:38:46Z</time></trkpt><trkpt lat="43.64866" lon="11.74024"><ele>793</ele><time>2012-05-28T14:38:47Z</time></trkpt><trkpt lat="43.64856" lon="11.74029"><ele>793</ele><time>2012-05-28T14:38:48Z</time></trkpt><trkpt lat="43.64849" lon="11.74033"><ele>792</ele><time>2012-05-28T14:38:49Z</time></trkpt><trkpt lat="43.64839" lon="11.74038"><ele>792</ele><time>2012-05-28T14:38:50Z</time></trkpt><trkpt lat="43.64825" lon="11.74039"><ele>792</ele><time>2012-05-28T14:38:52Z</time></trkpt><trkpt lat="43.64814" lon="11.74038"><ele>792</ele><time>2012-05-28T14:38:53Z</time></trkpt><trkpt lat="43.64796" lon="11.74034"><ele>792</ele><time>2012-05-28T14:38:55Z</time></trkpt><trkpt lat="43.64784" lon="11.74039"><ele>793</ele><time>2012-05-28T14:38:56Z</time></trkpt><trkpt lat="43.64777" lon="11.74024"><ele>793</ele><time>2012-05-28T14:38:57Z</time></trkpt><trkpt lat="43.64764" lon="11.74025"><ele>793</ele><time>2012-05-28T14:38:58Z</time></trkpt><trkpt lat="43.64755" lon="11.74024"><ele>793</ele><time>2012-05-28T14:38:59Z</time></trkpt><trkpt lat="43.64746" lon="11.74027"><ele>792</ele><time>2012-05-28T14:39:00Z</time></trkpt><trkpt lat="43.64718" lon="11.74039"><ele>790</ele><time>2012-05-28T14:39:03Z</time></trkpt><trkpt lat="43.64709" lon="11.74044"><ele>789</ele><time>2012-05-28T14:39:04Z</time></trkpt><trkpt lat="43.64698" lon="11.74052"><ele>787</ele><time>2012-05-28T14:39:05Z</time></trkpt><trkpt lat="43.64689" lon="11.74057"><ele>786</ele><time>2012-05-28T14:39:06Z</time></trkpt><trkpt lat="43.64680" lon="11.74061"><ele>786</ele><time>2012-05-28T14:39:07Z</time></trkpt><trkpt lat="43.64671" lon="11.74067"><ele>785</ele><time>2012-05-28T14:39:08Z</time></trkpt><trkpt lat="43.64661" lon="11.74072"><ele>783</ele><time>2012-05-28T14:39:09Z</time></trkpt><trkpt lat="43.64644" lon="11.74081"><ele>782</ele><time>2012-05-28T14:39:11Z</time></trkpt><trkpt lat="43.64634" lon="11.74089"><ele>781</ele><time>2012-05-28T14:39:12Z</time></trkpt><trkpt lat="43.64623" lon="11.74092"><ele>782</ele><time>2012-05-28T14:39:13Z</time></trkpt><trkpt lat="43.64570" lon="11.74107"><ele>779</ele><time>2012-05-28T14:39:18Z</time></trkpt><trkpt lat="43.64557" lon="11.74109"><ele>778</ele><time>2012-05-28T14:39:19Z</time></trkpt><trkpt lat="43.64544" lon="11.74109"><ele>776</ele><time>2012-05-28T14:39:20Z</time></trkpt><trkpt lat="43.64533" lon="11.74110"><ele>776</ele><time>2012-05-28T14:39:21Z</time></trkpt><trkpt lat="43.64524" lon="11.74117"><ele>774</ele><time>2012-05-28T14:39:22Z</time></trkpt><trkpt lat="43.64514" lon="11.74123"><ele>774</ele><time>2012-05-28T14:39:23Z</time></trkpt><trkpt lat="43.64502" lon="11.74125"><ele>773</ele><time>2012-05-28T14:39:24Z</time></trkpt><trkpt lat="43.64464" lon="11.74133"><ele>769</ele><time>2012-05-28T14:39:27Z</time></trkpt><trkpt lat="43.64453" lon="11.74138"><ele>767</ele><time>2012-05-28T14:39:28Z</time></trkpt><trkpt lat="43.64445" lon="11.74145"><ele>765</ele><time>2012-05-28T14:39:29Z</time></trkpt><trkpt lat="43.64437" lon="11.74154"><ele>764</ele><time>2012-05-28T14:39:30Z</time></trkpt><trkpt lat="43.64429" lon="11.74163"><ele>764</ele><time>2012-05-28T14:39:31Z</time></trkpt><trkpt lat="43.64421" lon="11.74177"><ele>763</ele><time>2012-05-28T14:39:32Z</time></trkpt><trkpt lat="43.64417" lon="11.74190"><ele>763</ele><time>2012-05-28T14:39:33Z</time></trkpt><trkpt lat="43.64415" lon="11.74203"><ele>762</ele><time>2012-05-28T14:39:34Z</time></trkpt><trkpt lat="43.64410" lon="11.74217"><ele>762</ele><time>2012-05-28T14:39:35Z</time></trkpt><trkpt lat="43.64407" lon="11.74228"><ele>762</ele><time>2012-05-28T14:39:36Z</time></trkpt><trkpt lat="43.64405" lon="11.74240"><ele>761</ele><time>2012-05-28T14:39:37Z</time></trkpt><trkpt lat="43.64409" lon="11.74256"><ele>760</ele><time>2012-05-28T14:39:38Z</time></trkpt><trkpt lat="43.64414" lon="11.74265"><ele>759</ele><time>2012-05-28T14:39:39Z</time></trkpt><trkpt lat="43.64423" lon="11.74284"><ele>759</ele><time>2012-05-28T14:39:41Z</time></trkpt><trkpt lat="43.64432" lon="11.74290"><ele>760</ele><time>2012-05-28T14:39:42Z</time></trkpt><trkpt lat="43.64437" lon="11.74299"><ele>760</ele><time>2012-05-28T14:39:43Z</time></trkpt><trkpt lat="43.64442" lon="11.74312"><ele>759</ele><time>2012-05-28T14:39:44Z</time></trkpt><trkpt lat="43.64451" lon="11.74323"><ele>756</ele><time>2012-05-28T14:39:45Z</time></trkpt><trkpt lat="43.64460" lon="11.74337"><ele>755</ele><time>2012-05-28T14:39:46Z</time></trkpt><trkpt lat="43.64468" lon="11.74348"><ele>756</ele><time>2012-05-28T14:39:47Z</time></trkpt><trkpt lat="43.64477" lon="11.74359"><ele>755</ele><time>2012-05-28T14:39:48Z</time></trkpt><trkpt lat="43.64486" lon="11.74366"><ele>754</ele><time>2012-05-28T14:39:49Z</time></trkpt><trkpt lat="43.64495" lon="11.74369"><ele>753</ele><time>2012-05-28T14:39:50Z</time></trkpt><trkpt lat="43.64502" lon="11.74366"><ele>751</ele><time>2012-05-28T14:39:51Z</time></trkpt><trkpt lat="43.64505" lon="11.74376"><ele>751</ele><time>2012-05-28T14:39:52Z</time></trkpt><trkpt lat="43.64510" lon="11.74384"><ele>750</ele><time>2012-05-28T14:39:53Z</time></trkpt><trkpt lat="43.64513" lon="11.74396"><ele>750</ele><time>2012-05-28T14:39:54Z</time></trkpt><trkpt lat="43.64517" lon="11.74408"><ele>749</ele><time>2012-05-28T14:39:55Z</time></trkpt><trkpt lat="43.64518" lon="11.74430"><ele>747</ele><time>2012-05-28T14:39:57Z</time></trkpt><trkpt lat="43.64513" lon="11.74442"><ele>746</ele><time>2012-05-28T14:39:58Z</time></trkpt><trkpt lat="43.64511" lon="11.74452"><ele>746</ele><time>2012-05-28T14:39:59Z</time></trkpt><trkpt lat="43.64511" lon="11.74461"><ele>745</ele><time>2012-05-28T14:40:00Z</time></trkpt><trkpt lat="43.64512" lon="11.74473"><ele>744</ele><time>2012-05-28T14:40:01Z</time></trkpt><trkpt lat="43.64515" lon="11.74486"><ele>744</ele><time>2012-05-28T14:40:02Z</time></trkpt><trkpt lat="43.64516" lon="11.74499"><ele>743</ele><time>2012-05-28T14:40:03Z</time></trkpt><trkpt lat="43.64520" lon="11.74509"><ele>743</ele><time>2012-05-28T14:40:04Z</time></trkpt><trkpt lat="43.64520" lon="11.74525"><ele>739</ele><time>2012-05-28T14:40:05Z</time></trkpt><trkpt lat="43.64516" lon="11.74538"><ele>736</ele><time>2012-05-28T14:40:06Z</time></trkpt><trkpt lat="43.64509" lon="11.74545"><ele>734</ele><time>2012-05-28T14:40:07Z</time></trkpt><trkpt lat="43.64501" lon="11.74544"><ele>733</ele><time>2012-05-28T14:40:08Z</time></trkpt><trkpt lat="43.64496" lon="11.74535"><ele>732</ele><time>2012-05-28T14:40:09Z</time></trkpt><trkpt lat="43.64492" lon="11.74525"><ele>730</ele><time>2012-05-28T14:40:10Z</time></trkpt><trkpt lat="43.64489" lon="11.74515"><ele>730</ele><time>2012-05-28T14:40:11Z</time></trkpt><trkpt lat="43.64485" lon="11.74506"><ele>730</ele><time>2012-05-28T14:40:12Z</time></trkpt><trkpt lat="43.64482" lon="11.74496"><ele>730</ele><time>2012-05-28T14:40:13Z</time></trkpt><trkpt lat="43.64481" lon="11.74484"><ele>730</ele><time>2012-05-28T14:40:14Z</time></trkpt><trkpt lat="43.64481" lon="11.74469"><ele>730</ele><time>2012-05-28T14:40:15Z</time></trkpt><trkpt lat="43.64480" lon="11.74457"><ele>730</ele><time>2012-05-28T14:40:16Z</time></trkpt><trkpt lat="43.64475" lon="11.74437"><ele>731</ele><time>2012-05-28T14:40:18Z</time></trkpt><trkpt lat="43.64472" lon="11.74432"><ele>730</ele><time>2012-05-28T14:40:19Z</time></trkpt><trkpt lat="43.64468" lon="11.74429"><ele>730</ele><time>2012-05-28T14:40:20Z</time></trkpt><trkpt lat="43.64462" lon="11.74432"><ele>729</ele><time>2012-05-28T14:40:21Z</time></trkpt><trkpt lat="43.64458" lon="11.74442"><ele>729</ele><time>2012-05-28T14:40:22Z</time></trkpt><trkpt lat="43.64445" lon="11.74453"><ele>728</ele><time>2012-05-28T14:40:23Z</time></trkpt><trkpt lat="43.64437" lon="11.74458"><ele>726</ele><time>2012-05-28T14:40:24Z</time></trkpt><trkpt lat="43.64430" lon="11.74451"><ele>726</ele><time>2012-05-28T14:40:25Z</time></trkpt><trkpt lat="43.64425" lon="11.74441"><ele>723</ele><time>2012-05-28T14:40:26Z</time></trkpt><trkpt lat="43.64419" lon="11.74432"><ele>722</ele><time>2012-05-28T14:40:27Z</time></trkpt><trkpt lat="43.64415" lon="11.74422"><ele>723</ele><time>2012-05-28T14:40:28Z</time></trkpt><trkpt lat="43.64410" lon="11.74412"><ele>722</ele><time>2012-05-28T14:40:29Z</time></trkpt><trkpt lat="43.64396" lon="11.74398"><ele>723</ele><time>2012-05-28T14:40:31Z</time></trkpt><trkpt lat="43.64388" lon="11.74393"><ele>723</ele><time>2012-05-28T14:40:32Z</time></trkpt><trkpt lat="43.64373" lon="11.74389"><ele>721</ele><time>2012-05-28T14:40:34Z</time></trkpt><trkpt lat="43.64364" lon="11.74391"><ele>721</ele><time>2012-05-28T14:40:35Z</time></trkpt><trkpt lat="43.64348" lon="11.74394"><ele>720</ele><time>2012-05-28T14:40:37Z</time></trkpt><trkpt lat="43.64340" lon="11.74399"><ele>720</ele><time>2012-05-28T14:40:38Z</time></trkpt><trkpt lat="43.64329" lon="11.74398"><ele>719</ele><time>2012-05-28T14:40:39Z</time></trkpt><trkpt lat="43.64318" lon="11.74388"><ele>716</ele><time>2012-05-28T14:40:40Z</time></trkpt><trkpt lat="43.64302" lon="11.74373"><ele>714</ele><time>2012-05-28T14:40:42Z</time></trkpt><trkpt lat="43.64299" lon="11.74358"><ele>712</ele><time>2012-05-28T14:40:43Z</time></trkpt><trkpt lat="43.64299" lon="11.74341"><ele>710</ele><time>2012-05-28T14:40:44Z</time></trkpt><trkpt lat="43.64299" lon="11.74326"><ele>708</ele><time>2012-05-28T14:40:45Z</time></trkpt><trkpt lat="43.64297" lon="11.74313"><ele>708</ele><time>2012-05-28T14:40:46Z</time></trkpt><trkpt lat="43.64294" lon="11.74301"><ele>708</ele><time>2012-05-28T14:40:47Z</time></trkpt><trkpt lat="43.64286" lon="11.74276"><ele>707</ele><time>2012-05-28T14:40:49Z</time></trkpt><trkpt lat="43.64286" lon="11.74259"><ele>708</ele><time>2012-05-28T14:40:50Z</time></trkpt><trkpt lat="43.64283" lon="11.74245"><ele>708</ele><time>2012-05-28T14:40:51Z</time></trkpt><trkpt lat="43.64283" lon="11.74222"><ele>707</ele><time>2012-05-28T14:40:52Z</time></trkpt><trkpt lat="43.64281" lon="11.74206"><ele>707</ele><time>2012-05-28T14:40:53Z</time></trkpt><trkpt lat="43.64280" lon="11.74208"><ele>707</ele><time>2012-05-28T14:40:54Z</time></trkpt><trkpt lat="43.64277" lon="11.74198"><ele>707</ele><time>2012-05-28T14:40:55Z</time></trkpt><trkpt lat="43.64276" lon="11.74196"><ele>707</ele><time>2012-05-28T14:40:56Z</time></trkpt><trkpt lat="43.64271" lon="11.74213"><ele>704</ele><time>2012-05-28T14:40:57Z</time></trkpt><trkpt lat="43.64272" lon="11.74227"><ele>704</ele><time>2012-05-28T14:40:59Z</time></trkpt><trkpt lat="43.64271" lon="11.74235"><ele>702</ele><time>2012-05-28T14:41:00Z</time></trkpt><trkpt lat="43.64268" lon="11.74247"><ele>700</ele><time>2012-05-28T14:41:01Z</time></trkpt><trkpt lat="43.64264" lon="11.74258"><ele>700</ele><time>2012-05-28T14:41:02Z</time></trkpt><trkpt lat="43.64259" lon="11.74265"><ele>699</ele><time>2012-05-28T14:41:03Z</time></trkpt><trkpt lat="43.64256" lon="11.74276"><ele>698</ele><time>2012-05-28T14:41:04Z</time></trkpt><trkpt lat="43.64254" lon="11.74287"><ele>698</ele><time>2012-05-28T14:41:05Z</time></trkpt><trkpt lat="43.64256" lon="11.74298"><ele>697</ele><time>2012-05-28T14:41:06Z</time></trkpt><trkpt lat="43.64264" lon="11.74321"><ele>696</ele><time>2012-05-28T14:41:08Z</time></trkpt><trkpt lat="43.64267" lon="11.74335"><ele>695</ele><time>2012-05-28T14:41:09Z</time></trkpt><trkpt lat="43.64270" lon="11.74349"><ele>693</ele><time>2012-05-28T14:41:10Z</time></trkpt><trkpt lat="43.64272" lon="11.74366"><ele>692</ele><time>2012-05-28T14:41:11Z</time></trkpt><trkpt lat="43.64274" lon="11.74381"><ele>690</ele><time>2012-05-28T14:41:12Z</time></trkpt><trkpt lat="43.64280" lon="11.74393"><ele>689</ele><time>2012-05-28T14:41:13Z</time></trkpt><trkpt lat="43.64282" lon="11.74408"><ele>689</ele><time>2012-05-28T14:41:14Z</time></trkpt><trkpt lat="43.64286" lon="11.74423"><ele>688</ele><time>2012-05-28T14:41:15Z</time></trkpt><trkpt lat="43.64290" lon="11.74440"><ele>687</ele><time>2012-05-28T14:41:16Z</time></trkpt><trkpt lat="43.64293" lon="11.74455"><ele>685</ele><time>2012-05-28T14:41:17Z</time></trkpt><trkpt lat="43.64297" lon="11.74470"><ele>684</ele><time>2012-05-28T14:41:18Z</time></trkpt><trkpt lat="43.64303" lon="11.74485"><ele>681</ele><time>2012-05-28T14:41:19Z</time></trkpt><trkpt lat="43.64308" lon="11.74499"><ele>678</ele><time>2012-05-28T14:41:20Z</time></trkpt><trkpt lat="43.64312" lon="11.74514"><ele>677</ele><time>2012-05-28T14:41:21Z</time></trkpt><trkpt lat="43.64318" lon="11.74526"><ele>674</ele><time>2012-05-28T14:41:22Z</time></trkpt><trkpt lat="43.64324" lon="11.74535"><ele>674</ele><time>2012-05-28T14:41:23Z</time></trkpt><trkpt lat="43.64336" lon="11.74554"><ele>673</ele><time>2012-05-28T14:41:25Z</time></trkpt><trkpt lat="43.64343" lon="11.74558"><ele>673</ele><time>2012-05-28T14:41:26Z</time></trkpt><trkpt lat="43.64349" lon="11.74566"><ele>673</ele><time>2012-05-28T14:41:27Z</time></trkpt><trkpt lat="43.64352" lon="11.74573"><ele>670</ele><time>2012-05-28T14:41:28Z</time></trkpt><trkpt lat="43.64352" lon="11.74583"><ele>669</ele><time>2012-05-28T14:41:29Z</time></trkpt><trkpt lat="43.64353" lon="11.74591"><ele>669</ele><time>2012-05-28T14:41:30Z</time></trkpt><trkpt lat="43.64354" lon="11.74598"><ele>669</ele><time>2012-05-28T14:41:31Z</time></trkpt><trkpt lat="43.64345" lon="11.74613"><ele>668</ele><time>2012-05-28T14:41:32Z</time></trkpt><trkpt lat="43.64339" lon="11.74631"><ele>668</ele><time>2012-05-28T14:41:33Z</time></trkpt><trkpt lat="43.64335" lon="11.74650"><ele>666</ele><time>2012-05-28T14:41:34Z</time></trkpt><trkpt lat="43.64335" lon="11.74667"><ele>664</ele><time>2012-05-28T14:41:35Z</time></trkpt><trkpt lat="43.64343" lon="11.74678"><ele>662</ele><time>2012-05-28T14:41:36Z</time></trkpt><trkpt lat="43.64344" lon="11.74693"><ele>661</ele><time>2012-05-28T14:41:37Z</time></trkpt><trkpt lat="43.64345" lon="11.74722"><ele>657</ele><time>2012-05-28T14:41:39Z</time></trkpt><trkpt lat="43.64344" lon="11.74735"><ele>655</ele><time>2012-05-28T14:41:40Z</time></trkpt><trkpt lat="43.64340" lon="11.74751"><ele>653</ele><time>2012-05-28T14:41:41Z</time></trkpt><trkpt lat="43.64339" lon="11.74764"><ele>652</ele><time>2012-05-28T14:41:42Z</time></trkpt><trkpt lat="43.64335" lon="11.74791"><ele>650</ele><time>2012-05-28T14:41:44Z</time></trkpt><trkpt lat="43.64333" lon="11.74804"><ele>651</ele><time>2012-05-28T14:41:45Z</time></trkpt><trkpt lat="43.64332" lon="11.74816"><ele>651</ele><time>2012-05-28T14:41:46Z</time></trkpt><trkpt lat="43.64331" lon="11.74826"><ele>651</ele><time>2012-05-28T14:41:47Z</time></trkpt><trkpt lat="43.64333" lon="11.74836"><ele>652</ele><time>2012-05-28T14:41:48Z</time></trkpt><trkpt lat="43.64336" lon="11.74845"><ele>652</ele><time>2012-05-28T14:41:49Z</time></trkpt><trkpt lat="43.64337" lon="11.74858"><ele>652</ele><time>2012-05-28T14:41:50Z</time></trkpt><trkpt lat="43.64339" lon="11.74883"><ele>653</ele><time>2012-05-28T14:41:52Z</time></trkpt><trkpt lat="43.64333" lon="11.74899"><ele>652</ele><time>2012-05-28T14:41:53Z</time></trkpt><trkpt lat="43.64331" lon="11.74911"><ele>651</ele><time>2012-05-28T14:41:54Z</time></trkpt><trkpt lat="43.64320" lon="11.74978"><ele>652</ele><time>2012-05-28T14:42:00Z</time></trkpt><trkpt lat="43.64320" lon="11.74985"><ele>650</ele><time>2012-05-28T14:42:01Z</time></trkpt><trkpt lat="43.64321" lon="11.75001"><ele>650</ele><time>2012-05-28T14:42:03Z</time></trkpt><trkpt lat="43.64319" lon="11.75009"><ele>650</ele><time>2012-05-28T14:42:04Z</time></trkpt><trkpt lat="43.64318" lon="11.75014"><ele>650</ele><time>2012-05-28T14:42:05Z</time></trkpt><trkpt lat="43.64318" lon="11.75018"><ele>651</ele><time>2012-05-28T14:42:06Z</time></trkpt><trkpt lat="43.64317" lon="11.75024"><ele>651</ele><time>2012-05-28T14:42:07Z</time></trkpt><trkpt lat="43.64317" lon="11.75039"><ele>650</ele><time>2012-05-28T14:42:09Z</time></trkpt><trkpt lat="43.64315" lon="11.75046"><ele>650</ele><time>2012-05-28T14:42:10Z</time></trkpt><trkpt lat="43.64315" lon="11.75053"><ele>649</ele><time>2012-05-28T14:42:11Z</time></trkpt><trkpt lat="43.64316" lon="11.75070"><ele>648</ele><time>2012-05-28T14:42:13Z</time></trkpt><trkpt lat="43.64313" lon="11.75099"><ele>649</ele><time>2012-05-28T14:42:17Z</time></trkpt><trkpt lat="43.64311" lon="11.75109"><ele>649</ele><time>2012-05-28T14:42:18Z</time></trkpt><trkpt lat="43.64310" lon="11.75120"><ele>649</ele><time>2012-05-28T14:42:19Z</time></trkpt><trkpt lat="43.64310" lon="11.75130"><ele>649</ele><time>2012-05-28T14:42:20Z</time></trkpt><trkpt lat="43.64309" lon="11.75141"><ele>648</ele><time>2012-05-28T14:42:21Z</time></trkpt><trkpt lat="43.64306" lon="11.75152"><ele>647</ele><time>2012-05-28T14:42:22Z</time></trkpt><trkpt lat="43.64298" lon="11.75171"><ele>647</ele><time>2012-05-28T14:42:24Z</time></trkpt><trkpt lat="43.64292" lon="11.75180"><ele>648</ele><time>2012-05-28T14:42:25Z</time></trkpt><trkpt lat="43.64289" lon="11.75191"><ele>648</ele><time>2012-05-28T14:42:26Z</time></trkpt><trkpt lat="43.64288" lon="11.75204"><ele>647</ele><time>2012-05-28T14:42:27Z</time></trkpt><trkpt lat="43.64287" lon="11.75214"><ele>646</ele><time>2012-05-28T14:42:28Z</time></trkpt><trkpt lat="43.64288" lon="11.75222"><ele>646</ele><time>2012-05-28T14:42:29Z</time></trkpt><trkpt lat="43.64292" lon="11.75229"><ele>646</ele><time>2012-05-28T14:42:30Z</time></trkpt><trkpt lat="43.64296" lon="11.75236"><ele>645</ele><time>2012-05-28T14:42:31Z</time></trkpt><trkpt lat="43.64298" lon="11.75242"><ele>644</ele><time>2012-05-28T14:42:32Z</time></trkpt><trkpt lat="43.64299" lon="11.75250"><ele>645</ele><time>2012-05-28T14:42:33Z</time></trkpt><trkpt lat="43.64304" lon="11.75267"><ele>646</ele><time>2012-05-28T14:42:35Z</time></trkpt><trkpt lat="43.64307" lon="11.75274"><ele>645</ele><time>2012-05-28T14:42:36Z</time></trkpt><trkpt lat="43.64308" lon="11.75281"><ele>645</ele><time>2012-05-28T14:42:37Z</time></trkpt><trkpt lat="43.64312" lon="11.75286"><ele>645</ele><time>2012-05-28T14:42:38Z</time></trkpt><trkpt lat="43.64320" lon="11.75295"><ele>645</ele><time>2012-05-28T14:42:40Z</time></trkpt><trkpt lat="43.64327" lon="11.75301"><ele>645</ele><time>2012-05-28T14:42:42Z</time></trkpt><trkpt lat="43.64336" lon="11.75309"><ele>645</ele><time>2012-05-28T14:42:44Z</time></trkpt><trkpt lat="43.64341" lon="11.75311"><ele>645</ele><time>2012-05-28T14:42:45Z</time></trkpt><trkpt lat="43.64344" lon="11.75316"><ele>646</ele><time>2012-05-28T14:42:46Z</time></trkpt><trkpt lat="43.64347" lon="11.75323"><ele>647</ele><time>2012-05-28T14:42:47Z</time></trkpt><trkpt lat="43.64349" lon="11.75325"><ele>648</ele><time>2012-05-28T14:42:48Z</time></trkpt><trkpt lat="43.64352" lon="11.75328"><ele>648</ele><time>2012-05-28T14:42:49Z</time></trkpt><trkpt lat="43.64355" lon="11.75333"><ele>648</ele><time>2012-05-28T14:42:50Z</time></trkpt><trkpt lat="43.64360" lon="11.75347"><ele>649</ele><time>2012-05-28T14:42:52Z</time></trkpt><trkpt lat="43.64364" lon="11.75352"><ele>649</ele><time>2012-05-28T14:42:53Z</time></trkpt><trkpt lat="43.64370" lon="11.75362"><ele>649</ele><time>2012-05-28T14:42:56Z</time></trkpt><trkpt lat="43.64372" lon="11.75365"><ele>649</ele><time>2012-05-28T14:42:57Z</time></trkpt><trkpt lat="43.64381" lon="11.75372"><ele>651</ele><time>2012-05-28T14:43:00Z</time></trkpt><trkpt lat="43.64383" lon="11.75374"><ele>651</ele><time>2012-05-28T14:43:01Z</time></trkpt><trkpt lat="43.64386" lon="11.75377"><ele>651</ele><time>2012-05-28T14:43:03Z</time></trkpt><trkpt lat="43.64388" lon="11.75381"><ele>651</ele><time>2012-05-28T14:43:05Z</time></trkpt><trkpt lat="43.64390" lon="11.75386"><ele>651</ele><time>2012-05-28T14:43:07Z</time></trkpt><trkpt lat="43.64392" lon="11.75389"><ele>651</ele><time>2012-05-28T14:43:08Z</time></trkpt><trkpt lat="43.64395" lon="11.75392"><ele>651</ele><time>2012-05-28T14:43:09Z</time></trkpt><trkpt lat="43.64413" lon="11.75425"><ele>649</ele><time>2012-05-28T14:43:18Z</time></trkpt><trkpt lat="43.64415" lon="11.75429"><ele>650</ele><time>2012-05-28T14:43:19Z</time></trkpt><trkpt lat="43.64417" lon="11.75433"><ele>649</ele><time>2012-05-28T14:43:20Z</time></trkpt><trkpt lat="43.64419" lon="11.75436"><ele>649</ele><time>2012-05-28T14:43:21Z</time></trkpt><trkpt lat="43.64422" lon="11.75442"><ele>649</ele><time>2012-05-28T14:43:23Z</time></trkpt><trkpt lat="43.64424" lon="11.75444"><ele>650</ele><time>2012-05-28T14:43:24Z</time></trkpt><trkpt lat="43.64428" lon="11.75448"><ele>650</ele><time>2012-05-28T14:43:26Z</time></trkpt><trkpt lat="43.64430" lon="11.75451"><ele>650</ele><time>2012-05-28T14:43:27Z</time></trkpt><trkpt lat="43.64437" lon="11.75464"><ele>648</ele><time>2012-05-28T14:43:31Z</time></trkpt><trkpt lat="43.64443" lon="11.75476"><ele>649</ele><time>2012-05-28T14:43:34Z</time></trkpt><trkpt lat="43.64445" lon="11.75480"><ele>649</ele><time>2012-05-28T14:43:35Z</time></trkpt><trkpt lat="43.64451" lon="11.75492"><ele>648</ele><time>2012-05-28T14:43:38Z</time></trkpt><trkpt lat="43.64453" lon="11.75497"><ele>648</ele><time>2012-05-28T14:43:39Z</time></trkpt><trkpt lat="43.64461" lon="11.75506"><ele>649</ele><time>2012-05-28T14:43:42Z</time></trkpt><trkpt lat="43.64464" lon="11.75509"><ele>649</ele><time>2012-05-28T14:43:43Z</time></trkpt><trkpt lat="43.64470" lon="11.75519"><ele>650</ele><time>2012-05-28T14:43:46Z</time></trkpt><trkpt lat="43.64471" lon="11.75524"><ele>651</ele><time>2012-05-28T14:43:47Z</time></trkpt><trkpt lat="43.64472" lon="11.75530"><ele>651</ele><time>2012-05-28T14:43:48Z</time></trkpt><trkpt lat="43.64472" lon="11.75534"><ele>651</ele><time>2012-05-28T14:43:49Z</time></trkpt><trkpt lat="43.64472" lon="11.75539"><ele>652</ele><time>2012-05-28T14:43:50Z</time></trkpt><trkpt lat="43.64471" lon="11.75547"><ele>651</ele><time>2012-05-28T14:43:52Z</time></trkpt><trkpt lat="43.64469" lon="11.75552"><ele>652</ele><time>2012-05-28T14:43:53Z</time></trkpt><trkpt lat="43.64464" lon="11.75572"><ele>649</ele><time>2012-05-28T14:43:55Z</time></trkpt><trkpt lat="43.64463" lon="11.75580"><ele>647</ele><time>2012-05-28T14:43:56Z</time></trkpt><trkpt lat="43.64462" lon="11.75600"><ele>648</ele><time>2012-05-28T14:43:59Z</time></trkpt><trkpt lat="43.64460" lon="11.75614"><ele>649</ele><time>2012-05-28T14:44:01Z</time></trkpt><trkpt lat="43.64459" lon="11.75620"><ele>650</ele><time>2012-05-28T14:44:02Z</time></trkpt><trkpt lat="43.64459" lon="11.75626"><ele>650</ele><time>2012-05-28T14:44:03Z</time></trkpt><trkpt lat="43.64457" lon="11.75633"><ele>650</ele><time>2012-05-28T14:44:04Z</time></trkpt><trkpt lat="43.64455" lon="11.75640"><ele>651</ele><time>2012-05-28T14:44:05Z</time></trkpt><trkpt lat="43.64453" lon="11.75646"><ele>651</ele><time>2012-05-28T14:44:06Z</time></trkpt><trkpt lat="43.64448" lon="11.75651"><ele>651</ele><time>2012-05-28T14:44:07Z</time></trkpt><trkpt lat="43.64445" lon="11.75658"><ele>651</ele><time>2012-05-28T14:44:08Z</time></trkpt><trkpt lat="43.64442" lon="11.75674"><ele>651</ele><time>2012-05-28T14:44:10Z</time></trkpt><trkpt lat="43.64438" lon="11.75691"><ele>652</ele><time>2012-05-28T14:44:12Z</time></trkpt><trkpt lat="43.64435" lon="11.75698"><ele>651</ele><time>2012-05-28T14:44:13Z</time></trkpt><trkpt lat="43.64437" lon="11.75705"><ele>650</ele><time>2012-05-28T14:44:14Z</time></trkpt><trkpt lat="43.64438" lon="11.75714"><ele>651</ele><time>2012-05-28T14:44:15Z</time></trkpt><trkpt lat="43.64438" lon="11.75723"><ele>652</ele><time>2012-05-28T14:44:16Z</time></trkpt><trkpt lat="43.64436" lon="11.75738"><ele>652</ele><time>2012-05-28T14:44:18Z</time></trkpt><trkpt lat="43.64430" lon="11.75746"><ele>651</ele><time>2012-05-28T14:44:19Z</time></trkpt><trkpt lat="43.64424" lon="11.75751"><ele>652</ele><time>2012-05-28T14:44:20Z</time></trkpt><trkpt lat="43.64419" lon="11.75760"><ele>651</ele><time>2012-05-28T14:44:21Z</time></trkpt><trkpt lat="43.64415" lon="11.75769"><ele>651</ele><time>2012-05-28T14:44:22Z</time></trkpt><trkpt lat="43.64413" lon="11.75779"><ele>650</ele><time>2012-05-28T14:44:23Z</time></trkpt><trkpt lat="43.64408" lon="11.75801"><ele>650</ele><time>2012-05-28T14:44:25Z</time></trkpt><trkpt lat="43.64407" lon="11.75815"><ele>651</ele><time>2012-05-28T14:44:26Z</time></trkpt><trkpt lat="43.64402" lon="11.75842"><ele>654</ele><time>2012-05-28T14:44:28Z</time></trkpt><trkpt lat="43.64401" lon="11.75857"><ele>654</ele><time>2012-05-28T14:44:29Z</time></trkpt><trkpt lat="43.64398" lon="11.75897"><ele>654</ele><time>2012-05-28T14:44:32Z</time></trkpt><trkpt lat="43.64398" lon="11.75909"><ele>654</ele><time>2012-05-28T14:44:33Z</time></trkpt><trkpt lat="43.64391" lon="11.75919"><ele>653</ele><time>2012-05-28T14:44:34Z</time></trkpt><trkpt lat="43.64390" lon="11.75931"><ele>653</ele><time>2012-05-28T14:44:35Z</time></trkpt><trkpt lat="43.64388" lon="11.75942"><ele>652</ele><time>2012-05-28T14:44:36Z</time></trkpt><trkpt lat="43.64387" lon="11.75952"><ele>650</ele><time>2012-05-28T14:44:37Z</time></trkpt><trkpt lat="43.64384" lon="11.75961"><ele>651</ele><time>2012-05-28T14:44:38Z</time></trkpt><trkpt lat="43.64386" lon="11.75971"><ele>651</ele><time>2012-05-28T14:44:39Z</time></trkpt><trkpt lat="43.64388" lon="11.75987"><ele>648</ele><time>2012-05-28T14:44:41Z</time></trkpt><trkpt lat="43.64389" lon="11.75992"><ele>649</ele><time>2012-05-28T14:44:42Z</time></trkpt><trkpt lat="43.64388" lon="11.75997"><ele>649</ele><time>2012-05-28T14:44:43Z</time></trkpt><trkpt lat="43.64391" lon="11.76000"><ele>649</ele><time>2012-05-28T14:44:44Z</time></trkpt><trkpt lat="43.64394" lon="11.76002"><ele>650</ele><time>2012-05-28T14:44:45Z</time></trkpt><trkpt lat="43.64403" lon="11.76006"><ele>650</ele><time>2012-05-28T14:44:47Z</time></trkpt><trkpt lat="43.64408" lon="11.76007"><ele>650</ele><time>2012-05-28T14:44:48Z</time></trkpt><trkpt lat="43.64410" lon="11.76008"><ele>650</ele><time>2012-05-28T14:44:49Z</time></trkpt><trkpt lat="43.64414" lon="11.76009"><ele>651</ele><time>2012-05-28T14:44:50Z</time></trkpt><trkpt lat="43.64418" lon="11.76012"><ele>651</ele><time>2012-05-28T14:44:51Z</time></trkpt><trkpt lat="43.64421" lon="11.76014"><ele>652</ele><time>2012-05-28T14:44:52Z</time></trkpt><trkpt lat="43.64424" lon="11.76018"><ele>651</ele><time>2012-05-28T14:44:53Z</time></trkpt><trkpt lat="43.64431" lon="11.76031"><ele>652</ele><time>2012-05-28T14:44:56Z</time></trkpt><trkpt lat="43.64433" lon="11.76037"><ele>652</ele><time>2012-05-28T14:44:57Z</time></trkpt><trkpt lat="43.64437" lon="11.76049"><ele>652</ele><time>2012-05-28T14:44:58Z</time></trkpt><trkpt lat="43.64441" lon="11.76056"><ele>652</ele><time>2012-05-28T14:44:59Z</time></trkpt><trkpt lat="43.64443" lon="11.76060"><ele>653</ele><time>2012-05-28T14:45:00Z</time></trkpt><trkpt lat="43.64449" lon="11.76070"><ele>652</ele><time>2012-05-28T14:45:02Z</time></trkpt><trkpt lat="43.64454" lon="11.76071"><ele>653</ele><time>2012-05-28T14:45:03Z</time></trkpt><trkpt lat="43.64458" lon="11.76074"><ele>652</ele><time>2012-05-28T14:45:04Z</time></trkpt><trkpt lat="43.64462" lon="11.76078"><ele>653</ele><time>2012-05-28T14:45:05Z</time></trkpt><trkpt lat="43.64465" lon="11.76083"><ele>653</ele><time>2012-05-28T14:45:06Z</time></trkpt><trkpt lat="43.64466" lon="11.76092"><ele>653</ele><time>2012-05-28T14:45:07Z</time></trkpt><trkpt lat="43.64469" lon="11.76104"><ele>651</ele><time>2012-05-28T14:45:08Z</time></trkpt><trkpt lat="43.64471" lon="11.76115"><ele>651</ele><time>2012-05-28T14:45:09Z</time></trkpt><trkpt lat="43.64477" lon="11.76129"><ele>651</ele><time>2012-05-28T14:45:10Z</time></trkpt><trkpt lat="43.64477" lon="11.76131"><ele>651</ele><time>2012-05-28T14:45:11Z</time></trkpt><trkpt lat="43.64476" lon="11.76139"><ele>651</ele><time>2012-05-28T14:45:12Z</time></trkpt><trkpt lat="43.64477" lon="11.76145"><ele>651</ele><time>2012-05-28T14:45:13Z</time></trkpt><trkpt lat="43.64476" lon="11.76165"><ele>652</ele><time>2012-05-28T14:45:15Z</time></trkpt><trkpt lat="43.64478" lon="11.76174"><ele>652</ele><time>2012-05-28T14:45:16Z</time></trkpt><trkpt lat="43.64476" lon="11.76182"><ele>653</ele><time>2012-05-28T14:45:17Z</time></trkpt><trkpt lat="43.64476" lon="11.76190"><ele>653</ele><time>2012-05-28T14:45:18Z</time></trkpt><trkpt lat="43.64477" lon="11.76195"><ele>652</ele><time>2012-05-28T14:45:19Z</time></trkpt><trkpt lat="43.64478" lon="11.76205"><ele>652</ele><time>2012-05-28T14:45:20Z</time></trkpt><trkpt lat="43.64478" lon="11.76212"><ele>652</ele><time>2012-05-28T14:45:21Z</time></trkpt><trkpt lat="43.64478" lon="11.76220"><ele>652</ele><time>2012-05-28T14:45:22Z</time></trkpt><trkpt lat="43.64477" lon="11.76226"><ele>652</ele><time>2012-05-28T14:45:23Z</time></trkpt><trkpt lat="43.64474" lon="11.76248"><ele>652</ele><time>2012-05-28T14:45:26Z</time></trkpt><trkpt lat="43.64471" lon="11.76258"><ele>653</ele><time>2012-05-28T14:45:27Z</time></trkpt><trkpt lat="43.64465" lon="11.76278"><ele>653</ele><time>2012-05-28T14:45:29Z</time></trkpt><trkpt lat="43.64464" lon="11.76287"><ele>654</ele><time>2012-05-28T14:45:30Z</time></trkpt><trkpt lat="43.64460" lon="11.76308"><ele>655</ele><time>2012-05-28T14:45:32Z</time></trkpt><trkpt lat="43.64456" lon="11.76328"><ele>656</ele><time>2012-05-28T14:45:34Z</time></trkpt><trkpt lat="43.64460" lon="11.76340"><ele>653</ele><time>2012-05-28T14:45:35Z</time></trkpt><trkpt lat="43.64460" lon="11.76351"><ele>652</ele><time>2012-05-28T14:45:36Z</time></trkpt><trkpt lat="43.64460" lon="11.76363"><ele>653</ele><time>2012-05-28T14:45:37Z</time></trkpt><trkpt lat="43.64460" lon="11.76371"><ele>652</ele><time>2012-05-28T14:45:38Z</time></trkpt><trkpt lat="43.64464" lon="11.76393"><ele>652</ele><time>2012-05-28T14:45:40Z</time></trkpt><trkpt lat="43.64463" lon="11.76401"><ele>652</ele><time>2012-05-28T14:45:41Z</time></trkpt><trkpt lat="43.64465" lon="11.76410"><ele>652</ele><time>2012-05-28T14:45:42Z</time></trkpt><trkpt lat="43.64463" lon="11.76419"><ele>651</ele><time>2012-05-28T14:45:43Z</time></trkpt><trkpt lat="43.64464" lon="11.76430"><ele>652</ele><time>2012-05-28T14:45:44Z</time></trkpt><trkpt lat="43.64466" lon="11.76440"><ele>652</ele><time>2012-05-28T14:45:45Z</time></trkpt><trkpt lat="43.64469" lon="11.76448"><ele>653</ele><time>2012-05-28T14:45:46Z</time></trkpt><trkpt lat="43.64470" lon="11.76455"><ele>652</ele><time>2012-05-28T14:45:47Z</time></trkpt><trkpt lat="43.64470" lon="11.76464"><ele>653</ele><time>2012-05-28T14:45:48Z</time></trkpt><trkpt lat="43.64472" lon="11.76470"><ele>653</ele><time>2012-05-28T14:45:49Z</time></trkpt><trkpt lat="43.64471" lon="11.76477"><ele>653</ele><time>2012-05-28T14:45:50Z</time></trkpt><trkpt lat="43.64466" lon="11.76483"><ele>656</ele><time>2012-05-28T14:45:51Z</time></trkpt><trkpt lat="43.64466" lon="11.76490"><ele>657</ele><time>2012-05-28T14:45:52Z</time></trkpt><trkpt lat="43.64466" lon="11.76498"><ele>657</ele><time>2012-05-28T14:45:53Z</time></trkpt><trkpt lat="43.64464" lon="11.76512"><ele>656</ele><time>2012-05-28T14:45:55Z</time></trkpt><trkpt lat="43.64462" lon="11.76528"><ele>657</ele><time>2012-05-28T14:45:57Z</time></trkpt><trkpt lat="43.64457" lon="11.76538"><ele>656</ele><time>2012-05-28T14:45:58Z</time></trkpt><trkpt lat="43.64450" lon="11.76545"><ele>655</ele><time>2012-05-28T14:45:59Z</time></trkpt><trkpt lat="43.64445" lon="11.76555"><ele>654</ele><time>2012-05-28T14:46:00Z</time></trkpt><trkpt lat="43.64441" lon="11.76566"><ele>654</ele><time>2012-05-28T14:46:01Z</time></trkpt><trkpt lat="43.64439" lon="11.76576"><ele>653</ele><time>2012-05-28T14:46:02Z</time></trkpt><trkpt lat="43.64429" lon="11.76617"><ele>654</ele><time>2012-05-28T14:46:06Z</time></trkpt><trkpt lat="43.64429" lon="11.76626"><ele>653</ele><time>2012-05-28T14:46:07Z</time></trkpt><trkpt lat="43.64426" lon="11.76636"><ele>653</ele><time>2012-05-28T14:46:08Z</time></trkpt><trkpt lat="43.64426" lon="11.76644"><ele>653</ele><time>2012-05-28T14:46:09Z</time></trkpt><trkpt lat="43.64430" lon="11.76655"><ele>654</ele><time>2012-05-28T14:46:10Z</time></trkpt><trkpt lat="43.64432" lon="11.76665"><ele>652</ele><time>2012-05-28T14:46:11Z</time></trkpt><trkpt lat="43.64432" lon="11.76677"><ele>651</ele><time>2012-05-28T14:46:12Z</time></trkpt><trkpt lat="43.64433" lon="11.76687"><ele>651</ele><time>2012-05-28T14:46:13Z</time></trkpt><trkpt lat="43.64433" lon="11.76713"><ele>651</ele><time>2012-05-28T14:46:15Z</time></trkpt><trkpt lat="43.64431" lon="11.76725"><ele>651</ele><time>2012-05-28T14:46:16Z</time></trkpt><trkpt lat="43.64431" lon="11.76744"><ele>650</ele><time>2012-05-28T14:46:18Z</time></trkpt><trkpt lat="43.64430" lon="11.76755"><ele>650</ele><time>2012-05-28T14:46:19Z</time></trkpt><trkpt lat="43.64427" lon="11.76787"><ele>650</ele><time>2012-05-28T14:46:22Z</time></trkpt><trkpt lat="43.64426" lon="11.76798"><ele>651</ele><time>2012-05-28T14:46:23Z</time></trkpt><trkpt lat="43.64427" lon="11.76810"><ele>651</ele><time>2012-05-28T14:46:24Z</time></trkpt><trkpt lat="43.64427" lon="11.76820"><ele>650</ele><time>2012-05-28T14:46:25Z</time></trkpt><trkpt lat="43.64428" lon="11.76828"><ele>650</ele><time>2012-05-28T14:46:26Z</time></trkpt><trkpt lat="43.64424" lon="11.76840"><ele>651</ele><time>2012-05-28T14:46:27Z</time></trkpt><trkpt lat="43.64414" lon="11.76850"><ele>650</ele><time>2012-05-28T14:46:28Z</time></trkpt><trkpt lat="43.64395" lon="11.76866"><ele>650</ele><time>2012-05-28T14:46:30Z</time></trkpt><trkpt lat="43.64388" lon="11.76877"><ele>649</ele><time>2012-05-28T14:46:31Z</time></trkpt><trkpt lat="43.64380" lon="11.76897"><ele>648</ele><time>2012-05-28T14:46:33Z</time></trkpt><trkpt lat="43.64378" lon="11.76907"><ele>648</ele><time>2012-05-28T14:46:34Z</time></trkpt><trkpt lat="43.64377" lon="11.76915"><ele>648</ele><time>2012-05-28T14:46:35Z</time></trkpt><trkpt lat="43.64377" lon="11.76923"><ele>648</ele><time>2012-05-28T14:46:36Z</time></trkpt><trkpt lat="43.64378" lon="11.76933"><ele>646</ele><time>2012-05-28T14:46:37Z</time></trkpt><trkpt lat="43.64377" lon="11.76943"><ele>647</ele><time>2012-05-28T14:46:38Z</time></trkpt><trkpt lat="43.64377" lon="11.76950"><ele>647</ele><time>2012-05-28T14:46:39Z</time></trkpt><trkpt lat="43.64377" lon="11.76956"><ele>647</ele><time>2012-05-28T14:46:40Z</time></trkpt><trkpt lat="43.64377" lon="11.76962"><ele>648</ele><time>2012-05-28T14:46:41Z</time></trkpt><trkpt lat="43.64378" lon="11.76980"><ele>649</ele><time>2012-05-28T14:46:43Z</time></trkpt><trkpt lat="43.64380" lon="11.76990"><ele>649</ele><time>2012-05-28T14:46:44Z</time></trkpt><trkpt lat="43.64383" lon="11.77004"><ele>651</ele><time>2012-05-28T14:46:46Z</time></trkpt><trkpt lat="43.64390" lon="11.77022"><ele>650</ele><time>2012-05-28T14:46:48Z</time></trkpt><trkpt lat="43.64391" lon="11.77031"><ele>650</ele><time>2012-05-28T14:46:49Z</time></trkpt><trkpt lat="43.64393" lon="11.77037"><ele>651</ele><time>2012-05-28T14:46:50Z</time></trkpt><trkpt lat="43.64396" lon="11.77044"><ele>652</ele><time>2012-05-28T14:46:51Z</time></trkpt><trkpt lat="43.64396" lon="11.77058"><ele>649</ele><time>2012-05-28T14:46:52Z</time></trkpt><trkpt lat="43.64395" lon="11.77068"><ele>648</ele><time>2012-05-28T14:46:53Z</time></trkpt><trkpt lat="43.64395" lon="11.77080"><ele>648</ele><time>2012-05-28T14:46:54Z</time></trkpt><trkpt lat="43.64397" lon="11.77088"><ele>648</ele><time>2012-05-28T14:46:55Z</time></trkpt><trkpt lat="43.64398" lon="11.77100"><ele>648</ele><time>2012-05-28T14:46:56Z</time></trkpt><trkpt lat="43.64394" lon="11.77115"><ele>648</ele><time>2012-05-28T14:46:57Z</time></trkpt><trkpt lat="43.64394" lon="11.77126"><ele>648</ele><time>2012-05-28T14:46:58Z</time></trkpt><trkpt lat="43.64393" lon="11.77137"><ele>646</ele><time>2012-05-28T14:46:59Z</time></trkpt><trkpt lat="43.64391" lon="11.77158"><ele>647</ele><time>2012-05-28T14:47:01Z</time></trkpt><trkpt lat="43.64393" lon="11.77168"><ele>647</ele><time>2012-05-28T14:47:02Z</time></trkpt><trkpt lat="43.64391" lon="11.77178"><ele>648</ele><time>2012-05-28T14:47:03Z</time></trkpt><trkpt lat="43.64389" lon="11.77185"><ele>648</ele><time>2012-05-28T14:47:04Z</time></trkpt><trkpt lat="43.64390" lon="11.77190"><ele>649</ele><time>2012-05-28T14:47:05Z</time></trkpt><trkpt lat="43.64388" lon="11.77196"><ele>648</ele><time>2012-05-28T14:47:06Z</time></trkpt><trkpt lat="43.64388" lon="11.77199"><ele>648</ele><time>2012-05-28T14:47:07Z</time></trkpt><trkpt lat="43.64384" lon="11.77206"><ele>648</ele><time>2012-05-28T14:47:08Z</time></trkpt><trkpt lat="43.64380" lon="11.77217"><ele>647</ele><time>2012-05-28T14:47:10Z</time></trkpt><trkpt lat="43.64380" lon="11.77223"><ele>647</ele><time>2012-05-28T14:47:11Z</time></trkpt><trkpt lat="43.64378" lon="11.77230"><ele>646</ele><time>2012-05-28T14:47:12Z</time></trkpt><trkpt lat="43.64378" lon="11.77234"><ele>646</ele><time>2012-05-28T14:47:13Z</time></trkpt><trkpt lat="43.64376" lon="11.77252"><ele>644</ele><time>2012-05-28T14:47:16Z</time></trkpt><trkpt lat="43.64374" lon="11.77266"><ele>645</ele><time>2012-05-28T14:47:17Z</time></trkpt><trkpt lat="43.64373" lon="11.77273"><ele>645</ele><time>2012-05-28T14:47:18Z</time></trkpt><trkpt lat="43.64374" lon="11.77279"><ele>645</ele><time>2012-05-28T14:47:19Z</time></trkpt><trkpt lat="43.64372" lon="11.77287"><ele>644</ele><time>2012-05-28T14:47:20Z</time></trkpt><trkpt lat="43.64373" lon="11.77295"><ele>644</ele><time>2012-05-28T14:47:21Z</time></trkpt><trkpt lat="43.64371" lon="11.77306"><ele>643</ele><time>2012-05-28T14:47:23Z</time></trkpt><trkpt lat="43.64373" lon="11.77313"><ele>642</ele><time>2012-05-28T14:47:24Z</time></trkpt><trkpt lat="43.64372" lon="11.77319"><ele>643</ele><time>2012-05-28T14:47:25Z</time></trkpt><trkpt lat="43.64371" lon="11.77323"><ele>643</ele><time>2012-05-28T14:47:26Z</time></trkpt><trkpt lat="43.64371" lon="11.77329"><ele>642</ele><time>2012-05-28T14:47:27Z</time></trkpt><trkpt lat="43.64369" lon="11.77334"><ele>642</ele><time>2012-05-28T14:47:28Z</time></trkpt><trkpt lat="43.64369" lon="11.77339"><ele>642</ele><time>2012-05-28T14:47:29Z</time></trkpt><trkpt lat="43.64370" lon="11.77344"><ele>642</ele><time>2012-05-28T14:47:30Z</time></trkpt><trkpt lat="43.64370" lon="11.77350"><ele>643</ele><time>2012-05-28T14:47:31Z</time></trkpt><trkpt lat="43.64368" lon="11.77386"><ele>642</ele><time>2012-05-28T14:47:37Z</time></trkpt><trkpt lat="43.64365" lon="11.77402"><ele>643</ele><time>2012-05-28T14:47:39Z</time></trkpt><trkpt lat="43.64363" lon="11.77407"><ele>643</ele><time>2012-05-28T14:47:40Z</time></trkpt><trkpt lat="43.64363" lon="11.77410"><ele>644</ele><time>2012-05-28T14:47:41Z</time></trkpt><trkpt lat="43.64366" lon="11.77415"><ele>645</ele><time>2012-05-28T14:47:43Z</time></trkpt><trkpt lat="43.64365" lon="11.77422"><ele>646</ele><time>2012-05-28T14:47:45Z</time></trkpt><trkpt lat="43.64363" lon="11.77426"><ele>647</ele><time>2012-05-28T14:47:46Z</time></trkpt><trkpt lat="43.64360" lon="11.77430"><ele>648</ele><time>2012-05-28T14:47:47Z</time></trkpt><trkpt lat="43.64358" lon="11.77434"><ele>648</ele><time>2012-05-28T14:47:48Z</time></trkpt><trkpt lat="43.64357" lon="11.77438"><ele>649</ele><time>2012-05-28T14:47:49Z</time></trkpt><trkpt lat="43.64353" lon="11.77450"><ele>646</ele><time>2012-05-28T14:47:51Z</time></trkpt><trkpt lat="43.64348" lon="11.77467"><ele>647</ele><time>2012-05-28T14:47:54Z</time></trkpt><trkpt lat="43.64345" lon="11.77476"><ele>651</ele><time>2012-05-28T14:47:56Z</time></trkpt><trkpt lat="43.64344" lon="11.77486"><ele>652</ele><time>2012-05-28T14:47:58Z</time></trkpt><trkpt lat="43.64345" lon="11.77490"><ele>653</ele><time>2012-05-28T14:47:59Z</time></trkpt><trkpt lat="43.64344" lon="11.77495"><ele>653</ele><time>2012-05-28T14:48:00Z</time></trkpt><trkpt lat="43.64344" lon="11.77500"><ele>653</ele><time>2012-05-28T14:48:01Z</time></trkpt><trkpt lat="43.64344" lon="11.77513"><ele>659</ele><time>2012-05-28T14:48:04Z</time></trkpt><trkpt lat="43.64344" lon="11.77517"><ele>659</ele><time>2012-05-28T14:48:05Z</time></trkpt><trkpt lat="43.64343" lon="11.77521"><ele>660</ele><time>2012-05-28T14:48:06Z</time></trkpt><trkpt lat="43.64342" lon="11.77525"><ele>659</ele><time>2012-05-28T14:48:07Z</time></trkpt><trkpt lat="43.64342" lon="11.77540"><ele>658</ele><time>2012-05-28T14:48:10Z</time></trkpt><trkpt lat="43.64341" lon="11.77544"><ele>658</ele><time>2012-05-28T14:48:11Z</time></trkpt><trkpt lat="43.64341" lon="11.77548"><ele>658</ele><time>2012-05-28T14:48:12Z</time></trkpt><trkpt lat="43.64341" lon="11.77552"><ele>659</ele><time>2012-05-28T14:48:13Z</time></trkpt><trkpt lat="43.64341" lon="11.77606"><ele>653</ele><time>2012-05-28T14:48:22Z</time></trkpt><trkpt lat="43.64342" lon="11.77611"><ele>653</ele><time>2012-05-28T14:48:23Z</time></trkpt><trkpt lat="43.64342" lon="11.77618"><ele>654</ele><time>2012-05-28T14:48:24Z</time></trkpt><trkpt lat="43.64342" lon="11.77624"><ele>654</ele><time>2012-05-28T14:48:25Z</time></trkpt><trkpt lat="43.64344" lon="11.77635"><ele>654</ele><time>2012-05-28T14:48:26Z</time></trkpt><trkpt lat="43.64344" lon="11.77641"><ele>655</ele><time>2012-05-28T14:48:27Z</time></trkpt><trkpt lat="43.64344" lon="11.77645"><ele>656</ele><time>2012-05-28T14:48:28Z</time></trkpt><trkpt lat="43.64341" lon="11.77651"><ele>657</ele><time>2012-05-28T14:48:29Z</time></trkpt><trkpt lat="43.64340" lon="11.77657"><ele>657</ele><time>2012-05-28T14:48:30Z</time></trkpt><trkpt lat="43.64337" lon="11.77665"><ele>658</ele><time>2012-05-28T14:48:31Z</time></trkpt><trkpt lat="43.64336" lon="11.77672"><ele>658</ele><time>2012-05-28T14:48:32Z</time></trkpt><trkpt lat="43.64335" lon="11.77678"><ele>658</ele><time>2012-05-28T14:48:33Z</time></trkpt><trkpt lat="43.64333" lon="11.77694"><ele>661</ele><time>2012-05-28T14:48:36Z</time></trkpt><trkpt lat="43.64329" lon="11.77708"><ele>658</ele><time>2012-05-28T14:48:38Z</time></trkpt><trkpt lat="43.64327" lon="11.77714"><ele>658</ele><time>2012-05-28T14:48:39Z</time></trkpt><trkpt lat="43.64326" lon="11.77721"><ele>658</ele><time>2012-05-28T14:48:40Z</time></trkpt><trkpt lat="43.64325" lon="11.77727"><ele>657</ele><time>2012-05-28T14:48:41Z</time></trkpt><trkpt lat="43.64324" lon="11.77731"><ele>658</ele><time>2012-05-28T14:48:42Z</time></trkpt><trkpt lat="43.64324" lon="11.77735"><ele>658</ele><time>2012-05-28T14:48:43Z</time></trkpt><trkpt lat="43.64323" lon="11.77743"><ele>659</ele><time>2012-05-28T14:48:46Z</time></trkpt><trkpt lat="43.64318" lon="11.77772"><ele>657</ele><time>2012-05-28T14:48:54Z</time></trkpt><trkpt lat="43.64316" lon="11.77777"><ele>657</ele><time>2012-05-28T14:48:55Z</time></trkpt><trkpt lat="43.64314" lon="11.77782"><ele>657</ele><time>2012-05-28T14:48:56Z</time></trkpt><trkpt lat="43.64312" lon="11.77787"><ele>657</ele><time>2012-05-28T14:48:57Z</time></trkpt><trkpt lat="43.64308" lon="11.77796"><ele>657</ele><time>2012-05-28T14:48:59Z</time></trkpt><trkpt lat="43.64306" lon="11.77800"><ele>658</ele><time>2012-05-28T14:49:00Z</time></trkpt><trkpt lat="43.64294" lon="11.77826"><ele>661</ele><time>2012-05-28T14:49:06Z</time></trkpt><trkpt lat="43.64292" lon="11.77831"><ele>661</ele><time>2012-05-28T14:49:07Z</time></trkpt><trkpt lat="43.64287" lon="11.77846"><ele>664</ele><time>2012-05-28T14:49:10Z</time></trkpt><trkpt lat="43.64283" lon="11.77860"><ele>666</ele><time>2012-05-28T14:49:13Z</time></trkpt><trkpt lat="43.64278" lon="11.77873"><ele>666</ele><time>2012-05-28T14:49:16Z</time></trkpt><trkpt lat="43.64266" lon="11.77903"><ele>668</ele><time>2012-05-28T14:49:22Z</time></trkpt><trkpt lat="43.64260" lon="11.77924"><ele>667</ele><time>2012-05-28T14:49:25Z</time></trkpt><trkpt lat="43.64261" lon="11.77934"><ele>667</ele><time>2012-05-28T14:49:26Z</time></trkpt><trkpt lat="43.64263" lon="11.77948"><ele>665</ele><time>2012-05-28T14:49:27Z</time></trkpt><trkpt lat="43.64263" lon="11.77956"><ele>664</ele><time>2012-05-28T14:49:28Z</time></trkpt><trkpt lat="43.64263" lon="11.77970"><ele>664</ele><time>2012-05-28T14:49:29Z</time></trkpt><trkpt lat="43.64266" lon="11.77992"><ele>662</ele><time>2012-05-28T14:49:31Z</time></trkpt><trkpt lat="43.64272" lon="11.77999"><ele>662</ele><time>2012-05-28T14:49:32Z</time></trkpt><trkpt lat="43.64285" lon="11.77999"><ele>663</ele><time>2012-05-28T14:49:33Z</time></trkpt><trkpt lat="43.64297" lon="11.77995"><ele>662</ele><time>2012-05-28T14:49:34Z</time></trkpt><trkpt lat="43.64305" lon="11.77995"><ele>663</ele><time>2012-05-28T14:49:35Z</time></trkpt><trkpt lat="43.64313" lon="11.77993"><ele>662</ele><time>2012-05-28T14:49:36Z</time></trkpt><trkpt lat="43.64321" lon="11.77987"><ele>662</ele><time>2012-05-28T14:49:37Z</time></trkpt><trkpt lat="43.64332" lon="11.77977"><ele>661</ele><time>2012-05-28T14:49:39Z</time></trkpt><trkpt lat="43.64338" lon="11.77967"><ele>661</ele><time>2012-05-28T14:49:40Z</time></trkpt><trkpt lat="43.64350" lon="11.77950"><ele>662</ele><time>2012-05-28T14:49:42Z</time></trkpt><trkpt lat="43.64356" lon="11.77943"><ele>662</ele><time>2012-05-28T14:49:43Z</time></trkpt><trkpt lat="43.64366" lon="11.77936"><ele>661</ele><time>2012-05-28T14:49:44Z</time></trkpt><trkpt lat="43.64374" lon="11.77931"><ele>660</ele><time>2012-05-28T14:49:45Z</time></trkpt><trkpt lat="43.64382" lon="11.77925"><ele>660</ele><time>2012-05-28T14:49:46Z</time></trkpt><trkpt lat="43.64393" lon="11.77922"><ele>660</ele><time>2012-05-28T14:49:47Z</time></trkpt><trkpt lat="43.64400" lon="11.77919"><ele>660</ele><time>2012-05-28T14:49:48Z</time></trkpt><trkpt lat="43.64410" lon="11.77917"><ele>660</ele><time>2012-05-28T14:49:49Z</time></trkpt><trkpt lat="43.64420" lon="11.77916"><ele>660</ele><time>2012-05-28T14:49:50Z</time></trkpt><trkpt lat="43.64431" lon="11.77917"><ele>659</ele><time>2012-05-28T14:49:51Z</time></trkpt><trkpt lat="43.64443" lon="11.77918"><ele>659</ele><time>2012-05-28T14:49:52Z</time></trkpt><trkpt lat="43.64455" lon="11.77918"><ele>659</ele><time>2012-05-28T14:49:53Z</time></trkpt><trkpt lat="43.64464" lon="11.77915"><ele>660</ele><time>2012-05-28T14:49:54Z</time></trkpt><trkpt lat="43.64477" lon="11.77915"><ele>659</ele><time>2012-05-28T14:49:55Z</time></trkpt><trkpt lat="43.64488" lon="11.77912"><ele>658</ele><time>2012-05-28T14:49:56Z</time></trkpt><trkpt lat="43.64499" lon="11.77912"><ele>658</ele><time>2012-05-28T14:49:57Z</time></trkpt><trkpt lat="43.64509" lon="11.77909"><ele>658</ele><time>2012-05-28T14:49:58Z</time></trkpt><trkpt lat="43.64522" lon="11.77911"><ele>660</ele><time>2012-05-28T14:49:59Z</time></trkpt><trkpt lat="43.64535" lon="11.77910"><ele>660</ele><time>2012-05-28T14:50:00Z</time></trkpt><trkpt lat="43.64548" lon="11.77917"><ele>660</ele><time>2012-05-28T14:50:01Z</time></trkpt><trkpt lat="43.64561" lon="11.77926"><ele>659</ele><time>2012-05-28T14:50:02Z</time></trkpt><trkpt lat="43.64573" lon="11.77939"><ele>658</ele><time>2012-05-28T14:50:03Z</time></trkpt><trkpt lat="43.64584" lon="11.77946"><ele>657</ele><time>2012-05-28T14:50:04Z</time></trkpt><trkpt lat="43.64597" lon="11.77951"><ele>656</ele><time>2012-05-28T14:50:05Z</time></trkpt><trkpt lat="43.64623" lon="11.77964"><ele>655</ele><time>2012-05-28T14:50:07Z</time></trkpt><trkpt lat="43.64635" lon="11.77971"><ele>654</ele><time>2012-05-28T14:50:08Z</time></trkpt><trkpt lat="43.64646" lon="11.77976"><ele>654</ele><time>2012-05-28T14:50:09Z</time></trkpt><trkpt lat="43.64657" lon="11.77980"><ele>654</ele><time>2012-05-28T14:50:10Z</time></trkpt><trkpt lat="43.64669" lon="11.77986"><ele>653</ele><time>2012-05-28T14:50:11Z</time></trkpt><trkpt lat="43.64681" lon="11.77999"><ele>653</ele><time>2012-05-28T14:50:12Z</time></trkpt><trkpt lat="43.64693" lon="11.78005"><ele>653</ele><time>2012-05-28T14:50:13Z</time></trkpt><trkpt lat="43.64707" lon="11.78017"><ele>650</ele><time>2012-05-28T14:50:14Z</time></trkpt><trkpt lat="43.64728" lon="11.78034"><ele>648</ele><time>2012-05-28T14:50:16Z</time></trkpt><trkpt lat="43.64739" lon="11.78037"><ele>647</ele><time>2012-05-28T14:50:17Z</time></trkpt><trkpt lat="43.64751" lon="11.78035"><ele>646</ele><time>2012-05-28T14:50:18Z</time></trkpt><trkpt lat="43.64762" lon="11.78031"><ele>644</ele><time>2012-05-28T14:50:19Z</time></trkpt><trkpt lat="43.64773" lon="11.78023"><ele>643</ele><time>2012-05-28T14:50:20Z</time></trkpt><trkpt lat="43.64804" lon="11.78000"><ele>641</ele><time>2012-05-28T14:50:23Z</time></trkpt><trkpt lat="43.64813" lon="11.77997"><ele>641</ele><time>2012-05-28T14:50:24Z</time></trkpt><trkpt lat="43.64822" lon="11.78018"><ele>638</ele><time>2012-05-28T14:50:25Z</time></trkpt><trkpt lat="43.64827" lon="11.78033"><ele>634</ele><time>2012-05-28T14:50:26Z</time></trkpt><trkpt lat="43.64827" lon="11.78047"><ele>632</ele><time>2012-05-28T14:50:27Z</time></trkpt><trkpt lat="43.64825" lon="11.78062"><ele>629</ele><time>2012-05-28T14:50:28Z</time></trkpt><trkpt lat="43.64823" lon="11.78077"><ele>626</ele><time>2012-05-28T14:50:29Z</time></trkpt><trkpt lat="43.64820" lon="11.78087"><ele>625</ele><time>2012-05-28T14:50:30Z</time></trkpt><trkpt lat="43.64810" lon="11.78110"><ele>621</ele><time>2012-05-28T14:50:32Z</time></trkpt><trkpt lat="43.64799" lon="11.78115"><ele>621</ele><time>2012-05-28T14:50:33Z</time></trkpt><trkpt lat="43.64784" lon="11.78117"><ele>617</ele><time>2012-05-28T14:50:34Z</time></trkpt><trkpt lat="43.64769" lon="11.78121"><ele>615</ele><time>2012-05-28T14:50:35Z</time></trkpt><trkpt lat="43.64757" lon="11.78125"><ele>615</ele><time>2012-05-28T14:50:36Z</time></trkpt><trkpt lat="43.64746" lon="11.78130"><ele>615</ele><time>2012-05-28T14:50:37Z</time></trkpt><trkpt lat="43.64728" lon="11.78137"><ele>615</ele><time>2012-05-28T14:50:39Z</time></trkpt><trkpt lat="43.64720" lon="11.78137"><ele>614</ele><time>2012-05-28T14:50:40Z</time></trkpt><trkpt lat="43.64706" lon="11.78138"><ele>614</ele><time>2012-05-28T14:50:41Z</time></trkpt><trkpt lat="43.64696" lon="11.78145"><ele>613</ele><time>2012-05-28T14:50:42Z</time></trkpt><trkpt lat="43.64677" lon="11.78157"><ele>613</ele><time>2012-05-28T14:50:44Z</time></trkpt><trkpt lat="43.64673" lon="11.78164"><ele>613</ele><time>2012-05-28T14:50:45Z</time></trkpt><trkpt lat="43.64665" lon="11.78178"><ele>614</ele><time>2012-05-28T14:50:47Z</time></trkpt><trkpt lat="43.64662" lon="11.78186"><ele>613</ele><time>2012-05-28T14:50:48Z</time></trkpt><trkpt lat="43.64658" lon="11.78190"><ele>610</ele><time>2012-05-28T14:50:49Z</time></trkpt><trkpt lat="43.64657" lon="11.78197"><ele>609</ele><time>2012-05-28T14:50:50Z</time></trkpt><trkpt lat="43.64662" lon="11.78201"><ele>608</ele><time>2012-05-28T14:50:51Z</time></trkpt><trkpt lat="43.64670" lon="11.78200"><ele>608</ele><time>2012-05-28T14:50:52Z</time></trkpt><trkpt lat="43.64682" lon="11.78196"><ele>607</ele><time>2012-05-28T14:50:53Z</time></trkpt><trkpt lat="43.64694" lon="11.78192"><ele>607</ele><time>2012-05-28T14:50:54Z</time></trkpt><trkpt lat="43.64704" lon="11.78183"><ele>607</ele><time>2012-05-28T14:50:55Z</time></trkpt><trkpt lat="43.64715" lon="11.78180"><ele>606</ele><time>2012-05-28T14:50:56Z</time></trkpt><trkpt lat="43.64726" lon="11.78175"><ele>606</ele><time>2012-05-28T14:50:57Z</time></trkpt><trkpt lat="43.64735" lon="11.78172"><ele>605</ele><time>2012-05-28T14:50:58Z</time></trkpt><trkpt lat="43.64746" lon="11.78169"><ele>605</ele><time>2012-05-28T14:50:59Z</time></trkpt><trkpt lat="43.64755" lon="11.78165"><ele>605</ele><time>2012-05-28T14:51:00Z</time></trkpt><trkpt lat="43.64765" lon="11.78160"><ele>605</ele><time>2012-05-28T14:51:01Z</time></trkpt><trkpt lat="43.64775" lon="11.78160"><ele>604</ele><time>2012-05-28T14:51:02Z</time></trkpt><trkpt lat="43.64784" lon="11.78155"><ele>604</ele><time>2012-05-28T14:51:03Z</time></trkpt><trkpt lat="43.64793" lon="11.78147"><ele>604</ele><time>2012-05-28T14:51:04Z</time></trkpt><trkpt lat="43.64803" lon="11.78139"><ele>603</ele><time>2012-05-28T14:51:05Z</time></trkpt><trkpt lat="43.64813" lon="11.78134"><ele>600</ele><time>2012-05-28T14:51:06Z</time></trkpt><trkpt lat="43.64824" lon="11.78128"><ele>598</ele><time>2012-05-28T14:51:07Z</time></trkpt><trkpt lat="43.64833" lon="11.78119"><ele>597</ele><time>2012-05-28T14:51:08Z</time></trkpt><trkpt lat="43.64860" lon="11.78096"><ele>594</ele><time>2012-05-28T14:51:11Z</time></trkpt><trkpt lat="43.64870" lon="11.78095"><ele>597</ele><time>2012-05-28T14:51:12Z</time></trkpt><trkpt lat="43.64880" lon="11.78101"><ele>600</ele><time>2012-05-28T14:51:13Z</time></trkpt><trkpt lat="43.64887" lon="11.78113"><ele>596</ele><time>2012-05-28T14:51:14Z</time></trkpt><trkpt lat="43.64886" lon="11.78127"><ele>592</ele><time>2012-05-28T14:51:15Z</time></trkpt><trkpt lat="43.64886" lon="11.78143"><ele>586</ele><time>2012-05-28T14:51:16Z</time></trkpt><trkpt lat="43.64881" lon="11.78150"><ele>586</ele><time>2012-05-28T14:51:17Z</time></trkpt><trkpt lat="43.64877" lon="11.78157"><ele>584</ele><time>2012-05-28T14:51:18Z</time></trkpt><trkpt lat="43.64872" lon="11.78170"><ele>583</ele><time>2012-05-28T14:51:20Z</time></trkpt><trkpt lat="43.64863" lon="11.78186"><ele>583</ele><time>2012-05-28T14:51:22Z</time></trkpt><trkpt lat="43.64849" lon="11.78207"><ele>582</ele><time>2012-05-28T14:51:24Z</time></trkpt><trkpt lat="43.64843" lon="11.78218"><ele>582</ele><time>2012-05-28T14:51:25Z</time></trkpt><trkpt lat="43.64832" lon="11.78238"><ele>582</ele><time>2012-05-28T14:51:27Z</time></trkpt><trkpt lat="43.64817" lon="11.78259"><ele>582</ele><time>2012-05-28T14:51:29Z</time></trkpt><trkpt lat="43.64806" lon="11.78269"><ele>581</ele><time>2012-05-28T14:51:30Z</time></trkpt><trkpt lat="43.64796" lon="11.78279"><ele>580</ele><time>2012-05-28T14:51:31Z</time></trkpt><trkpt lat="43.64786" lon="11.78288"><ele>578</ele><time>2012-05-28T14:51:32Z</time></trkpt><trkpt lat="43.64777" lon="11.78297"><ele>577</ele><time>2012-05-28T14:51:33Z</time></trkpt><trkpt lat="43.64768" lon="11.78308"><ele>577</ele><time>2012-05-28T14:51:34Z</time></trkpt><trkpt lat="43.64751" lon="11.78328"><ele>576</ele><time>2012-05-28T14:51:36Z</time></trkpt><trkpt lat="43.64740" lon="11.78336"><ele>574</ele><time>2012-05-28T14:51:37Z</time></trkpt><trkpt lat="43.64732" lon="11.78345"><ele>574</ele><time>2012-05-28T14:51:38Z</time></trkpt><trkpt lat="43.64721" lon="11.78353"><ele>573</ele><time>2012-05-28T14:51:39Z</time></trkpt><trkpt lat="43.64711" lon="11.78362"><ele>572</ele><time>2012-05-28T14:51:40Z</time></trkpt><trkpt lat="43.64705" lon="11.78373"><ele>571</ele><time>2012-05-28T14:51:41Z</time></trkpt><trkpt lat="43.64699" lon="11.78386"><ele>570</ele><time>2012-05-28T14:51:42Z</time></trkpt><trkpt lat="43.64694" lon="11.78400"><ele>569</ele><time>2012-05-28T14:51:43Z</time></trkpt><trkpt lat="43.64693" lon="11.78412"><ele>566</ele><time>2012-05-28T14:51:44Z</time></trkpt><trkpt lat="43.64692" lon="11.78424"><ele>564</ele><time>2012-05-28T14:51:45Z</time></trkpt><trkpt lat="43.64688" lon="11.78438"><ele>563</ele><time>2012-05-28T14:51:46Z</time></trkpt><trkpt lat="43.64687" lon="11.78455"><ele>561</ele><time>2012-05-28T14:51:47Z</time></trkpt><trkpt lat="43.64691" lon="11.78465"><ele>560</ele><time>2012-05-28T14:51:48Z</time></trkpt><trkpt lat="43.64690" lon="11.78478"><ele>560</ele><time>2012-05-28T14:51:49Z</time></trkpt><trkpt lat="43.64695" lon="11.78486"><ele>559</ele><time>2012-05-28T14:51:50Z</time></trkpt><trkpt lat="43.64708" lon="11.78485"><ele>559</ele><time>2012-05-28T14:51:51Z</time></trkpt><trkpt lat="43.64735" lon="11.78482"><ele>558</ele><time>2012-05-28T14:51:53Z</time></trkpt><trkpt lat="43.64742" lon="11.78485"><ele>557</ele><time>2012-05-28T14:51:54Z</time></trkpt><trkpt lat="43.64751" lon="11.78479"><ele>555</ele><time>2012-05-28T14:51:55Z</time></trkpt><trkpt lat="43.64757" lon="11.78471"><ele>555</ele><time>2012-05-28T14:51:56Z</time></trkpt><trkpt lat="43.64765" lon="11.78453"><ele>554</ele><time>2012-05-28T14:51:58Z</time></trkpt><trkpt lat="43.64768" lon="11.78442"><ele>554</ele><time>2012-05-28T14:51:59Z</time></trkpt><trkpt lat="43.64772" lon="11.78433"><ele>554</ele><time>2012-05-28T14:52:00Z</time></trkpt><trkpt lat="43.64776" lon="11.78419"><ele>553</ele><time>2012-05-28T14:52:01Z</time></trkpt><trkpt lat="43.64779" lon="11.78409"><ele>552</ele><time>2012-05-28T14:52:02Z</time></trkpt><trkpt lat="43.64786" lon="11.78406"><ele>551</ele><time>2012-05-28T14:52:03Z</time></trkpt><trkpt lat="43.64796" lon="11.78405"><ele>551</ele><time>2012-05-28T14:52:04Z</time></trkpt><trkpt lat="43.64806" lon="11.78403"><ele>551</ele><time>2012-05-28T14:52:05Z</time></trkpt><trkpt lat="43.64815" lon="11.78404"><ele>551</ele><time>2012-05-28T14:52:06Z</time></trkpt><trkpt lat="43.64823" lon="11.78406"><ele>551</ele><time>2012-05-28T14:52:07Z</time></trkpt><trkpt lat="43.64831" lon="11.78406"><ele>551</ele><time>2012-05-28T14:52:08Z</time></trkpt><trkpt lat="43.64842" lon="11.78412"><ele>552</ele><time>2012-05-28T14:52:09Z</time></trkpt><trkpt lat="43.64852" lon="11.78417"><ele>552</ele><time>2012-05-28T14:52:10Z</time></trkpt><trkpt lat="43.64871" lon="11.78423"><ele>553</ele><time>2012-05-28T14:52:12Z</time></trkpt><trkpt lat="43.64882" lon="11.78426"><ele>552</ele><time>2012-05-28T14:52:13Z</time></trkpt><trkpt lat="43.64892" lon="11.78421"><ele>552</ele><time>2012-05-28T14:52:14Z</time></trkpt><trkpt lat="43.64899" lon="11.78413"><ele>552</ele><time>2012-05-28T14:52:15Z</time></trkpt><trkpt lat="43.64904" lon="11.78406"><ele>550</ele><time>2012-05-28T14:52:16Z</time></trkpt><trkpt lat="43.64915" lon="11.78384"><ele>549</ele><time>2012-05-28T14:52:18Z</time></trkpt><trkpt lat="43.64920" lon="11.78370"><ele>548</ele><time>2012-05-28T14:52:19Z</time></trkpt><trkpt lat="43.64933" lon="11.78365"><ele>548</ele><time>2012-05-28T14:52:20Z</time></trkpt><trkpt lat="43.64942" lon="11.78358"><ele>547</ele><time>2012-05-28T14:52:21Z</time></trkpt><trkpt lat="43.64960" lon="11.78346"><ele>547</ele><time>2012-05-28T14:52:23Z</time></trkpt><trkpt lat="43.64970" lon="11.78343"><ele>546</ele><time>2012-05-28T14:52:24Z</time></trkpt><trkpt lat="43.64981" lon="11.78353"><ele>545</ele><time>2012-05-28T14:52:25Z</time></trkpt><trkpt lat="43.64991" lon="11.78362"><ele>543</ele><time>2012-05-28T14:52:26Z</time></trkpt><trkpt lat="43.64999" lon="11.78374"><ele>540</ele><time>2012-05-28T14:52:27Z</time></trkpt><trkpt lat="43.65006" lon="11.78387"><ele>535</ele><time>2012-05-28T14:52:28Z</time></trkpt><trkpt lat="43.65024" lon="11.78421"><ele>532</ele><time>2012-05-28T14:52:31Z</time></trkpt><trkpt lat="43.65029" lon="11.78434"><ele>530</ele><time>2012-05-28T14:52:32Z</time></trkpt><trkpt lat="43.65035" lon="11.78449"><ele>529</ele><time>2012-05-28T14:52:33Z</time></trkpt><trkpt lat="43.65038" lon="11.78463"><ele>529</ele><time>2012-05-28T14:52:34Z</time></trkpt><trkpt lat="43.65042" lon="11.78476"><ele>529</ele><time>2012-05-28T14:52:35Z</time></trkpt><trkpt lat="43.65046" lon="11.78493"><ele>529</ele><time>2012-05-28T14:52:36Z</time></trkpt><trkpt lat="43.65053" lon="11.78521"><ele>528</ele><time>2012-05-28T14:52:38Z</time></trkpt><trkpt lat="43.65058" lon="11.78532"><ele>527</ele><time>2012-05-28T14:52:39Z</time></trkpt><trkpt lat="43.65061" lon="11.78543"><ele>528</ele><time>2012-05-28T14:52:40Z</time></trkpt><trkpt lat="43.65065" lon="11.78556"><ele>528</ele><time>2012-05-28T14:52:41Z</time></trkpt><trkpt lat="43.65069" lon="11.78568"><ele>528</ele><time>2012-05-28T14:52:42Z</time></trkpt><trkpt lat="43.65072" lon="11.78583"><ele>527</ele><time>2012-05-28T14:52:43Z</time></trkpt><trkpt lat="43.65078" lon="11.78603"><ele>521</ele><time>2012-05-28T14:52:44Z</time></trkpt><trkpt lat="43.65088" lon="11.78613"><ele>519</ele><time>2012-05-28T14:52:45Z</time></trkpt><trkpt lat="43.65101" lon="11.78618"><ele>519</ele><time>2012-05-28T14:52:47Z</time></trkpt><trkpt lat="43.65107" lon="11.78614"><ele>519</ele><time>2012-05-28T14:52:48Z</time></trkpt><trkpt lat="43.65113" lon="11.78609"><ele>517</ele><time>2012-05-28T14:52:49Z</time></trkpt><trkpt lat="43.65120" lon="11.78603"><ele>516</ele><time>2012-05-28T14:52:50Z</time></trkpt><trkpt lat="43.65123" lon="11.78596"><ele>515</ele><time>2012-05-28T14:52:51Z</time></trkpt><trkpt lat="43.65130" lon="11.78574"><ele>515</ele><time>2012-05-28T14:52:53Z</time></trkpt><trkpt lat="43.65131" lon="11.78562"><ele>515</ele><time>2012-05-28T14:52:54Z</time></trkpt><trkpt lat="43.65130" lon="11.78554"><ele>514</ele><time>2012-05-28T14:52:55Z</time></trkpt><trkpt lat="43.65133" lon="11.78542"><ele>514</ele><time>2012-05-28T14:52:56Z</time></trkpt><trkpt lat="43.65138" lon="11.78533"><ele>514</ele><time>2012-05-28T14:52:57Z</time></trkpt><trkpt lat="43.65146" lon="11.78528"><ele>515</ele><time>2012-05-28T14:52:58Z</time></trkpt><trkpt lat="43.65177" lon="11.78506"><ele>515</ele><time>2012-05-28T14:53:02Z</time></trkpt><trkpt lat="43.65189" lon="11.78492"><ele>514</ele><time>2012-05-28T14:53:04Z</time></trkpt><trkpt lat="43.65191" lon="11.78484"><ele>514</ele><time>2012-05-28T14:53:05Z</time></trkpt><trkpt lat="43.65193" lon="11.78473"><ele>514</ele><time>2012-05-28T14:53:06Z</time></trkpt><trkpt lat="43.65195" lon="11.78454"><ele>514</ele><time>2012-05-28T14:53:08Z</time></trkpt><trkpt lat="43.65199" lon="11.78406"><ele>511</ele><time>2012-05-28T14:53:11Z</time></trkpt><trkpt lat="43.65203" lon="11.78393"><ele>510</ele><time>2012-05-28T14:53:12Z</time></trkpt><trkpt lat="43.65211" lon="11.78372"><ele>509</ele><time>2012-05-28T14:53:13Z</time></trkpt><trkpt lat="43.65223" lon="11.78355"><ele>508</ele><time>2012-05-28T14:53:14Z</time></trkpt><trkpt lat="43.65238" lon="11.78348"><ele>504</ele><time>2012-05-28T14:53:15Z</time></trkpt><trkpt lat="43.65249" lon="11.78346"><ele>500</ele><time>2012-05-28T14:53:16Z</time></trkpt><trkpt lat="43.65262" lon="11.78351"><ele>501</ele><time>2012-05-28T14:53:17Z</time></trkpt><trkpt lat="43.65271" lon="11.78360"><ele>499</ele><time>2012-05-28T14:53:18Z</time></trkpt><trkpt lat="43.65281" lon="11.78366"><ele>499</ele><time>2012-05-28T14:53:19Z</time></trkpt><trkpt lat="43.65296" lon="11.78384"><ele>492</ele><time>2012-05-28T14:53:21Z</time></trkpt><trkpt lat="43.65303" lon="11.78396"><ele>490</ele><time>2012-05-28T14:53:22Z</time></trkpt><trkpt lat="43.65309" lon="11.78409"><ele>489</ele><time>2012-05-28T14:53:23Z</time></trkpt><trkpt lat="43.65315" lon="11.78425"><ele>486</ele><time>2012-05-28T14:53:24Z</time></trkpt><trkpt lat="43.65325" lon="11.78451"><ele>485</ele><time>2012-05-28T14:53:26Z</time></trkpt><trkpt lat="43.65312" lon="11.78478"><ele>482</ele><time>2012-05-28T14:53:28Z</time></trkpt><trkpt lat="43.65311" lon="11.78490"><ele>481</ele><time>2012-05-28T14:53:29Z</time></trkpt><trkpt lat="43.65301" lon="11.78500"><ele>480</ele><time>2012-05-28T14:53:30Z</time></trkpt><trkpt lat="43.65298" lon="11.78513"><ele>480</ele><time>2012-05-28T14:53:31Z</time></trkpt><trkpt lat="43.65289" lon="11.78524"><ele>478</ele><time>2012-05-28T14:53:32Z</time></trkpt><trkpt lat="43.65286" lon="11.78535"><ele>478</ele><time>2012-05-28T14:53:33Z</time></trkpt><trkpt lat="43.65276" lon="11.78548"><ele>477</ele><time>2012-05-28T14:53:34Z</time></trkpt><trkpt lat="43.65266" lon="11.78559"><ele>474</ele><time>2012-05-28T14:53:35Z</time></trkpt><trkpt lat="43.65252" lon="11.78569"><ele>470</ele><time>2012-05-28T14:53:36Z</time></trkpt><trkpt lat="43.65247" lon="11.78582"><ele>469</ele><time>2012-05-28T14:53:37Z</time></trkpt><trkpt lat="43.65239" lon="11.78603"><ele>468</ele><time>2012-05-28T14:53:39Z</time></trkpt><trkpt lat="43.65232" lon="11.78616"><ele>468</ele><time>2012-05-28T14:53:40Z</time></trkpt><trkpt lat="43.65228" lon="11.78628"><ele>468</ele><time>2012-05-28T14:53:41Z</time></trkpt><trkpt lat="43.65230" lon="11.78642"><ele>467</ele><time>2012-05-28T14:53:42Z</time></trkpt><trkpt lat="43.65231" lon="11.78655"><ele>464</ele><time>2012-05-28T14:53:43Z</time></trkpt><trkpt lat="43.65233" lon="11.78667"><ele>463</ele><time>2012-05-28T14:53:44Z</time></trkpt><trkpt lat="43.65238" lon="11.78680"><ele>463</ele><time>2012-05-28T14:53:45Z</time></trkpt><trkpt lat="43.65242" lon="11.78694"><ele>462</ele><time>2012-05-28T14:53:46Z</time></trkpt><trkpt lat="43.65247" lon="11.78700"><ele>460</ele><time>2012-05-28T14:53:47Z</time></trkpt><trkpt lat="43.65254" lon="11.78711"><ele>459</ele><time>2012-05-28T14:53:48Z</time></trkpt><trkpt lat="43.65261" lon="11.78719"><ele>459</ele><time>2012-05-28T14:53:49Z</time></trkpt><trkpt lat="43.65275" lon="11.78733"><ele>460</ele><time>2012-05-28T14:53:51Z</time></trkpt><trkpt lat="43.65283" lon="11.78731"><ele>459</ele><time>2012-05-28T14:53:52Z</time></trkpt><trkpt lat="43.65289" lon="11.78735"><ele>459</ele><time>2012-05-28T14:53:53Z</time></trkpt><trkpt lat="43.65315" lon="11.78752"><ele>459</ele><time>2012-05-28T14:53:57Z</time></trkpt><trkpt lat="43.65322" lon="11.78755"><ele>459</ele><time>2012-05-28T14:53:58Z</time></trkpt><trkpt lat="43.65327" lon="11.78758"><ele>459</ele><time>2012-05-28T14:53:59Z</time></trkpt><trkpt lat="43.65339" lon="11.78768"><ele>458</ele><time>2012-05-28T14:54:01Z</time></trkpt><trkpt lat="43.65343" lon="11.78767"><ele>458</ele><time>2012-05-28T14:54:02Z</time></trkpt><trkpt lat="43.65349" lon="11.78771"><ele>457</ele><time>2012-05-28T14:54:03Z</time></trkpt><trkpt lat="43.65342" lon="11.78786"><ele>457</ele><time>2012-05-28T14:54:05Z</time></trkpt><trkpt lat="43.65340" lon="11.78793"><ele>457</ele><time>2012-05-28T14:54:06Z</time></trkpt><trkpt lat="43.65339" lon="11.78798"><ele>456</ele><time>2012-05-28T14:54:07Z</time></trkpt><trkpt lat="43.65339" lon="11.78804"><ele>456</ele><time>2012-05-28T14:54:09Z</time></trkpt><trkpt lat="43.65337" lon="11.78808"><ele>455</ele><time>2012-05-28T14:54:10Z</time></trkpt><trkpt lat="43.65331" lon="11.78813"><ele>454</ele><time>2012-05-28T14:54:11Z</time></trkpt><trkpt lat="43.65328" lon="11.78816"><ele>454</ele><time>2012-05-28T14:54:12Z</time></trkpt><trkpt lat="43.65324" lon="11.78816"><ele>454</ele><time>2012-05-28T14:54:13Z</time></trkpt><trkpt lat="43.65320" lon="11.78817"><ele>453</ele><time>2012-05-28T14:54:14Z</time></trkpt><trkpt lat="43.65310" lon="11.78816"><ele>452</ele><time>2012-05-28T14:54:15Z</time></trkpt><trkpt lat="43.65302" lon="11.78819"><ele>452</ele><time>2012-05-28T14:54:16Z</time></trkpt><trkpt lat="43.65297" lon="11.78822"><ele>452</ele><time>2012-05-28T14:54:17Z</time></trkpt><trkpt lat="43.65291" lon="11.78824"><ele>452</ele><time>2012-05-28T14:54:18Z</time></trkpt><trkpt lat="43.65287" lon="11.78825"><ele>451</ele><time>2012-05-28T14:54:19Z</time></trkpt><trkpt lat="43.65282" lon="11.78828"><ele>451</ele><time>2012-05-28T14:54:20Z</time></trkpt><trkpt lat="43.65277" lon="11.78833"><ele>451</ele><time>2012-05-28T14:54:21Z</time></trkpt><trkpt lat="43.65272" lon="11.78835"><ele>451</ele><time>2012-05-28T14:54:22Z</time></trkpt><trkpt lat="43.65266" lon="11.78842"><ele>450</ele><time>2012-05-28T14:54:23Z</time></trkpt><trkpt lat="43.65255" lon="11.78843"><ele>449</ele><time>2012-05-28T14:54:24Z</time></trkpt><trkpt lat="43.65255" lon="11.78854"><ele>449</ele><time>2012-05-28T14:54:25Z</time></trkpt><trkpt lat="43.65257" lon="11.78856"><ele>448</ele><time>2012-05-28T14:54:26Z</time></trkpt><trkpt lat="43.65257" lon="11.78866"><ele>448</ele><time>2012-05-28T14:54:27Z</time></trkpt><trkpt lat="43.65255" lon="11.78874"><ele>448</ele><time>2012-05-28T14:54:28Z</time></trkpt><trkpt lat="43.65259" lon="11.78884"><ele>448</ele><time>2012-05-28T14:54:29Z</time></trkpt><trkpt lat="43.65258" lon="11.78893"><ele>448</ele><time>2012-05-28T14:54:30Z</time></trkpt><trkpt lat="43.65262" lon="11.78901"><ele>447</ele><time>2012-05-28T14:54:31Z</time></trkpt><trkpt lat="43.65264" lon="11.78908"><ele>446</ele><time>2012-05-28T14:54:32Z</time></trkpt><trkpt lat="43.65265" lon="11.78918"><ele>445</ele><time>2012-05-28T14:54:33Z</time></trkpt><trkpt lat="43.65267" lon="11.78926"><ele>444</ele><time>2012-05-28T14:54:34Z</time></trkpt><trkpt lat="43.65271" lon="11.78932"><ele>444</ele><time>2012-05-28T14:54:35Z</time></trkpt><trkpt lat="43.65275" lon="11.78939"><ele>445</ele><time>2012-05-28T14:54:36Z</time></trkpt><trkpt lat="43.65281" lon="11.78953"><ele>444</ele><time>2012-05-28T14:54:38Z</time></trkpt><trkpt lat="43.65284" lon="11.78961"><ele>444</ele><time>2012-05-28T14:54:39Z</time></trkpt><trkpt lat="43.65286" lon="11.78971"><ele>443</ele><time>2012-05-28T14:54:40Z</time></trkpt><trkpt lat="43.65290" lon="11.78990"><ele>442</ele><time>2012-05-28T14:54:42Z</time></trkpt><trkpt lat="43.65294" lon="11.79010"><ele>441</ele><time>2012-05-28T14:54:44Z</time></trkpt><trkpt lat="43.65295" lon="11.79029"><ele>441</ele><time>2012-05-28T14:54:46Z</time></trkpt><trkpt lat="43.65296" lon="11.79038"><ele>441</ele><time>2012-05-28T14:54:47Z</time></trkpt><trkpt lat="43.65295" lon="11.79056"><ele>441</ele><time>2012-05-28T14:54:49Z</time></trkpt><trkpt lat="43.65293" lon="11.79065"><ele>441</ele><time>2012-05-28T14:54:50Z</time></trkpt><trkpt lat="43.65291" lon="11.79074"><ele>441</ele><time>2012-05-28T14:54:51Z</time></trkpt><trkpt lat="43.65289" lon="11.79083"><ele>440</ele><time>2012-05-28T14:54:52Z</time></trkpt><trkpt lat="43.65286" lon="11.79092"><ele>440</ele><time>2012-05-28T14:54:53Z</time></trkpt><trkpt lat="43.65281" lon="11.79107"><ele>439</ele><time>2012-05-28T14:54:55Z</time></trkpt><trkpt lat="43.65278" lon="11.79117"><ele>439</ele><time>2012-05-28T14:54:56Z</time></trkpt><trkpt lat="43.65275" lon="11.79128"><ele>439</ele><time>2012-05-28T14:54:57Z</time></trkpt><trkpt lat="43.65271" lon="11.79148"><ele>438</ele><time>2012-05-28T14:54:59Z</time></trkpt><trkpt lat="43.65269" lon="11.79157"><ele>438</ele><time>2012-05-28T14:55:00Z</time></trkpt><trkpt lat="43.65267" lon="11.79165"><ele>438</ele><time>2012-05-28T14:55:01Z</time></trkpt><trkpt lat="43.65265" lon="11.79172"><ele>438</ele><time>2012-05-28T14:55:02Z</time></trkpt><trkpt lat="43.65262" lon="11.79179"><ele>439</ele><time>2012-05-28T14:55:03Z</time></trkpt><trkpt lat="43.65258" lon="11.79188"><ele>438</ele><time>2012-05-28T14:55:04Z</time></trkpt><trkpt lat="43.65255" lon="11.79197"><ele>438</ele><time>2012-05-28T14:55:05Z</time></trkpt><trkpt lat="43.65252" lon="11.79205"><ele>438</ele><time>2012-05-28T14:55:06Z</time></trkpt><trkpt lat="43.65247" lon="11.79220"><ele>438</ele><time>2012-05-28T14:55:08Z</time></trkpt><trkpt lat="43.65246" lon="11.79227"><ele>437</ele><time>2012-05-28T14:55:09Z</time></trkpt><trkpt lat="43.65243" lon="11.79233"><ele>436</ele><time>2012-05-28T14:55:10Z</time></trkpt><trkpt lat="43.65239" lon="11.79245"><ele>435</ele><time>2012-05-28T14:55:11Z</time></trkpt><trkpt lat="43.65235" lon="11.79254"><ele>435</ele><time>2012-05-28T14:55:12Z</time></trkpt><trkpt lat="43.65232" lon="11.79264"><ele>435</ele><time>2012-05-28T14:55:13Z</time></trkpt><trkpt lat="43.65220" lon="11.79307"><ele>433</ele><time>2012-05-28T14:55:17Z</time></trkpt><trkpt lat="43.65220" lon="11.79315"><ele>432</ele><time>2012-05-28T14:55:18Z</time></trkpt><trkpt lat="43.65215" lon="11.79325"><ele>433</ele><time>2012-05-28T14:55:19Z</time></trkpt><trkpt lat="43.65212" lon="11.79332"><ele>432</ele><time>2012-05-28T14:55:20Z</time></trkpt><trkpt lat="43.65209" lon="11.79357"><ele>432</ele><time>2012-05-28T14:55:22Z</time></trkpt><trkpt lat="43.65210" lon="11.79383"><ele>432</ele><time>2012-05-28T14:55:24Z</time></trkpt><trkpt lat="43.65213" lon="11.79407"><ele>431</ele><time>2012-05-28T14:55:26Z</time></trkpt><trkpt lat="43.65220" lon="11.79417"><ele>430</ele><time>2012-05-28T14:55:27Z</time></trkpt><trkpt lat="43.65224" lon="11.79430"><ele>429</ele><time>2012-05-28T14:55:28Z</time></trkpt><trkpt lat="43.65226" lon="11.79442"><ele>428</ele><time>2012-05-28T14:55:29Z</time></trkpt><trkpt lat="43.65229" lon="11.79452"><ele>428</ele><time>2012-05-28T14:55:30Z</time></trkpt><trkpt lat="43.65230" lon="11.79463"><ele>427</ele><time>2012-05-28T14:55:31Z</time></trkpt><trkpt lat="43.65233" lon="11.79474"><ele>427</ele><time>2012-05-28T14:55:32Z</time></trkpt><trkpt lat="43.65237" lon="11.79484"><ele>427</ele><time>2012-05-28T14:55:33Z</time></trkpt><trkpt lat="43.65237" lon="11.79494"><ele>427</ele><time>2012-05-28T14:55:34Z</time></trkpt><trkpt lat="43.65239" lon="11.79507"><ele>426</ele><time>2012-05-28T14:55:35Z</time></trkpt><trkpt lat="43.65242" lon="11.79531"><ele>426</ele><time>2012-05-28T14:55:37Z</time></trkpt><trkpt lat="43.65243" lon="11.79545"><ele>425</ele><time>2012-05-28T14:55:38Z</time></trkpt><trkpt lat="43.65248" lon="11.79559"><ele>424</ele><time>2012-05-28T14:55:39Z</time></trkpt><trkpt lat="43.65234" lon="11.79566"><ele>423</ele><time>2012-05-28T14:55:40Z</time></trkpt><trkpt lat="43.65228" lon="11.79577"><ele>422</ele><time>2012-05-28T14:55:41Z</time></trkpt><trkpt lat="43.65220" lon="11.79588"><ele>421</ele><time>2012-05-28T14:55:42Z</time></trkpt><trkpt lat="43.65210" lon="11.79602"><ele>420</ele><time>2012-05-28T14:55:43Z</time></trkpt><trkpt lat="43.65199" lon="11.79609"><ele>418</ele><time>2012-05-28T14:55:44Z</time></trkpt><trkpt lat="43.65192" lon="11.79620"><ele>418</ele><time>2012-05-28T14:55:45Z</time></trkpt><trkpt lat="43.65184" lon="11.79630"><ele>418</ele><time>2012-05-28T14:55:46Z</time></trkpt><trkpt lat="43.65179" lon="11.79641"><ele>417</ele><time>2012-05-28T14:55:47Z</time></trkpt><trkpt lat="43.65161" lon="11.79677"><ele>416</ele><time>2012-05-28T14:55:50Z</time></trkpt><trkpt lat="43.65161" lon="11.79691"><ele>416</ele><time>2012-05-28T14:55:51Z</time></trkpt><trkpt lat="43.65158" lon="11.79704"><ele>416</ele><time>2012-05-28T14:55:52Z</time></trkpt><trkpt lat="43.65161" lon="11.79718"><ele>414</ele><time>2012-05-28T14:55:53Z</time></trkpt><trkpt lat="43.65161" lon="11.79732"><ele>414</ele><time>2012-05-28T14:55:54Z</time></trkpt><trkpt lat="43.65160" lon="11.79743"><ele>414</ele><time>2012-05-28T14:55:55Z</time></trkpt><trkpt lat="43.65151" lon="11.79769"><ele>413</ele><time>2012-05-28T14:55:57Z</time></trkpt><trkpt lat="43.65141" lon="11.79776"><ele>411</ele><time>2012-05-28T14:55:58Z</time></trkpt><trkpt lat="43.65132" lon="11.79782"><ele>411</ele><time>2012-05-28T14:55:59Z</time></trkpt><trkpt lat="43.65122" lon="11.79787"><ele>409</ele><time>2012-05-28T14:56:00Z</time></trkpt><trkpt lat="43.65114" lon="11.79794"><ele>409</ele><time>2012-05-28T14:56:01Z</time></trkpt><trkpt lat="43.65103" lon="11.79801"><ele>408</ele><time>2012-05-28T14:56:02Z</time></trkpt><trkpt lat="43.65092" lon="11.79808"><ele>407</ele><time>2012-05-28T14:56:03Z</time></trkpt><trkpt lat="43.65081" lon="11.79817"><ele>405</ele><time>2012-05-28T14:56:04Z</time></trkpt><trkpt lat="43.65072" lon="11.79826"><ele>404</ele><time>2012-05-28T14:56:05Z</time></trkpt><trkpt lat="43.65062" lon="11.79833"><ele>403</ele><time>2012-05-28T14:56:06Z</time></trkpt><trkpt lat="43.65021" lon="11.79860"><ele>401</ele><time>2012-05-28T14:56:10Z</time></trkpt><trkpt lat="43.65010" lon="11.79865"><ele>399</ele><time>2012-05-28T14:56:11Z</time></trkpt><trkpt lat="43.64999" lon="11.79871"><ele>397</ele><time>2012-05-28T14:56:12Z</time></trkpt><trkpt lat="43.64988" lon="11.79869"><ele>397</ele><time>2012-05-28T14:56:13Z</time></trkpt><trkpt lat="43.64978" lon="11.79868"><ele>396</ele><time>2012-05-28T14:56:14Z</time></trkpt><trkpt lat="43.64967" lon="11.79868"><ele>394</ele><time>2012-05-28T14:56:15Z</time></trkpt><trkpt lat="43.64957" lon="11.79871"><ele>394</ele><time>2012-05-28T14:56:16Z</time></trkpt><trkpt lat="43.64947" lon="11.79876"><ele>394</ele><time>2012-05-28T14:56:17Z</time></trkpt><trkpt lat="43.64939" lon="11.79883"><ele>394</ele><time>2012-05-28T14:56:18Z</time></trkpt><trkpt lat="43.64932" lon="11.79892"><ele>395</ele><time>2012-05-28T14:56:19Z</time></trkpt><trkpt lat="43.64926" lon="11.79911"><ele>395</ele><time>2012-05-28T14:56:21Z</time></trkpt><trkpt lat="43.64925" lon="11.79921"><ele>395</ele><time>2012-05-28T14:56:22Z</time></trkpt><trkpt lat="43.64925" lon="11.79943"><ele>394</ele><time>2012-05-28T14:56:24Z</time></trkpt><trkpt lat="43.64926" lon="11.79952"><ele>393</ele><time>2012-05-28T14:56:25Z</time></trkpt><trkpt lat="43.64926" lon="11.79962"><ele>393</ele><time>2012-05-28T14:56:26Z</time></trkpt><trkpt lat="43.64923" lon="11.79972"><ele>391</ele><time>2012-05-28T14:56:27Z</time></trkpt><trkpt lat="43.64921" lon="11.79982"><ele>390</ele><time>2012-05-28T14:56:28Z</time></trkpt><trkpt lat="43.64914" lon="11.80002"><ele>390</ele><time>2012-05-28T14:56:30Z</time></trkpt><trkpt lat="43.64906" lon="11.80020"><ele>390</ele><time>2012-05-28T14:56:32Z</time></trkpt><trkpt lat="43.64898" lon="11.80041"><ele>389</ele><time>2012-05-28T14:56:34Z</time></trkpt><trkpt lat="43.64894" lon="11.80053"><ele>388</ele><time>2012-05-28T14:56:35Z</time></trkpt><trkpt lat="43.64887" lon="11.80062"><ele>386</ele><time>2012-05-28T14:56:36Z</time></trkpt><trkpt lat="43.64882" lon="11.80073"><ele>383</ele><time>2012-05-28T14:56:37Z</time></trkpt><trkpt lat="43.64879" lon="11.80081"><ele>383</ele><time>2012-05-28T14:56:38Z</time></trkpt><trkpt lat="43.64873" lon="11.80098"><ele>383</ele><time>2012-05-28T14:56:40Z</time></trkpt><trkpt lat="43.64872" lon="11.80105"><ele>383</ele><time>2012-05-28T14:56:41Z</time></trkpt><trkpt lat="43.64870" lon="11.80112"><ele>383</ele><time>2012-05-28T14:56:42Z</time></trkpt><trkpt lat="43.64867" lon="11.80112"><ele>382</ele><time>2012-05-28T14:56:43Z</time></trkpt><trkpt lat="43.64870" lon="11.80115"><ele>382</ele><time>2012-05-28T14:56:45Z</time></trkpt><trkpt lat="43.64868" lon="11.80112"><ele>381</ele><time>2012-05-28T14:56:50Z</time></trkpt><trkpt lat="43.64866" lon="11.80114"><ele>382</ele><time>2012-05-28T14:56:54Z</time></trkpt><trkpt lat="43.64868" lon="11.80111"><ele>381</ele><time>2012-05-28T14:57:01Z</time></trkpt><trkpt lat="43.64866" lon="11.80106"><ele>380</ele><time>2012-05-28T14:57:04Z</time></trkpt><trkpt lat="43.64862" lon="11.80104"><ele>379</ele><time>2012-05-28T14:57:06Z</time></trkpt><trkpt lat="43.64863" lon="11.80106"><ele>378</ele><time>2012-05-28T14:57:11Z</time></trkpt><trkpt lat="43.64868" lon="11.80110"><ele>374</ele><time>2012-05-28T14:57:20Z</time></trkpt><trkpt lat="43.64873" lon="11.80104"><ele>374</ele><time>2012-05-28T14:58:31Z</time></trkpt><trkpt lat="43.64870" lon="11.80105"><ele>373</ele><time>2012-05-28T14:58:44Z</time></trkpt><trkpt lat="43.64869" lon="11.80108"><ele>375</ele><time>2012-05-28T14:58:52Z</time></trkpt><trkpt lat="43.64864" lon="11.80115"><ele>376</ele><time>2012-05-28T14:59:06Z</time></trkpt><trkpt lat="43.64864" lon="11.80118"><ele>378</ele><time>2012-05-28T14:59:12Z</time></trkpt><trkpt lat="43.64863" lon="11.80123"><ele>377</ele><time>2012-05-28T14:59:14Z</time></trkpt><trkpt lat="43.64862" lon="11.80129"><ele>378</ele><time>2012-05-28T14:59:17Z</time></trkpt><trkpt lat="43.64865" lon="11.80127"><ele>381</ele><time>2012-05-28T14:59:20Z</time></trkpt><trkpt lat="43.64867" lon="11.80123"><ele>381</ele><time>2012-05-28T14:59:22Z</time></trkpt><trkpt lat="43.64866" lon="11.80118"><ele>381</ele><time>2012-05-28T14:59:24Z</time></trkpt><trkpt lat="43.64864" lon="11.80112"><ele>381</ele><time>2012-05-28T14:59:26Z</time></trkpt><trkpt lat="43.64861" lon="11.80109"><ele>381</ele><time>2012-05-28T14:59:28Z</time></trkpt><trkpt lat="43.64857" lon="11.80106"><ele>381</ele><time>2012-05-28T14:59:30Z</time></trkpt><trkpt lat="43.64854" lon="11.80101"><ele>380</ele><time>2012-05-28T14:59:33Z</time></trkpt><trkpt lat="43.64852" lon="11.80097"><ele>381</ele><time>2012-05-28T14:59:35Z</time></trkpt><trkpt lat="43.64849" lon="11.80094"><ele>380</ele><time>2012-05-28T14:59:37Z</time></trkpt><trkpt lat="43.64845" lon="11.80092"><ele>381</ele><time>2012-05-28T14:59:39Z</time></trkpt><trkpt lat="43.64840" lon="11.80089"><ele>382</ele><time>2012-05-28T14:59:41Z</time></trkpt><trkpt lat="43.64830" lon="11.80084"><ele>383</ele><time>2012-05-28T14:59:46Z</time></trkpt><trkpt lat="43.64827" lon="11.80083"><ele>384</ele><time>2012-05-28T14:59:48Z</time></trkpt><trkpt lat="43.64823" lon="11.80083"><ele>384</ele><time>2012-05-28T14:59:51Z</time></trkpt><trkpt lat="43.64819" lon="11.80082"><ele>384</ele><time>2012-05-28T14:59:53Z</time></trkpt><trkpt lat="43.64813" lon="11.80083"><ele>384</ele><time>2012-05-28T14:59:57Z</time></trkpt><trkpt lat="43.64810" lon="11.80084"><ele>388</ele><time>2012-05-28T14:59:59Z</time></trkpt><trkpt lat="43.64799" lon="11.80088"><ele>387</ele><time>2012-05-28T15:00:06Z</time></trkpt><trkpt lat="43.64797" lon="11.80088"><ele>387</ele><time>2012-05-28T15:00:07Z</time></trkpt><trkpt lat="43.64794" lon="11.80087"><ele>387</ele><time>2012-05-28T15:00:08Z</time></trkpt><trkpt lat="43.64785" lon="11.80081"><ele>386</ele><time>2012-05-28T15:00:12Z</time></trkpt><trkpt lat="43.64783" lon="11.80079"><ele>386</ele><time>2012-05-28T15:00:14Z</time></trkpt><trkpt lat="43.64781" lon="11.80077"><ele>387</ele><time>2012-05-28T15:00:15Z</time></trkpt><trkpt lat="43.64777" lon="11.80074"><ele>388</ele><time>2012-05-28T15:00:17Z</time></trkpt><trkpt lat="43.64774" lon="11.80070"><ele>388</ele><time>2012-05-28T15:00:19Z</time></trkpt><trkpt lat="43.64773" lon="11.80067"><ele>387</ele><time>2012-05-28T15:00:20Z</time></trkpt><trkpt lat="43.64769" lon="11.80053"><ele>387</ele><time>2012-05-28T15:00:25Z</time></trkpt><trkpt lat="43.64767" lon="11.80048"><ele>386</ele><time>2012-05-28T15:00:27Z</time></trkpt><trkpt lat="43.64765" lon="11.80043"><ele>386</ele><time>2012-05-28T15:00:29Z</time></trkpt><trkpt lat="43.64756" lon="11.80019"><ele>390</ele><time>2012-05-28T15:00:39Z</time></trkpt><trkpt lat="43.64756" lon="11.80014"><ele>392</ele><time>2012-05-28T15:00:41Z</time></trkpt><trkpt lat="43.64755" lon="11.80009"><ele>391</ele><time>2012-05-28T15:00:43Z</time></trkpt><trkpt lat="43.64755" lon="11.80005"><ele>392</ele><time>2012-05-28T15:00:45Z</time></trkpt><trkpt lat="43.64754" lon="11.80002"><ele>393</ele><time>2012-05-28T15:00:47Z</time></trkpt><trkpt lat="43.64752" lon="11.79998"><ele>393</ele><time>2012-05-28T15:00:50Z</time></trkpt><trkpt lat="43.64748" lon="11.79995"><ele>393</ele><time>2012-05-28T15:00:52Z</time></trkpt><trkpt lat="43.64739" lon="11.79988"><ele>393</ele><time>2012-05-28T15:00:57Z</time></trkpt><trkpt lat="43.64736" lon="11.79985"><ele>393</ele><time>2012-05-28T15:00:59Z</time></trkpt><trkpt lat="43.64735" lon="11.79982"><ele>394</ele><time>2012-05-28T15:01:01Z</time></trkpt><trkpt lat="43.64734" lon="11.79978"><ele>394</ele><time>2012-05-28T15:01:03Z</time></trkpt><trkpt lat="43.64731" lon="11.79979"><ele>394</ele><time>2012-05-28T15:01:05Z</time></trkpt><trkpt lat="43.64729" lon="11.79981"><ele>394</ele><time>2012-05-28T15:01:07Z</time></trkpt><trkpt lat="43.64726" lon="11.79981"><ele>393</ele><time>2012-05-28T15:01:09Z</time></trkpt><trkpt lat="43.64723" lon="11.79980"><ele>392</ele><time>2012-05-28T15:01:11Z</time></trkpt><trkpt lat="43.64718" lon="11.79980"><ele>395</ele><time>2012-05-28T15:01:14Z</time></trkpt><trkpt lat="43.64716" lon="11.79981"><ele>400</ele><time>2012-05-28T15:01:16Z</time></trkpt><trkpt lat="43.64712" lon="11.79984"><ele>402</ele><time>2012-05-28T15:01:18Z</time></trkpt><trkpt lat="43.64709" lon="11.79987"><ele>401</ele><time>2012-05-28T15:01:20Z</time></trkpt><trkpt lat="43.64705" lon="11.79987"><ele>401</ele><time>2012-05-28T15:01:22Z</time></trkpt><trkpt lat="43.64703" lon="11.79986"><ele>402</ele><time>2012-05-28T15:01:23Z</time></trkpt><trkpt lat="43.64700" lon="11.79984"><ele>401</ele><time>2012-05-28T15:01:24Z</time></trkpt><trkpt lat="43.64699" lon="11.79980"><ele>400</ele><time>2012-05-28T15:01:25Z</time></trkpt><trkpt lat="43.64698" lon="11.79976"><ele>400</ele><time>2012-05-28T15:01:26Z</time></trkpt><trkpt lat="43.64698" lon="11.79968"><ele>402</ele><time>2012-05-28T15:01:28Z</time></trkpt><trkpt lat="43.64700" lon="11.79964"><ele>402</ele><time>2012-05-28T15:01:29Z</time></trkpt><trkpt lat="43.64701" lon="11.79960"><ele>404</ele><time>2012-05-28T15:01:31Z</time></trkpt><trkpt lat="43.64705" lon="11.79950"><ele>408</ele><time>2012-05-28T15:01:36Z</time></trkpt><trkpt lat="43.64707" lon="11.79946"><ele>409</ele><time>2012-05-28T15:01:38Z</time></trkpt><trkpt lat="43.64708" lon="11.79942"><ele>411</ele><time>2012-05-28T15:01:40Z</time></trkpt><trkpt lat="43.64710" lon="11.79939"><ele>410</ele><time>2012-05-28T15:01:42Z</time></trkpt><trkpt lat="43.64711" lon="11.79934"><ele>410</ele><time>2012-05-28T15:01:45Z</time></trkpt><trkpt lat="43.64712" lon="11.79930"><ele>410</ele><time>2012-05-28T15:01:47Z</time></trkpt><trkpt lat="43.64712" lon="11.79926"><ele>412</ele><time>2012-05-28T15:01:49Z</time></trkpt><trkpt lat="43.64712" lon="11.79921"><ele>413</ele><time>2012-05-28T15:01:51Z</time></trkpt><trkpt lat="43.64713" lon="11.79916"><ele>411</ele><time>2012-05-28T15:01:53Z</time></trkpt><trkpt lat="43.64714" lon="11.79912"><ele>413</ele><time>2012-05-28T15:01:55Z</time></trkpt><trkpt lat="43.64714" lon="11.79908"><ele>414</ele><time>2012-05-28T15:01:57Z</time></trkpt><trkpt lat="43.64715" lon="11.79905"><ele>417</ele><time>2012-05-28T15:02:00Z</time></trkpt><trkpt lat="43.64716" lon="11.79902"><ele>416</ele><time>2012-05-28T15:02:03Z</time></trkpt><trkpt lat="43.64716" lon="11.79898"><ele>417</ele><time>2012-05-28T15:02:05Z</time></trkpt><trkpt lat="43.64717" lon="11.79892"><ele>418</ele><time>2012-05-28T15:02:08Z</time></trkpt><trkpt lat="43.64716" lon="11.79889"><ele>417</ele><time>2012-05-28T15:02:10Z</time></trkpt><trkpt lat="43.64714" lon="11.79886"><ele>417</ele><time>2012-05-28T15:02:12Z</time></trkpt><trkpt lat="43.64711" lon="11.79883"><ele>418</ele><time>2012-05-28T15:02:15Z</time></trkpt><trkpt lat="43.64707" lon="11.79878"><ele>418</ele><time>2012-05-28T15:02:18Z</time></trkpt><trkpt lat="43.64703" lon="11.79877"><ele>418</ele><time>2012-05-28T15:02:20Z</time></trkpt><trkpt lat="43.64700" lon="11.79883"><ele>416</ele><time>2012-05-28T15:02:26Z</time></trkpt><trkpt lat="43.64697" lon="11.79882"><ele>416</ele><time>2012-05-28T15:02:30Z</time></trkpt><trkpt lat="43.64696" lon="11.79884"><ele>416</ele><time>2012-05-28T15:02:32Z</time></trkpt><trkpt lat="43.64693" lon="11.79886"><ele>415</ele><time>2012-05-28T15:02:35Z</time></trkpt><trkpt lat="43.64691" lon="11.79885"><ele>416</ele><time>2012-05-28T15:02:38Z</time></trkpt><trkpt lat="43.64689" lon="11.79882"><ele>416</ele><time>2012-05-28T15:02:40Z</time></trkpt><trkpt lat="43.64685" lon="11.79878"><ele>415</ele><time>2012-05-28T15:02:43Z</time></trkpt><trkpt lat="43.64683" lon="11.79877"><ele>415</ele><time>2012-05-28T15:02:45Z</time></trkpt><trkpt lat="43.64680" lon="11.79877"><ele>417</ele><time>2012-05-28T15:02:48Z</time></trkpt><trkpt lat="43.64676" lon="11.79879"><ele>417</ele><time>2012-05-28T15:02:50Z</time></trkpt><trkpt lat="43.64673" lon="11.79882"><ele>422</ele><time>2012-05-28T15:02:53Z</time></trkpt><trkpt lat="43.64671" lon="11.79881"><ele>423</ele><time>2012-05-28T15:02:59Z</time></trkpt><trkpt lat="43.64669" lon="11.79878"><ele>425</ele><time>2012-05-28T15:03:02Z</time></trkpt><trkpt lat="43.64666" lon="11.79877"><ele>424</ele><time>2012-05-28T15:03:07Z</time></trkpt><trkpt lat="43.64665" lon="11.79874"><ele>425</ele><time>2012-05-28T15:03:09Z</time></trkpt><trkpt lat="43.64664" lon="11.79870"><ele>425</ele><time>2012-05-28T15:03:11Z</time></trkpt><trkpt lat="43.64660" lon="11.79860"><ele>424</ele><time>2012-05-28T15:03:21Z</time></trkpt><trkpt lat="43.64657" lon="11.79857"><ele>425</ele><time>2012-05-28T15:03:25Z</time></trkpt><trkpt lat="43.64653" lon="11.79852"><ele>425</ele><time>2012-05-28T15:03:29Z</time></trkpt><trkpt lat="43.64651" lon="11.79849"><ele>426</ele><time>2012-05-28T15:03:31Z</time></trkpt><trkpt lat="43.64643" lon="11.79841"><ele>427</ele><time>2012-05-28T15:03:36Z</time></trkpt><trkpt lat="43.64638" lon="11.79841"><ele>427</ele><time>2012-05-28T15:03:38Z</time></trkpt><trkpt lat="43.64632" lon="11.79838"><ele>428</ele><time>2012-05-28T15:03:41Z</time></trkpt><trkpt lat="43.64630" lon="11.79836"><ele>429</ele><time>2012-05-28T15:03:42Z</time></trkpt><trkpt lat="43.64627" lon="11.79831"><ele>429</ele><time>2012-05-28T15:03:44Z</time></trkpt><trkpt lat="43.64624" lon="11.79827"><ele>430</ele><time>2012-05-28T15:03:46Z</time></trkpt><trkpt lat="43.64620" lon="11.79824"><ele>431</ele><time>2012-05-28T15:03:48Z</time></trkpt><trkpt lat="43.64618" lon="11.79824"><ele>431</ele><time>2012-05-28T15:03:49Z</time></trkpt><trkpt lat="43.64608" lon="11.79820"><ele>433</ele><time>2012-05-28T15:03:53Z</time></trkpt><trkpt lat="43.64605" lon="11.79819"><ele>433</ele><time>2012-05-28T15:03:54Z</time></trkpt><trkpt lat="43.64603" lon="11.79818"><ele>433</ele><time>2012-05-28T15:03:55Z</time></trkpt><trkpt lat="43.64596" lon="11.79814"><ele>435</ele><time>2012-05-28T15:03:58Z</time></trkpt><trkpt lat="43.64589" lon="11.79809"><ele>434</ele><time>2012-05-28T15:04:02Z</time></trkpt><trkpt lat="43.64583" lon="11.79806"><ele>435</ele><time>2012-05-28T15:04:06Z</time></trkpt><trkpt lat="43.64580" lon="11.79806"><ele>435</ele><time>2012-05-28T15:04:08Z</time></trkpt><trkpt lat="43.64577" lon="11.79806"><ele>435</ele><time>2012-05-28T15:04:10Z</time></trkpt><trkpt lat="43.64568" lon="11.79806"><ele>435</ele><time>2012-05-28T15:04:15Z</time></trkpt><trkpt lat="43.64565" lon="11.79806"><ele>435</ele><time>2012-05-28T15:04:17Z</time></trkpt><trkpt lat="43.64562" lon="11.79804"><ele>435</ele><time>2012-05-28T15:04:20Z</time></trkpt><trkpt lat="43.64560" lon="11.79802"><ele>434</ele><time>2012-05-28T15:04:22Z</time></trkpt><trkpt lat="43.64557" lon="11.79799"><ele>433</ele><time>2012-05-28T15:04:24Z</time></trkpt><trkpt lat="43.64553" lon="11.79798"><ele>436</ele><time>2012-05-28T15:04:26Z</time></trkpt><trkpt lat="43.64550" lon="11.79798"><ele>435</ele><time>2012-05-28T15:04:27Z</time></trkpt><trkpt lat="43.64544" lon="11.79795"><ele>437</ele><time>2012-05-28T15:04:30Z</time></trkpt><trkpt lat="43.64542" lon="11.79792"><ele>437</ele><time>2012-05-28T15:04:32Z</time></trkpt><trkpt lat="43.64540" lon="11.79790"><ele>437</ele><time>2012-05-28T15:04:35Z</time></trkpt><trkpt lat="43.64537" lon="11.79785"><ele>438</ele><time>2012-05-28T15:04:40Z</time></trkpt><trkpt lat="43.64535" lon="11.79782"><ele>438</ele><time>2012-05-28T15:04:42Z</time></trkpt><trkpt lat="43.64530" lon="11.79770"><ele>438</ele><time>2012-05-28T15:04:47Z</time></trkpt><trkpt lat="43.64529" lon="11.79765"><ele>438</ele><time>2012-05-28T15:04:49Z</time></trkpt><trkpt lat="43.64526" lon="11.79761"><ele>437</ele><time>2012-05-28T15:04:51Z</time></trkpt><trkpt lat="43.64523" lon="11.79758"><ele>436</ele><time>2012-05-28T15:04:53Z</time></trkpt><trkpt lat="43.64520" lon="11.79754"><ele>436</ele><time>2012-05-28T15:04:56Z</time></trkpt><trkpt lat="43.64519" lon="11.79749"><ele>436</ele><time>2012-05-28T15:04:58Z</time></trkpt><trkpt lat="43.64517" lon="11.79745"><ele>436</ele><time>2012-05-28T15:05:00Z</time></trkpt><trkpt lat="43.64514" lon="11.79743"><ele>436</ele><time>2012-05-28T15:05:02Z</time></trkpt><trkpt lat="43.64512" lon="11.79742"><ele>437</ele><time>2012-05-28T15:05:05Z</time></trkpt><trkpt lat="43.64508" lon="11.79742"><ele>437</ele><time>2012-05-28T15:05:08Z</time></trkpt><trkpt lat="43.64501" lon="11.79741"><ele>439</ele><time>2012-05-28T15:05:13Z</time></trkpt><trkpt lat="43.64498" lon="11.79740"><ele>439</ele><time>2012-05-28T15:05:15Z</time></trkpt><trkpt lat="43.64496" lon="11.79735"><ele>439</ele><time>2012-05-28T15:05:17Z</time></trkpt><trkpt lat="43.64496" lon="11.79730"><ele>439</ele><time>2012-05-28T15:05:19Z</time></trkpt><trkpt lat="43.64494" lon="11.79725"><ele>440</ele><time>2012-05-28T15:05:21Z</time></trkpt><trkpt lat="43.64493" lon="11.79721"><ele>438</ele><time>2012-05-28T15:05:23Z</time></trkpt><trkpt lat="43.64491" lon="11.79713"><ele>442</ele><time>2012-05-28T15:05:28Z</time></trkpt><trkpt lat="43.64489" lon="11.79710"><ele>443</ele><time>2012-05-28T15:05:30Z</time></trkpt><trkpt lat="43.64486" lon="11.79706"><ele>441</ele><time>2012-05-28T15:05:32Z</time></trkpt><trkpt lat="43.64479" lon="11.79698"><ele>443</ele><time>2012-05-28T15:05:38Z</time></trkpt><trkpt lat="43.64475" lon="11.79694"><ele>444</ele><time>2012-05-28T15:05:40Z</time></trkpt><trkpt lat="43.64473" lon="11.79692"><ele>443</ele><time>2012-05-28T15:05:42Z</time></trkpt><trkpt lat="43.64471" lon="11.79689"><ele>444</ele><time>2012-05-28T15:05:44Z</time></trkpt><trkpt lat="43.64469" lon="11.79686"><ele>442</ele><time>2012-05-28T15:05:46Z</time></trkpt><trkpt lat="43.64468" lon="11.79684"><ele>441</ele><time>2012-05-28T15:05:48Z</time></trkpt><trkpt lat="43.64467" lon="11.79680"><ele>442</ele><time>2012-05-28T15:05:51Z</time></trkpt><trkpt lat="43.64466" lon="11.79676"><ele>443</ele><time>2012-05-28T15:05:54Z</time></trkpt><trkpt lat="43.64463" lon="11.79673"><ele>443</ele><time>2012-05-28T15:05:56Z</time></trkpt><trkpt lat="43.64460" lon="11.79669"><ele>443</ele><time>2012-05-28T15:05:58Z</time></trkpt><trkpt lat="43.64454" lon="11.79665"><ele>442</ele><time>2012-05-28T15:06:01Z</time></trkpt><trkpt lat="43.64446" lon="11.79658"><ele>444</ele><time>2012-05-28T15:06:05Z</time></trkpt><trkpt lat="43.64443" lon="11.79654"><ele>447</ele><time>2012-05-28T15:06:07Z</time></trkpt><trkpt lat="43.64441" lon="11.79652"><ele>447</ele><time>2012-05-28T15:06:08Z</time></trkpt><trkpt lat="43.64439" lon="11.79651"><ele>447</ele><time>2012-05-28T15:06:09Z</time></trkpt><trkpt lat="43.64437" lon="11.79649"><ele>448</ele><time>2012-05-28T15:06:10Z</time></trkpt><trkpt lat="43.64418" lon="11.79639"><ele>450</ele><time>2012-05-28T15:06:17Z</time></trkpt><trkpt lat="43.64415" lon="11.79636"><ele>451</ele><time>2012-05-28T15:06:18Z</time></trkpt><trkpt lat="43.64407" lon="11.79630"><ele>450</ele><time>2012-05-28T15:06:21Z</time></trkpt><trkpt lat="43.64403" lon="11.79630"><ele>455</ele><time>2012-05-28T15:06:22Z</time></trkpt><trkpt lat="43.64400" lon="11.79632"><ele>455</ele><time>2012-05-28T15:06:23Z</time></trkpt><trkpt lat="43.64390" lon="11.79635"><ele>457</ele><time>2012-05-28T15:06:26Z</time></trkpt><trkpt lat="43.64387" lon="11.79635"><ele>457</ele><time>2012-05-28T15:06:27Z</time></trkpt><trkpt lat="43.64380" lon="11.79633"><ele>457</ele><time>2012-05-28T15:06:29Z</time></trkpt><trkpt lat="43.64378" lon="11.79632"><ele>458</ele><time>2012-05-28T15:06:30Z</time></trkpt><trkpt lat="43.64376" lon="11.79628"><ele>458</ele><time>2012-05-28T15:06:32Z</time></trkpt><trkpt lat="43.64375" lon="11.79624"><ele>458</ele><time>2012-05-28T15:06:34Z</time></trkpt><trkpt lat="43.64372" lon="11.79619"><ele>458</ele><time>2012-05-28T15:06:36Z</time></trkpt><trkpt lat="43.64370" lon="11.79616"><ele>458</ele><time>2012-05-28T15:06:38Z</time></trkpt><trkpt lat="43.64367" lon="11.79613"><ele>458</ele><time>2012-05-28T15:06:40Z</time></trkpt><trkpt lat="43.64358" lon="11.79605"><ele>459</ele><time>2012-05-28T15:06:45Z</time></trkpt><trkpt lat="43.64354" lon="11.79600"><ele>458</ele><time>2012-05-28T15:06:48Z</time></trkpt><trkpt lat="43.64348" lon="11.79599"><ele>458</ele><time>2012-05-28T15:06:51Z</time></trkpt><trkpt lat="43.64342" lon="11.79601"><ele>458</ele><time>2012-05-28T15:06:54Z</time></trkpt><trkpt lat="43.64339" lon="11.79603"><ele>459</ele><time>2012-05-28T15:06:56Z</time></trkpt><trkpt lat="43.64335" lon="11.79604"><ele>460</ele><time>2012-05-28T15:06:59Z</time></trkpt><trkpt lat="43.64325" lon="11.79608"><ele>463</ele><time>2012-05-28T15:07:06Z</time></trkpt><trkpt lat="43.64322" lon="11.79608"><ele>464</ele><time>2012-05-28T15:07:07Z</time></trkpt><trkpt lat="43.64311" lon="11.79608"><ele>465</ele><time>2012-05-28T15:07:11Z</time></trkpt><trkpt lat="43.64308" lon="11.79608"><ele>465</ele><time>2012-05-28T15:07:12Z</time></trkpt><trkpt lat="43.64298" lon="11.79606"><ele>464</ele><time>2012-05-28T15:07:17Z</time></trkpt><trkpt lat="43.64295" lon="11.79605"><ele>465</ele><time>2012-05-28T15:07:19Z</time></trkpt><trkpt lat="43.64293" lon="11.79604"><ele>464</ele><time>2012-05-28T15:07:20Z</time></trkpt><trkpt lat="43.64282" lon="11.79603"><ele>463</ele><time>2012-05-28T15:07:23Z</time></trkpt><trkpt lat="43.64276" lon="11.79602"><ele>463</ele><time>2012-05-28T15:07:25Z</time></trkpt><trkpt lat="43.64274" lon="11.79601"><ele>464</ele><time>2012-05-28T15:07:26Z</time></trkpt><trkpt lat="43.64265" lon="11.79596"><ele>466</ele><time>2012-05-28T15:07:32Z</time></trkpt><trkpt lat="43.64247" lon="11.79584"><ele>468</ele><time>2012-05-28T15:07:42Z</time></trkpt><trkpt lat="43.64244" lon="11.79583"><ele>468</ele><time>2012-05-28T15:07:43Z</time></trkpt><trkpt lat="43.64241" lon="11.79578"><ele>470</ele><time>2012-05-28T15:07:45Z</time></trkpt><trkpt lat="43.64240" lon="11.79574"><ele>470</ele><time>2012-05-28T15:07:46Z</time></trkpt><trkpt lat="43.64239" lon="11.79571"><ele>470</ele><time>2012-05-28T15:07:47Z</time></trkpt><trkpt lat="43.64237" lon="11.79565"><ele>471</ele><time>2012-05-28T15:07:49Z</time></trkpt><trkpt lat="43.64235" lon="11.79560"><ele>470</ele><time>2012-05-28T15:07:51Z</time></trkpt><trkpt lat="43.64232" lon="11.79557"><ele>470</ele><time>2012-05-28T15:07:53Z</time></trkpt><trkpt lat="43.64229" lon="11.79553"><ele>470</ele><time>2012-05-28T15:07:55Z</time></trkpt><trkpt lat="43.64224" lon="11.79550"><ele>469</ele><time>2012-05-28T15:07:57Z</time></trkpt><trkpt lat="43.64220" lon="11.79549"><ele>469</ele><time>2012-05-28T15:07:58Z</time></trkpt><trkpt lat="43.64210" lon="11.79544"><ele>469</ele><time>2012-05-28T15:08:01Z</time></trkpt><trkpt lat="43.64208" lon="11.79545"><ele>469</ele><time>2012-05-28T15:08:02Z</time></trkpt><trkpt lat="43.64206" lon="11.79547"><ele>470</ele><time>2012-05-28T15:08:03Z</time></trkpt><trkpt lat="43.64204" lon="11.79550"><ele>469</ele><time>2012-05-28T15:08:04Z</time></trkpt><trkpt lat="43.64203" lon="11.79554"><ele>470</ele><time>2012-05-28T15:08:05Z</time></trkpt><trkpt lat="43.64204" lon="11.79564"><ele>470</ele><time>2012-05-28T15:08:07Z</time></trkpt><trkpt lat="43.64204" lon="11.79573"><ele>470</ele><time>2012-05-28T15:08:09Z</time></trkpt><trkpt lat="43.64204" lon="11.79577"><ele>469</ele><time>2012-05-28T15:08:10Z</time></trkpt><trkpt lat="43.64204" lon="11.79580"><ele>469</ele><time>2012-05-28T15:08:11Z</time></trkpt><trkpt lat="43.64204" lon="11.79584"><ele>469</ele><time>2012-05-28T15:08:12Z</time></trkpt><trkpt lat="43.64204" lon="11.79593"><ele>469</ele><time>2012-05-28T15:08:16Z</time></trkpt><trkpt lat="43.64202" lon="11.79596"><ele>468</ele><time>2012-05-28T15:08:18Z</time></trkpt><trkpt lat="43.64200" lon="11.79604"><ele>470</ele><time>2012-05-28T15:08:22Z</time></trkpt><trkpt lat="43.64198" lon="11.79615"><ele>476</ele><time>2012-05-28T15:08:26Z</time></trkpt><trkpt lat="43.64195" lon="11.79624"><ele>479</ele><time>2012-05-28T15:08:30Z</time></trkpt><trkpt lat="43.64191" lon="11.79635"><ele>478</ele><time>2012-05-28T15:08:35Z</time></trkpt><trkpt lat="43.64190" lon="11.79643"><ele>480</ele><time>2012-05-28T15:08:39Z</time></trkpt><trkpt lat="43.64190" lon="11.79648"><ele>480</ele><time>2012-05-28T15:08:42Z</time></trkpt><trkpt lat="43.64190" lon="11.79651"><ele>482</ele><time>2012-05-28T15:08:44Z</time></trkpt><trkpt lat="43.64189" lon="11.79656"><ele>480</ele><time>2012-05-28T15:08:46Z</time></trkpt><trkpt lat="43.64189" lon="11.79659"><ele>481</ele><time>2012-05-28T15:08:47Z</time></trkpt><trkpt lat="43.64190" lon="11.79663"><ele>481</ele><time>2012-05-28T15:08:48Z</time></trkpt><trkpt lat="43.64191" lon="11.79677"><ele>482</ele><time>2012-05-28T15:08:51Z</time></trkpt><trkpt lat="43.64189" lon="11.79685"><ele>483</ele><time>2012-05-28T15:08:53Z</time></trkpt><trkpt lat="43.64187" lon="11.79694"><ele>483</ele><time>2012-05-28T15:08:55Z</time></trkpt><trkpt lat="43.64186" lon="11.79702"><ele>482</ele><time>2012-05-28T15:08:57Z</time></trkpt><trkpt lat="43.64179" lon="11.79751"><ele>479</ele><time>2012-05-28T15:09:07Z</time></trkpt><trkpt lat="43.64178" lon="11.79756"><ele>480</ele><time>2012-05-28T15:09:08Z</time></trkpt><trkpt lat="43.64178" lon="11.79760"><ele>480</ele><time>2012-05-28T15:09:09Z</time></trkpt><trkpt lat="43.64178" lon="11.79764"><ele>480</ele><time>2012-05-28T15:09:10Z</time></trkpt><trkpt lat="43.64178" lon="11.79769"><ele>480</ele><time>2012-05-28T15:09:11Z</time></trkpt><trkpt lat="43.64179" lon="11.79773"><ele>479</ele><time>2012-05-28T15:09:12Z</time></trkpt><trkpt lat="43.64179" lon="11.79778"><ele>478</ele><time>2012-05-28T15:09:13Z</time></trkpt><trkpt lat="43.64179" lon="11.79783"><ele>478</ele><time>2012-05-28T15:09:14Z</time></trkpt><trkpt lat="43.64177" lon="11.79796"><ele>477</ele><time>2012-05-28T15:09:17Z</time></trkpt><trkpt lat="43.64176" lon="11.79799"><ele>477</ele><time>2012-05-28T15:09:18Z</time></trkpt><trkpt lat="43.64174" lon="11.79803"><ele>476</ele><time>2012-05-28T15:09:19Z</time></trkpt><trkpt lat="43.64171" lon="11.79806"><ele>476</ele><time>2012-05-28T15:09:20Z</time></trkpt><trkpt lat="43.64166" lon="11.79811"><ele>476</ele><time>2012-05-28T15:09:22Z</time></trkpt><trkpt lat="43.64163" lon="11.79814"><ele>475</ele><time>2012-05-28T15:09:23Z</time></trkpt><trkpt lat="43.64154" lon="11.79819"><ele>476</ele><time>2012-05-28T15:09:26Z</time></trkpt><trkpt lat="43.64144" lon="11.79826"><ele>477</ele><time>2012-05-28T15:09:30Z</time></trkpt><trkpt lat="43.64142" lon="11.79828"><ele>477</ele><time>2012-05-28T15:09:31Z</time></trkpt><trkpt lat="43.64139" lon="11.79830"><ele>477</ele><time>2012-05-28T15:09:32Z</time></trkpt><trkpt lat="43.64134" lon="11.79832"><ele>478</ele><time>2012-05-28T15:09:34Z</time></trkpt><trkpt lat="43.64132" lon="11.79832"><ele>478</ele><time>2012-05-28T15:09:35Z</time></trkpt><trkpt lat="43.64129" lon="11.79832"><ele>478</ele><time>2012-05-28T15:09:36Z</time></trkpt><trkpt lat="43.64126" lon="11.79828"><ele>478</ele><time>2012-05-28T15:09:38Z</time></trkpt><trkpt lat="43.64125" lon="11.79824"><ele>477</ele><time>2012-05-28T15:09:40Z</time></trkpt><trkpt lat="43.64121" lon="11.79810"><ele>482</ele><time>2012-05-28T15:09:45Z</time></trkpt><trkpt lat="43.64121" lon="11.79806"><ele>483</ele><time>2012-05-28T15:09:46Z</time></trkpt><trkpt lat="43.64121" lon="11.79802"><ele>483</ele><time>2012-05-28T15:09:47Z</time></trkpt><trkpt lat="43.64118" lon="11.79785"><ele>486</ele><time>2012-05-28T15:09:51Z</time></trkpt><trkpt lat="43.64115" lon="11.79771"><ele>487</ele><time>2012-05-28T15:09:54Z</time></trkpt><trkpt lat="43.64113" lon="11.79767"><ele>488</ele><time>2012-05-28T15:09:55Z</time></trkpt><trkpt lat="43.64109" lon="11.79759"><ele>489</ele><time>2012-05-28T15:09:57Z</time></trkpt><trkpt lat="43.64103" lon="11.79747"><ele>489</ele><time>2012-05-28T15:10:01Z</time></trkpt><trkpt lat="43.64100" lon="11.79744"><ele>488</ele><time>2012-05-28T15:10:03Z</time></trkpt><trkpt lat="43.64076" lon="11.79718"><ele>491</ele><time>2012-05-28T15:10:08Z</time></trkpt><trkpt lat="43.64071" lon="11.79714"><ele>491</ele><time>2012-05-28T15:10:09Z</time></trkpt><trkpt lat="43.64062" lon="11.79715"><ele>491</ele><time>2012-05-28T15:10:11Z</time></trkpt><trkpt lat="43.64057" lon="11.79716"><ele>491</ele><time>2012-05-28T15:10:12Z</time></trkpt><trkpt lat="43.64048" lon="11.79716"><ele>491</ele><time>2012-05-28T15:10:14Z</time></trkpt><trkpt lat="43.64043" lon="11.79715"><ele>491</ele><time>2012-05-28T15:10:15Z</time></trkpt><trkpt lat="43.64038" lon="11.79716"><ele>491</ele><time>2012-05-28T15:10:16Z</time></trkpt><trkpt lat="43.64033" lon="11.79716"><ele>491</ele><time>2012-05-28T15:10:17Z</time></trkpt><trkpt lat="43.64028" lon="11.79717"><ele>491</ele><time>2012-05-28T15:10:18Z</time></trkpt><trkpt lat="43.64015" lon="11.79717"><ele>492</ele><time>2012-05-28T15:10:21Z</time></trkpt><trkpt lat="43.64009" lon="11.79720"><ele>492</ele><time>2012-05-28T15:10:22Z</time></trkpt><trkpt lat="43.64005" lon="11.79719"><ele>492</ele><time>2012-05-28T15:10:23Z</time></trkpt><trkpt lat="43.64003" lon="11.79725"><ele>493</ele><time>2012-05-28T15:10:24Z</time></trkpt><trkpt lat="43.64001" lon="11.79730"><ele>494</ele><time>2012-05-28T15:10:25Z</time></trkpt><trkpt lat="43.63996" lon="11.79736"><ele>494</ele><time>2012-05-28T15:10:26Z</time></trkpt><trkpt lat="43.63987" lon="11.79745"><ele>494</ele><time>2012-05-28T15:10:28Z</time></trkpt><trkpt lat="43.63984" lon="11.79749"><ele>493</ele><time>2012-05-28T15:10:29Z</time></trkpt><trkpt lat="43.63977" lon="11.79764"><ele>493</ele><time>2012-05-28T15:10:31Z</time></trkpt><trkpt lat="43.63972" lon="11.79780"><ele>492</ele><time>2012-05-28T15:10:33Z</time></trkpt><trkpt lat="43.63970" lon="11.79788"><ele>491</ele><time>2012-05-28T15:10:34Z</time></trkpt><trkpt lat="43.63967" lon="11.79795"><ele>491</ele><time>2012-05-28T15:10:35Z</time></trkpt><trkpt lat="43.63966" lon="11.79805"><ele>491</ele><time>2012-05-28T15:10:36Z</time></trkpt><trkpt lat="43.63965" lon="11.79814"><ele>490</ele><time>2012-05-28T15:10:37Z</time></trkpt><trkpt lat="43.63964" lon="11.79833"><ele>489</ele><time>2012-05-28T15:10:39Z</time></trkpt><trkpt lat="43.63962" lon="11.79853"><ele>489</ele><time>2012-05-28T15:10:41Z</time></trkpt><trkpt lat="43.63959" lon="11.79866"><ele>487</ele><time>2012-05-28T15:10:42Z</time></trkpt><trkpt lat="43.63956" lon="11.79874"><ele>486</ele><time>2012-05-28T15:10:43Z</time></trkpt><trkpt lat="43.63957" lon="11.79882"><ele>485</ele><time>2012-05-28T15:10:44Z</time></trkpt><trkpt lat="43.63957" lon="11.79891"><ele>485</ele><time>2012-05-28T15:10:45Z</time></trkpt><trkpt lat="43.63955" lon="11.79899"><ele>484</ele><time>2012-05-28T15:10:46Z</time></trkpt><trkpt lat="43.63948" lon="11.79919"><ele>484</ele><time>2012-05-28T15:10:48Z</time></trkpt><trkpt lat="43.63943" lon="11.79934"><ele>484</ele><time>2012-05-28T15:10:50Z</time></trkpt><trkpt lat="43.63941" lon="11.79944"><ele>485</ele><time>2012-05-28T15:10:51Z</time></trkpt><trkpt lat="43.63938" lon="11.79951"><ele>486</ele><time>2012-05-28T15:10:52Z</time></trkpt><trkpt lat="43.63935" lon="11.79957"><ele>486</ele><time>2012-05-28T15:10:53Z</time></trkpt><trkpt lat="43.63925" lon="11.79968"><ele>485</ele><time>2012-05-28T15:10:55Z</time></trkpt><trkpt lat="43.63917" lon="11.79973"><ele>486</ele><time>2012-05-28T15:10:56Z</time></trkpt><trkpt lat="43.63906" lon="11.79983"><ele>486</ele><time>2012-05-28T15:10:58Z</time></trkpt><trkpt lat="43.63899" lon="11.79992"><ele>486</ele><time>2012-05-28T15:11:00Z</time></trkpt><trkpt lat="43.63892" lon="11.79999"><ele>485</ele><time>2012-05-28T15:11:02Z</time></trkpt><trkpt lat="43.63884" lon="11.80005"><ele>487</ele><time>2012-05-28T15:11:05Z</time></trkpt><trkpt lat="43.63878" lon="11.80006"><ele>486</ele><time>2012-05-28T15:11:06Z</time></trkpt><trkpt lat="43.63875" lon="11.80008"><ele>486</ele><time>2012-05-28T15:11:07Z</time></trkpt><trkpt lat="43.63869" lon="11.80009"><ele>487</ele><time>2012-05-28T15:11:09Z</time></trkpt><trkpt lat="43.63863" lon="11.80007"><ele>487</ele><time>2012-05-28T15:11:11Z</time></trkpt><trkpt lat="43.63860" lon="11.80008"><ele>487</ele><time>2012-05-28T15:11:13Z</time></trkpt><trkpt lat="43.63857" lon="11.80007"><ele>487</ele><time>2012-05-28T15:11:14Z</time></trkpt><trkpt lat="43.63852" lon="11.80007"><ele>487</ele><time>2012-05-28T15:11:16Z</time></trkpt><trkpt lat="43.63846" lon="11.80003"><ele>488</ele><time>2012-05-28T15:11:19Z</time></trkpt><trkpt lat="43.63843" lon="11.80002"><ele>488</ele><time>2012-05-28T15:11:20Z</time></trkpt><trkpt lat="43.63839" lon="11.80000"><ele>489</ele><time>2012-05-28T15:11:22Z</time></trkpt><trkpt lat="43.63830" lon="11.79992"><ele>490</ele><time>2012-05-28T15:11:28Z</time></trkpt><trkpt lat="43.63828" lon="11.79990"><ele>492</ele><time>2012-05-28T15:11:30Z</time></trkpt><trkpt lat="43.63824" lon="11.79991"><ele>492</ele><time>2012-05-28T15:11:33Z</time></trkpt><trkpt lat="43.63820" lon="11.79990"><ele>492</ele><time>2012-05-28T15:11:35Z</time></trkpt><trkpt lat="43.63818" lon="11.79991"><ele>493</ele><time>2012-05-28T15:11:36Z</time></trkpt><trkpt lat="43.63810" lon="11.79993"><ele>493</ele><time>2012-05-28T15:11:40Z</time></trkpt><trkpt lat="43.63807" lon="11.79995"><ele>493</ele><time>2012-05-28T15:11:42Z</time></trkpt><trkpt lat="43.63803" lon="11.79996"><ele>494</ele><time>2012-05-28T15:11:44Z</time></trkpt><trkpt lat="43.63800" lon="11.79996"><ele>494</ele><time>2012-05-28T15:11:46Z</time></trkpt><trkpt lat="43.63797" lon="11.79997"><ele>495</ele><time>2012-05-28T15:11:48Z</time></trkpt><trkpt lat="43.63795" lon="11.80000"><ele>494</ele><time>2012-05-28T15:11:50Z</time></trkpt><trkpt lat="43.63793" lon="11.80003"><ele>494</ele><time>2012-05-28T15:11:53Z</time></trkpt><trkpt lat="43.63791" lon="11.80004"><ele>494</ele><time>2012-05-28T15:11:56Z</time></trkpt><trkpt lat="43.63788" lon="11.80002"><ele>494</ele><time>2012-05-28T15:11:58Z</time></trkpt><trkpt lat="43.63783" lon="11.80000"><ele>494</ele><time>2012-05-28T15:12:01Z</time></trkpt><trkpt lat="43.63781" lon="11.80000"><ele>493</ele><time>2012-05-28T15:12:03Z</time></trkpt><trkpt lat="43.63779" lon="11.80004"><ele>494</ele><time>2012-05-28T15:12:07Z</time></trkpt><trkpt lat="43.63775" lon="11.80007"><ele>496</ele><time>2012-05-28T15:12:09Z</time></trkpt><trkpt lat="43.63772" lon="11.80007"><ele>496</ele><time>2012-05-28T15:12:10Z</time></trkpt><trkpt lat="43.63768" lon="11.80007"><ele>495</ele><time>2012-05-28T15:12:11Z</time></trkpt><trkpt lat="43.63765" lon="11.80007"><ele>495</ele><time>2012-05-28T15:12:12Z</time></trkpt><trkpt lat="43.63744" lon="11.80004"><ele>496</ele><time>2012-05-28T15:12:19Z</time></trkpt><trkpt lat="43.63735" lon="11.80001"><ele>494</ele><time>2012-05-28T15:12:22Z</time></trkpt><trkpt lat="43.63732" lon="11.79999"><ele>494</ele><time>2012-05-28T15:12:23Z</time></trkpt><trkpt lat="43.63723" lon="11.79996"><ele>494</ele><time>2012-05-28T15:12:26Z</time></trkpt><trkpt lat="43.63720" lon="11.79997"><ele>494</ele><time>2012-05-28T15:12:27Z</time></trkpt><trkpt lat="43.63718" lon="11.79998"><ele>495</ele><time>2012-05-28T15:12:28Z</time></trkpt><trkpt lat="43.63709" lon="11.80002"><ele>495</ele><time>2012-05-28T15:12:32Z</time></trkpt><trkpt lat="43.63705" lon="11.80001"><ele>495</ele><time>2012-05-28T15:12:34Z</time></trkpt><trkpt lat="43.63703" lon="11.79996"><ele>497</ele><time>2012-05-28T15:12:36Z</time></trkpt><trkpt lat="43.63702" lon="11.79990"><ele>497</ele><time>2012-05-28T15:12:38Z</time></trkpt><trkpt lat="43.63702" lon="11.79983"><ele>496</ele><time>2012-05-28T15:12:40Z</time></trkpt><trkpt lat="43.63702" lon="11.79976"><ele>496</ele><time>2012-05-28T15:12:42Z</time></trkpt><trkpt lat="43.63702" lon="11.79966"><ele>496</ele><time>2012-05-28T15:12:45Z</time></trkpt><trkpt lat="43.63700" lon="11.79963"><ele>496</ele><time>2012-05-28T15:12:47Z</time></trkpt><trkpt lat="43.63698" lon="11.79958"><ele>495</ele><time>2012-05-28T15:12:49Z</time></trkpt><trkpt lat="43.63695" lon="11.79952"><ele>495</ele><time>2012-05-28T15:12:51Z</time></trkpt><trkpt lat="43.63692" lon="11.79948"><ele>495</ele><time>2012-05-28T15:12:53Z</time></trkpt><trkpt lat="43.63688" lon="11.79948"><ele>495</ele><time>2012-05-28T15:12:54Z</time></trkpt><trkpt lat="43.63683" lon="11.79946"><ele>494</ele><time>2012-05-28T15:12:56Z</time></trkpt><trkpt lat="43.63679" lon="11.79940"><ele>494</ele><time>2012-05-28T15:13:00Z</time></trkpt><trkpt lat="43.63680" lon="11.79935"><ele>494</ele><time>2012-05-28T15:13:02Z</time></trkpt><trkpt lat="43.63680" lon="11.79930"><ele>494</ele><time>2012-05-28T15:13:04Z</time></trkpt><trkpt lat="43.63679" lon="11.79927"><ele>494</ele><time>2012-05-28T15:13:06Z</time></trkpt><trkpt lat="43.63677" lon="11.79923"><ele>494</ele><time>2012-05-28T15:13:09Z</time></trkpt><trkpt lat="43.63675" lon="11.79915"><ele>495</ele><time>2012-05-28T15:13:13Z</time></trkpt><trkpt lat="43.63674" lon="11.79910"><ele>495</ele><time>2012-05-28T15:13:15Z</time></trkpt><trkpt lat="43.63672" lon="11.79903"><ele>495</ele><time>2012-05-28T15:13:19Z</time></trkpt><trkpt lat="43.63670" lon="11.79892"><ele>494</ele><time>2012-05-28T15:13:26Z</time></trkpt><trkpt lat="43.63670" lon="11.79884"><ele>495</ele><time>2012-05-28T15:13:29Z</time></trkpt><trkpt lat="43.63666" lon="11.79875"><ele>495</ele><time>2012-05-28T15:13:32Z</time></trkpt><trkpt lat="43.63662" lon="11.79870"><ele>496</ele><time>2012-05-28T15:13:34Z</time></trkpt><trkpt lat="43.63660" lon="11.79868"><ele>496</ele><time>2012-05-28T15:13:35Z</time></trkpt><trkpt lat="43.63657" lon="11.79867"><ele>496</ele><time>2012-05-28T15:13:36Z</time></trkpt><trkpt lat="43.63655" lon="11.79865"><ele>496</ele><time>2012-05-28T15:13:37Z</time></trkpt><trkpt lat="43.63648" lon="11.79861"><ele>496</ele><time>2012-05-28T15:13:41Z</time></trkpt><trkpt lat="43.63645" lon="11.79860"><ele>495</ele><time>2012-05-28T15:13:43Z</time></trkpt><trkpt lat="43.63641" lon="11.79861"><ele>494</ele><time>2012-05-28T15:13:45Z</time></trkpt><trkpt lat="43.63637" lon="11.79863"><ele>494</ele><time>2012-05-28T15:13:47Z</time></trkpt><trkpt lat="43.63634" lon="11.79866"><ele>494</ele><time>2012-05-28T15:13:49Z</time></trkpt><trkpt lat="43.63629" lon="11.79872"><ele>494</ele><time>2012-05-28T15:13:52Z</time></trkpt><trkpt lat="43.63628" lon="11.79875"><ele>495</ele><time>2012-05-28T15:13:54Z</time></trkpt><trkpt lat="43.63627" lon="11.79882"><ele>495</ele><time>2012-05-28T15:13:57Z</time></trkpt><trkpt lat="43.63626" lon="11.79885"><ele>497</ele><time>2012-05-28T15:13:59Z</time></trkpt><trkpt lat="43.63625" lon="11.79889"><ele>498</ele><time>2012-05-28T15:14:01Z</time></trkpt><trkpt lat="43.63624" lon="11.79894"><ele>499</ele><time>2012-05-28T15:14:03Z</time></trkpt><trkpt lat="43.63623" lon="11.79897"><ele>500</ele><time>2012-05-28T15:14:04Z</time></trkpt><trkpt lat="43.63619" lon="11.79912"><ele>502</ele><time>2012-05-28T15:14:09Z</time></trkpt><trkpt lat="43.63618" lon="11.79915"><ele>502</ele><time>2012-05-28T15:14:10Z</time></trkpt><trkpt lat="43.63617" lon="11.79918"><ele>503</ele><time>2012-05-28T15:14:11Z</time></trkpt><trkpt lat="43.63616" lon="11.79922"><ele>504</ele><time>2012-05-28T15:14:12Z</time></trkpt><trkpt lat="43.63616" lon="11.79925"><ele>504</ele><time>2012-05-28T15:14:13Z</time></trkpt><trkpt lat="43.63615" lon="11.79929"><ele>504</ele><time>2012-05-28T15:14:14Z</time></trkpt><trkpt lat="43.63615" lon="11.79932"><ele>504</ele><time>2012-05-28T15:14:15Z</time></trkpt><trkpt lat="43.63615" lon="11.79947"><ele>506</ele><time>2012-05-28T15:14:19Z</time></trkpt><trkpt lat="43.63614" lon="11.79955"><ele>505</ele><time>2012-05-28T15:14:21Z</time></trkpt><trkpt lat="43.63611" lon="11.79985"><ele>509</ele><time>2012-05-28T15:14:27Z</time></trkpt><trkpt lat="43.63607" lon="11.79998"><ele>509</ele><time>2012-05-28T15:14:29Z</time></trkpt><trkpt lat="43.63604" lon="11.80013"><ele>508</ele><time>2012-05-28T15:14:31Z</time></trkpt><trkpt lat="43.63604" lon="11.80019"><ele>509</ele><time>2012-05-28T15:14:32Z</time></trkpt><trkpt lat="43.63600" lon="11.80037"><ele>511</ele><time>2012-05-28T15:14:35Z</time></trkpt><trkpt lat="43.63598" lon="11.80042"><ele>511</ele><time>2012-05-28T15:14:36Z</time></trkpt><trkpt lat="43.63588" lon="11.80071"><ele>512</ele><time>2012-05-28T15:14:42Z</time></trkpt><trkpt lat="43.63587" lon="11.80075"><ele>512</ele><time>2012-05-28T15:14:43Z</time></trkpt><trkpt lat="43.63584" lon="11.80085"><ele>511</ele><time>2012-05-28T15:14:45Z</time></trkpt><trkpt lat="43.63583" lon="11.80090"><ele>512</ele><time>2012-05-28T15:14:46Z</time></trkpt><trkpt lat="43.63581" lon="11.80095"><ele>513</ele><time>2012-05-28T15:14:47Z</time></trkpt><trkpt lat="43.63574" lon="11.80121"><ele>514</ele><time>2012-05-28T15:14:53Z</time></trkpt><trkpt lat="43.63572" lon="11.80126"><ele>514</ele><time>2012-05-28T15:14:54Z</time></trkpt><trkpt lat="43.63569" lon="11.80136"><ele>515</ele><time>2012-05-28T15:14:56Z</time></trkpt><trkpt lat="43.63558" lon="11.80149"><ele>510</ele><time>2012-05-28T15:14:58Z</time></trkpt><trkpt lat="43.63555" lon="11.80154"><ele>509</ele><time>2012-05-28T15:14:59Z</time></trkpt><trkpt lat="43.63552" lon="11.80159"><ele>508</ele><time>2012-05-28T15:15:00Z</time></trkpt><trkpt lat="43.63551" lon="11.80163"><ele>507</ele><time>2012-05-28T15:15:01Z</time></trkpt><trkpt lat="43.63548" lon="11.80174"><ele>507</ele><time>2012-05-28T15:15:04Z</time></trkpt><trkpt lat="43.63544" lon="11.80180"><ele>509</ele><time>2012-05-28T15:15:06Z</time></trkpt><trkpt lat="43.63540" lon="11.80185"><ele>508</ele><time>2012-05-28T15:15:08Z</time></trkpt><trkpt lat="43.63538" lon="11.80188"><ele>508</ele><time>2012-05-28T15:15:09Z</time></trkpt><trkpt lat="43.63534" lon="11.80192"><ele>508</ele><time>2012-05-28T15:15:11Z</time></trkpt><trkpt lat="43.63530" lon="11.80195"><ele>509</ele><time>2012-05-28T15:15:13Z</time></trkpt><trkpt lat="43.63522" lon="11.80204"><ele>510</ele><time>2012-05-28T15:15:17Z</time></trkpt><trkpt lat="43.63520" lon="11.80207"><ele>510</ele><time>2012-05-28T15:15:18Z</time></trkpt><trkpt lat="43.63511" lon="11.80217"><ele>510</ele><time>2012-05-28T15:15:21Z</time></trkpt><trkpt lat="43.63508" lon="11.80221"><ele>512</ele><time>2012-05-28T15:15:22Z</time></trkpt><trkpt lat="43.63500" lon="11.80230"><ele>512</ele><time>2012-05-28T15:15:25Z</time></trkpt><trkpt lat="43.63496" lon="11.80233"><ele>513</ele><time>2012-05-28T15:15:26Z</time></trkpt><trkpt lat="43.63493" lon="11.80235"><ele>513</ele><time>2012-05-28T15:15:27Z</time></trkpt><trkpt lat="43.63482" lon="11.80240"><ele>512</ele><time>2012-05-28T15:15:30Z</time></trkpt><trkpt lat="43.63478" lon="11.80241"><ele>512</ele><time>2012-05-28T15:15:31Z</time></trkpt><trkpt lat="43.63467" lon="11.80243"><ele>513</ele><time>2012-05-28T15:15:34Z</time></trkpt><trkpt lat="43.63463" lon="11.80244"><ele>513</ele><time>2012-05-28T15:15:35Z</time></trkpt><trkpt lat="43.63453" lon="11.80245"><ele>514</ele><time>2012-05-28T15:15:38Z</time></trkpt><trkpt lat="43.63445" lon="11.80248"><ele>515</ele><time>2012-05-28T15:15:40Z</time></trkpt><trkpt lat="43.63441" lon="11.80250"><ele>514</ele><time>2012-05-28T15:15:41Z</time></trkpt><trkpt lat="43.63430" lon="11.80257"><ele>515</ele><time>2012-05-28T15:15:44Z</time></trkpt><trkpt lat="43.63420" lon="11.80265"><ele>515</ele><time>2012-05-28T15:15:47Z</time></trkpt><trkpt lat="43.63418" lon="11.80269"><ele>514</ele><time>2012-05-28T15:15:48Z</time></trkpt><trkpt lat="43.63416" lon="11.80273"><ele>515</ele><time>2012-05-28T15:15:49Z</time></trkpt><trkpt lat="43.63414" lon="11.80277"><ele>514</ele><time>2012-05-28T15:15:50Z</time></trkpt><trkpt lat="43.63409" lon="11.80287"><ele>513</ele><time>2012-05-28T15:15:52Z</time></trkpt><trkpt lat="43.63404" lon="11.80300"><ele>514</ele><time>2012-05-28T15:15:55Z</time></trkpt><trkpt lat="43.63403" lon="11.80304"><ele>514</ele><time>2012-05-28T15:15:56Z</time></trkpt><trkpt lat="43.63402" lon="11.80309"><ele>515</ele><time>2012-05-28T15:15:57Z</time></trkpt><trkpt lat="43.63402" lon="11.80313"><ele>515</ele><time>2012-05-28T15:15:58Z</time></trkpt><trkpt lat="43.63403" lon="11.80318"><ele>515</ele><time>2012-05-28T15:15:59Z</time></trkpt><trkpt lat="43.63403" lon="11.80322"><ele>515</ele><time>2012-05-28T15:16:00Z</time></trkpt><trkpt lat="43.63402" lon="11.80337"><ele>514</ele><time>2012-05-28T15:16:04Z</time></trkpt><trkpt lat="43.63401" lon="11.80342"><ele>516</ele><time>2012-05-28T15:16:06Z</time></trkpt><trkpt lat="43.63396" lon="11.80353"><ele>519</ele><time>2012-05-28T15:16:11Z</time></trkpt><trkpt lat="43.63396" lon="11.80359"><ele>520</ele><time>2012-05-28T15:16:14Z</time></trkpt><trkpt lat="43.63397" lon="11.80363"><ele>520</ele><time>2012-05-28T15:16:16Z</time></trkpt><trkpt lat="43.63400" lon="11.80364"><ele>518</ele><time>2012-05-28T15:16:19Z</time></trkpt><trkpt lat="43.63397" lon="11.80364"><ele>525</ele><time>2012-05-28T15:16:34Z</time></trkpt><trkpt lat="43.63394" lon="11.80366"><ele>524</ele><time>2012-05-28T15:16:36Z</time></trkpt><trkpt lat="43.63394" lon="11.80369"><ele>527</ele><time>2012-05-28T15:16:40Z</time></trkpt><trkpt lat="43.63391" lon="11.80371"><ele>526</ele><time>2012-05-28T15:18:11Z</time></trkpt><trkpt lat="43.63389" lon="11.80373"><ele>526</ele><time>2012-05-28T15:18:14Z</time></trkpt><trkpt lat="43.63384" lon="11.80382"><ele>527</ele><time>2012-05-28T15:18:17Z</time></trkpt><trkpt lat="43.63383" lon="11.80387"><ele>528</ele><time>2012-05-28T15:18:18Z</time></trkpt><trkpt lat="43.63382" lon="11.80394"><ele>528</ele><time>2012-05-28T15:18:19Z</time></trkpt><trkpt lat="43.63388" lon="11.80410"><ele>525</ele><time>2012-05-28T15:18:20Z</time></trkpt><trkpt lat="43.63389" lon="11.80417"><ele>525</ele><time>2012-05-28T15:18:21Z</time></trkpt><trkpt lat="43.63391" lon="11.80425"><ele>525</ele><time>2012-05-28T15:18:22Z</time></trkpt><trkpt lat="43.63397" lon="11.80440"><ele>524</ele><time>2012-05-28T15:18:24Z</time></trkpt><trkpt lat="43.63402" lon="11.80449"><ele>524</ele><time>2012-05-28T15:18:25Z</time></trkpt><trkpt lat="43.63410" lon="11.80466"><ele>525</ele><time>2012-05-28T15:18:27Z</time></trkpt><trkpt lat="43.63412" lon="11.80479"><ele>525</ele><time>2012-05-28T15:18:28Z</time></trkpt><trkpt lat="43.63410" lon="11.80491"><ele>526</ele><time>2012-05-28T15:18:29Z</time></trkpt><trkpt lat="43.63410" lon="11.80503"><ele>525</ele><time>2012-05-28T15:18:30Z</time></trkpt><trkpt lat="43.63403" lon="11.80517"><ele>524</ele><time>2012-05-28T15:18:31Z</time></trkpt><trkpt lat="43.63394" lon="11.80525"><ele>523</ele><time>2012-05-28T15:18:32Z</time></trkpt><trkpt lat="43.63386" lon="11.80526"><ele>523</ele><time>2012-05-28T15:18:33Z</time></trkpt><trkpt lat="43.63378" lon="11.80524"><ele>523</ele><time>2012-05-28T15:18:34Z</time></trkpt><trkpt lat="43.63367" lon="11.80517"><ele>523</ele><time>2012-05-28T15:18:35Z</time></trkpt><trkpt lat="43.63355" lon="11.80513"><ele>524</ele><time>2012-05-28T15:18:36Z</time></trkpt><trkpt lat="43.63342" lon="11.80511"><ele>524</ele><time>2012-05-28T15:18:37Z</time></trkpt><trkpt lat="43.63331" lon="11.80506"><ele>524</ele><time>2012-05-28T15:18:38Z</time></trkpt><trkpt lat="43.63309" lon="11.80498"><ele>525</ele><time>2012-05-28T15:18:40Z</time></trkpt><trkpt lat="43.63298" lon="11.80496"><ele>524</ele><time>2012-05-28T15:18:41Z</time></trkpt><trkpt lat="43.63276" lon="11.80491"><ele>524</ele><time>2012-05-28T15:18:43Z</time></trkpt><trkpt lat="43.63268" lon="11.80483"><ele>524</ele><time>2012-05-28T15:18:44Z</time></trkpt><trkpt lat="43.63258" lon="11.80483"><ele>523</ele><time>2012-05-28T15:18:45Z</time></trkpt><trkpt lat="43.63248" lon="11.80487"><ele>523</ele><time>2012-05-28T15:18:46Z</time></trkpt><trkpt lat="43.63239" lon="11.80491"><ele>523</ele><time>2012-05-28T15:18:47Z</time></trkpt><trkpt lat="43.63231" lon="11.80499"><ele>522</ele><time>2012-05-28T15:18:48Z</time></trkpt><trkpt lat="43.63222" lon="11.80508"><ele>522</ele><time>2012-05-28T15:18:49Z</time></trkpt><trkpt lat="43.63213" lon="11.80516"><ele>522</ele><time>2012-05-28T15:18:50Z</time></trkpt><trkpt lat="43.63204" lon="11.80523"><ele>521</ele><time>2012-05-28T15:18:51Z</time></trkpt><trkpt lat="43.63194" lon="11.80529"><ele>520</ele><time>2012-05-28T15:18:52Z</time></trkpt><trkpt lat="43.63173" lon="11.80543"><ele>518</ele><time>2012-05-28T15:18:54Z</time></trkpt><trkpt lat="43.63163" lon="11.80545"><ele>518</ele><time>2012-05-28T15:18:55Z</time></trkpt><trkpt lat="43.63154" lon="11.80548"><ele>518</ele><time>2012-05-28T15:18:56Z</time></trkpt><trkpt lat="43.63133" lon="11.80554"><ele>516</ele><time>2012-05-28T15:18:58Z</time></trkpt><trkpt lat="43.63122" lon="11.80560"><ele>517</ele><time>2012-05-28T15:18:59Z</time></trkpt><trkpt lat="43.63113" lon="11.80564"><ele>517</ele><time>2012-05-28T15:19:00Z</time></trkpt><trkpt lat="43.63105" lon="11.80569"><ele>516</ele><time>2012-05-28T15:19:01Z</time></trkpt><trkpt lat="43.63095" lon="11.80584"><ele>515</ele><time>2012-05-28T15:19:03Z</time></trkpt><trkpt lat="43.63095" lon="11.80599"><ele>514</ele><time>2012-05-28T15:19:04Z</time></trkpt><trkpt lat="43.63094" lon="11.80608"><ele>512</ele><time>2012-05-28T15:19:05Z</time></trkpt><trkpt lat="43.63100" lon="11.80614"><ele>512</ele><time>2012-05-28T15:19:06Z</time></trkpt><trkpt lat="43.63106" lon="11.80616"><ele>510</ele><time>2012-05-28T15:19:07Z</time></trkpt><trkpt lat="43.63120" lon="11.80613"><ele>509</ele><time>2012-05-28T15:19:08Z</time></trkpt><trkpt lat="43.63144" lon="11.80609"><ele>508</ele><time>2012-05-28T15:19:10Z</time></trkpt><trkpt lat="43.63156" lon="11.80610"><ele>508</ele><time>2012-05-28T15:19:11Z</time></trkpt><trkpt lat="43.63169" lon="11.80609"><ele>507</ele><time>2012-05-28T15:19:12Z</time></trkpt><trkpt lat="43.63178" lon="11.80611"><ele>507</ele><time>2012-05-28T15:19:13Z</time></trkpt><trkpt lat="43.63196" lon="11.80622"><ele>505</ele><time>2012-05-28T15:19:15Z</time></trkpt><trkpt lat="43.63203" lon="11.80632"><ele>505</ele><time>2012-05-28T15:19:16Z</time></trkpt><trkpt lat="43.63211" lon="11.80641"><ele>504</ele><time>2012-05-28T15:19:17Z</time></trkpt><trkpt lat="43.63215" lon="11.80651"><ele>504</ele><time>2012-05-28T15:19:18Z</time></trkpt><trkpt lat="43.63222" lon="11.80660"><ele>504</ele><time>2012-05-28T15:19:19Z</time></trkpt><trkpt lat="43.63227" lon="11.80667"><ele>502</ele><time>2012-05-28T15:19:20Z</time></trkpt><trkpt lat="43.63233" lon="11.80678"><ele>502</ele><time>2012-05-28T15:19:21Z</time></trkpt><trkpt lat="43.63237" lon="11.80686"><ele>503</ele><time>2012-05-28T15:19:22Z</time></trkpt><trkpt lat="43.63237" lon="11.80699"><ele>503</ele><time>2012-05-28T15:19:23Z</time></trkpt><trkpt lat="43.63236" lon="11.80708"><ele>501</ele><time>2012-05-28T15:19:24Z</time></trkpt><trkpt lat="43.63230" lon="11.80716"><ele>499</ele><time>2012-05-28T15:19:25Z</time></trkpt><trkpt lat="43.63224" lon="11.80722"><ele>497</ele><time>2012-05-28T15:19:26Z</time></trkpt><trkpt lat="43.63215" lon="11.80709"><ele>496</ele><time>2012-05-28T15:19:27Z</time></trkpt><trkpt lat="43.63209" lon="11.80704"><ele>494</ele><time>2012-05-28T15:19:28Z</time></trkpt><trkpt lat="43.63202" lon="11.80698"><ele>494</ele><time>2012-05-28T15:19:29Z</time></trkpt><trkpt lat="43.63187" lon="11.80685"><ele>492</ele><time>2012-05-28T15:19:31Z</time></trkpt><trkpt lat="43.63180" lon="11.80675"><ele>492</ele><time>2012-05-28T15:19:32Z</time></trkpt><trkpt lat="43.63172" lon="11.80668"><ele>492</ele><time>2012-05-28T15:19:33Z</time></trkpt><trkpt lat="43.63164" lon="11.80667"><ele>492</ele><time>2012-05-28T15:19:34Z</time></trkpt><trkpt lat="43.63152" lon="11.80676"><ele>492</ele><time>2012-05-28T15:19:35Z</time></trkpt><trkpt lat="43.63136" lon="11.80691"><ele>491</ele><time>2012-05-28T15:19:37Z</time></trkpt><trkpt lat="43.63121" lon="11.80710"><ele>490</ele><time>2012-05-28T15:19:39Z</time></trkpt><trkpt lat="43.63111" lon="11.80724"><ele>489</ele><time>2012-05-28T15:19:40Z</time></trkpt><trkpt lat="43.63103" lon="11.80732"><ele>488</ele><time>2012-05-28T15:19:41Z</time></trkpt><trkpt lat="43.63084" lon="11.80749"><ele>487</ele><time>2012-05-28T15:19:43Z</time></trkpt><trkpt lat="43.63060" lon="11.80765"><ele>486</ele><time>2012-05-28T15:19:45Z</time></trkpt><trkpt lat="43.63048" lon="11.80769"><ele>484</ele><time>2012-05-28T15:19:46Z</time></trkpt><trkpt lat="43.63037" lon="11.80778"><ele>484</ele><time>2012-05-28T15:19:47Z</time></trkpt><trkpt lat="43.63014" lon="11.80791"><ele>483</ele><time>2012-05-28T15:19:49Z</time></trkpt><trkpt lat="43.63002" lon="11.80801"><ele>482</ele><time>2012-05-28T15:19:50Z</time></trkpt><trkpt lat="43.62989" lon="11.80806"><ele>480</ele><time>2012-05-28T15:19:51Z</time></trkpt><trkpt lat="43.62965" lon="11.80816"><ele>480</ele><time>2012-05-28T15:19:53Z</time></trkpt><trkpt lat="43.62953" lon="11.80818"><ele>479</ele><time>2012-05-28T15:19:54Z</time></trkpt><trkpt lat="43.62940" lon="11.80824"><ele>478</ele><time>2012-05-28T15:19:55Z</time></trkpt><trkpt lat="43.62916" lon="11.80835"><ele>477</ele><time>2012-05-28T15:19:57Z</time></trkpt><trkpt lat="43.62907" lon="11.80841"><ele>476</ele><time>2012-05-28T15:19:58Z</time></trkpt><trkpt lat="43.62894" lon="11.80850"><ele>476</ele><time>2012-05-28T15:20:00Z</time></trkpt><trkpt lat="43.62881" lon="11.80861"><ele>474</ele><time>2012-05-28T15:20:02Z</time></trkpt><trkpt lat="43.62883" lon="11.80862"><ele>474</ele><time>2012-05-28T15:20:03Z</time></trkpt><trkpt lat="43.62881" lon="11.80865"><ele>470</ele><time>2012-05-28T15:20:04Z</time></trkpt><trkpt lat="43.62877" lon="11.80868"><ele>468</ele><time>2012-05-28T15:20:05Z</time></trkpt><trkpt lat="43.62876" lon="11.80874"><ele>465</ele><time>2012-05-28T15:20:06Z</time></trkpt><trkpt lat="43.62871" lon="11.80880"><ele>464</ele><time>2012-05-28T15:20:07Z</time></trkpt><trkpt lat="43.62869" lon="11.80887"><ele>463</ele><time>2012-05-28T15:20:08Z</time></trkpt><trkpt lat="43.62869" lon="11.80896"><ele>461</ele><time>2012-05-28T15:20:09Z</time></trkpt><trkpt lat="43.62869" lon="11.80901"><ele>460</ele><time>2012-05-28T15:20:10Z</time></trkpt><trkpt lat="43.62870" lon="11.80905"><ele>459</ele><time>2012-05-28T15:20:11Z</time></trkpt><trkpt lat="43.62875" lon="11.80912"><ele>458</ele><time>2012-05-28T15:20:13Z</time></trkpt><trkpt lat="43.62881" lon="11.80915"><ele>457</ele><time>2012-05-28T15:20:14Z</time></trkpt><trkpt lat="43.62894" lon="11.80918"><ele>457</ele><time>2012-05-28T15:20:15Z</time></trkpt><trkpt lat="43.62897" lon="11.80907"><ele>455</ele><time>2012-05-28T15:20:17Z</time></trkpt><trkpt lat="43.62899" lon="11.80907"><ele>453</ele><time>2012-05-28T15:20:27Z</time></trkpt><trkpt lat="43.62896" lon="11.80909"><ele>452</ele><time>2012-05-28T15:20:33Z</time></trkpt><trkpt lat="43.62894" lon="11.80914"><ele>452</ele><time>2012-05-28T15:20:41Z</time></trkpt><trkpt lat="43.62896" lon="11.80909"><ele>444</ele><time>2012-05-28T15:21:11Z</time></trkpt><trkpt lat="43.62898" lon="11.80907"><ele>445</ele><time>2012-05-28T15:21:32Z</time></trkpt><trkpt lat="43.62896" lon="11.80904"><ele>444</ele><time>2012-05-28T15:21:38Z</time></trkpt><trkpt lat="43.62897" lon="11.80907"><ele>445</ele><time>2012-05-28T15:21:43Z</time></trkpt><trkpt lat="43.62901" lon="11.80910"><ele>445</ele><time>2012-05-28T15:22:01Z</time></trkpt><trkpt lat="43.62906" lon="11.80903"><ele>437</ele><time>2012-05-28T15:22:19Z</time></trkpt><trkpt lat="43.62909" lon="11.80901"><ele>437</ele><time>2012-05-28T15:22:20Z</time></trkpt><trkpt lat="43.62913" lon="11.80899"><ele>437</ele><time>2012-05-28T15:22:21Z</time></trkpt><trkpt lat="43.62917" lon="11.80899"><ele>437</ele><time>2012-05-28T15:22:22Z</time></trkpt><trkpt lat="43.62933" lon="11.80907"><ele>435</ele><time>2012-05-28T15:22:23Z</time></trkpt><trkpt lat="43.62941" lon="11.80914"><ele>433</ele><time>2012-05-28T15:22:24Z</time></trkpt><trkpt lat="43.62947" lon="11.80924"><ele>430</ele><time>2012-05-28T15:22:25Z</time></trkpt><trkpt lat="43.62955" lon="11.80940"><ele>427</ele><time>2012-05-28T15:22:27Z</time></trkpt><trkpt lat="43.62960" lon="11.80955"><ele>428</ele><time>2012-05-28T15:22:28Z</time></trkpt><trkpt lat="43.62963" lon="11.80968"><ele>428</ele><time>2012-05-28T15:22:29Z</time></trkpt><trkpt lat="43.62973" lon="11.81004"><ele>428</ele><time>2012-05-28T15:22:32Z</time></trkpt><trkpt lat="43.62980" lon="11.81019"><ele>427</ele><time>2012-05-28T15:22:33Z</time></trkpt><trkpt lat="43.62986" lon="11.81033"><ele>425</ele><time>2012-05-28T15:22:34Z</time></trkpt><trkpt lat="43.62992" lon="11.81045"><ele>424</ele><time>2012-05-28T15:22:35Z</time></trkpt><trkpt lat="43.62998" lon="11.81056"><ele>425</ele><time>2012-05-28T15:22:36Z</time></trkpt><trkpt lat="43.62999" lon="11.81068"><ele>426</ele><time>2012-05-28T15:22:37Z</time></trkpt><trkpt lat="43.62995" lon="11.81075"><ele>425</ele><time>2012-05-28T15:22:38Z</time></trkpt><trkpt lat="43.62993" lon="11.81083"><ele>425</ele><time>2012-05-28T15:22:39Z</time></trkpt><trkpt lat="43.62989" lon="11.81087"><ele>425</ele><time>2012-05-28T15:22:40Z</time></trkpt><trkpt lat="43.62970" lon="11.81082"><ele>425</ele><time>2012-05-28T15:22:41Z</time></trkpt><trkpt lat="43.62957" lon="11.81079"><ele>424</ele><time>2012-05-28T15:22:42Z</time></trkpt><trkpt lat="43.62949" lon="11.81067"><ele>423</ele><time>2012-05-28T15:22:43Z</time></trkpt><trkpt lat="43.62942" lon="11.81060"><ele>423</ele><time>2012-05-28T15:22:44Z</time></trkpt><trkpt lat="43.62930" lon="11.81054"><ele>422</ele><time>2012-05-28T15:22:45Z</time></trkpt><trkpt lat="43.62920" lon="11.81043"><ele>422</ele><time>2012-05-28T15:22:46Z</time></trkpt><trkpt lat="43.62909" lon="11.81035"><ele>422</ele><time>2012-05-28T15:22:47Z</time></trkpt><trkpt lat="43.62901" lon="11.81031"><ele>423</ele><time>2012-05-28T15:22:48Z</time></trkpt><trkpt lat="43.62892" lon="11.81027"><ele>423</ele><time>2012-05-28T15:22:49Z</time></trkpt><trkpt lat="43.62883" lon="11.81034"><ele>422</ele><time>2012-05-28T15:22:50Z</time></trkpt><trkpt lat="43.62872" lon="11.81041"><ele>422</ele><time>2012-05-28T15:22:51Z</time></trkpt><trkpt lat="43.62864" lon="11.81051"><ele>422</ele><time>2012-05-28T15:22:52Z</time></trkpt><trkpt lat="43.62863" lon="11.81063"><ele>421</ele><time>2012-05-28T15:22:53Z</time></trkpt><trkpt lat="43.62867" lon="11.81076"><ele>422</ele><time>2012-05-28T15:22:54Z</time></trkpt><trkpt lat="43.62879" lon="11.81085"><ele>422</ele><time>2012-05-28T15:22:55Z</time></trkpt><trkpt lat="43.62883" lon="11.81091"><ele>421</ele><time>2012-05-28T15:22:56Z</time></trkpt><trkpt lat="43.62890" lon="11.81094"><ele>419</ele><time>2012-05-28T15:22:57Z</time></trkpt><trkpt lat="43.62899" lon="11.81104"><ele>417</ele><time>2012-05-28T15:22:58Z</time></trkpt><trkpt lat="43.62901" lon="11.81117"><ele>415</ele><time>2012-05-28T15:22:59Z</time></trkpt><trkpt lat="43.62900" lon="11.81128"><ele>415</ele><time>2012-05-28T15:23:00Z</time></trkpt><trkpt lat="43.62901" lon="11.81138"><ele>413</ele><time>2012-05-28T15:23:01Z</time></trkpt><trkpt lat="43.62902" lon="11.81158"><ele>412</ele><time>2012-05-28T15:23:03Z</time></trkpt><trkpt lat="43.62907" lon="11.81167"><ele>410</ele><time>2012-05-28T15:23:04Z</time></trkpt><trkpt lat="43.62911" lon="11.81175"><ele>409</ele><time>2012-05-28T15:23:05Z</time></trkpt><trkpt lat="43.62918" lon="11.81192"><ele>408</ele><time>2012-05-28T15:23:07Z</time></trkpt><trkpt lat="43.62921" lon="11.81202"><ele>409</ele><time>2012-05-28T15:23:08Z</time></trkpt><trkpt lat="43.62922" lon="11.81211"><ele>408</ele><time>2012-05-28T15:23:09Z</time></trkpt><trkpt lat="43.62925" lon="11.81222"><ele>408</ele><time>2012-05-28T15:23:10Z</time></trkpt><trkpt lat="43.62928" lon="11.81233"><ele>407</ele><time>2012-05-28T15:23:11Z</time></trkpt><trkpt lat="43.62928" lon="11.81244"><ele>406</ele><time>2012-05-28T15:23:12Z</time></trkpt><trkpt lat="43.62931" lon="11.81256"><ele>405</ele><time>2012-05-28T15:23:13Z</time></trkpt><trkpt lat="43.62933" lon="11.81270"><ele>404</ele><time>2012-05-28T15:23:14Z</time></trkpt><trkpt lat="43.62935" lon="11.81290"><ele>403</ele><time>2012-05-28T15:23:16Z</time></trkpt><trkpt lat="43.62932" lon="11.81300"><ele>404</ele><time>2012-05-28T15:23:17Z</time></trkpt><trkpt lat="43.62927" lon="11.81305"><ele>403</ele><time>2012-05-28T15:23:18Z</time></trkpt><trkpt lat="43.62920" lon="11.81306"><ele>403</ele><time>2012-05-28T15:23:19Z</time></trkpt><trkpt lat="43.62913" lon="11.81306"><ele>403</ele><time>2012-05-28T15:23:20Z</time></trkpt><trkpt lat="43.62904" lon="11.81302"><ele>402</ele><time>2012-05-28T15:23:21Z</time></trkpt><trkpt lat="43.62895" lon="11.81297"><ele>404</ele><time>2012-05-28T15:23:22Z</time></trkpt><trkpt lat="43.62886" lon="11.81299"><ele>403</ele><time>2012-05-28T15:23:23Z</time></trkpt><trkpt lat="43.62878" lon="11.81304"><ele>403</ele><time>2012-05-28T15:23:24Z</time></trkpt><trkpt lat="43.62869" lon="11.81310"><ele>403</ele><time>2012-05-28T15:23:25Z</time></trkpt><trkpt lat="43.62865" lon="11.81317"><ele>402</ele><time>2012-05-28T15:23:26Z</time></trkpt><trkpt lat="43.62858" lon="11.81321"><ele>402</ele><time>2012-05-28T15:23:27Z</time></trkpt><trkpt lat="43.62873" lon="11.81346"><ele>402</ele><time>2012-05-28T15:23:28Z</time></trkpt><trkpt lat="43.62879" lon="11.81357"><ele>401</ele><time>2012-05-28T15:23:29Z</time></trkpt><trkpt lat="43.62886" lon="11.81369"><ele>400</ele><time>2012-05-28T15:23:30Z</time></trkpt><trkpt lat="43.62893" lon="11.81380"><ele>399</ele><time>2012-05-28T15:23:31Z</time></trkpt><trkpt lat="43.62898" lon="11.81392"><ele>399</ele><time>2012-05-28T15:23:32Z</time></trkpt><trkpt lat="43.62902" lon="11.81405"><ele>398</ele><time>2012-05-28T15:23:33Z</time></trkpt><trkpt lat="43.62903" lon="11.81414"><ele>397</ele><time>2012-05-28T15:23:35Z</time></trkpt><trkpt lat="43.62915" lon="11.81413"><ele>396</ele><time>2012-05-28T15:23:36Z</time></trkpt><trkpt lat="43.62906" lon="11.81418"><ele>394</ele><time>2012-05-28T15:23:40Z</time></trkpt><trkpt lat="43.62893" lon="11.81412"><ele>394</ele><time>2012-05-28T15:23:41Z</time></trkpt><trkpt lat="43.62871" lon="11.81403"><ele>394</ele><time>2012-05-28T15:23:42Z</time></trkpt><trkpt lat="43.62839" lon="11.81393"><ele>392</ele><time>2012-05-28T15:23:44Z</time></trkpt><trkpt lat="43.62821" lon="11.81395"><ele>390</ele><time>2012-05-28T15:23:45Z</time></trkpt><trkpt lat="43.62806" lon="11.81391"><ele>388</ele><time>2012-05-28T15:23:46Z</time></trkpt><trkpt lat="43.62793" lon="11.81393"><ele>388</ele><time>2012-05-28T15:23:47Z</time></trkpt><trkpt lat="43.62780" lon="11.81398"><ele>387</ele><time>2012-05-28T15:23:48Z</time></trkpt><trkpt lat="43.62770" lon="11.81400"><ele>386</ele><time>2012-05-28T15:23:49Z</time></trkpt><trkpt lat="43.62723" lon="11.81409"><ele>386</ele><time>2012-05-28T15:23:53Z</time></trkpt><trkpt lat="43.62712" lon="11.81408"><ele>382</ele><time>2012-05-28T15:23:54Z</time></trkpt><trkpt lat="43.62700" lon="11.81408"><ele>380</ele><time>2012-05-28T15:23:55Z</time></trkpt><trkpt lat="43.62689" lon="11.81409"><ele>378</ele><time>2012-05-28T15:23:56Z</time></trkpt><trkpt lat="43.62681" lon="11.81407"><ele>377</ele><time>2012-05-28T15:23:57Z</time></trkpt><trkpt lat="43.62670" lon="11.81409"><ele>376</ele><time>2012-05-28T15:23:58Z</time></trkpt><trkpt lat="43.62656" lon="11.81416"><ele>375</ele><time>2012-05-28T15:23:59Z</time></trkpt><trkpt lat="43.62587" lon="11.81452"><ele>366</ele><time>2012-05-28T15:24:05Z</time></trkpt><trkpt lat="43.62575" lon="11.81456"><ele>364</ele><time>2012-05-28T15:24:06Z</time></trkpt><trkpt lat="43.62569" lon="11.81464"><ele>358</ele><time>2012-05-28T15:24:07Z</time></trkpt><trkpt lat="43.62557" lon="11.81470"><ele>357</ele><time>2012-05-28T15:24:08Z</time></trkpt><trkpt lat="43.62544" lon="11.81476"><ele>357</ele><time>2012-05-28T15:24:09Z</time></trkpt><trkpt lat="43.62533" lon="11.81481"><ele>356</ele><time>2012-05-28T15:24:10Z</time></trkpt><trkpt lat="43.62522" lon="11.81487"><ele>354</ele><time>2012-05-28T15:24:11Z</time></trkpt><trkpt lat="43.62510" lon="11.81496"><ele>352</ele><time>2012-05-28T15:24:12Z</time></trkpt><trkpt lat="43.62500" lon="11.81508"><ele>350</ele><time>2012-05-28T15:24:13Z</time></trkpt><trkpt lat="43.62489" lon="11.81518"><ele>349</ele><time>2012-05-28T15:24:14Z</time></trkpt><trkpt lat="43.62458" lon="11.81542"><ele>347</ele><time>2012-05-28T15:24:17Z</time></trkpt><trkpt lat="43.62448" lon="11.81549"><ele>346</ele><time>2012-05-28T15:24:18Z</time></trkpt><trkpt lat="43.62438" lon="11.81556"><ele>344</ele><time>2012-05-28T15:24:19Z</time></trkpt><trkpt lat="43.62429" lon="11.81560"><ele>343</ele><time>2012-05-28T15:24:20Z</time></trkpt><trkpt lat="43.62429" lon="11.81567"><ele>341</ele><time>2012-05-28T15:24:21Z</time></trkpt><trkpt lat="43.62427" lon="11.81574"><ele>340</ele><time>2012-05-28T15:24:22Z</time></trkpt><trkpt lat="43.62425" lon="11.81590"><ele>338</ele><time>2012-05-28T15:24:24Z</time></trkpt><trkpt lat="43.62426" lon="11.81612"><ele>338</ele><time>2012-05-28T15:24:26Z</time></trkpt><trkpt lat="43.62432" lon="11.81623"><ele>337</ele><time>2012-05-28T15:24:27Z</time></trkpt><trkpt lat="43.62434" lon="11.81636"><ele>336</ele><time>2012-05-28T15:24:28Z</time></trkpt><trkpt lat="43.62438" lon="11.81659"><ele>335</ele><time>2012-05-28T15:24:30Z</time></trkpt><trkpt lat="43.62438" lon="11.81673"><ele>333</ele><time>2012-05-28T15:24:31Z</time></trkpt><trkpt lat="43.62441" lon="11.81691"><ele>332</ele><time>2012-05-28T15:24:32Z</time></trkpt><trkpt lat="43.62442" lon="11.81704"><ele>331</ele><time>2012-05-28T15:24:33Z</time></trkpt><trkpt lat="43.62445" lon="11.81719"><ele>331</ele><time>2012-05-28T15:24:34Z</time></trkpt><trkpt lat="43.62449" lon="11.81743"><ele>329</ele><time>2012-05-28T15:24:36Z</time></trkpt><trkpt lat="43.62451" lon="11.81755"><ele>329</ele><time>2012-05-28T15:24:37Z</time></trkpt><trkpt lat="43.62453" lon="11.81766"><ele>329</ele><time>2012-05-28T15:24:38Z</time></trkpt><trkpt lat="43.62455" lon="11.81776"><ele>328</ele><time>2012-05-28T15:24:39Z</time></trkpt><trkpt lat="43.62457" lon="11.81796"><ele>328</ele><time>2012-05-28T15:24:41Z</time></trkpt><trkpt lat="43.62456" lon="11.81818"><ele>327</ele><time>2012-05-28T15:24:43Z</time></trkpt><trkpt lat="43.62454" lon="11.81831"><ele>325</ele><time>2012-05-28T15:24:44Z</time></trkpt><trkpt lat="43.62448" lon="11.81849"><ele>325</ele><time>2012-05-28T15:24:46Z</time></trkpt><trkpt lat="43.62446" lon="11.81858"><ele>325</ele><time>2012-05-28T15:24:47Z</time></trkpt><trkpt lat="43.62442" lon="11.81867"><ele>325</ele><time>2012-05-28T15:24:48Z</time></trkpt><trkpt lat="43.62426" lon="11.81901"><ele>322</ele><time>2012-05-28T15:24:52Z</time></trkpt><trkpt lat="43.62420" lon="11.81920"><ele>323</ele><time>2012-05-28T15:24:54Z</time></trkpt><trkpt lat="43.62416" lon="11.81928"><ele>322</ele><time>2012-05-28T15:24:55Z</time></trkpt><trkpt lat="43.62409" lon="11.81936"><ele>323</ele><time>2012-05-28T15:24:56Z</time></trkpt><trkpt lat="43.62405" lon="11.81945"><ele>322</ele><time>2012-05-28T15:24:57Z</time></trkpt><trkpt lat="43.62396" lon="11.81962"><ele>320</ele><time>2012-05-28T15:24:59Z</time></trkpt><trkpt lat="43.62378" lon="11.81999"><ele>319</ele><time>2012-05-28T15:25:03Z</time></trkpt><trkpt lat="43.62370" lon="11.82021"><ele>318</ele><time>2012-05-28T15:25:05Z</time></trkpt><trkpt lat="43.62365" lon="11.82025"><ele>319</ele><time>2012-05-28T15:25:06Z</time></trkpt><trkpt lat="43.62359" lon="11.82035"><ele>318</ele><time>2012-05-28T15:25:07Z</time></trkpt><trkpt lat="43.62352" lon="11.82048"><ele>317</ele><time>2012-05-28T15:25:09Z</time></trkpt><trkpt lat="43.62342" lon="11.82063"><ele>317</ele><time>2012-05-28T15:25:10Z</time></trkpt><trkpt lat="43.62335" lon="11.82069"><ele>317</ele><time>2012-05-28T15:25:11Z</time></trkpt><trkpt lat="43.62329" lon="11.82077"><ele>317</ele><time>2012-05-28T15:25:12Z</time></trkpt><trkpt lat="43.62339" lon="11.82059"><ele>316</ele><time>2012-05-28T15:25:13Z</time></trkpt><trkpt lat="43.62334" lon="11.82060"><ele>316</ele><time>2012-05-28T15:25:15Z</time></trkpt><trkpt lat="43.62331" lon="11.82060"><ele>316</ele><time>2012-05-28T15:25:16Z</time></trkpt><trkpt lat="43.62324" lon="11.82058"><ele>317</ele><time>2012-05-28T15:25:18Z</time></trkpt><trkpt lat="43.62322" lon="11.82054"><ele>317</ele><time>2012-05-28T15:25:19Z</time></trkpt><trkpt lat="43.62321" lon="11.82051"><ele>315</ele><time>2012-05-28T15:25:20Z</time></trkpt><trkpt lat="43.62319" lon="11.82047"><ele>316</ele><time>2012-05-28T15:25:21Z</time></trkpt><trkpt lat="43.62313" lon="11.82032"><ele>317</ele><time>2012-05-28T15:25:24Z</time></trkpt><trkpt lat="43.62307" lon="11.82016"><ele>317</ele><time>2012-05-28T15:25:26Z</time></trkpt><trkpt lat="43.62305" lon="11.82011"><ele>317</ele><time>2012-05-28T15:25:27Z</time></trkpt><trkpt lat="43.62300" lon="11.81999"><ele>316</ele><time>2012-05-28T15:25:29Z</time></trkpt><trkpt lat="43.62294" lon="11.81988"><ele>316</ele><time>2012-05-28T15:25:31Z</time></trkpt><trkpt lat="43.62289" lon="11.81976"><ele>317</ele><time>2012-05-28T15:25:33Z</time></trkpt><trkpt lat="43.62288" lon="11.81969"><ele>317</ele><time>2012-05-28T15:25:34Z</time></trkpt><trkpt lat="43.62286" lon="11.81962"><ele>317</ele><time>2012-05-28T15:25:35Z</time></trkpt><trkpt lat="43.62283" lon="11.81955"><ele>316</ele><time>2012-05-28T15:25:36Z</time></trkpt><trkpt lat="43.62277" lon="11.81945"><ele>316</ele><time>2012-05-28T15:25:38Z</time></trkpt><trkpt lat="43.62271" lon="11.81939"><ele>316</ele><time>2012-05-28T15:25:39Z</time></trkpt><trkpt lat="43.62268" lon="11.81933"><ele>316</ele><time>2012-05-28T15:25:40Z</time></trkpt><trkpt lat="43.62262" lon="11.81919"><ele>316</ele><time>2012-05-28T15:25:42Z</time></trkpt><trkpt lat="43.62258" lon="11.81912"><ele>315</ele><time>2012-05-28T15:25:43Z</time></trkpt><trkpt lat="43.62252" lon="11.81901"><ele>315</ele><time>2012-05-28T15:25:45Z</time></trkpt><trkpt lat="43.62251" lon="11.81895"><ele>314</ele><time>2012-05-28T15:25:46Z</time></trkpt><trkpt lat="43.62247" lon="11.81887"><ele>314</ele><time>2012-05-28T15:25:47Z</time></trkpt><trkpt lat="43.62243" lon="11.81880"><ele>312</ele><time>2012-05-28T15:25:48Z</time></trkpt><trkpt lat="43.62240" lon="11.81874"><ele>312</ele><time>2012-05-28T15:25:49Z</time></trkpt><trkpt lat="43.62238" lon="11.81868"><ele>311</ele><time>2012-05-28T15:25:50Z</time></trkpt><trkpt lat="43.62234" lon="11.81859"><ele>311</ele><time>2012-05-28T15:25:51Z</time></trkpt><trkpt lat="43.62232" lon="11.81848"><ele>311</ele><time>2012-05-28T15:25:52Z</time></trkpt><trkpt lat="43.62228" lon="11.81845"><ele>312</ele><time>2012-05-28T15:25:53Z</time></trkpt><trkpt lat="43.62227" lon="11.81838"><ele>312</ele><time>2012-05-28T15:25:54Z</time></trkpt><trkpt lat="43.62222" lon="11.81835"><ele>311</ele><time>2012-05-28T15:25:55Z</time></trkpt><trkpt lat="43.62219" lon="11.81830"><ele>312</ele><time>2012-05-28T15:25:56Z</time></trkpt><trkpt lat="43.62214" lon="11.81827"><ele>312</ele><time>2012-05-28T15:25:57Z</time></trkpt><trkpt lat="43.62209" lon="11.81827"><ele>312</ele><time>2012-05-28T15:25:58Z</time></trkpt><trkpt lat="43.62204" lon="11.81827"><ele>312</ele><time>2012-05-28T15:25:59Z</time></trkpt><trkpt lat="43.62201" lon="11.81819"><ele>313</ele><time>2012-05-28T15:26:00Z</time></trkpt><trkpt lat="43.62198" lon="11.81812"><ele>313</ele><time>2012-05-28T15:26:01Z</time></trkpt><trkpt lat="43.62195" lon="11.81807"><ele>313</ele><time>2012-05-28T15:26:02Z</time></trkpt><trkpt lat="43.62188" lon="11.81794"><ele>313</ele><time>2012-05-28T15:26:04Z</time></trkpt><trkpt lat="43.62184" lon="11.81790"><ele>314</ele><time>2012-05-28T15:26:05Z</time></trkpt><trkpt lat="43.62180" lon="11.81784"><ele>314</ele><time>2012-05-28T15:26:06Z</time></trkpt><trkpt lat="43.62164" lon="11.81762"><ele>312</ele><time>2012-05-28T15:26:10Z</time></trkpt><trkpt lat="43.62152" lon="11.81747"><ele>314</ele><time>2012-05-28T15:26:13Z</time></trkpt><trkpt lat="43.62147" lon="11.81746"><ele>314</ele><time>2012-05-28T15:26:14Z</time></trkpt><trkpt lat="43.62140" lon="11.81747"><ele>314</ele><time>2012-05-28T15:26:15Z</time></trkpt><trkpt lat="43.62134" lon="11.81747"><ele>314</ele><time>2012-05-28T15:26:16Z</time></trkpt><trkpt lat="43.62130" lon="11.81745"><ele>315</ele><time>2012-05-28T15:26:17Z</time></trkpt><trkpt lat="43.62127" lon="11.81747"><ele>317</ele><time>2012-05-28T15:26:18Z</time></trkpt><trkpt lat="43.62122" lon="11.81752"><ele>317</ele><time>2012-05-28T15:26:19Z</time></trkpt><trkpt lat="43.62116" lon="11.81754"><ele>318</ele><time>2012-05-28T15:26:20Z</time></trkpt><trkpt lat="43.62112" lon="11.81753"><ele>318</ele><time>2012-05-28T15:26:21Z</time></trkpt><trkpt lat="43.62099" lon="11.81749"><ele>318</ele><time>2012-05-28T15:26:23Z</time></trkpt><trkpt lat="43.62093" lon="11.81745"><ele>318</ele><time>2012-05-28T15:26:24Z</time></trkpt><trkpt lat="43.62090" lon="11.81740"><ele>318</ele><time>2012-05-28T15:26:25Z</time></trkpt><trkpt lat="43.62082" lon="11.81728"><ele>318</ele><time>2012-05-28T15:26:27Z</time></trkpt><trkpt lat="43.62081" lon="11.81723"><ele>318</ele><time>2012-05-28T15:26:28Z</time></trkpt><trkpt lat="43.62075" lon="11.81708"><ele>318</ele><time>2012-05-28T15:26:30Z</time></trkpt><trkpt lat="43.62071" lon="11.81706"><ele>318</ele><time>2012-05-28T15:26:31Z</time></trkpt><trkpt lat="43.62068" lon="11.81703"><ele>317</ele><time>2012-05-28T15:26:32Z</time></trkpt><trkpt lat="43.62066" lon="11.81697"><ele>317</ele><time>2012-05-28T15:26:33Z</time></trkpt><trkpt lat="43.62064" lon="11.81685"><ele>318</ele><time>2012-05-28T15:26:34Z</time></trkpt><trkpt lat="43.62063" lon="11.81673"><ele>319</ele><time>2012-05-28T15:26:35Z</time></trkpt><trkpt lat="43.62060" lon="11.81665"><ele>320</ele><time>2012-05-28T15:26:36Z</time></trkpt><trkpt lat="43.62055" lon="11.81649"><ele>321</ele><time>2012-05-28T15:26:38Z</time></trkpt><trkpt lat="43.62053" lon="11.81640"><ele>321</ele><time>2012-05-28T15:26:39Z</time></trkpt><trkpt lat="43.62051" lon="11.81631"><ele>320</ele><time>2012-05-28T15:26:40Z</time></trkpt><trkpt lat="43.62049" lon="11.81624"><ele>321</ele><time>2012-05-28T15:26:41Z</time></trkpt><trkpt lat="43.62046" lon="11.81618"><ele>321</ele><time>2012-05-28T15:26:42Z</time></trkpt><trkpt lat="43.62043" lon="11.81614"><ele>321</ele><time>2012-05-28T15:26:43Z</time></trkpt><trkpt lat="43.62041" lon="11.81609"><ele>321</ele><time>2012-05-28T15:26:44Z</time></trkpt><trkpt lat="43.62034" lon="11.81600"><ele>321</ele><time>2012-05-28T15:26:46Z</time></trkpt><trkpt lat="43.62031" lon="11.81594"><ele>321</ele><time>2012-05-28T15:26:47Z</time></trkpt><trkpt lat="43.62028" lon="11.81590"><ele>321</ele><time>2012-05-28T15:26:48Z</time></trkpt><trkpt lat="43.62024" lon="11.81583"><ele>322</ele><time>2012-05-28T15:26:49Z</time></trkpt><trkpt lat="43.62017" lon="11.81583"><ele>323</ele><time>2012-05-28T15:26:51Z</time></trkpt><trkpt lat="43.62013" lon="11.81576"><ele>324</ele><time>2012-05-28T15:26:52Z</time></trkpt><trkpt lat="43.62010" lon="11.81573"><ele>323</ele><time>2012-05-28T15:26:53Z</time></trkpt><trkpt lat="43.62008" lon="11.81562"><ele>324</ele><time>2012-05-28T15:26:54Z</time></trkpt><trkpt lat="43.62006" lon="11.81552"><ele>324</ele><time>2012-05-28T15:26:55Z</time></trkpt><trkpt lat="43.62001" lon="11.81546"><ele>325</ele><time>2012-05-28T15:26:56Z</time></trkpt><trkpt lat="43.61996" lon="11.81542"><ele>325</ele><time>2012-05-28T15:26:57Z</time></trkpt><trkpt lat="43.61991" lon="11.81540"><ele>325</ele><time>2012-05-28T15:26:58Z</time></trkpt><trkpt lat="43.61987" lon="11.81536"><ele>325</ele><time>2012-05-28T15:26:59Z</time></trkpt><trkpt lat="43.61981" lon="11.81537"><ele>325</ele><time>2012-05-28T15:27:00Z</time></trkpt><trkpt lat="43.61974" lon="11.81536"><ele>326</ele><time>2012-05-28T15:27:01Z</time></trkpt><trkpt lat="43.61968" lon="11.81530"><ele>325</ele><time>2012-05-28T15:27:02Z</time></trkpt><trkpt lat="43.61966" lon="11.81520"><ele>326</ele><time>2012-05-28T15:27:03Z</time></trkpt><trkpt lat="43.61962" lon="11.81512"><ele>326</ele><time>2012-05-28T15:27:04Z</time></trkpt><trkpt lat="43.61959" lon="11.81506"><ele>325</ele><time>2012-05-28T15:27:05Z</time></trkpt><trkpt lat="43.61952" lon="11.81496"><ele>324</ele><time>2012-05-28T15:27:07Z</time></trkpt><trkpt lat="43.61949" lon="11.81494"><ele>325</ele><time>2012-05-28T15:27:08Z</time></trkpt><trkpt lat="43.61940" lon="11.81488"><ele>324</ele><time>2012-05-28T15:27:10Z</time></trkpt><trkpt lat="43.61935" lon="11.81481"><ele>324</ele><time>2012-05-28T15:27:11Z</time></trkpt><trkpt lat="43.61930" lon="11.81474"><ele>324</ele><time>2012-05-28T15:27:12Z</time></trkpt><trkpt lat="43.61927" lon="11.81464"><ele>324</ele><time>2012-05-28T15:27:13Z</time></trkpt><trkpt lat="43.61922" lon="11.81459"><ele>324</ele><time>2012-05-28T15:27:14Z</time></trkpt><trkpt lat="43.61913" lon="11.81451"><ele>324</ele><time>2012-05-28T15:27:16Z</time></trkpt><trkpt lat="43.61907" lon="11.81448"><ele>324</ele><time>2012-05-28T15:27:17Z</time></trkpt><trkpt lat="43.61901" lon="11.81445"><ele>324</ele><time>2012-05-28T15:27:18Z</time></trkpt><trkpt lat="43.61897" lon="11.81439"><ele>323</ele><time>2012-05-28T15:27:19Z</time></trkpt><trkpt lat="43.61894" lon="11.81433"><ele>324</ele><time>2012-05-28T15:27:20Z</time></trkpt><trkpt lat="43.61887" lon="11.81425"><ele>323</ele><time>2012-05-28T15:27:22Z</time></trkpt><trkpt lat="43.61882" lon="11.81417"><ele>323</ele><time>2012-05-28T15:27:23Z</time></trkpt><trkpt lat="43.61882" lon="11.81409"><ele>324</ele><time>2012-05-28T15:27:24Z</time></trkpt><trkpt lat="43.61878" lon="11.81403"><ele>324</ele><time>2012-05-28T15:27:25Z</time></trkpt><trkpt lat="43.61868" lon="11.81391"><ele>325</ele><time>2012-05-28T15:27:28Z</time></trkpt><trkpt lat="43.61863" lon="11.81386"><ele>325</ele><time>2012-05-28T15:27:29Z</time></trkpt><trkpt lat="43.61851" lon="11.81376"><ele>325</ele><time>2012-05-28T15:27:31Z</time></trkpt><trkpt lat="43.61847" lon="11.81370"><ele>324</ele><time>2012-05-28T15:27:32Z</time></trkpt><trkpt lat="43.61843" lon="11.81366"><ele>324</ele><time>2012-05-28T15:27:33Z</time></trkpt><trkpt lat="43.61835" lon="11.81362"><ele>325</ele><time>2012-05-28T15:27:34Z</time></trkpt><trkpt lat="43.61832" lon="11.81357"><ele>324</ele><time>2012-05-28T15:27:35Z</time></trkpt><trkpt lat="43.61827" lon="11.81341"><ele>323</ele><time>2012-05-28T15:27:37Z</time></trkpt><trkpt lat="43.61824" lon="11.81335"><ele>322</ele><time>2012-05-28T15:27:38Z</time></trkpt><trkpt lat="43.61815" lon="11.81326"><ele>322</ele><time>2012-05-28T15:27:40Z</time></trkpt><trkpt lat="43.61808" lon="11.81317"><ele>322</ele><time>2012-05-28T15:27:42Z</time></trkpt><trkpt lat="43.61804" lon="11.81314"><ele>322</ele><time>2012-05-28T15:27:43Z</time></trkpt><trkpt lat="43.61801" lon="11.81310"><ele>322</ele><time>2012-05-28T15:27:44Z</time></trkpt><trkpt lat="43.61797" lon="11.81304"><ele>322</ele><time>2012-05-28T15:27:45Z</time></trkpt><trkpt lat="43.61787" lon="11.81293"><ele>322</ele><time>2012-05-28T15:27:47Z</time></trkpt><trkpt lat="43.61788" lon="11.81285"><ele>324</ele><time>2012-05-28T15:27:48Z</time></trkpt><trkpt lat="43.61785" lon="11.81279"><ele>325</ele><time>2012-05-28T15:27:49Z</time></trkpt><trkpt lat="43.61784" lon="11.81270"><ele>326</ele><time>2012-05-28T15:27:50Z</time></trkpt><trkpt lat="43.61782" lon="11.81261"><ele>327</ele><time>2012-05-28T15:27:51Z</time></trkpt><trkpt lat="43.61781" lon="11.81253"><ele>328</ele><time>2012-05-28T15:27:52Z</time></trkpt><trkpt lat="43.61777" lon="11.81234"><ele>331</ele><time>2012-05-28T15:27:55Z</time></trkpt><trkpt lat="43.61774" lon="11.81219"><ele>331</ele><time>2012-05-28T15:27:57Z</time></trkpt><trkpt lat="43.61770" lon="11.81210"><ele>332</ele><time>2012-05-28T15:27:59Z</time></trkpt><trkpt lat="43.61768" lon="11.81204"><ele>331</ele><time>2012-05-28T15:28:00Z</time></trkpt><trkpt lat="43.61767" lon="11.81199"><ele>330</ele><time>2012-05-28T15:28:01Z</time></trkpt><trkpt lat="43.61764" lon="11.81192"><ele>330</ele><time>2012-05-28T15:28:02Z</time></trkpt><trkpt lat="43.61760" lon="11.81188"><ele>330</ele><time>2012-05-28T15:28:03Z</time></trkpt><trkpt lat="43.61753" lon="11.81180"><ele>329</ele><time>2012-05-28T15:28:05Z</time></trkpt><trkpt lat="43.61750" lon="11.81177"><ele>330</ele><time>2012-05-28T15:28:06Z</time></trkpt><trkpt lat="43.61747" lon="11.81173"><ele>329</ele><time>2012-05-28T15:28:07Z</time></trkpt><trkpt lat="43.61745" lon="11.81169"><ele>329</ele><time>2012-05-28T15:28:08Z</time></trkpt><trkpt lat="43.61742" lon="11.81166"><ele>329</ele><time>2012-05-28T15:28:09Z</time></trkpt><trkpt lat="43.61733" lon="11.81158"><ele>328</ele><time>2012-05-28T15:28:12Z</time></trkpt><trkpt lat="43.61730" lon="11.81153"><ele>328</ele><time>2012-05-28T15:28:13Z</time></trkpt><trkpt lat="43.61726" lon="11.81149"><ele>328</ele><time>2012-05-28T15:28:14Z</time></trkpt><trkpt lat="43.61703" lon="11.81120"><ele>327</ele><time>2012-05-28T15:28:23Z</time></trkpt><trkpt lat="43.61694" lon="11.81125"><ele>335</ele><time>2012-05-28T15:28:25Z</time></trkpt><trkpt lat="43.61691" lon="11.81126"><ele>336</ele><time>2012-05-28T15:28:26Z</time></trkpt><trkpt lat="43.61688" lon="11.81126"><ele>336</ele><time>2012-05-28T15:28:27Z</time></trkpt><trkpt lat="43.61681" lon="11.81124"><ele>336</ele><time>2012-05-28T15:28:29Z</time></trkpt><trkpt lat="43.61678" lon="11.81124"><ele>335</ele><time>2012-05-28T15:28:30Z</time></trkpt><trkpt lat="43.61674" lon="11.81123"><ele>336</ele><time>2012-05-28T15:28:31Z</time></trkpt><trkpt lat="43.61670" lon="11.81121"><ele>335</ele><time>2012-05-28T15:28:32Z</time></trkpt><trkpt lat="43.61665" lon="11.81120"><ele>335</ele><time>2012-05-28T15:28:33Z</time></trkpt><trkpt lat="43.61652" lon="11.81118"><ele>334</ele><time>2012-05-28T15:28:36Z</time></trkpt><trkpt lat="43.61636" lon="11.81111"><ele>334</ele><time>2012-05-28T15:28:38Z</time></trkpt><trkpt lat="43.61631" lon="11.81107"><ele>334</ele><time>2012-05-28T15:28:39Z</time></trkpt><trkpt lat="43.61623" lon="11.81104"><ele>333</ele><time>2012-05-28T15:28:40Z</time></trkpt><trkpt lat="43.61617" lon="11.81100"><ele>334</ele><time>2012-05-28T15:28:41Z</time></trkpt><trkpt lat="43.61612" lon="11.81095"><ele>334</ele><time>2012-05-28T15:28:42Z</time></trkpt><trkpt lat="43.61607" lon="11.81091"><ele>333</ele><time>2012-05-28T15:28:43Z</time></trkpt><trkpt lat="43.61601" lon="11.81085"><ele>333</ele><time>2012-05-28T15:28:44Z</time></trkpt><trkpt lat="43.61596" lon="11.81080"><ele>332</ele><time>2012-05-28T15:28:45Z</time></trkpt><trkpt lat="43.61585" lon="11.81063"><ele>332</ele><time>2012-05-28T15:28:47Z</time></trkpt><trkpt lat="43.61584" lon="11.81053"><ele>330</ele><time>2012-05-28T15:28:48Z</time></trkpt><trkpt lat="43.61579" lon="11.81045"><ele>330</ele><time>2012-05-28T15:28:49Z</time></trkpt><trkpt lat="43.61576" lon="11.81037"><ele>330</ele><time>2012-05-28T15:28:50Z</time></trkpt><trkpt lat="43.61565" lon="11.81006"><ele>328</ele><time>2012-05-28T15:28:54Z</time></trkpt><trkpt lat="43.61561" lon="11.81000"><ele>328</ele><time>2012-05-28T15:28:55Z</time></trkpt><trkpt lat="43.61559" lon="11.80993"><ele>327</ele><time>2012-05-28T15:28:56Z</time></trkpt><trkpt lat="43.61556" lon="11.80989"><ele>327</ele><time>2012-05-28T15:28:57Z</time></trkpt><trkpt lat="43.61554" lon="11.80978"><ele>325</ele><time>2012-05-28T15:28:59Z</time></trkpt><trkpt lat="43.61550" lon="11.80964"><ele>324</ele><time>2012-05-28T15:29:01Z</time></trkpt><trkpt lat="43.61550" lon="11.80956"><ele>324</ele><time>2012-05-28T15:29:02Z</time></trkpt><trkpt lat="43.61548" lon="11.80949"><ele>323</ele><time>2012-05-28T15:29:03Z</time></trkpt><trkpt lat="43.61548" lon="11.80931"><ele>323</ele><time>2012-05-28T15:29:05Z</time></trkpt><trkpt lat="43.61546" lon="11.80920"><ele>322</ele><time>2012-05-28T15:29:06Z</time></trkpt><trkpt lat="43.61545" lon="11.80910"><ele>321</ele><time>2012-05-28T15:29:07Z</time></trkpt><trkpt lat="43.61544" lon="11.80905"><ele>321</ele><time>2012-05-28T15:29:08Z</time></trkpt><trkpt lat="43.61544" lon="11.80895"><ele>320</ele><time>2012-05-28T15:29:09Z</time></trkpt><trkpt lat="43.61544" lon="11.80888"><ele>320</ele><time>2012-05-28T15:29:10Z</time></trkpt><trkpt lat="43.61544" lon="11.80881"><ele>319</ele><time>2012-05-28T15:29:11Z</time></trkpt><trkpt lat="43.61545" lon="11.80859"><ele>318</ele><time>2012-05-28T15:29:13Z</time></trkpt><trkpt lat="43.61535" lon="11.80839"><ele>318</ele><time>2012-05-28T15:29:15Z</time></trkpt><trkpt lat="43.61534" lon="11.80824"><ele>318</ele><time>2012-05-28T15:29:17Z</time></trkpt><trkpt lat="43.61530" lon="11.80818"><ele>319</ele><time>2012-05-28T15:29:18Z</time></trkpt><trkpt lat="43.61527" lon="11.80809"><ele>319</ele><time>2012-05-28T15:29:19Z</time></trkpt><trkpt lat="43.61521" lon="11.80784"><ele>319</ele><time>2012-05-28T15:29:22Z</time></trkpt><trkpt lat="43.61521" lon="11.80776"><ele>319</ele><time>2012-05-28T15:29:23Z</time></trkpt><trkpt lat="43.61520" lon="11.80767"><ele>319</ele><time>2012-05-28T15:29:24Z</time></trkpt><trkpt lat="43.61517" lon="11.80759"><ele>319</ele><time>2012-05-28T15:29:25Z</time></trkpt><trkpt lat="43.61513" lon="11.80744"><ele>318</ele><time>2012-05-28T15:29:27Z</time></trkpt><trkpt lat="43.61511" lon="11.80737"><ele>319</ele><time>2012-05-28T15:29:28Z</time></trkpt><trkpt lat="43.61512" lon="11.80724"><ele>318</ele><time>2012-05-28T15:29:30Z</time></trkpt><trkpt lat="43.61511" lon="11.80718"><ele>318</ele><time>2012-05-28T15:29:31Z</time></trkpt><trkpt lat="43.61507" lon="11.80702"><ele>318</ele><time>2012-05-28T15:29:34Z</time></trkpt><trkpt lat="43.61502" lon="11.80698"><ele>319</ele><time>2012-05-28T15:29:36Z</time></trkpt><trkpt lat="43.61503" lon="11.80693"><ele>317</ele><time>2012-05-28T15:29:37Z</time></trkpt><trkpt lat="43.61506" lon="11.80691"><ele>317</ele><time>2012-05-28T15:29:38Z</time></trkpt><trkpt lat="43.61514" lon="11.80684"><ele>318</ele><time>2012-05-28T15:29:41Z</time></trkpt><trkpt lat="43.61516" lon="11.80682"><ele>320</ele><time>2012-05-28T15:29:42Z</time></trkpt><trkpt lat="43.61520" lon="11.80682"><ele>320</ele><time>2012-05-28T15:29:44Z</time></trkpt><trkpt lat="43.61524" lon="11.80685"><ele>321</ele><time>2012-05-28T15:29:46Z</time></trkpt><trkpt lat="43.61525" lon="11.80689"><ele>324</ele><time>2012-05-28T15:29:48Z</time></trkpt><trkpt lat="43.61525" lon="11.80692"><ele>324</ele><time>2012-05-28T15:29:49Z</time></trkpt><trkpt lat="43.61525" lon="11.80697"><ele>324</ele><time>2012-05-28T15:29:51Z</time></trkpt><trkpt lat="43.61524" lon="11.80703"><ele>325</ele><time>2012-05-28T15:29:53Z</time></trkpt><trkpt lat="43.61524" lon="11.80708"><ele>323</ele><time>2012-05-28T15:29:55Z</time></trkpt><trkpt lat="43.61526" lon="11.80714"><ele>322</ele><time>2012-05-28T15:29:57Z</time></trkpt><trkpt lat="43.61529" lon="11.80720"><ele>321</ele><time>2012-05-28T15:29:59Z</time></trkpt><trkpt lat="43.61531" lon="11.80725"><ele>321</ele><time>2012-05-28T15:30:01Z</time></trkpt><trkpt lat="43.61533" lon="11.80729"><ele>322</ele><time>2012-05-28T15:30:03Z</time></trkpt><trkpt lat="43.61538" lon="11.80738"><ele>324</ele><time>2012-05-28T15:30:08Z</time></trkpt><trkpt lat="43.61539" lon="11.80743"><ele>324</ele><time>2012-05-28T15:30:10Z</time></trkpt><trkpt lat="43.61541" lon="11.80748"><ele>324</ele><time>2012-05-28T15:30:12Z</time></trkpt><trkpt lat="43.61543" lon="11.80751"><ele>324</ele><time>2012-05-28T15:30:13Z</time></trkpt><trkpt lat="43.61546" lon="11.80759"><ele>323</ele><time>2012-05-28T15:30:16Z</time></trkpt><trkpt lat="43.61548" lon="11.80766"><ele>321</ele><time>2012-05-28T15:30:19Z</time></trkpt><trkpt lat="43.61549" lon="11.80768"><ele>321</ele><time>2012-05-28T15:30:20Z</time></trkpt><trkpt lat="43.61551" lon="11.80778"><ele>321</ele><time>2012-05-28T15:30:24Z</time></trkpt><trkpt lat="43.61554" lon="11.80790"><ele>320</ele><time>2012-05-28T15:30:28Z</time></trkpt><trkpt lat="43.61557" lon="11.80799"><ele>320</ele><time>2012-05-28T15:30:32Z</time></trkpt><trkpt lat="43.61561" lon="11.80813"><ele>321</ele><time>2012-05-28T15:30:40Z</time></trkpt><trkpt lat="43.61560" lon="11.80818"><ele>322</ele><time>2012-05-28T15:30:42Z</time></trkpt><trkpt lat="43.61561" lon="11.80821"><ele>322</ele><time>2012-05-28T15:30:44Z</time></trkpt><trkpt lat="43.61567" lon="11.80834"><ele>324</ele><time>2012-05-28T15:30:52Z</time></trkpt><trkpt lat="43.61569" lon="11.80838"><ele>326</ele><time>2012-05-28T15:30:54Z</time></trkpt><trkpt lat="43.61576" lon="11.80847"><ele>328</ele><time>2012-05-28T15:30:59Z</time></trkpt><trkpt lat="43.61579" lon="11.80849"><ele>329</ele><time>2012-05-28T15:31:01Z</time></trkpt><trkpt lat="43.61582" lon="11.80851"><ele>330</ele><time>2012-05-28T15:31:04Z</time></trkpt><trkpt lat="43.61585" lon="11.80851"><ele>329</ele><time>2012-05-28T15:31:06Z</time></trkpt><trkpt lat="43.61589" lon="11.80850"><ele>331</ele><time>2012-05-28T15:31:08Z</time></trkpt><trkpt lat="43.61592" lon="11.80850"><ele>330</ele><time>2012-05-28T15:31:09Z</time></trkpt><trkpt lat="43.61594" lon="11.80851"><ele>329</ele><time>2012-05-28T15:31:10Z</time></trkpt><trkpt lat="43.61604" lon="11.80852"><ele>333</ele><time>2012-05-28T15:31:15Z</time></trkpt><trkpt lat="43.61606" lon="11.80850"><ele>335</ele><time>2012-05-28T15:31:18Z</time></trkpt><trkpt lat="43.61609" lon="11.80848"><ele>335</ele><time>2012-05-28T15:31:20Z</time></trkpt><trkpt lat="43.61611" lon="11.80848"><ele>334</ele><time>2012-05-28T15:31:22Z</time></trkpt><trkpt lat="43.61615" lon="11.80845"><ele>334</ele><time>2012-05-28T15:31:26Z</time></trkpt><trkpt lat="43.61619" lon="11.80842"><ele>336</ele><time>2012-05-28T15:31:29Z</time></trkpt><trkpt lat="43.61622" lon="11.80839"><ele>336</ele><time>2012-05-28T15:31:31Z</time></trkpt><trkpt lat="43.61623" lon="11.80835"><ele>338</ele><time>2012-05-28T15:31:33Z</time></trkpt><trkpt lat="43.61624" lon="11.80832"><ele>338</ele><time>2012-05-28T15:31:37Z</time></trkpt><trkpt lat="43.61626" lon="11.80831"><ele>339</ele><time>2012-05-28T15:31:39Z</time></trkpt><trkpt lat="43.61635" lon="11.80824"><ele>338</ele><time>2012-05-28T15:31:44Z</time></trkpt><trkpt lat="43.61638" lon="11.80823"><ele>337</ele><time>2012-05-28T15:31:46Z</time></trkpt><trkpt lat="43.61641" lon="11.80823"><ele>338</ele><time>2012-05-28T15:31:49Z</time></trkpt><trkpt lat="43.61645" lon="11.80821"><ele>338</ele><time>2012-05-28T15:31:53Z</time></trkpt><trkpt lat="43.61643" lon="11.80819"><ele>344</ele><time>2012-05-28T15:31:59Z</time></trkpt><trkpt lat="43.61646" lon="11.80818"><ele>343</ele><time>2012-05-28T15:32:02Z</time></trkpt><trkpt lat="43.61648" lon="11.80816"><ele>344</ele><time>2012-05-28T15:32:04Z</time></trkpt><trkpt lat="43.61648" lon="11.80813"><ele>345</ele><time>2012-05-28T15:32:10Z</time></trkpt><trkpt lat="43.61649" lon="11.80810"><ele>347</ele><time>2012-05-28T15:32:14Z</time></trkpt><trkpt lat="43.61652" lon="11.80808"><ele>348</ele><time>2012-05-28T15:32:18Z</time></trkpt><trkpt lat="43.61654" lon="11.80808"><ele>348</ele><time>2012-05-28T15:32:20Z</time></trkpt><trkpt lat="43.61662" lon="11.80810"><ele>350</ele><time>2012-05-28T15:32:25Z</time></trkpt><trkpt lat="43.61665" lon="11.80814"><ele>350</ele><time>2012-05-28T15:32:27Z</time></trkpt><trkpt lat="43.61667" lon="11.80815"><ele>350</ele><time>2012-05-28T15:32:29Z</time></trkpt><trkpt lat="43.61670" lon="11.80819"><ele>348</ele><time>2012-05-28T15:32:31Z</time></trkpt><trkpt lat="43.61674" lon="11.80826"><ele>352</ele><time>2012-05-28T15:32:37Z</time></trkpt><trkpt lat="43.61675" lon="11.80829"><ele>353</ele><time>2012-05-28T15:32:40Z</time></trkpt><trkpt lat="43.61677" lon="11.80831"><ele>353</ele><time>2012-05-28T15:32:47Z</time></trkpt><trkpt lat="43.61679" lon="11.80831"><ele>354</ele><time>2012-05-28T15:32:55Z</time></trkpt><trkpt lat="43.61686" lon="11.80827"><ele>357</ele><time>2012-05-28T15:33:04Z</time></trkpt><trkpt lat="43.61687" lon="11.80823"><ele>360</ele><time>2012-05-28T15:33:06Z</time></trkpt><trkpt lat="43.61688" lon="11.80818"><ele>358</ele><time>2012-05-28T15:33:09Z</time></trkpt><trkpt lat="43.61688" lon="11.80813"><ele>359</ele><time>2012-05-28T15:33:11Z</time></trkpt><trkpt lat="43.61687" lon="11.80808"><ele>358</ele><time>2012-05-28T15:33:16Z</time></trkpt><trkpt lat="43.61686" lon="11.80804"><ele>357</ele><time>2012-05-28T15:33:18Z</time></trkpt><trkpt lat="43.61686" lon="11.80801"><ele>350</ele><time>2012-05-28T15:33:19Z</time></trkpt><trkpt lat="43.61687" lon="11.80791"><ele>347</ele><time>2012-05-28T15:33:22Z</time></trkpt><trkpt lat="43.61686" lon="11.80788"><ele>352</ele><time>2012-05-28T15:33:24Z</time></trkpt><trkpt lat="43.61682" lon="11.80785"><ele>354</ele><time>2012-05-28T15:33:26Z</time></trkpt><trkpt lat="43.61679" lon="11.80782"><ele>358</ele><time>2012-05-28T15:33:32Z</time></trkpt><trkpt lat="43.61680" lon="11.80779"><ele>359</ele><time>2012-05-28T15:33:34Z</time></trkpt><trkpt lat="43.61681" lon="11.80775"><ele>360</ele><time>2012-05-28T15:33:36Z</time></trkpt><trkpt lat="43.61683" lon="11.80771"><ele>360</ele><time>2012-05-28T15:33:38Z</time></trkpt><trkpt lat="43.61685" lon="11.80767"><ele>362</ele><time>2012-05-28T15:33:40Z</time></trkpt><trkpt lat="43.61687" lon="11.80763"><ele>360</ele><time>2012-05-28T15:33:42Z</time></trkpt><trkpt lat="43.61689" lon="11.80764"><ele>361</ele><time>2012-05-28T15:33:51Z</time></trkpt><trkpt lat="43.61700" lon="11.80767"><ele>361</ele><time>2012-05-28T15:33:59Z</time></trkpt><trkpt lat="43.61703" lon="11.80769"><ele>361</ele><time>2012-05-28T15:34:02Z</time></trkpt><trkpt lat="43.61705" lon="11.80767"><ele>360</ele><time>2012-05-28T15:34:04Z</time></trkpt><trkpt lat="43.61707" lon="11.80766"><ele>362</ele><time>2012-05-28T15:34:06Z</time></trkpt><trkpt lat="43.61710" lon="11.80765"><ele>363</ele><time>2012-05-28T15:34:08Z</time></trkpt><trkpt lat="43.61713" lon="11.80768"><ele>363</ele><time>2012-05-28T15:34:11Z</time></trkpt><trkpt lat="43.61715" lon="11.80771"><ele>364</ele><time>2012-05-28T15:34:13Z</time></trkpt><trkpt lat="43.61724" lon="11.80780"><ele>363</ele><time>2012-05-28T15:34:20Z</time></trkpt><trkpt lat="43.61727" lon="11.80784"><ele>363</ele><time>2012-05-28T15:34:22Z</time></trkpt><trkpt lat="43.61729" lon="11.80785"><ele>363</ele><time>2012-05-28T15:34:23Z</time></trkpt><trkpt lat="43.61733" lon="11.80786"><ele>363</ele><time>2012-05-28T15:34:25Z</time></trkpt><trkpt lat="43.61736" lon="11.80787"><ele>363</ele><time>2012-05-28T15:34:26Z</time></trkpt><trkpt lat="43.61741" lon="11.80787"><ele>364</ele><time>2012-05-28T15:34:28Z</time></trkpt><trkpt lat="43.61745" lon="11.80784"><ele>364</ele><time>2012-05-28T15:34:30Z</time></trkpt><trkpt lat="43.61748" lon="11.80781"><ele>366</ele><time>2012-05-28T15:34:32Z</time></trkpt><trkpt lat="43.61749" lon="11.80779"><ele>366</ele><time>2012-05-28T15:34:34Z</time></trkpt><trkpt lat="43.61752" lon="11.80774"><ele>366</ele><time>2012-05-28T15:34:36Z</time></trkpt><trkpt lat="43.61753" lon="11.80772"><ele>367</ele><time>2012-05-28T15:34:37Z</time></trkpt><trkpt lat="43.61755" lon="11.80769"><ele>368</ele><time>2012-05-28T15:34:38Z</time></trkpt><trkpt lat="43.61758" lon="11.80765"><ele>367</ele><time>2012-05-28T15:34:40Z</time></trkpt><trkpt lat="43.61763" lon="11.80763"><ele>367</ele><time>2012-05-28T15:34:42Z</time></trkpt><trkpt lat="43.61773" lon="11.80758"><ele>368</ele><time>2012-05-28T15:34:47Z</time></trkpt><trkpt lat="43.61777" lon="11.80755"><ele>367</ele><time>2012-05-28T15:34:49Z</time></trkpt><trkpt lat="43.61780" lon="11.80751"><ele>368</ele><time>2012-05-28T15:34:51Z</time></trkpt><trkpt lat="43.61788" lon="11.80746"><ele>371</ele><time>2012-05-28T15:34:55Z</time></trkpt><trkpt lat="43.61790" lon="11.80748"><ele>372</ele><time>2012-05-28T15:34:57Z</time></trkpt><trkpt lat="43.61792" lon="11.80752"><ele>373</ele><time>2012-05-28T15:34:59Z</time></trkpt><trkpt lat="43.61794" lon="11.80758"><ele>373</ele><time>2012-05-28T15:35:01Z</time></trkpt><trkpt lat="43.61794" lon="11.80761"><ele>373</ele><time>2012-05-28T15:35:02Z</time></trkpt><trkpt lat="43.61794" lon="11.80765"><ele>373</ele><time>2012-05-28T15:35:03Z</time></trkpt><trkpt lat="43.61795" lon="11.80768"><ele>374</ele><time>2012-05-28T15:35:06Z</time></trkpt><trkpt lat="43.61795" lon="11.80764"><ele>375</ele><time>2012-05-28T15:35:13Z</time></trkpt><trkpt lat="43.61796" lon="11.80767"><ele>375</ele><time>2012-05-28T15:35:17Z</time></trkpt><trkpt lat="43.61801" lon="11.80779"><ele>373</ele><time>2012-05-28T15:35:25Z</time></trkpt><trkpt lat="43.61802" lon="11.80783"><ele>371</ele><time>2012-05-28T15:35:27Z</time></trkpt><trkpt lat="43.61803" lon="11.80781"><ele>368</ele><time>2012-05-28T15:35:32Z</time></trkpt><trkpt lat="43.61806" lon="11.80780"><ele>368</ele><time>2012-05-28T15:35:34Z</time></trkpt><trkpt lat="43.61809" lon="11.80779"><ele>368</ele><time>2012-05-28T15:35:36Z</time></trkpt><trkpt lat="43.61812" lon="11.80778"><ele>369</ele><time>2012-05-28T15:35:38Z</time></trkpt><trkpt lat="43.61815" lon="11.80777"><ele>372</ele><time>2012-05-28T15:35:41Z</time></trkpt><trkpt lat="43.61815" lon="11.80777"><ele>372</ele><time>2012-05-28T15:35:41Z</time></trkpt></trkseg></trk></gpx>